GFSSGP_sfc_wetblb_000.txt.gz
Wetbulb
77.83 78.27 78.55 75.18 65.55 62.48 56.39 57.89 64.05 62.65 63.48 66.89 65.98 65.00 64.17 64.83 62.33 60.03 73.17 74.55 74.98 74.85 76.02 75.93 76.22 76.34 76.69 76.55 77.17 77.86 78.31 78.17 78.50 78.01 77.33 77.05 77.56 77.90 78.15 78.21 77.81 77.65 77.54 77.35 77.07 76.83 76.63 76.33 76.19
78.71 77.37 76.21 71.47 60.66 54.71 58.09 62.60 61.78 64.80 66.62 68.50 67.86 66.71 65.45 62.48 67.75 68.57 71.35 74.48 74.87 75.06 75.82 75.72 76.36 76.91 76.35 76.49 77.19 77.36 77.55 77.20 77.67 77.19 76.96 77.07 77.43 77.63 78.04 77.71 77.48 77.48 77.35 76.80 76.86 76.66 76.47 76.28 76.24
76.64 76.64 71.18 63.26 58.28 56.51 58.08 62.91 64.80 66.37 67.33 66.61 66.32 68.92 67.03 65.57 69.83 71.10 74.35 75.08 75.29 75.52 75.41 76.47 76.49 76.67 76.63 76.44 77.11 77.90 77.65 77.50 77.81 77.09 76.96 76.83 77.03 77.80 77.69 77.25 77.08 77.02 76.91 76.80 76.56 76.19 76.25 76.27 76.24
74.79 73.18 71.11 58.46 54.89 58.62 61.47 64.83 66.82 66.44 67.07 67.42 67.42 65.16 69.23 71.92 71.25 73.42 75.12 75.33 75.24 75.67 76.26 75.43 75.97 76.63 76.64 77.12 77.27 77.40 77.70 77.67 77.66 77.23 77.05 77.31 77.55 77.31 77.00 77.03 77.08 76.86 76.56 76.58 76.28 76.11 76.17 76.08 76.44
74.16 69.62 60.49 57.18 57.26 59.89 63.58 66.66 67.27 65.45 65.97 66.08 67.22 64.79 66.68 71.54 73.77 74.76 75.28 75.57 75.15 75.92 76.98 76.57 77.14 77.29 77.03 77.25 77.65 78.27 77.56 77.58 77.63 77.75 77.35 77.61 77.11 76.92 76.89 77.17 76.84 76.45 76.00 75.97 75.75 76.00 76.31 76.39 76.62
67.45 66.34 58.37 55.27 57.51 60.79 63.77 67.22 66.96 66.16 67.19 66.75 66.29 66.71 67.75 72.97 73.19 74.79 75.99 74.92 75.78 76.24 76.23 77.59 77.30 77.81 77.73 77.88 78.03 78.38 77.94 77.94 78.01 77.70 77.64 77.31 76.97 76.72 76.81 76.47 76.16 75.88 75.68 75.63 75.78 76.30 76.30 76.33 76.49
65.21 62.02 57.84 58.38 58.32 59.68 62.52 67.04 65.52 66.28 66.61 65.83 68.56 65.72 69.49 70.95 74.27 75.82 75.94 76.26 76.01 76.61 76.01 77.38 77.63 78.42 78.17 78.39 78.22 78.37 78.03 77.73 77.47 77.55 77.77 77.28 77.03 76.64 76.89 76.30 75.92 75.96 76.13 76.72 76.89 76.36 75.67 76.11 75.82
67.48 63.48 58.03 59.52 58.50 58.58 63.74 65.76 67.35 65.98 65.94 70.21 69.71 64.93 66.35 70.86 74.27 75.63 75.90 75.27 75.46 76.79 77.36 77.57 78.32 78.28 78.44 78.34 78.32 78.19 77.69 76.97 77.20 77.42 77.25 77.31 77.03 76.55 76.21 76.86 76.28 76.08 76.22 76.33 76.64 75.92 75.74 75.86 75.68
68.33 61.24 58.21 58.26 59.33 61.24 65.48 64.24 67.87 69.20 67.95 68.41 69.55 68.67 70.75 72.08 73.99 74.15 74.31 73.26 75.15 75.86 76.83 77.55 77.73 78.28 78.69 77.88 77.67 77.65 77.20 77.20 77.17 77.47 77.36 77.18 77.69 78.08 76.46 76.44 76.19 76.36 75.91 75.75 75.94 75.88 75.84 75.09 75.14
64.14 61.12 59.05 61.47 63.20 63.53 64.77 65.02 67.12 66.69 66.67 66.74 68.42 70.17 71.34 71.59 72.53 72.28 72.82 73.15 74.01 74.79 75.93 76.61 77.51 77.48 77.86 77.10 78.37 78.35 77.25 76.73 76.65 76.54 77.18 76.58 78.25 78.75 76.50 77.18 75.72 75.83 75.72 75.56 75.76 75.07 75.06 76.41 75.68
62.11 60.66 62.59 62.67 63.74 65.85 65.09 65.15 67.94 65.23 64.50 66.61 67.30 68.92 70.15 70.70 71.45 71.86 72.49 73.38 73.98 75.31 75.98 76.51 77.01 78.02 77.73 77.85 77.27 77.38 76.81 76.76 76.94 77.96 77.88 77.21 77.37 78.19 78.83 78.36 77.66 77.47 75.42 77.44 77.77 77.24 76.51 75.89 75.41
58.65 61.79 62.26 63.41 64.88 65.43 64.82 66.93 65.54 65.83 65.26 68.59 69.79 70.75 70.63 70.39 70.70 71.36 72.10 73.20 73.82 74.63 75.31 76.36 77.20 77.45 77.74 80.00 77.07 77.12 76.54 76.65 76.28 76.65 77.95 77.33 76.51 77.04 78.20 78.06 78.71 77.99 78.03 77.14 77.52 76.44 76.33 75.80 75.33
58.21 59.62 60.69 62.36 64.23 65.27 66.94 65.52 65.31 66.01 68.06 69.60 70.67 71.07 70.23 70.78 70.91 72.00 72.59 73.42 73.96 74.03 75.15 75.97 77.15 77.66 78.00 78.12 76.83 76.79 76.52 76.17 76.28 76.21 77.42 76.89 76.02 78.36 77.55 78.03 77.49 76.62 78.00 77.84 76.41 76.25 75.89 75.33 74.79
59.31 59.39 59.81 61.27 63.75 65.42 65.28 65.66 66.48 66.98 68.57 69.64 70.13 70.44 70.68 70.86 71.31 71.98 72.30 72.65 73.42 74.29 74.95 76.28 76.75 77.76 77.97 77.77 77.91 76.98 76.89 76.77 76.51 76.17 76.28 77.58 76.70 78.84 76.27 76.44 76.19 76.43 77.77 77.37 76.58 76.03 75.24 74.76 74.03
59.46 58.41 61.84 62.36 64.08 64.52 66.44 63.66 64.19 67.91 69.12 69.43 69.70 70.42 70.77 71.20 72.16 72.02 72.72 72.87 73.94 74.75 75.37 76.19 77.12 77.74 78.20 78.34 77.93 77.74 77.12 76.77 76.28 76.31 77.71 77.68 78.19 77.55 76.82 76.44 75.43 76.00 78.06 76.81 76.15 76.06 75.80 73.82 73.42
57.86 59.32 57.41 62.60 64.39 65.26 65.31 59.33 65.51 68.77 68.55 68.87 69.49 69.92 70.23 71.16 71.78 72.95 73.61 73.85 74.64 75.19 75.49 76.45 76.47 77.24 77.96 78.10 77.80 77.25 76.87 76.88 76.84 76.55 77.33 78.24 77.97 78.07 77.30 76.44 75.59 76.22 75.93 75.83 75.39 74.79 73.31 72.70 72.16
57.76 55.00 56.50 60.58 64.87 64.69 64.32 60.20 65.63 68.73 68.67 68.38 69.17 69.32 69.85 70.70 72.05 73.31 73.91 74.22 74.62 75.74 76.26 76.38 76.69 76.51 77.14 78.02 77.77 77.71 78.02 78.74 79.26 79.17 77.17 77.83 77.88 77.51 77.14 75.86 75.98 76.90 75.30 76.14 74.58 73.70 73.18 71.23 70.73
54.49 55.16 57.07 57.40 62.85 64.33 62.86 61.67 65.27 67.76 67.97 67.79 69.15 69.35 69.57 70.03 71.09 73.19 73.94 74.74 75.26 76.15 76.89 77.26 76.80 77.33 77.98 79.62 79.29 77.89 77.69 77.13 77.00 77.01 78.21 78.34 78.63 77.37 77.39 76.50 76.16 75.88 75.83 74.25 74.53 73.41 72.62 71.82 70.54
57.28 57.13 56.67 58.87 63.54 62.71 61.87 61.85 63.96 67.38 67.57 67.48 68.66 69.45 69.57 69.68 71.92 73.44 74.30 75.04 75.53 76.29 76.84 77.40 77.15 77.84 78.15 77.18 75.17 75.43 74.82 75.98 77.07 76.91 78.53 78.38 77.96 77.86 77.48 75.89 76.08 76.05 75.02 74.53 73.66 71.94 71.39 69.16 72.41
57.00 56.12 56.54 59.43 62.82 62.63 61.39 61.25 63.99 65.73 67.17 67.65 67.98 69.15 70.07 70.46 71.24 72.79 74.15 74.52 74.91 75.80 76.88 77.59 77.80 78.21 78.05 76.97 77.73 77.27 77.60 76.13 76.63 77.40 77.95 78.25 77.93 78.03 77.11 76.92 76.07 76.34 74.02 74.04 72.26 71.65 69.42 70.16 71.54
56.23 56.01 56.77 57.92 61.33 62.87 61.15 60.05 61.65 64.13 67.02 67.97 68.54 69.29 70.76 70.77 70.62 71.67 72.82 74.03 74.72 75.27 76.59 77.59 78.33 78.63 78.65 79.08 77.72 77.68 77.53 77.86 76.27 76.69 77.04 77.96 78.38 78.38 78.07 77.40 76.51 75.56 72.81 69.90 72.20 71.31 69.88 67.37 71.57
53.83 57.70 57.83 57.96 58.30 55.19 61.55 53.57 59.14 62.19 64.35 66.24 67.80 68.39 68.80 70.81 71.69 72.21 72.43 73.41 74.12 75.05 76.76 78.03 78.73 79.14 79.14 79.57 78.54 78.96 75.58 74.18 74.67 75.79 75.71 77.27 78.60 78.11 77.61 77.36 76.13 73.55 71.69 72.51 71.59 71.97 70.37 70.28 68.14
54.57 58.20 57.37 57.47 57.77 57.75 58.44 55.92 57.88 61.28 60.99 64.14 67.11 68.46 68.66 69.35 70.98 71.66 72.34 73.02 74.55 75.31 75.98 77.34 78.77 79.71 79.98 79.63 79.78 77.83 77.13 75.55 75.24 75.35 76.90 77.40 77.83 78.04 76.40 77.28 74.53 73.12 71.49 72.47 72.57 71.61 70.91 70.73 68.39
56.93 56.48 56.94 57.37 56.22 52.16 56.54 55.72 54.92 57.69 60.89 62.18 65.71 68.03 69.02 68.86 69.74 71.49 72.67 73.22 73.69 74.99 75.59 76.47 78.44 79.78 79.74 79.50 79.26 78.76 77.69 76.88 74.74 75.74 74.44 73.75 74.40 75.73 76.63 76.74 74.57 73.10 71.67 72.22 71.65 71.35 71.02 70.36 69.91
55.04 54.59 50.08 49.06 49.45 49.57 57.18 55.25 56.36 59.00 60.69 62.13 61.84 65.78 69.06 69.57 69.35 70.18 71.27 72.14 73.19 73.93 74.94 75.84 77.31 78.12 78.99 79.04 78.72 78.71 78.46 78.08 77.24 76.84 74.85 74.45 72.64 72.89 74.97 76.42 74.11 72.19 73.02 72.08 71.25 71.02 70.86 70.17 69.23
52.76 53.96 50.35 46.01 46.92 49.57 55.78 52.00 55.32 60.78 62.03 62.49 63.22 65.18 68.54 69.51 69.37 69.84 70.99 72.01 73.03 73.80 74.72 75.66 76.66 77.88 78.41 78.43 79.27 79.89 79.61 77.80 77.39 77.54 75.42 73.88 72.83 72.06 74.24 75.66 73.88 72.94 72.46 71.87 70.88 69.46 69.11 69.89 69.06
53.09 51.87 56.11 52.47 53.32 50.06 51.91 55.47 58.46 60.45 61.32 62.47 63.28 65.28 66.62 68.99 69.42 69.37 70.85 72.08 72.82 73.71 74.96 76.57 77.92 77.55 77.91 77.92 78.58 79.05 79.27 78.54 77.61 78.17 77.70 75.25 75.58 72.53 74.26 74.29 73.16 72.07 72.33 71.13 70.67 68.70 69.04 68.96 69.33
53.46 56.06 50.88 52.58 48.02 46.38 50.13 52.19 53.53 57.92 58.78 60.10 62.32 64.68 66.71 68.94 69.59 69.55 70.40 71.55 72.99 73.95 74.95 75.83 76.89 77.73 77.61 77.68 77.87 77.85 78.22 78.63 78.43 78.38 77.72 76.41 75.96 74.96 73.63 72.98 71.70 71.40 71.29 70.59 70.91 69.50 69.94 69.13 67.25
51.34 51.38 53.70 54.05 52.30 47.97 47.28 50.45 58.47 58.60 60.07 60.13 60.85 65.33 66.30 68.27 69.69 70.22 70.29 71.30 72.88 73.71 74.32 75.36 76.12 76.76 77.16 77.41 78.34 78.10 77.45 77.95 78.35 77.92 77.76 77.34 75.95 74.33 73.21 72.77 70.74 70.89 70.27 70.49 70.34 70.09 69.09 68.44 68.53
53.56 52.80 54.21 50.11 50.79 52.34 51.30 50.85 58.72 59.84 60.20 60.68 61.15 62.21 63.78 68.27 70.11 71.05 71.27 71.74 72.15 73.21 73.68 74.42 75.39 76.13 76.92 78.21 78.94 77.54 77.55 77.61 77.43 77.48 76.84 75.83 74.05 73.04 72.48 71.48 70.60 70.51 70.34 70.16 70.00 68.93 68.36 68.07 67.47

GFSSGP_sfc_wetblb_003.txt.gz
Wetbulb
77.09 77.81 77.38 73.72 62.83 59.25 57.17 60.24 62.68 62.30 63.88 67.94 67.80 65.52 63.48 63.56 62.83 61.00 71.60 74.47 74.78 73.77 74.81 75.46 76.64 77.00 77.51 78.37 78.48 78.16 78.20 77.89 78.40 78.25 78.61 78.20 78.29 79.11 78.61 77.75 77.68 77.51 77.46 77.15 76.93 76.71 76.52 76.26 76.04
77.97 78.02 77.17 72.58 62.35 53.74 54.66 62.12 60.80 64.30 66.50 68.73 68.42 67.11 65.31 62.48 69.04 69.90 71.65 73.42 74.48 74.28 74.94 75.68 77.46 76.75 76.89 77.55 77.60 77.76 77.44 77.45 77.65 77.84 77.78 77.78 77.92 78.11 77.76 77.37 77.29 77.24 77.12 76.85 76.55 76.52 76.38 76.40 76.26
78.78 77.95 70.81 66.29 58.89 55.08 56.88 62.78 64.95 66.67 67.92 67.52 66.78 68.92 66.94 63.19 70.40 71.61 74.36 74.94 73.89 74.16 75.32 76.33 77.00 76.86 77.18 77.48 77.98 78.12 77.93 77.39 77.31 77.28 77.10 77.02 77.58 77.74 77.13 76.99 77.05 76.96 76.85 76.49 76.41 76.43 76.35 76.38 76.62
75.87 73.63 71.47 59.09 55.62 61.10 62.31 64.12 66.14 65.64 67.38 68.39 68.77 66.00 69.65 71.80 70.85 73.36 74.76 74.89 74.37 75.68 75.84 76.38 77.02 77.11 77.34 78.01 78.61 78.18 77.84 77.92 77.64 77.04 76.91 77.30 77.52 77.13 76.79 76.94 76.91 76.69 76.80 76.41 76.35 76.30 76.24 76.05 76.32
75.34 70.79 63.59 56.55 57.05 60.83 65.20 66.39 66.39 64.95 66.35 67.15 68.64 66.18 67.42 72.07 74.36 74.64 74.82 74.38 74.15 75.81 75.98 76.49 77.93 77.80 77.65 77.82 77.96 78.09 77.80 77.65 77.58 77.35 77.16 77.27 77.16 76.93 77.16 77.16 76.62 76.23 76.21 75.99 75.99 76.21 76.32 76.18 76.01
68.09 66.36 57.84 55.43 56.61 60.32 64.70 66.79 66.08 66.10 67.02 66.94 67.70 67.21 68.72 73.79 73.80 74.57 74.79 74.44 74.85 74.94 75.62 76.64 77.48 77.59 77.78 78.01 78.04 77.72 77.67 77.64 77.82 77.51 77.32 77.16 76.85 76.76 76.93 76.42 76.08 75.91 75.79 75.89 76.14 75.76 75.63 75.91 75.82
67.43 62.83 57.90 57.81 57.72 58.37 61.83 66.10 64.90 65.42 66.35 66.48 69.89 66.73 69.85 72.24 74.63 74.69 75.35 75.60 74.74 76.48 75.79 77.48 77.47 78.11 78.23 78.45 77.81 78.03 77.75 77.72 77.48 77.57 77.44 77.10 76.63 76.39 76.57 75.96 75.20 75.57 76.20 76.35 76.32 75.85 75.44 75.74 75.62
67.29 62.36 58.24 60.69 57.28 56.83 62.12 64.47 65.47 65.61 66.20 70.28 71.01 66.74 67.13 72.59 75.15 75.82 75.12 74.93 74.26 76.38 75.97 76.38 77.36 77.79 78.08 78.11 78.18 77.99 77.74 77.27 77.10 77.44 77.24 76.74 76.78 76.79 75.96 75.88 75.94 75.75 75.47 75.84 75.82 75.52 75.29 75.15 75.48
66.56 60.07 58.25 58.48 59.09 59.75 62.95 62.30 65.69 68.66 67.13 68.04 69.11 70.29 72.16 74.04 75.02 74.82 73.74 73.25 73.90 74.95 76.71 76.81 77.04 77.87 78.77 78.65 78.60 78.30 77.30 76.42 76.91 77.23 77.02 77.08 76.17 76.49 77.49 77.59 75.97 75.95 75.92 75.51 75.66 75.52 75.73 75.63 75.68
63.38 59.09 59.46 61.80 63.60 62.26 62.77 62.58 64.69 65.10 65.79 66.41 67.77 71.58 72.90 73.69 73.52 73.03 72.85 72.62 74.01 74.55 75.24 76.33 76.71 77.16 77.62 76.38 78.30 77.67 76.38 76.16 76.30 76.31 76.56 76.74 77.66 78.08 76.60 77.10 76.82 76.12 76.24 75.98 76.27 76.16 76.21 76.62 75.56
62.49 60.71 63.18 62.98 63.81 64.76 63.23 63.16 65.10 64.42 63.34 66.53 66.85 69.16 71.24 72.36 72.82 72.73 72.73 73.65 73.48 74.58 75.32 76.10 76.97 77.80 77.82 76.58 76.90 76.80 76.61 76.66 76.43 77.49 77.72 77.06 76.87 77.00 76.02 76.45 77.10 77.79 76.53 76.50 75.98 75.88 75.42 75.51 75.08
59.73 63.32 63.35 63.70 63.97 64.63 63.09 64.73 63.34 63.77 64.93 68.11 69.69 70.22 70.88 71.37 71.93 72.32 72.83 73.51 73.97 74.65 75.02 76.28 77.70 77.93 77.75 77.83 76.79 76.69 76.00 75.98 75.87 76.74 78.14 77.44 76.57 78.05 76.87 76.04 77.18 77.41 75.65 76.42 76.77 75.83 75.68 75.70 75.78
59.81 61.40 62.10 62.54 64.00 64.40 65.88 63.70 62.82 63.13 66.27 68.57 70.37 70.14 70.21 71.14 72.11 73.03 73.44 73.94 74.41 74.19 75.18 76.03 77.17 77.69 78.25 78.50 76.41 76.40 76.04 75.60 75.96 76.26 77.49 77.06 75.95 77.99 78.17 76.97 76.33 76.90 77.83 76.12 75.96 75.84 75.32 75.18 75.08
61.29 61.45 61.05 61.80 62.99 64.42 64.09 63.79 64.52 64.54 67.29 68.15 69.81 69.59 70.27 70.71 71.57 72.59 73.09 73.26 73.86 74.52 74.96 75.92 76.83 77.70 77.73 78.11 78.62 77.24 76.68 77.25 76.00 75.98 76.34 77.78 77.15 76.91 76.93 78.55 76.45 75.82 76.70 76.87 75.34 75.95 75.13 75.02 74.49
61.04 58.41 60.99 61.56 62.17 62.62 64.47 62.01 61.83 65.64 68.00 67.49 68.99 69.95 69.84 70.54 71.61 71.87 72.83 73.27 74.00 74.72 75.59 75.73 76.35 77.63 77.85 78.26 78.12 76.91 76.60 76.09 76.05 75.73 77.40 77.33 77.79 77.68 77.83 77.56 76.42 76.02 76.74 77.10 76.14 75.47 74.99 74.06 71.85
58.13 59.00 56.48 61.57 61.71 62.62 63.15 59.04 64.07 66.89 66.55 66.43 68.24 69.57 69.66 70.46 71.08 72.42 73.07 73.58 74.45 74.96 75.26 76.05 76.22 76.64 77.63 78.03 78.15 77.48 76.72 77.24 76.46 76.46 76.54 77.92 78.16 78.37 78.27 76.18 75.60 76.79 76.21 77.09 75.41 73.36 72.18 71.22 70.60
57.69 54.17 56.29 58.49 62.43 63.23 62.34 59.70 65.06 67.64 66.07 66.03 67.60 68.94 69.78 70.34 71.41 72.66 73.27 73.68 74.22 75.29 75.62 75.96 76.88 76.61 77.44 79.45 78.51 77.77 79.17 77.48 78.06 77.91 78.37 78.65 78.53 78.78 77.73 76.29 76.59 77.65 76.10 75.54 74.56 73.88 73.30 70.00 69.96
54.60 55.01 57.27 58.75 60.38 63.23 60.95 60.65 65.18 66.89 66.75 64.97 66.56 67.97 69.39 69.60 70.69 72.62 73.34 74.03 74.41 75.16 76.05 76.55 76.63 78.05 78.56 80.73 80.28 78.78 76.74 77.00 77.50 77.24 77.42 78.63 77.98 78.40 77.92 76.62 76.80 76.52 76.71 74.42 73.26 73.57 71.52 70.59 70.20
57.72 57.24 56.61 58.82 60.85 61.22 61.19 61.25 63.77 66.33 66.51 65.85 65.85 66.79 68.36 69.35 71.60 72.70 73.61 74.16 74.18 75.00 75.77 77.01 77.40 79.76 77.81 76.39 76.63 76.17 74.82 76.28 76.35 76.52 78.98 79.03 78.36 78.45 77.85 76.65 77.12 75.94 75.63 74.95 73.34 71.65 71.19 69.44 70.91
56.71 56.47 57.05 59.33 59.84 60.78 60.66 60.55 63.36 66.69 66.49 66.70 66.39 66.46 67.29 68.93 70.34 71.95 73.21 73.76 73.81 74.68 76.01 77.95 78.40 79.88 78.97 77.12 77.81 77.73 76.49 75.61 75.95 76.31 78.77 78.43 78.14 78.59 77.48 78.32 76.32 76.36 74.91 74.71 72.97 71.65 68.97 69.28 70.58
56.18 55.85 56.82 56.99 61.21 62.49 60.76 59.21 61.00 64.22 67.24 67.84 67.52 68.12 68.16 68.39 68.73 71.08 72.21 73.34 74.03 74.76 76.42 78.34 79.96 80.50 80.07 80.25 78.34 79.11 79.11 77.27 76.84 76.20 76.55 77.77 78.34 78.50 78.32 77.47 77.23 77.08 74.56 69.01 72.65 71.18 69.83 67.07 70.74
53.65 57.60 57.87 57.71 57.05 55.23 60.08 53.58 60.09 61.91 63.47 66.48 67.48 67.76 67.79 68.57 69.49 70.71 72.11 73.22 73.76 74.98 76.42 78.99 80.45 80.80 80.77 80.89 78.67 79.15 75.59 73.32 73.59 75.01 75.45 77.11 78.55 78.11 78.11 77.76 76.74 76.49 72.12 73.66 71.69 71.03 70.56 70.35 68.27
54.61 57.96 57.82 57.93 57.78 57.58 56.89 54.88 57.93 61.32 60.76 63.63 66.82 68.03 68.31 68.71 69.60 70.16 71.72 73.17 74.23 75.08 75.69 77.70 80.82 81.28 81.40 80.56 79.93 77.06 76.88 74.85 75.30 74.39 79.26 78.43 79.34 77.40 76.42 76.29 76.75 74.85 71.25 72.80 72.22 71.16 71.31 71.03 68.69
57.34 56.72 57.51 57.49 56.64 52.12 56.76 54.90 56.99 58.03 61.13 62.94 65.66 67.97 69.11 69.48 69.60 71.39 72.21 73.36 73.68 74.91 75.53 77.35 80.38 81.18 81.82 80.96 79.88 79.74 79.00 77.53 74.88 75.66 75.12 74.99 74.67 75.96 76.30 75.57 76.55 74.72 71.82 72.02 71.71 71.63 71.42 70.95 70.48
55.45 54.31 49.81 49.46 49.99 49.51 56.78 55.90 57.80 62.05 62.33 63.23 63.30 65.23 68.65 70.23 69.67 70.46 71.70 72.27 73.71 75.06 76.16 77.47 79.87 80.78 81.39 80.18 80.15 79.88 79.23 79.79 78.66 77.86 75.48 76.11 72.83 73.38 76.68 76.42 76.63 73.92 73.19 72.43 72.11 72.07 71.90 70.76 69.70
53.41 53.76 49.91 46.31 48.09 50.67 56.15 52.83 56.63 62.85 63.50 63.27 64.05 63.87 66.61 69.49 70.35 69.67 71.33 73.06 74.56 75.11 76.96 77.66 78.90 80.45 81.38 80.72 81.19 81.45 81.15 77.47 76.95 77.99 76.30 74.23 73.62 73.48 76.26 75.76 75.80 74.72 72.68 72.55 72.51 70.23 69.48 71.95 69.69
52.81 51.68 55.99 52.52 54.17 51.26 53.50 56.48 59.66 62.04 62.35 62.48 62.63 62.98 63.57 67.93 70.00 70.12 70.59 72.18 73.95 74.55 76.44 77.55 78.83 80.03 80.77 78.85 81.42 81.26 81.00 80.45 77.40 79.73 79.39 76.34 77.95 73.98 73.81 74.91 75.26 74.53 72.83 72.86 72.85 69.43 71.58 70.11 70.08
52.48 55.73 51.31 53.35 48.43 47.46 51.42 53.33 54.14 58.77 59.55 60.80 62.02 62.34 63.81 66.39 69.96 70.31 70.35 71.41 73.62 73.97 75.68 77.69 79.01 79.77 79.55 80.00 80.54 79.98 80.09 80.71 80.33 80.68 79.85 78.90 77.92 76.14 75.90 74.46 74.26 73.76 73.71 73.63 73.31 71.55 72.02 70.99 68.81
50.81 51.10 53.69 53.97 52.84 48.79 48.25 52.17 59.20 60.15 61.45 60.73 61.88 62.57 63.77 66.19 69.25 70.54 70.51 71.16 72.68 73.26 74.68 75.89 77.26 78.96 79.35 79.95 79.84 80.00 79.20 79.70 79.99 79.48 79.25 79.02 77.97 77.31 75.96 75.52 74.45 73.08 72.55 71.96 71.94 71.60 70.77 71.28 71.31
53.30 51.90 52.40 51.27 51.63 52.35 52.46 52.23 60.07 60.58 60.93 61.50 62.17 62.97 64.26 66.63 68.95 70.50 70.91 70.99 71.51 73.35 73.29 74.01 75.28 75.78 77.95 79.66 80.55 80.23 80.12 79.60 79.11 79.27 79.48 79.26 78.03 77.30 75.71 75.10 73.47 72.10 71.70 70.95 71.47 69.88 69.48 69.38 68.42

GFSSGP_sfc_wetblb_006.txt.gz
Wetbulb
76.27 76.43 76.32 72.91 62.05 59.68 56.83 58.16 63.42 60.11 62.83 66.93 66.87 64.14 63.85 65.93 62.92 58.94 72.30 73.40 73.36 73.05 73.94 75.30 77.44 77.85 77.94 78.30 78.38 78.84 78.71 78.72 78.95 78.87 79.14 79.17 79.19 78.87 78.73 78.63 78.45 78.26 78.03 77.08 76.91 76.66 76.66 76.27 75.67
76.04 76.38 74.92 65.72 57.14 53.62 56.89 61.70 60.14 63.89 66.37 67.73 67.10 65.63 64.44 63.78 68.20 68.56 70.53 73.46 73.72 73.48 73.90 74.53 77.40 78.22 78.20 78.30 78.31 78.45 78.26 78.33 78.57 78.66 78.78 79.11 79.09 78.63 78.32 77.68 77.43 77.32 77.40 76.92 76.58 76.69 76.47 76.75 76.02
76.41 76.75 70.07 64.47 58.79 53.90 55.63 60.31 63.48 65.87 67.07 66.80 65.31 68.16 65.81 66.14 69.26 70.19 72.63 73.70 73.19 73.49 74.78 75.15 77.89 77.90 78.37 78.32 78.42 78.28 78.16 78.08 78.34 78.46 78.38 78.82 78.68 78.45 78.07 77.33 77.00 76.86 76.77 76.75 76.64 76.64 76.28 76.31 76.55
74.93 73.28 71.20 63.15 57.60 59.60 61.43 63.00 64.99 65.03 67.70 68.58 68.13 64.00 68.24 71.36 71.02 71.86 73.43 73.82 73.92 74.99 75.02 76.55 77.81 77.59 78.18 78.40 78.65 78.25 78.29 78.30 78.36 78.23 78.43 78.59 78.21 77.61 77.23 77.00 76.47 76.36 76.45 76.50 76.70 76.64 76.61 76.25 76.55
75.75 70.54 61.75 60.45 58.51 62.74 64.50 65.92 65.82 64.16 66.17 66.62 67.01 64.05 66.08 71.54 73.06 73.42 73.37 73.74 73.93 73.96 75.04 75.49 78.14 78.22 78.20 78.32 78.54 77.84 77.78 78.01 78.34 78.23 78.21 78.00 77.64 77.17 77.14 76.61 76.21 76.21 76.47 76.30 76.53 76.19 76.14 75.97 76.14
64.70 67.13 58.81 54.24 56.27 61.05 64.27 66.91 66.17 64.90 66.82 66.54 66.50 65.89 66.69 71.68 71.91 73.17 73.82 73.47 74.51 73.65 74.90 75.45 77.81 78.16 78.24 78.60 78.82 78.52 78.18 77.92 78.16 77.93 77.58 77.45 77.11 77.14 76.89 76.18 76.05 75.91 76.37 76.66 76.83 75.83 75.81 75.72 75.28
60.51 61.76 59.60 58.50 56.58 59.23 61.98 65.73 63.84 65.01 65.82 65.89 69.21 64.13 67.50 70.06 72.51 73.56 73.85 74.63 74.76 75.10 75.16 75.52 75.96 77.36 78.17 78.58 78.66 78.57 77.86 77.86 77.62 77.36 77.42 77.14 76.75 76.86 76.97 76.26 75.53 75.97 76.26 76.33 76.33 75.30 75.09 75.25 75.14
64.23 64.35 58.88 59.51 56.52 55.85 62.15 64.05 65.37 64.75 65.32 69.74 70.43 64.80 64.99 70.00 73.52 74.22 74.03 74.04 74.84 74.48 75.39 76.52 76.63 76.38 76.95 76.78 78.80 77.76 77.65 77.33 77.47 77.42 77.17 77.09 76.71 77.02 77.44 77.24 77.17 75.96 75.25 75.60 75.89 75.14 75.03 74.75 75.22
67.74 59.02 58.04 58.42 58.27 58.00 62.35 61.06 66.03 68.69 66.54 68.94 69.48 69.17 71.08 73.20 74.12 72.81 72.39 73.19 72.84 74.35 74.88 75.70 75.78 76.94 77.99 77.31 77.14 78.02 77.62 77.09 77.34 76.92 77.34 77.42 75.28 75.58 76.67 78.06 77.67 76.38 76.60 75.94 75.94 75.78 75.61 75.53 76.13
62.94 60.00 59.10 61.98 62.43 60.47 61.99 61.93 63.16 63.85 64.63 65.85 68.17 70.58 72.00 73.25 72.62 71.40 71.04 71.16 72.19 72.44 74.66 74.39 75.11 76.73 76.93 75.97 77.76 77.92 76.29 75.21 76.02 76.06 76.75 76.08 74.00 76.82 77.32 77.95 76.86 77.50 77.34 75.75 76.47 76.56 75.92 77.03 75.86
63.23 58.47 62.37 63.07 63.53 63.59 61.92 61.94 63.26 63.23 61.93 65.47 67.42 69.01 70.54 71.77 72.38 71.57 71.85 72.00 72.53 73.70 74.25 74.95 76.21 77.55 77.15 76.59 76.90 76.31 75.99 76.05 76.30 78.99 77.26 78.12 76.66 74.99 73.42 74.45 72.93 75.98 75.64 74.55 75.53 76.10 75.24 76.30 74.75
59.21 62.49 62.99 63.10 63.65 63.61 61.59 63.36 62.05 63.61 63.85 67.69 70.04 71.03 70.93 70.71 71.00 71.04 71.28 71.82 72.99 74.11 75.34 76.45 77.00 77.88 77.55 77.37 76.75 77.32 76.25 75.91 76.17 76.75 79.42 79.89 78.33 77.28 73.31 73.63 73.19 74.82 73.97 74.20 75.53 74.91 74.87 74.41 75.70
58.84 61.83 63.11 62.99 63.23 63.57 63.84 62.51 62.13 62.51 66.23 68.32 69.27 70.52 70.45 70.57 70.88 72.03 72.22 73.23 73.55 72.76 75.36 75.80 77.13 78.39 78.71 78.72 76.65 76.46 76.63 76.25 75.10 77.46 78.20 77.41 78.09 76.13 73.63 78.05 78.23 78.18 77.05 75.76 76.54 75.13 74.78 75.97 75.43
60.36 60.63 61.24 61.90 61.91 62.90 63.32 62.70 62.60 63.03 66.02 66.90 67.95 68.58 69.95 70.62 70.97 71.92 72.06 72.50 73.48 73.75 74.30 75.98 77.15 78.45 77.36 78.65 81.16 79.41 79.47 75.30 78.28 74.86 77.83 79.37 79.44 78.98 74.12 77.69 75.75 76.16 75.78 77.91 76.13 76.57 75.91 74.32 73.70
59.90 57.97 59.85 60.25 60.85 61.67 63.73 61.10 61.04 64.26 64.69 65.88 66.94 67.77 69.07 70.29 71.56 71.79 72.20 72.76 73.75 74.38 75.37 76.20 76.85 77.32 77.66 79.30 79.64 80.02 77.15 76.25 76.24 76.41 76.51 78.81 79.44 79.38 79.88 78.10 77.98 76.77 76.54 78.12 76.18 76.47 73.58 71.44 72.14
56.47 57.62 54.87 59.49 60.89 61.71 61.99 57.91 61.64 64.98 63.98 64.10 66.63 67.19 68.06 69.25 70.48 72.46 72.97 73.15 73.98 74.62 75.58 76.50 75.05 76.81 77.04 77.59 78.16 77.78 76.70 77.48 77.67 78.98 74.84 78.46 79.71 80.23 80.21 77.29 74.48 72.48 76.83 76.66 74.25 73.93 74.04 70.84 70.99
55.30 52.47 54.30 56.46 61.41 60.86 60.35 59.02 62.84 65.39 64.60 63.68 65.61 66.94 67.39 69.03 70.32 72.19 72.78 73.81 74.10 75.52 76.40 76.21 77.18 76.65 77.45 77.76 78.12 77.95 77.44 77.40 77.12 79.10 77.99 76.83 75.11 78.96 78.03 77.17 74.99 76.55 75.98 76.47 73.53 70.75 73.12 70.20 70.87
51.57 53.20 55.14 55.69 59.90 59.90 58.78 58.45 60.66 64.20 64.25 64.09 64.51 66.14 67.69 67.66 69.13 71.73 72.54 73.39 74.40 75.30 76.61 76.77 76.59 79.00 77.73 78.22 78.53 77.90 77.56 76.03 77.12 76.99 77.73 76.24 77.67 78.88 78.50 77.31 76.87 78.39 77.91 74.52 75.04 73.38 73.07 71.34 70.18
54.90 55.73 54.99 57.46 61.33 59.19 60.01 58.19 57.97 61.94 64.98 63.54 64.85 65.26 66.73 68.14 70.39 71.84 72.54 73.32 73.68 75.12 76.08 76.19 76.53 78.23 78.85 77.48 75.69 75.83 75.11 76.93 76.61 77.06 76.83 77.59 79.44 79.01 78.89 77.28 77.30 75.28 77.23 72.04 73.08 73.04 71.07 70.64 71.36
55.05 54.59 55.48 58.25 60.87 60.20 59.49 60.10 60.40 64.47 64.85 65.10 64.06 64.87 65.70 66.72 68.94 71.17 72.33 72.60 73.10 74.11 75.08 76.76 76.84 78.50 78.06 77.81 77.38 77.09 76.14 75.71 75.98 76.90 77.69 78.51 78.01 79.16 76.60 77.52 76.30 75.19 74.65 74.67 73.48 72.49 70.10 70.00 71.64
54.49 54.05 55.12 55.82 59.20 60.22 58.61 57.19 61.05 64.13 64.92 65.44 65.89 65.98 66.28 67.14 67.19 70.47 71.69 72.26 73.30 73.79 75.26 76.06 77.39 77.88 77.89 78.23 77.97 78.31 78.11 76.28 75.69 76.91 76.81 78.15 78.82 78.59 75.59 77.12 77.75 77.02 75.75 72.95 73.61 72.43 71.09 68.24 72.12
52.10 56.45 56.20 55.93 56.35 53.37 59.23 51.08 59.62 60.83 63.82 64.27 65.13 65.74 66.07 67.20 68.59 70.05 71.52 72.52 73.13 73.89 75.73 77.07 77.87 78.18 78.80 77.86 77.42 76.29 74.56 74.47 76.05 76.89 76.20 77.58 78.74 78.49 78.46 78.46 78.17 77.18 74.46 74.52 73.13 72.45 70.98 71.52 68.21
54.19 57.30 56.20 55.99 55.10 56.76 57.66 54.54 57.97 62.09 60.87 64.00 65.23 66.03 66.89 68.02 68.12 68.88 71.36 72.67 73.71 74.76 75.58 76.72 78.21 78.41 78.56 78.42 77.95 76.77 76.28 75.25 75.64 75.13 79.15 77.64 78.71 77.78 76.89 77.61 77.46 76.06 74.40 74.64 72.66 71.89 71.20 71.99 69.93
56.80 55.71 55.53 55.65 54.90 50.52 55.54 54.27 54.95 58.97 59.81 61.54 65.23 66.87 67.68 68.23 68.90 69.80 71.82 72.97 73.43 74.70 76.00 76.14 78.20 78.40 78.95 78.86 77.92 77.88 75.56 75.75 74.33 76.25 76.11 75.92 76.17 77.20 78.17 76.87 76.51 75.95 74.00 73.80 72.86 72.99 73.04 71.70 71.43
53.77 52.45 48.90 47.74 48.96 48.71 55.65 54.72 57.25 61.65 62.97 63.11 62.39 65.74 68.43 69.26 69.23 69.68 70.62 71.96 73.17 73.81 74.98 76.11 77.59 77.87 78.86 78.90 77.93 77.69 77.86 76.87 77.85 78.63 76.24 75.95 74.09 75.02 75.89 76.82 76.18 74.62 74.33 74.18 73.59 72.98 73.06 71.70 70.76
51.83 51.74 49.49 44.56 46.71 49.10 55.66 51.93 56.51 63.26 64.20 64.55 64.66 65.47 68.10 69.09 69.58 69.87 71.01 71.92 73.08 73.70 74.97 75.87 77.07 77.62 78.84 78.55 78.43 78.33 77.93 76.98 76.98 77.95 76.42 76.05 74.45 75.18 74.96 75.68 76.24 75.96 73.19 73.26 73.03 71.93 70.95 71.59 70.64
51.35 49.32 53.73 50.49 52.08 49.82 52.38 55.57 58.41 61.53 62.79 62.49 62.34 64.61 65.24 68.33 69.75 70.06 71.54 72.36 73.35 73.62 74.62 75.63 77.17 77.91 78.83 79.05 78.87 79.09 78.30 77.57 76.92 77.58 77.83 76.97 76.50 76.32 75.84 75.21 75.70 74.80 73.70 73.11 73.33 70.19 70.57 71.30 71.70
52.22 54.37 48.33 50.13 46.01 45.90 50.36 52.89 54.79 59.14 61.50 63.15 63.39 63.32 64.27 65.83 69.81 70.57 70.86 72.83 73.62 74.40 74.87 76.46 77.07 78.06 79.24 79.08 79.10 79.07 78.99 78.45 78.01 77.45 77.66 75.89 76.39 76.61 74.45 75.24 74.32 74.48 72.71 73.40 72.71 70.88 71.76 70.51 70.24
50.50 49.63 50.89 51.58 51.28 48.20 47.74 51.47 60.51 61.84 63.50 63.49 63.79 63.73 64.01 65.22 68.85 69.73 71.23 72.13 73.92 74.80 74.88 75.56 76.18 77.68 78.56 79.04 78.88 78.91 78.85 78.82 78.28 78.82 78.48 76.71 77.53 75.48 75.18 74.18 74.21 73.80 72.83 72.90 71.67 70.98 70.38 69.95 70.14
53.29 51.51 50.93 47.61 49.24 51.29 51.04 51.97 59.78 62.80 63.26 62.72 63.42 63.68 64.91 65.44 67.52 69.60 71.55 71.48 72.70 73.52 74.15 75.05 76.11 77.29 78.12 78.63 78.82 78.66 78.85 78.90 78.54 77.55 78.51 77.52 77.76 76.13 74.66 74.82 74.11 73.56 71.59 72.25 70.98 69.66 68.73 70.02 69.10

GFSSGP_sfc_wetblb_009.txt.gz
Wetbulb
75.60 75.37 74.11 71.00 60.83 58.96 55.83 57.55 62.84 61.39 61.58 65.37 66.29 64.96 63.46 64.47 61.67 56.65 69.25 71.70 72.17 72.46 74.14 75.06 77.18 77.69 78.12 78.30 78.94 78.72 79.13 79.13 79.24 79.23 79.25 79.14 78.42 78.46 78.69 77.93 78.02 77.90 77.81 76.98 76.70 76.73 76.40 75.82 75.43
74.77 74.13 69.14 62.93 57.50 52.54 55.46 60.07 59.66 62.97 64.60 65.88 66.34 65.84 64.02 61.59 66.79 67.07 68.69 72.07 72.48 72.84 73.29 74.95 77.33 77.94 78.38 78.44 78.80 78.58 78.46 78.17 78.99 78.99 79.20 78.93 78.47 78.58 78.18 77.41 77.32 77.46 77.44 76.76 76.46 76.35 76.73 76.15 75.57
74.79 74.99 66.70 61.57 56.81 51.86 53.64 60.33 62.69 64.75 66.54 65.91 64.57 67.12 65.78 63.19 67.83 68.65 71.38 72.14 72.26 72.10 73.13 75.08 78.17 78.05 78.51 78.66 78.56 78.52 78.58 78.42 78.78 78.90 79.00 78.83 78.33 78.02 77.44 77.25 77.03 76.97 76.89 76.65 76.40 76.41 76.35 76.34 75.81
72.81 71.18 66.39 59.95 56.27 59.07 59.31 61.80 62.79 64.45 66.39 67.29 66.28 63.58 66.78 70.20 69.49 70.79 72.62 72.25 72.18 72.54 74.10 77.28 78.43 78.41 78.30 78.55 78.75 78.33 78.22 78.43 78.55 78.46 79.13 78.54 78.39 77.37 77.29 76.90 76.79 76.66 76.68 76.71 76.54 76.74 76.13 75.85 75.92
72.75 68.13 60.68 58.92 58.39 60.22 62.76 64.03 65.75 63.95 65.02 65.45 66.25 63.04 64.56 69.05 71.27 72.02 71.85 73.56 72.21 72.67 74.50 76.03 78.15 78.42 78.56 78.78 78.59 78.54 78.08 77.94 78.34 78.63 78.79 78.67 78.37 77.89 77.29 76.60 76.46 76.35 76.68 77.13 76.82 75.82 75.82 75.43 75.57
63.11 64.01 57.83 54.03 56.96 61.49 63.52 65.10 65.67 64.47 65.06 65.82 65.13 64.59 65.02 70.18 70.47 71.35 72.72 72.37 73.21 72.72 73.93 75.51 77.98 78.35 78.63 78.25 77.86 78.33 78.35 78.09 78.50 78.63 78.58 78.59 78.53 78.48 77.92 77.10 77.27 76.54 76.31 76.40 76.43 75.66 75.54 75.29 75.18
61.60 58.59 57.28 55.36 56.24 58.77 61.97 65.82 64.63 64.56 64.79 64.93 67.62 62.24 66.02 68.60 70.75 72.47 73.16 73.40 72.58 73.46 73.46 74.84 75.42 76.71 78.33 78.87 78.31 78.18 78.67 78.49 78.46 78.58 78.49 78.34 78.27 78.03 77.40 77.30 76.74 76.37 76.03 76.01 75.79 75.10 75.18 75.49 75.54
62.24 60.39 57.84 56.64 55.73 54.67 61.86 63.33 66.21 65.64 65.09 69.38 68.45 62.42 63.14 68.38 71.63 72.13 72.87 72.37 72.99 73.39 73.69 73.81 74.87 75.24 75.65 76.49 78.46 77.88 78.02 77.97 77.79 78.12 78.05 78.18 77.66 77.10 77.13 77.86 77.29 75.61 75.41 75.51 75.76 75.35 75.82 76.06 76.30
66.49 56.75 54.79 56.37 57.19 56.02 60.56 62.97 67.29 68.64 66.62 67.61 68.16 67.47 69.27 71.28 72.15 71.39 70.73 71.53 71.87 72.87 73.24 73.60 74.24 74.55 74.64 74.88 76.48 78.06 77.91 77.83 77.91 77.80 78.23 77.08 74.01 73.66 75.31 75.67 76.89 75.84 75.86 75.45 75.76 76.13 76.75 76.80 76.88
60.25 56.81 57.98 61.38 61.51 58.33 60.72 64.22 64.71 66.09 65.60 65.24 67.13 69.60 70.75 71.65 70.69 69.90 69.48 69.44 69.83 71.85 72.89 73.74 74.02 74.28 74.17 75.77 75.01 74.82 74.77 73.91 74.23 74.51 74.11 74.31 73.81 73.05 75.85 75.13 72.99 76.18 76.96 76.38 76.57 77.23 76.98 76.96 73.89
59.92 56.32 60.65 61.90 62.88 61.35 59.82 60.49 63.27 64.02 62.94 65.25 65.21 67.59 69.61 70.22 69.84 69.80 69.64 69.90 70.38 72.09 73.03 73.35 74.07 74.49 74.03 73.82 74.70 74.88 73.41 72.52 73.21 73.12 73.26 72.84 74.41 71.72 72.53 71.21 67.22 71.05 75.30 73.47 73.88 74.69 74.07 73.41 70.90
57.38 60.78 61.60 62.27 63.26 61.36 59.56 60.20 61.80 62.55 65.18 68.64 69.04 69.76 69.98 69.05 69.11 69.24 69.13 70.06 70.98 71.27 72.38 73.22 74.41 73.77 74.84 74.81 74.48 74.16 72.87 72.87 72.56 74.18 73.33 73.71 73.01 72.03 72.32 69.81 71.65 72.16 72.25 73.67 72.46 72.58 73.52 71.73 72.71
57.41 59.23 61.70 62.74 63.12 61.01 62.22 60.43 61.63 62.28 68.31 69.73 69.58 69.60 69.11 68.99 69.30 69.92 70.28 70.94 71.39 71.00 72.60 73.13 73.80 74.42 74.59 74.18 73.56 73.52 73.46 73.78 72.92 74.69 73.64 72.93 73.33 70.98 71.74 71.68 71.72 72.54 72.41 72.23 71.26 73.17 72.91 71.55 72.73
58.18 58.68 60.80 61.76 60.02 62.10 60.41 60.32 61.02 64.23 68.99 68.66 68.75 67.79 68.73 69.41 69.70 69.76 69.49 69.80 70.91 72.57 73.26 74.03 74.41 75.01 74.26 74.68 74.33 73.89 74.44 73.00 73.74 74.96 74.52 73.72 73.99 72.84 72.20 72.20 71.85 73.30 73.48 74.35 73.43 71.92 71.70 71.05 70.54
57.13 54.59 56.68 58.15 57.98 58.87 62.53 57.82 59.07 64.39 66.45 67.33 67.55 68.11 68.48 68.80 69.88 68.98 69.99 69.99 71.33 72.27 73.51 73.91 74.58 75.08 74.10 74.78 74.30 74.33 74.06 72.78 72.52 72.51 75.37 75.22 73.69 72.89 73.58 72.94 71.64 73.03 72.92 73.35 71.68 72.32 69.49 68.53 69.25
53.49 51.49 48.26 55.58 57.50 58.52 59.09 53.90 61.56 62.58 64.64 64.86 66.40 67.68 68.26 68.34 68.70 69.57 70.02 70.58 70.80 71.39 72.97 74.07 75.67 74.51 74.29 74.43 74.61 74.50 72.94 73.41 72.99 74.11 74.25 75.01 74.96 74.66 73.78 72.59 72.13 71.31 73.49 72.56 71.28 70.67 69.82 68.81 66.87
48.47 45.68 48.32 52.12 58.21 58.76 57.83 53.86 60.18 60.84 63.55 63.05 64.78 65.85 67.22 67.66 68.58 69.30 70.21 69.94 71.26 71.87 73.09 73.78 74.05 73.61 73.54 73.73 74.31 73.91 72.50 73.71 73.12 73.63 73.54 74.88 75.35 75.10 72.88 72.86 71.96 71.97 72.15 71.13 69.67 68.48 69.91 65.19 64.24
44.80 46.12 48.98 50.47 55.77 57.65 56.04 55.40 59.92 61.42 60.83 63.08 63.57 64.37 65.35 66.29 67.32 69.86 70.39 70.94 71.44 72.53 73.00 72.65 73.14 73.87 73.37 73.95 74.17 74.30 73.31 73.98 75.03 74.35 72.07 73.48 73.19 73.90 73.51 72.77 72.12 72.96 71.58 69.51 69.46 69.17 67.07 65.09 65.26
50.52 49.63 49.65 52.93 57.96 56.81 57.08 57.19 59.41 59.45 60.06 59.58 63.14 63.60 64.37 65.63 67.38 69.74 70.64 71.28 71.53 73.06 72.79 72.45 71.76 74.09 74.11 73.46 73.41 72.82 72.39 72.71 72.87 72.81 74.45 73.34 74.53 74.52 73.35 73.15 72.59 72.66 72.39 69.84 70.60 67.30 64.32 65.10 66.48
50.36 49.37 49.45 53.24 58.19 56.21 57.34 57.34 59.73 60.24 58.94 60.39 61.86 63.53 64.31 65.27 66.22 68.30 69.29 70.35 71.01 71.58 72.28 72.34 71.80 74.31 74.24 74.70 74.19 72.65 72.23 72.89 72.82 72.96 73.31 73.94 75.01 74.33 73.58 73.08 72.36 71.84 72.05 69.25 67.14 65.71 63.73 64.98 65.16
49.66 48.60 49.71 50.51 56.18 58.13 57.65 54.49 56.24 58.42 60.72 61.40 62.96 63.73 65.30 65.14 65.56 67.05 68.24 69.20 70.18 70.98 72.31 72.65 72.45 74.01 74.70 74.80 74.27 74.10 73.42 72.88 72.31 72.48 73.69 75.33 75.09 75.18 73.43 73.61 72.52 71.21 69.76 68.76 66.86 65.82 64.28 61.96 65.92
47.32 52.73 52.79 52.34 51.22 49.15 57.37 48.51 53.72 57.30 61.61 62.30 62.88 62.50 63.56 65.35 66.48 67.16 68.13 68.59 69.49 71.17 72.54 73.22 73.53 74.23 74.40 74.68 73.72 71.89 70.82 69.37 71.55 72.37 73.27 74.41 75.51 75.03 73.09 73.33 73.41 71.82 69.26 68.16 66.32 66.99 64.78 64.90 62.59
50.14 53.85 52.85 52.50 50.30 51.65 53.47 48.74 50.86 58.00 57.16 58.13 61.32 62.21 63.25 64.41 65.64 67.01 68.39 69.09 70.24 71.28 72.20 73.92 73.89 73.96 74.89 74.35 73.95 73.09 70.96 71.40 72.31 72.19 71.26 73.74 74.31 74.28 74.68 73.84 73.33 70.57 66.94 67.92 67.77 65.78 64.26 66.34 63.95
52.61 52.03 51.76 51.53 49.47 44.37 50.04 50.72 49.52 53.41 57.09 58.73 62.29 63.11 63.52 64.07 65.36 67.43 69.06 69.95 69.88 71.69 72.76 73.53 74.16 74.32 75.17 74.01 74.38 73.48 72.59 71.70 70.82 69.94 72.61 73.51 73.74 73.38 74.11 73.91 72.35 70.32 69.02 67.21 66.64 66.43 65.73 65.76 65.39
49.76 45.50 42.89 41.82 42.49 40.91 47.63 49.75 50.68 57.99 59.39 61.44 62.31 63.00 64.59 64.78 65.02 65.39 67.73 68.99 69.60 70.67 71.80 73.63 73.89 73.82 75.16 74.87 73.98 74.53 73.33 72.51 71.37 71.16 72.57 72.62 72.24 72.28 72.91 73.26 71.59 69.51 68.93 68.41 67.34 66.17 66.13 65.43 64.45
46.64 46.31 42.66 36.44 39.89 42.67 47.78 46.21 50.02 59.46 61.78 63.35 64.18 65.14 65.38 65.08 65.26 65.71 67.98 69.04 69.78 70.42 71.98 73.16 73.84 73.87 75.42 75.37 75.32 74.14 74.43 73.03 72.36 72.86 72.74 72.99 72.66 72.87 72.45 72.81 71.98 70.17 68.93 69.07 68.85 66.89 66.62 66.33 65.06
46.57 44.41 47.61 41.17 43.66 41.74 45.70 48.21 53.17 58.84 59.30 61.34 61.56 63.13 63.91 65.01 65.06 66.17 67.52 69.00 69.81 70.45 72.10 72.49 74.34 74.77 75.39 75.85 75.79 74.82 74.64 74.40 73.49 72.77 74.08 72.49 71.95 72.48 72.40 73.03 72.19 71.01 68.82 68.75 67.77 66.72 65.20 66.40 65.56
48.46 48.59 43.03 44.83 37.99 38.47 44.33 45.69 48.05 51.91 57.55 59.76 60.44 61.28 62.53 63.85 64.78 66.64 67.26 68.75 70.11 71.02 72.23 73.25 74.41 75.07 75.75 75.60 76.28 75.78 75.35 74.30 73.96 73.06 73.44 73.16 71.62 72.52 71.54 72.78 73.01 71.52 69.07 68.50 67.58 65.73 66.87 65.47 65.76
47.08 45.51 44.63 43.68 44.61 40.14 39.70 44.84 50.99 53.34 58.05 59.25 60.45 61.77 62.05 63.80 65.38 66.62 67.75 69.04 70.51 71.46 72.02 72.80 74.07 75.11 75.71 76.36 76.29 76.02 75.67 75.17 74.53 74.25 73.97 73.20 72.75 72.05 72.29 72.02 72.53 71.22 69.43 69.30 67.93 65.72 65.46 66.34 63.76
50.16 46.16 44.88 41.25 38.88 42.38 42.71 44.25 54.93 54.99 58.91 61.07 60.76 61.36 61.07 61.53 65.02 67.28 67.96 69.00 70.33 70.97 71.39 72.43 74.85 75.20 76.00 76.55 76.49 76.21 76.33 75.99 75.09 74.16 74.44 74.21 72.96 72.33 72.45 72.39 71.06 71.35 69.98 69.16 68.60 66.30 66.65 64.82 65.34

GFSSGP_sfc_wetblb_012.txt.gz
Wetbulb
75.03 75.01 73.60 70.30 60.26 59.52 54.82 57.64 62.19 60.97 61.45 65.21 66.46 64.78 62.20 63.20 60.37 56.13 67.93 70.95 71.12 71.59 73.25 74.54 76.90 78.07 78.39 78.93 78.54 78.73 78.23 78.34 78.82 78.61 77.97 77.55 77.47 77.49 77.52 77.14 77.06 76.87 76.58 76.59 76.52 76.17 75.59 75.45 75.26
75.15 73.41 69.44 63.48 56.76 52.66 54.91 60.24 59.12 62.17 64.41 66.39 66.25 65.21 63.01 61.22 66.04 66.33 67.76 71.04 72.28 72.64 73.05 74.21 76.82 78.03 78.24 78.49 78.61 78.83 78.40 78.17 79.04 78.60 77.92 77.46 77.50 77.59 77.12 77.04 76.98 76.71 76.55 76.31 76.12 76.31 76.31 75.64 75.23
71.09 70.68 65.08 61.89 56.59 51.90 53.09 59.60 61.75 63.63 66.02 65.09 64.51 66.68 64.27 63.13 67.03 67.86 70.59 72.00 72.76 72.69 73.44 74.69 77.30 77.96 78.22 78.21 78.37 78.47 78.48 78.15 78.74 78.05 77.38 77.22 77.14 77.12 76.99 76.88 76.78 76.66 76.47 76.39 76.12 75.90 75.57 75.78 75.17
68.88 65.89 63.56 60.38 55.59 57.96 59.72 61.86 64.83 63.83 65.27 66.87 65.27 61.47 66.53 69.41 68.55 70.19 71.77 71.73 71.51 72.41 73.92 76.55 78.11 77.63 78.07 78.16 78.28 77.92 77.84 77.66 78.15 78.19 77.36 77.06 77.21 76.89 76.59 76.56 76.60 76.37 76.40 76.07 75.99 75.74 75.13 75.32 75.69
68.77 66.14 59.28 57.66 58.26 60.59 62.62 62.21 64.80 63.74 64.70 64.79 64.55 61.99 63.78 69.03 71.12 71.28 70.74 71.63 71.29 72.53 74.16 75.83 77.90 78.44 78.31 78.38 77.93 77.95 77.48 77.30 78.13 78.24 77.32 76.97 77.25 76.73 76.54 76.24 76.30 76.27 76.07 75.91 75.27 74.99 75.15 74.96 75.28
62.00 64.14 56.74 53.01 56.12 61.19 63.38 64.31 64.65 64.27 64.89 64.85 63.77 62.98 63.12 69.74 70.03 70.71 71.61 71.45 72.77 73.12 74.42 75.29 77.58 77.96 78.54 77.75 77.48 77.58 77.16 77.11 77.92 78.24 77.64 77.40 77.26 77.08 76.46 76.27 76.10 76.10 76.10 75.91 75.19 74.99 75.59 75.67 75.42
61.04 57.42 56.16 54.62 57.51 59.70 62.67 65.97 63.96 63.90 63.88 63.93 66.47 61.26 64.55 67.63 70.37 71.62 71.79 72.42 72.72 73.83 74.14 74.52 74.84 75.58 77.61 78.32 77.48 77.57 77.24 77.16 77.32 77.58 77.65 77.99 77.41 76.98 76.21 76.13 75.82 75.59 75.51 75.91 75.60 75.07 75.40 75.67 75.61
61.52 59.38 56.00 55.73 55.68 56.51 63.38 64.39 66.02 64.78 64.29 68.43 67.65 61.53 62.02 67.38 70.71 71.70 71.69 71.36 71.85 72.95 74.07 73.93 74.39 74.49 75.56 75.64 77.49 77.85 77.70 77.49 77.33 77.37 77.19 77.13 76.93 76.57 76.15 77.39 76.70 75.15 75.11 75.63 75.41 74.99 75.59 75.97 75.26
66.18 55.82 54.78 54.36 56.47 58.66 64.39 63.18 66.75 68.51 65.64 66.60 67.94 66.50 67.69 69.79 71.37 70.72 69.59 70.41 71.02 72.35 73.29 73.98 74.13 74.21 74.74 75.13 76.02 77.64 77.72 77.72 77.42 77.11 77.41 77.50 73.76 73.15 75.16 75.87 75.50 75.87 75.84 74.95 75.21 75.46 76.20 76.93 76.40
60.40 54.32 56.38 60.95 59.98 60.28 63.92 64.43 65.15 64.45 64.29 64.81 65.78 68.25 69.29 70.07 69.73 68.89 68.67 68.57 69.81 70.57 71.88 73.54 73.85 74.26 74.23 75.85 74.16 74.77 74.79 74.83 74.73 74.79 74.50 74.13 72.83 72.55 75.47 75.18 72.23 73.55 76.10 75.74 76.40 76.65 76.38 76.20 73.37
57.55 54.81 59.94 61.99 62.68 64.20 64.05 64.65 66.51 63.81 62.22 64.19 64.29 66.00 68.29 68.84 68.75 68.58 69.03 69.63 69.94 71.12 72.23 72.83 73.50 73.96 73.75 73.87 73.97 73.67 73.10 72.77 73.14 73.26 72.64 72.88 73.28 71.00 71.48 70.35 68.06 69.40 73.34 72.31 73.05 73.04 73.46 73.57 70.29
53.78 58.09 60.13 62.10 62.60 62.13 62.97 65.23 64.82 64.87 64.67 67.58 67.61 68.14 68.40 68.00 68.09 68.61 68.90 69.37 70.15 71.33 72.18 72.63 73.31 73.37 72.99 73.00 74.19 73.72 72.89 71.63 71.63 72.16 72.22 71.94 71.94 69.38 70.57 67.25 70.99 70.84 71.95 70.13 72.34 71.95 72.72 72.07 72.18
54.24 56.31 59.21 62.46 61.96 61.05 60.86 63.31 64.67 64.77 67.45 68.79 68.76 68.89 68.18 67.92 68.37 69.33 70.10 70.48 70.90 71.09 71.82 72.41 73.30 73.27 73.23 73.10 73.24 73.22 72.32 71.99 71.74 71.88 72.78 72.57 71.11 69.99 69.70 70.58 71.19 70.69 71.92 71.10 71.26 72.56 72.01 71.77 71.51
56.12 56.05 56.37 60.94 60.62 60.52 58.99 60.47 63.08 65.50 68.29 67.63 67.81 67.69 68.34 68.32 68.65 68.98 69.37 69.75 70.43 71.28 71.39 72.80 73.04 72.94 73.75 73.19 72.40 72.37 72.44 72.17 71.74 73.27 73.07 72.50 71.74 70.41 70.51 70.03 70.99 71.34 71.64 72.59 71.94 71.12 70.85 68.70 68.33
55.82 52.26 54.19 54.27 58.98 59.37 60.89 59.25 62.05 66.34 67.41 66.67 66.99 67.65 68.22 68.49 69.12 68.48 69.29 69.46 70.57 70.79 72.01 71.98 72.72 73.64 73.39 72.88 72.95 72.83 74.05 73.61 72.22 73.24 73.16 74.13 73.01 71.25 71.27 71.24 70.64 71.84 71.71 72.02 70.55 69.64 68.71 67.48 68.33
49.85 48.16 45.54 52.54 55.14 60.40 58.36 53.56 63.62 66.62 66.06 65.63 66.76 67.69 67.85 67.96 68.82 69.27 69.60 70.13 70.68 71.31 71.44 72.18 73.86 74.00 73.07 73.36 73.82 73.37 72.75 71.42 71.49 72.56 73.35 73.89 72.73 72.64 72.23 71.78 71.85 71.38 71.19 71.06 70.37 69.73 68.62 69.16 64.84
45.42 43.06 45.18 48.69 54.35 59.54 56.83 53.16 61.52 66.42 65.40 64.51 65.60 66.76 67.34 67.65 68.67 69.63 70.30 70.04 70.58 72.24 72.35 72.31 73.14 73.19 72.67 73.24 73.59 73.21 71.83 72.03 71.78 72.36 72.85 73.27 73.76 74.22 72.47 71.73 71.45 70.45 71.82 70.06 68.99 68.16 68.24 65.32 62.43
42.26 42.99 45.11 46.63 51.25 56.14 53.74 54.19 59.16 65.33 65.12 64.62 65.24 65.71 66.31 66.98 68.32 69.19 70.13 70.30 71.46 72.40 72.81 73.06 73.27 72.66 73.12 73.30 72.45 72.56 71.46 71.53 72.80 72.32 72.44 74.09 73.98 74.16 71.82 72.16 71.09 70.71 70.52 69.21 68.23 67.47 65.89 63.55 63.95
47.02 45.76 45.70 49.55 52.33 54.52 54.52 54.89 57.31 62.70 64.01 63.83 64.33 65.05 65.51 66.34 68.01 69.02 69.19 70.32 70.37 71.51 72.36 72.52 72.39 72.21 72.78 71.94 71.51 70.94 71.05 71.40 71.84 72.35 71.71 72.01 72.63 73.25 71.94 71.56 72.04 71.50 70.26 68.76 68.18 66.43 63.05 62.92 65.05
47.25 45.87 46.03 49.22 52.17 54.62 54.16 54.93 58.07 60.39 61.65 63.30 63.55 64.25 65.30 66.21 67.10 67.80 68.59 69.67 70.00 70.98 71.90 72.25 72.35 71.97 72.11 72.12 72.43 71.65 71.72 71.64 72.02 72.14 72.27 72.52 72.66 72.99 72.56 71.78 71.40 71.34 70.66 68.77 66.43 64.50 62.16 63.48 63.24
46.24 45.08 46.11 46.32 50.38 54.07 55.74 52.75 55.01 58.48 60.05 61.83 63.39 64.24 65.24 65.59 65.70 66.82 68.12 68.68 70.10 70.46 71.02 71.30 72.22 72.54 72.50 72.79 72.80 71.81 71.67 71.19 71.10 71.33 71.66 72.59 73.51 73.54 73.05 72.23 71.69 70.83 70.20 67.84 65.80 64.48 63.29 60.93 63.79
42.71 49.74 49.39 49.00 46.56 43.37 55.42 44.41 53.90 56.06 56.46 58.44 61.50 62.48 63.43 64.81 65.91 66.77 68.03 68.30 69.33 70.49 71.58 71.55 71.91 73.27 73.18 73.44 72.64 71.79 70.93 70.20 71.26 70.79 71.68 73.15 74.46 73.67 72.95 72.43 71.39 69.89 68.70 67.05 65.88 65.60 63.48 62.50 61.15
46.63 50.28 50.03 49.78 47.05 43.66 48.59 46.08 50.18 56.75 54.53 57.79 59.55 61.64 63.60 64.51 65.42 65.77 67.63 68.73 69.50 70.61 71.11 71.44 71.01 73.45 73.69 73.51 73.01 72.26 70.99 71.33 70.02 70.80 71.13 71.55 73.45 73.82 72.94 72.34 71.86 69.21 67.84 66.87 65.73 64.70 63.09 64.82 61.47
51.10 47.65 48.09 46.82 45.91 39.73 46.60 49.19 46.16 51.76 55.98 58.32 61.30 62.01 63.05 64.53 65.30 66.20 68.01 68.88 69.08 70.53 71.34 71.58 70.99 71.42 73.37 73.61 73.01 72.43 71.54 70.47 69.73 69.42 69.73 71.55 73.38 73.03 72.98 72.83 72.65 68.97 66.64 66.82 65.69 64.42 62.96 65.11 64.98
46.91 41.02 38.33 37.69 39.69 38.79 44.94 45.43 48.71 55.28 59.12 60.16 61.30 60.74 62.36 64.38 65.20 65.57 66.12 67.23 68.14 68.71 70.31 71.53 71.13 70.62 72.37 73.32 72.97 72.58 72.16 71.32 70.31 69.06 70.50 71.69 72.28 71.28 72.71 72.53 71.65 68.73 67.09 66.23 65.22 64.96 64.25 64.14 63.63
43.26 43.26 39.93 33.37 34.89 38.58 44.30 40.93 47.34 56.19 60.95 62.55 62.95 62.57 62.91 63.00 64.73 65.66 66.28 67.38 67.91 68.77 70.11 71.12 71.34 71.09 72.35 72.65 72.87 73.19 72.71 72.54 71.96 69.83 71.49 72.03 72.52 72.78 72.45 72.79 71.19 68.29 67.49 66.68 65.65 64.65 64.78 64.69 63.50
45.60 39.67 45.43 38.26 38.50 37.45 41.51 44.95 49.54 52.83 57.01 60.76 61.53 61.88 62.51 63.07 63.54 65.15 66.82 67.64 68.09 68.57 69.69 70.82 71.86 71.97 72.59 73.10 72.56 73.16 73.42 72.87 72.12 71.18 72.09 72.36 72.29 72.71 72.21 72.70 70.49 68.84 68.07 67.34 66.52 64.76 64.36 65.65 63.50
46.18 46.63 40.72 35.75 35.09 35.51 38.93 41.06 45.76 48.78 51.55 55.96 59.61 61.15 62.83 63.55 63.67 65.03 65.86 67.63 68.82 69.21 70.31 71.67 72.43 72.20 73.24 73.91 73.53 73.13 73.06 73.95 72.76 71.76 72.20 71.92 71.81 72.16 71.91 71.73 70.87 69.26 67.48 68.13 66.65 64.91 64.14 64.82 64.61
45.31 43.28 39.00 40.93 39.95 37.47 33.68 41.30 47.37 49.30 51.53 54.09 59.78 62.60 63.22 63.95 64.29 64.57 65.45 67.81 68.95 69.62 70.61 71.60 72.25 72.19 72.98 73.93 73.90 73.87 73.47 73.21 73.35 72.49 72.59 72.92 71.80 70.97 71.59 71.30 71.07 69.66 67.94 67.20 66.29 64.89 64.98 63.48 63.96
49.29 45.60 42.45 41.22 36.56 39.60 42.12 42.34 50.26 51.27 52.47 56.07 58.64 61.58 64.48 64.87 64.00 65.12 65.45 66.79 68.04 69.09 70.56 71.15 72.53 72.63 73.32 74.28 74.29 74.10 74.30 73.98 73.04 72.69 73.04 72.37 72.28 71.36 71.56 71.27 71.59 70.55 68.97 67.14 67.01 64.78 65.09 64.76 63.39

GFSSGP_sfc_wetblb_015.txt.gz
Wetbulb
75.69 74.88 73.25 69.71 59.91 58.39 53.86 57.24 60.95 59.25 60.53 64.82 65.60 62.91 61.55 62.42 59.78 54.58 67.36 70.26 70.83 71.21 72.64 73.62 76.02 76.99 77.80 77.82 77.82 77.72 77.36 77.42 77.51 77.24 77.20 76.91 77.01 76.99 76.86 76.70 76.69 76.42 76.37 76.32 76.03 75.71 75.11 75.35 75.27
74.79 71.49 68.98 62.53 56.42 52.20 54.03 60.01 58.50 61.49 64.06 65.44 65.66 64.42 62.54 61.16 65.63 65.34 67.42 70.54 71.22 71.70 72.52 73.56 76.27 77.12 77.60 77.59 77.84 77.83 77.62 77.61 77.24 77.13 77.14 77.04 77.16 76.90 76.74 76.72 76.34 76.20 76.07 75.77 75.97 76.31 75.87 75.41 75.19
72.13 71.77 64.94 60.28 55.10 52.55 53.78 59.42 61.16 63.77 65.98 64.81 63.70 65.56 63.75 62.73 65.96 66.48 69.36 70.94 71.20 71.67 72.48 74.05 76.77 77.68 77.34 77.41 77.78 78.24 78.44 77.47 77.25 77.12 76.99 77.02 76.76 76.63 76.62 76.37 76.15 76.10 75.99 75.91 75.93 75.77 75.74 75.27 75.41
68.08 67.33 64.81 59.06 55.31 57.97 58.70 61.38 63.29 63.12 65.13 65.22 64.42 61.48 65.88 68.37 67.18 69.22 70.91 71.64 71.38 72.06 73.20 75.65 76.96 77.16 77.14 77.34 77.47 77.34 77.46 77.21 77.06 76.76 76.68 76.85 76.72 76.52 76.29 76.18 76.22 75.89 75.80 75.72 75.83 75.47 75.52 75.25 75.09
68.86 65.63 58.48 57.59 57.21 59.47 62.45 62.97 64.96 63.03 64.05 63.88 64.22 61.16 62.90 68.20 70.21 70.37 71.15 71.64 71.13 71.87 73.62 75.09 77.70 77.84 77.30 77.08 77.02 76.78 76.92 77.36 77.28 76.84 76.66 76.88 76.46 76.25 76.14 76.12 75.95 75.65 75.65 75.70 75.18 75.36 75.45 75.41 75.59
61.78 62.77 56.51 53.29 55.48 60.39 62.89 62.79 65.08 64.24 64.08 63.77 62.71 62.23 63.03 69.34 69.17 70.13 70.92 70.77 72.05 72.19 73.80 74.72 77.00 77.50 77.65 76.94 76.88 76.73 76.58 77.08 77.25 76.92 76.75 76.86 76.65 76.05 75.78 75.79 75.70 75.57 75.76 75.65 75.20 75.34 75.61 75.26 75.61
60.77 56.80 54.71 55.20 56.97 59.18 62.20 64.58 63.73 63.36 62.92 62.64 65.09 60.43 63.97 67.18 69.53 70.02 70.35 71.55 72.09 72.93 73.72 74.13 74.51 75.52 77.29 77.65 76.90 76.77 76.61 76.86 77.08 76.90 76.71 76.63 76.78 76.22 75.67 75.20 75.26 75.26 75.23 75.37 75.20 75.09 75.39 75.61 76.39
62.04 57.06 55.40 54.53 57.27 57.31 63.61 64.10 65.74 64.07 63.03 67.31 66.67 60.56 61.11 66.81 69.75 70.51 70.90 71.28 72.14 73.16 73.37 73.32 72.92 73.26 74.28 74.90 76.88 76.89 76.83 76.88 77.15 76.95 76.89 76.67 76.63 76.72 76.01 76.55 75.29 74.98 74.67 74.90 75.01 74.93 75.17 75.00 75.75
65.78 54.23 52.13 52.95 55.43 57.81 63.43 62.68 66.19 67.83 64.89 65.67 66.68 65.42 66.91 69.39 70.37 69.61 69.55 69.74 71.05 72.40 72.94 73.44 73.10 72.92 74.16 74.59 75.06 77.09 77.11 77.06 77.06 76.68 76.85 77.02 73.80 73.37 74.89 75.76 75.23 76.06 75.65 74.78 75.07 75.34 75.75 75.09 75.23
60.19 52.91 54.64 58.60 59.24 60.88 63.59 63.78 64.51 63.94 63.53 63.81 64.88 67.14 68.75 69.21 69.06 68.06 68.02 68.13 69.26 70.55 72.35 73.49 73.33 73.69 74.22 75.66 74.09 74.24 74.57 74.43 74.17 74.42 73.81 74.42 72.88 72.04 74.40 74.83 74.20 73.71 75.43 75.34 75.73 75.39 75.73 74.75 71.90
61.29 57.00 60.03 60.29 61.17 64.32 63.27 63.63 65.63 63.29 61.04 63.32 62.81 64.99 67.10 68.12 68.31 67.73 68.36 68.85 68.87 70.81 71.95 73.19 73.49 73.92 74.20 74.01 73.10 73.40 73.17 73.33 73.48 73.63 73.43 73.18 72.60 72.22 72.32 70.67 69.58 68.18 73.13 71.71 72.47 72.17 72.78 72.65 69.98
54.23 60.21 62.51 60.71 60.22 64.42 63.08 64.81 63.11 63.60 63.21 66.32 66.20 66.82 66.99 67.27 67.37 67.52 68.02 68.88 69.39 70.03 71.16 72.60 73.44 73.48 73.49 72.52 73.25 73.15 72.82 71.72 71.86 72.35 72.06 71.43 71.28 69.57 69.34 66.50 69.72 69.64 71.14 70.16 70.42 71.26 72.14 71.08 71.93
56.05 57.17 56.76 58.52 60.09 64.38 65.23 63.81 63.43 63.44 66.38 67.23 67.21 66.87 66.54 67.14 67.67 68.58 69.20 69.92 70.17 69.69 70.96 71.97 72.83 72.84 73.17 71.61 73.21 72.27 72.22 71.66 71.27 71.12 71.68 71.51 70.75 69.99 69.19 68.33 70.52 69.95 70.78 70.36 71.13 71.89 72.19 71.64 70.17
53.94 54.72 55.03 55.59 55.38 64.02 63.14 63.75 64.11 64.48 66.96 66.33 66.23 66.12 66.95 67.03 67.69 68.17 68.88 69.14 69.81 70.59 71.03 71.87 72.06 72.49 72.48 71.72 71.80 72.39 72.00 71.13 70.45 70.62 71.79 72.00 71.28 70.00 69.19 68.31 69.99 70.28 70.69 71.32 71.62 70.59 70.74 68.27 68.00
53.71 51.18 51.82 52.78 53.69 61.02 63.96 60.56 61.72 65.57 66.58 65.39 65.53 66.18 66.72 67.27 68.16 68.07 68.89 68.90 70.30 70.94 71.65 71.26 72.02 72.42 72.05 71.94 72.00 71.61 71.43 71.64 70.59 71.40 72.93 72.54 71.70 70.18 69.76 69.33 69.95 70.85 71.30 71.29 70.50 70.22 67.69 66.99 66.85
48.03 47.01 44.59 50.63 52.51 55.44 60.49 53.43 61.86 65.65 65.21 64.24 65.37 66.21 66.47 67.06 67.81 68.70 69.51 69.64 70.50 71.12 70.74 71.63 73.03 72.26 72.07 72.24 71.78 71.89 72.01 72.24 71.65 71.28 71.99 72.89 72.38 71.04 70.46 70.80 70.22 70.62 70.54 70.94 69.44 68.93 67.96 67.50 64.65
43.65 42.49 44.25 47.53 51.85 57.03 55.76 52.56 62.59 65.43 64.60 63.64 64.85 65.82 66.44 66.74 67.77 68.52 69.70 69.95 70.34 70.67 70.90 71.18 72.34 72.01 72.17 72.47 72.45 72.05 72.05 71.32 71.13 71.17 71.88 72.46 72.61 72.35 71.49 71.26 71.04 70.24 70.61 69.12 68.64 67.55 67.04 62.49 62.07
41.51 41.68 42.91 44.94 49.66 55.45 52.55 52.59 62.16 64.24 64.15 63.72 64.57 65.31 66.09 66.31 67.16 68.64 69.00 69.81 70.41 70.58 70.89 71.03 71.99 72.47 72.34 72.32 72.53 72.10 71.07 70.45 71.07 71.26 71.62 72.40 72.78 73.29 71.84 71.04 70.67 70.03 70.09 68.63 67.53 66.43 65.34 62.44 62.85
45.57 43.91 44.16 47.18 50.81 52.03 52.79 53.09 60.72 63.32 63.71 63.60 64.23 64.93 65.68 66.20 67.96 68.88 69.23 69.41 69.82 70.42 70.71 70.75 70.99 71.69 72.29 71.39 71.04 70.40 70.51 69.81 70.67 71.55 71.74 72.57 72.98 73.54 71.55 71.13 70.39 69.92 69.66 68.35 67.43 65.93 62.91 61.44 63.54
45.52 43.98 44.11 46.90 49.74 49.77 50.47 51.96 60.94 62.50 62.90 64.00 64.16 64.84 65.54 66.47 67.03 68.10 68.70 69.11 68.82 69.86 70.86 71.08 71.22 71.44 71.84 72.05 72.10 71.31 70.34 70.60 70.63 71.47 71.34 71.76 72.57 72.62 71.43 70.83 70.76 70.40 69.78 68.06 67.17 63.90 61.77 62.14 62.92
43.28 42.89 44.75 44.42 47.83 49.20 51.61 49.77 54.07 62.01 63.33 64.17 64.82 65.52 66.22 65.83 66.09 67.43 67.88 68.27 68.67 69.40 70.63 71.24 71.52 71.79 71.69 71.87 71.82 70.41 70.70 70.32 70.25 70.29 70.64 71.80 71.85 71.95 71.98 71.34 70.92 70.41 69.85 68.05 65.79 63.97 61.76 60.69 62.98
40.04 46.61 47.41 46.16 44.09 40.20 51.07 42.58 50.00 55.71 60.12 61.95 63.05 64.34 64.92 65.57 66.54 66.84 67.76 67.22 68.12 69.14 70.97 71.49 71.87 71.73 71.45 71.76 71.25 70.93 69.95 69.07 69.82 70.26 70.85 71.65 72.38 72.45 72.34 72.03 71.27 70.36 69.56 67.46 65.73 64.76 61.93 61.32 60.61
45.63 48.57 47.33 47.22 43.69 40.35 44.41 43.23 46.64 54.19 54.35 56.95 60.92 62.89 64.51 65.77 66.32 66.20 66.96 67.81 68.67 69.48 70.59 71.57 71.77 71.64 71.56 71.52 71.42 70.75 69.76 70.32 69.45 69.73 70.31 71.02 72.15 72.68 72.70 71.71 70.95 69.35 68.16 67.51 65.78 63.97 63.23 62.40 60.78
49.91 46.28 44.25 43.54 41.41 36.88 44.07 43.12 44.03 49.76 54.21 56.17 59.06 61.71 63.38 64.70 65.85 66.97 67.73 68.37 68.52 69.66 70.48 70.92 70.75 71.19 71.75 71.57 71.56 70.86 70.30 69.38 68.74 68.63 69.95 69.90 71.00 72.32 72.38 72.17 71.22 69.34 67.46 66.63 65.39 64.55 62.80 64.17 62.91
45.84 40.09 35.05 33.14 34.85 37.06 42.91 41.72 46.23 51.02 57.25 58.53 58.51 59.98 62.86 63.88 64.81 65.56 65.92 67.08 67.88 68.54 69.78 70.18 69.98 70.74 71.91 71.90 71.77 71.38 71.03 70.54 69.69 69.21 69.45 69.44 70.48 70.80 71.56 71.39 71.03 69.34 66.92 66.56 65.25 63.54 62.06 64.10 63.30
42.21 42.04 33.29 29.96 31.33 37.28 41.40 38.66 44.09 54.09 56.62 60.57 61.25 61.29 61.94 63.35 64.11 64.94 65.74 66.35 67.92 68.26 69.35 69.85 69.56 69.92 71.78 72.19 71.90 71.97 71.76 71.33 70.96 69.78 70.12 70.50 71.37 71.76 72.38 72.16 71.66 70.13 66.73 66.14 64.88 63.89 63.18 63.42 63.24
42.35 40.70 44.28 35.79 34.48 34.21 38.55 42.76 47.24 51.34 52.85 56.81 59.25 60.71 61.54 62.32 63.82 64.58 65.54 66.09 67.29 68.05 68.47 69.80 69.61 69.62 71.05 72.02 72.27 71.97 72.07 71.67 71.04 69.82 70.51 70.71 71.63 72.33 71.99 72.29 71.71 69.95 67.58 65.84 64.59 63.72 63.64 63.92 62.48
46.20 44.99 39.10 32.99 33.34 33.37 35.79 38.70 41.00 46.30 49.20 53.66 57.50 58.95 60.63 61.96 62.88 64.36 65.31 65.97 67.05 68.03 68.75 69.73 70.48 69.97 70.29 71.57 72.39 72.22 72.24 72.14 71.65 71.07 70.27 70.72 71.40 71.49 71.28 71.95 71.38 69.59 67.34 66.15 65.23 63.83 63.21 64.12 63.06
40.92 42.79 37.59 38.66 36.66 35.57 34.73 38.97 45.78 48.34 49.95 51.13 55.19 59.33 60.83 61.44 62.55 63.39 65.05 66.11 66.81 67.84 68.29 69.17 70.24 70.27 70.37 70.97 71.57 71.70 72.10 72.24 72.07 71.05 71.37 71.43 71.32 71.23 71.53 71.53 71.05 69.61 67.46 66.77 65.78 64.68 63.80 63.13 63.47
46.07 44.09 39.44 38.08 35.36 35.70 38.53 39.46 46.88 50.43 51.30 51.40 52.79 56.44 59.57 62.38 63.29 63.64 64.08 65.19 66.23 67.02 67.58 68.78 69.99 70.56 70.69 71.41 71.71 71.48 71.82 72.10 72.37 71.55 71.38 71.84 71.42 70.97 71.30 71.14 70.99 69.81 68.17 66.87 66.06 65.39 65.25 63.31 61.96

GFSSGP_sfc_wetblb_018.txt.gz
Wetbulb
74.93 74.76 73.02 69.19 59.44 57.62 53.85 56.79 60.89 58.15 60.56 63.67 64.27 61.97 61.26 62.41 59.70 54.00 67.44 70.28 70.75 70.82 72.00 73.41 75.11 76.36 77.30 77.79 78.02 77.79 77.23 77.04 77.10 77.17 76.94 76.94 76.82 76.78 76.82 76.47 76.37 76.43 76.37 76.13 75.72 75.80 75.53 75.20 75.06
74.75 72.47 68.42 62.12 55.20 49.41 52.26 58.95 57.65 60.71 62.95 64.86 64.85 63.88 62.39 60.84 64.98 65.59 66.78 70.13 71.21 71.53 72.15 72.87 75.48 77.33 77.26 77.65 77.59 77.88 77.15 76.97 77.11 76.88 77.13 76.94 76.85 76.79 76.72 76.46 76.24 76.07 76.04 75.86 75.55 75.69 75.22 75.03 74.82
72.45 71.70 63.92 58.67 54.47 50.96 51.96 58.27 60.43 63.20 65.29 64.67 62.79 64.95 63.44 62.47 65.49 66.18 69.03 70.53 71.39 71.75 72.55 73.57 76.39 78.00 77.58 77.18 77.55 77.97 77.27 77.00 77.02 76.81 77.01 76.74 76.58 76.64 76.29 76.16 76.04 76.06 76.04 76.18 75.77 75.59 75.40 74.61 74.33
69.67 67.13 65.18 57.91 55.04 57.94 57.60 59.86 62.66 62.99 64.09 64.74 64.03 61.12 65.17 67.96 66.32 68.51 70.12 70.77 71.00 71.84 73.45 75.28 76.77 76.97 77.48 77.46 77.75 77.72 77.11 76.78 76.81 76.68 76.74 76.58 76.38 76.22 76.08 76.21 76.27 76.16 76.13 75.81 75.81 75.29 75.21 74.37 73.83
68.68 64.95 58.23 57.30 57.08 59.21 61.26 63.49 64.57 62.12 63.29 63.02 63.99 60.53 62.06 67.07 69.35 69.62 70.16 70.77 70.57 71.69 73.50 74.56 77.53 77.63 77.39 77.19 77.51 77.17 76.79 76.81 76.65 76.54 76.61 76.38 76.17 76.09 76.09 75.76 75.85 75.87 76.26 75.93 75.40 75.45 74.93 74.94 74.82
61.99 63.37 54.82 52.44 54.83 60.67 61.59 62.43 64.34 63.42 63.33 62.76 61.59 61.80 63.14 68.10 68.35 69.62 70.48 70.37 71.79 72.26 73.71 74.41 77.09 77.06 77.26 76.91 77.11 77.03 77.01 76.94 76.84 76.58 76.55 76.46 76.06 75.84 75.54 75.32 75.60 76.21 76.32 75.79 75.27 75.23 74.83 74.97 75.56
59.78 56.11 54.65 54.04 55.22 58.89 61.92 63.71 63.09 61.92 62.32 61.83 64.06 60.44 64.32 66.09 69.26 70.16 70.31 71.01 71.77 73.03 73.33 73.81 74.61 75.35 76.95 77.02 76.66 76.56 76.55 76.97 76.84 76.61 76.42 76.50 76.19 75.46 75.27 75.13 75.68 75.55 75.91 75.74 75.35 75.10 75.19 75.71 75.18
62.20 56.01 54.04 53.16 55.32 56.22 62.86 63.71 64.77 63.33 62.41 66.42 66.07 60.24 60.84 66.24 69.35 69.69 70.56 70.39 70.98 72.67 73.50 72.87 73.36 73.96 74.43 74.61 76.54 76.57 76.51 76.69 76.71 76.67 76.43 76.38 76.33 75.74 75.10 76.26 75.31 75.74 75.13 74.83 75.13 75.08 74.74 75.79 76.34
65.59 54.45 51.68 52.25 56.20 57.51 63.01 61.98 65.62 67.07 63.87 64.96 65.60 64.73 66.20 68.69 69.04 69.01 69.06 69.89 70.48 72.03 72.46 72.63 72.06 72.17 73.90 74.16 74.86 76.49 76.66 76.54 76.76 76.42 76.30 77.11 74.02 74.28 74.19 75.35 75.12 76.18 75.57 74.62 74.32 75.46 76.07 76.31 74.86
60.50 53.27 54.12 58.01 58.14 58.89 63.11 63.30 63.76 63.31 62.41 63.34 64.38 66.36 67.87 68.18 68.12 67.38 67.62 67.61 69.30 70.26 71.86 72.64 72.28 72.39 73.89 75.13 74.17 74.45 74.48 74.79 74.71 75.13 74.67 75.39 74.64 73.80 74.43 75.02 74.43 73.67 75.86 75.46 75.43 75.15 75.35 74.31 73.23
61.47 56.85 58.84 59.95 60.43 61.66 62.29 63.11 64.70 62.63 59.89 62.68 62.06 64.32 66.42 67.04 67.22 67.39 67.75 68.25 68.79 70.41 71.86 72.70 72.70 73.18 73.69 74.19 73.74 73.83 73.99 74.18 74.19 74.33 74.24 74.60 74.00 73.37 73.92 72.80 72.05 70.67 72.53 73.19 73.56 73.00 73.04 73.61 71.49
55.67 59.56 62.18 61.47 60.85 62.45 61.99 63.68 62.81 63.46 62.37 65.59 65.64 66.09 66.56 66.46 66.57 67.15 67.68 68.26 68.80 70.10 71.34 72.56 73.24 73.28 73.77 73.28 73.47 73.34 73.25 72.95 73.07 73.46 73.79 73.11 72.55 72.19 71.44 70.08 69.39 71.21 72.02 72.04 71.83 72.74 72.58 72.60 72.83
56.85 58.35 57.90 59.71 58.34 61.16 64.16 62.56 62.88 63.22 65.56 66.55 66.34 66.45 66.11 66.51 67.04 67.93 68.85 69.28 69.14 69.50 70.97 72.29 73.16 73.20 73.51 72.25 73.02 72.93 72.75 72.84 72.35 72.40 72.79 72.24 71.98 71.69 70.70 70.31 71.67 71.68 72.29 72.38 72.49 72.71 73.39 72.20 71.38
52.63 55.03 56.98 54.59 54.14 59.02 62.08 62.56 63.36 64.16 65.74 65.11 65.51 65.31 66.11 66.63 67.19 67.74 68.53 68.61 69.02 69.79 70.40 72.07 72.76 73.18 73.21 72.52 72.10 72.63 72.32 72.12 71.54 71.32 72.10 72.47 71.94 71.68 71.47 70.42 70.99 71.74 71.96 72.71 72.92 72.45 71.56 70.16 69.46
51.99 49.93 51.65 52.19 52.46 58.66 63.29 59.83 60.75 64.42 65.31 63.96 64.46 65.02 65.78 66.83 67.83 67.38 68.62 68.59 69.46 69.97 70.40 71.03 72.10 72.82 72.45 72.35 71.49 72.11 72.48 72.12 71.18 71.01 71.81 72.80 72.52 71.85 71.39 70.43 70.74 72.22 72.79 73.13 72.73 71.46 70.69 68.77 67.90
46.63 45.68 43.86 50.09 52.80 57.95 61.47 54.96 62.25 64.76 63.98 62.96 63.72 64.62 65.35 66.36 67.48 68.29 69.07 69.36 70.11 70.31 70.27 71.19 72.29 72.03 72.00 71.71 71.50 71.64 71.74 71.80 71.76 71.38 72.25 73.34 73.21 72.54 71.47 71.26 71.61 72.68 72.45 72.93 71.63 71.22 70.26 68.21 66.49
42.44 41.33 43.60 46.79 50.87 54.27 59.22 52.18 61.62 64.67 63.64 62.67 63.43 64.18 65.23 65.74 67.00 68.35 69.27 69.55 70.17 70.55 70.73 70.85 71.53 71.20 71.57 71.58 71.43 71.60 71.51 71.86 72.00 72.01 71.95 72.77 73.44 73.36 71.96 72.19 72.55 72.73 72.00 71.59 71.14 70.02 69.36 65.90 65.87
40.37 40.68 42.31 44.54 48.57 54.24 55.12 52.07 59.58 63.41 63.21 62.94 63.50 64.21 64.81 65.16 65.99 67.88 69.09 69.83 70.28 70.93 71.12 70.89 71.44 71.64 71.56 71.84 72.05 72.07 71.83 71.58 72.12 71.45 72.01 72.76 73.20 73.47 72.30 72.12 72.51 71.76 71.55 70.45 69.72 69.32 67.27 65.84 65.81
45.12 43.22 43.76 46.01 48.89 49.35 51.50 52.58 59.45 62.28 62.89 62.65 63.24 63.84 64.48 65.06 67.24 68.27 68.95 69.87 69.91 70.32 70.60 70.33 70.83 71.58 71.52 71.00 70.93 70.98 70.91 70.80 71.44 71.53 72.50 72.83 73.28 73.61 72.82 72.54 72.43 71.23 71.25 70.83 69.94 68.24 66.67 64.86 65.95
44.49 42.72 42.91 45.32 48.63 46.33 46.08 48.81 59.40 61.71 62.13 63.03 63.54 63.67 64.54 65.56 66.27 67.49 68.27 68.87 69.16 69.37 69.81 70.14 70.74 71.47 71.93 71.77 71.64 71.85 71.60 71.17 71.36 72.38 72.63 73.27 73.46 73.70 73.23 72.49 72.13 71.62 71.34 70.15 69.35 67.78 64.87 64.66 65.11
41.88 42.42 42.49 43.51 46.32 46.42 48.29 47.28 50.80 60.76 62.45 63.76 64.51 65.17 65.38 65.43 65.58 66.46 67.49 67.81 68.62 68.86 69.24 69.94 70.50 71.31 72.05 72.35 71.89 70.82 71.14 71.14 70.98 71.16 71.86 72.13 73.23 73.49 73.43 72.49 72.36 71.96 71.66 70.42 69.29 67.12 65.43 64.04 65.45
38.26 45.10 46.32 45.29 42.24 39.04 48.43 39.45 48.26 56.04 59.65 61.72 62.90 64.17 64.87 65.70 66.85 66.95 67.33 67.62 67.90 68.62 70.07 70.31 70.70 71.05 71.68 72.20 71.40 70.86 70.56 69.82 70.97 70.97 71.54 72.03 72.71 72.81 73.15 72.81 72.31 72.09 71.60 70.67 69.36 67.14 65.52 65.18 64.85
44.13 47.09 45.49 45.19 41.99 39.73 42.93 39.88 43.11 54.20 56.42 59.13 61.72 63.30 64.96 66.26 66.93 66.90 67.39 68.29 68.87 69.04 69.27 70.65 70.97 71.09 71.41 71.63 71.69 70.88 70.36 70.58 70.20 70.66 71.11 71.93 72.56 72.93 72.88 72.99 72.54 72.04 71.29 70.99 69.02 66.72 65.52 64.95 64.73
48.10 45.10 42.13 40.83 38.98 34.92 41.45 40.78 39.47 48.01 55.75 59.33 61.81 63.57 64.67 65.62 66.66 67.32 68.18 69.04 68.79 69.54 69.26 70.08 70.65 70.74 71.44 71.23 71.39 70.75 70.39 69.69 69.42 69.75 70.30 70.76 71.84 72.53 73.09 72.97 72.52 72.06 70.87 70.36 68.85 67.57 66.50 65.91 64.92
44.86 40.16 33.25 32.28 33.15 36.19 40.57 39.99 44.80 48.65 55.87 57.88 60.68 62.40 64.22 65.79 66.06 66.46 66.45 67.15 68.51 67.97 68.49 69.59 70.31 70.28 71.09 70.84 70.93 70.89 70.86 70.56 69.94 69.79 70.40 70.36 70.72 71.83 72.53 72.80 72.00 71.21 70.39 69.71 68.86 67.17 66.17 66.66 65.64
41.23 39.48 33.21 29.08 29.54 35.45 39.45 37.79 42.32 50.23 54.82 58.67 59.65 61.44 63.18 64.49 65.75 66.38 66.85 66.75 67.68 68.04 68.19 69.31 69.94 70.17 70.94 70.94 70.88 71.26 71.24 71.00 70.95 70.69 70.62 70.69 71.18 72.05 73.19 72.82 72.63 71.93 70.17 69.46 68.16 66.68 65.48 66.21 66.52
40.14 40.01 41.92 34.28 33.41 32.55 36.55 40.83 46.88 50.26 50.82 54.81 57.56 59.21 59.68 62.14 64.13 65.27 66.83 67.31 67.49 67.77 68.22 68.99 69.62 70.09 70.70 71.22 71.14 71.14 71.46 71.41 70.99 71.41 70.98 71.09 71.70 72.27 72.78 72.99 72.44 72.05 70.10 69.28 67.88 66.45 65.74 65.79 65.95
43.00 43.42 37.76 31.98 30.56 29.29 34.20 36.71 41.04 45.46 49.46 51.32 54.56 57.36 59.53 60.77 62.37 64.27 65.28 66.60 67.50 68.25 68.50 69.46 69.89 69.61 70.34 71.29 71.63 71.53 71.59 71.91 71.93 71.66 70.72 70.99 71.38 72.71 72.67 72.87 72.70 71.99 70.43 68.86 67.70 66.56 66.30 66.22 65.15
40.23 38.83 36.21 38.54 34.09 31.36 30.51 37.34 43.40 47.07 48.95 50.23 52.56 57.19 59.30 60.50 61.71 62.82 64.61 65.80 66.96 67.68 68.60 68.71 69.59 69.64 69.75 71.31 71.76 71.93 71.91 72.06 72.28 71.68 71.29 71.26 71.83 72.02 72.44 72.62 72.45 71.59 70.11 68.85 67.51 66.79 66.23 65.90 66.02
47.74 43.95 39.09 37.67 33.96 32.87 33.75 38.35 46.87 47.53 50.10 51.18 52.09 55.02 58.91 60.51 61.25 62.86 63.69 65.14 65.77 66.16 67.65 68.25 69.29 69.68 69.94 70.54 71.71 71.86 72.15 72.25 71.98 71.57 71.88 71.88 71.36 72.03 72.30 72.33 72.38 71.71 70.35 69.11 68.09 67.02 66.70 65.78 65.15

GFSSGP_sfc_wetblb_021.txt.gz
Wetbulb
74.46 74.73 73.90 70.53 61.29 60.01 55.78 57.67 62.48 60.22 61.14 65.20 65.99 63.92 62.54 63.24 60.12 57.67 69.95 71.23 72.61 71.72 73.98 74.73 76.02 77.19 77.39 77.70 77.40 77.67 77.31 77.26 77.38 77.36 77.03 76.80 76.96 76.87 76.77 76.72 76.59 76.32 76.05 75.86 75.83 75.53 75.31 74.87 75.06
75.23 73.73 71.46 65.27 58.30 54.53 55.59 60.70 59.69 62.40 64.45 66.58 66.17 65.35 63.53 60.95 65.22 67.25 68.31 71.57 72.42 72.99 74.00 74.25 76.38 77.90 77.93 78.07 78.17 77.96 77.04 77.14 77.10 77.16 77.23 76.94 77.02 76.96 76.74 76.38 76.07 76.07 75.99 75.65 75.69 75.14 74.71 74.62 74.60
74.29 72.76 64.77 61.75 59.08 55.82 56.64 60.50 62.87 64.16 66.01 65.44 64.30 66.47 64.90 63.22 66.84 68.34 71.20 71.40 72.28 73.03 73.78 74.45 76.33 78.01 77.79 77.81 78.01 77.88 77.58 77.23 77.19 77.15 77.12 76.94 76.80 76.59 76.38 76.38 76.29 76.48 76.15 76.01 75.92 75.15 74.73 74.37 74.00
71.70 68.97 65.87 59.21 56.67 59.52 59.32 62.63 64.63 64.26 65.37 66.37 65.74 62.89 66.11 69.05 68.28 70.47 71.78 72.05 72.37 73.04 73.95 75.76 77.22 77.35 77.62 77.88 77.83 77.31 77.15 77.08 76.92 77.15 76.83 76.84 76.51 76.47 76.26 75.90 76.24 76.26 76.21 75.81 75.45 75.53 75.09 74.47 73.97
70.78 65.66 60.90 58.72 57.79 60.89 63.53 65.23 65.75 63.78 64.45 64.71 65.22 61.52 62.86 68.44 71.25 71.48 71.66 72.24 72.18 72.96 74.34 75.83 77.43 78.00 77.93 78.11 77.97 77.23 77.10 76.90 76.95 76.79 76.64 76.51 76.41 76.27 76.22 76.47 75.97 76.33 76.14 75.65 75.42 75.12 75.07 75.51 74.93
64.82 65.78 57.77 56.04 57.51 62.10 63.26 66.30 65.64 64.56 64.87 64.33 63.27 63.08 64.56 70.61 69.94 70.89 71.72 72.20 72.95 73.18 74.50 75.79 77.12 77.94 77.99 77.76 77.40 77.07 76.96 76.79 76.79 76.63 76.62 76.30 76.13 76.03 75.95 76.01 76.28 76.45 76.04 75.51 75.45 75.04 74.67 75.51 75.38
62.20 61.85 57.73 57.79 57.53 60.28 62.66 67.13 65.40 64.70 64.19 63.21 65.99 62.20 65.04 67.97 70.49 71.35 71.92 72.79 73.18 74.19 74.68 75.60 75.41 76.90 77.28 77.76 77.32 77.07 77.02 76.92 76.66 76.51 76.67 76.42 75.89 75.59 75.40 75.70 75.62 75.73 75.87 75.50 74.98 74.90 74.98 74.98 75.16
66.20 61.62 57.88 58.65 58.37 59.24 64.33 65.03 67.27 65.84 63.77 67.41 67.50 62.09 62.10 68.00 70.76 71.48 71.89 72.48 73.05 73.93 74.28 75.49 75.05 75.51 76.19 76.79 76.76 76.59 76.85 76.94 76.72 76.65 76.29 76.24 76.13 75.43 75.20 74.87 75.14 75.26 75.36 75.11 74.72 74.33 74.41 74.27 74.47
67.10 61.56 57.99 57.41 59.09 60.94 66.12 64.43 67.27 68.39 65.37 65.73 66.82 66.31 68.02 70.05 70.80 70.24 70.38 70.96 71.85 72.82 74.11 75.16 74.75 75.34 76.51 76.43 76.39 76.59 76.47 76.51 76.62 76.40 76.19 76.51 78.18 77.67 76.63 76.14 75.48 75.48 75.26 74.71 74.80 74.69 75.07 74.79 75.40
64.09 60.36 59.10 61.94 62.95 60.10 65.19 65.71 66.00 65.01 64.25 64.46 65.82 67.96 69.05 69.56 69.36 68.46 68.55 68.80 69.94 71.10 72.74 74.12 74.85 74.86 75.73 75.24 76.65 76.75 76.39 76.11 76.31 76.34 76.60 77.46 77.18 77.55 76.37 76.25 74.78 73.79 75.47 75.20 74.84 75.06 74.70 75.04 74.89
65.03 61.02 63.32 62.69 62.98 62.91 64.02 65.42 67.26 64.86 62.79 65.00 64.81 66.11 67.65 68.26 68.64 68.48 68.84 69.49 69.99 71.44 72.37 73.53 74.59 75.67 75.39 75.19 75.56 75.94 75.77 76.09 76.44 77.54 77.09 76.75 77.47 77.09 77.51 77.50 77.23 75.79 74.02 76.28 76.31 76.34 74.13 75.55 75.31
61.85 64.19 64.38 62.94 63.34 63.04 63.17 66.77 65.39 66.00 65.21 67.91 67.91 67.96 67.88 67.59 67.89 68.26 68.57 69.55 70.30 71.18 72.09 73.35 74.43 75.10 75.45 75.32 75.09 75.20 75.33 75.80 75.67 76.07 77.49 76.51 75.92 76.75 76.98 76.27 74.52 74.97 75.54 76.41 76.36 75.79 74.78 73.92 75.04
62.97 62.13 62.49 62.88 62.61 61.31 63.52 65.13 65.41 65.70 67.65 68.77 68.59 67.94 67.29 67.62 68.17 69.30 69.97 70.58 71.18 70.99 72.12 73.07 74.32 75.08 75.35 75.62 74.98 74.90 75.72 75.39 75.70 76.23 76.54 76.12 75.35 76.01 76.59 75.75 75.67 76.11 76.59 76.33 74.69 75.75 75.81 73.96 72.31
60.42 59.49 56.76 59.02 59.84 58.51 61.46 63.46 65.69 66.65 68.37 67.55 67.70 67.17 67.48 67.66 68.21 69.34 69.91 70.67 71.41 71.89 72.44 73.50 73.93 74.98 75.36 75.26 75.72 74.92 75.61 75.80 75.62 75.30 75.38 76.38 75.28 75.45 75.80 75.94 74.80 76.20 76.72 76.41 74.97 75.20 73.90 71.60 73.49
55.81 51.81 54.58 55.59 56.63 56.47 61.05 61.03 62.52 67.18 67.83 66.65 66.83 67.09 67.46 67.93 68.90 69.11 70.48 71.15 72.09 72.52 73.32 73.58 74.18 74.95 74.99 75.26 75.49 75.06 74.80 75.21 74.67 74.71 75.81 75.90 76.15 76.28 76.62 76.17 74.81 75.58 77.03 76.80 77.32 74.13 75.11 70.64 71.41
52.13 52.38 49.38 54.56 55.69 58.16 60.95 53.87 63.42 67.42 66.69 65.91 66.35 66.53 66.92 68.03 68.94 70.43 71.49 71.93 72.72 73.20 72.96 73.85 74.09 74.65 75.12 75.27 75.36 74.70 74.96 75.05 74.65 74.71 74.99 75.56 76.31 76.89 76.66 75.78 75.17 76.39 76.78 77.78 77.23 76.56 75.67 73.00 71.02
50.26 48.34 49.32 52.07 55.85 58.92 61.15 55.65 61.61 67.20 66.62 65.81 65.96 66.29 66.74 67.79 69.20 70.70 71.57 72.09 72.79 73.32 73.20 73.24 74.20 74.32 74.67 75.27 75.14 74.84 75.17 74.61 74.84 75.03 74.72 75.37 76.19 76.70 76.58 76.16 76.01 76.87 76.07 77.14 77.10 75.55 74.34 72.05 71.07
46.08 46.87 49.36 50.41 54.08 55.91 58.60 58.36 61.09 66.31 66.23 65.88 65.85 66.23 66.51 67.16 68.53 70.57 71.42 72.20 72.97 73.57 74.01 73.99 73.93 74.41 74.96 74.84 74.89 74.37 74.30 74.09 74.48 74.71 75.19 76.57 76.56 76.76 76.88 76.27 76.37 76.62 75.56 75.41 75.17 75.10 73.22 71.76 71.60
48.67 48.58 49.03 51.86 54.20 55.49 56.61 58.18 61.20 65.27 65.89 65.76 66.06 66.04 66.28 67.12 69.44 70.69 71.43 72.21 72.60 73.21 73.57 73.88 73.66 74.98 74.21 73.51 72.52 72.61 72.28 73.20 74.38 75.27 76.23 76.88 77.12 77.51 77.37 76.21 76.40 76.22 75.12 75.53 75.27 73.69 71.76 70.10 72.00
48.03 47.43 48.83 50.96 52.54 52.00 52.96 54.19 57.56 63.78 65.10 66.18 66.21 66.11 66.56 67.71 68.78 69.74 70.75 71.59 71.95 72.59 73.44 74.25 74.44 75.27 74.85 74.04 74.24 74.00 74.15 74.21 75.53 75.82 76.42 76.87 77.09 77.47 77.16 76.99 76.45 76.28 74.86 75.31 74.70 73.42 70.89 70.28 71.25
47.49 46.64 48.18 49.32 50.56 51.79 51.95 51.46 54.42 62.06 65.06 66.37 67.41 67.82 67.63 67.87 68.17 69.19 69.90 70.83 71.74 72.14 73.24 74.54 75.43 75.78 75.47 75.81 74.69 74.54 75.28 75.53 74.87 75.09 75.71 76.42 77.04 77.39 77.49 77.37 76.92 76.52 75.78 74.61 74.89 73.48 72.45 69.37 70.17
44.84 49.16 49.04 48.99 48.57 46.67 53.07 46.80 53.92 57.57 61.87 64.01 65.84 66.76 67.45 68.23 69.25 69.75 70.06 70.50 71.31 72.79 73.64 75.05 75.43 76.03 75.66 76.73 75.28 75.19 72.99 72.31 73.78 74.91 75.82 76.07 77.18 77.29 77.48 77.59 77.14 76.88 76.00 75.79 75.18 74.06 72.83 71.05 68.21
46.97 50.00 49.00 49.65 48.83 48.46 48.99 47.80 52.34 57.39 58.99 62.16 64.72 66.28 67.38 68.88 69.43 69.51 70.07 70.97 72.06 72.71 72.82 73.73 75.39 75.89 76.27 76.72 76.54 74.76 74.63 73.93 74.69 74.91 76.26 77.47 77.31 77.20 77.06 77.37 77.19 76.90 75.98 76.21 75.61 73.94 72.76 70.97 69.49
52.41 50.00 49.82 49.16 48.72 42.94 47.94 47.44 49.28 52.63 56.95 61.41 64.75 66.43 67.63 68.48 69.38 70.36 71.25 71.76 71.93 72.51 72.59 73.39 74.69 75.18 75.89 76.24 76.17 76.11 75.74 75.33 73.93 74.31 73.98 74.63 75.34 75.83 76.69 76.95 77.29 77.20 76.57 76.24 75.70 74.76 73.65 71.74 70.46
50.58 47.94 42.87 41.13 41.32 41.82 50.21 47.08 49.84 54.79 58.72 59.75 63.61 65.79 67.54 69.00 69.33 69.82 70.46 70.87 71.86 72.41 72.79 73.09 74.31 74.29 75.40 75.47 75.75 76.10 76.03 76.34 75.71 75.30 73.96 74.81 74.20 74.65 76.51 76.94 76.86 76.48 76.66 76.55 76.12 74.49 73.51 72.28 70.58
48.31 47.85 42.85 38.29 40.17 42.90 48.80 45.08 49.67 55.52 57.54 61.07 63.06 65.82 67.68 68.37 69.46 69.93 71.47 71.94 72.39 72.67 73.20 73.10 73.27 73.86 74.91 75.20 75.43 76.05 76.43 75.23 75.42 75.95 74.49 74.26 74.37 75.08 76.94 76.91 77.26 77.14 76.77 76.33 75.66 74.12 73.25 72.69 71.70
47.67 45.72 49.60 44.14 43.61 42.73 46.02 49.27 52.42 55.10 56.08 58.67 60.91 62.49 64.83 67.19 68.66 69.49 71.21 72.26 72.39 72.90 73.11 73.19 73.13 73.80 74.82 74.79 75.23 75.59 75.92 75.78 75.34 76.40 76.49 74.99 76.59 75.47 76.31 76.96 76.88 77.16 76.83 76.27 75.54 73.76 72.94 71.91 71.79
49.09 50.97 43.67 44.95 38.93 38.39 43.56 45.12 47.39 53.11 54.90 56.66 58.85 60.67 62.75 64.58 67.00 68.87 70.47 71.42 72.37 72.68 73.69 73.57 73.74 73.74 74.45 75.00 75.14 75.16 75.45 75.83 76.07 76.54 76.07 76.27 76.56 76.34 76.03 76.31 76.64 76.88 76.73 76.16 75.45 74.46 73.73 71.97 70.94
46.50 46.45 47.63 47.39 45.22 40.88 39.94 43.92 53.26 54.98 58.03 58.17 58.71 60.74 62.09 63.73 65.28 66.95 69.38 71.16 72.19 72.20 72.79 73.25 73.31 73.73 74.29 74.81 75.19 75.12 75.30 75.46 75.80 75.85 76.28 76.41 76.64 76.57 76.32 76.39 76.24 76.32 76.23 76.00 75.18 74.86 73.99 71.82 71.60
50.63 48.69 48.22 43.73 42.57 44.48 44.58 44.44 52.91 55.55 57.43 58.77 59.20 60.53 62.19 64.97 66.10 66.78 67.91 69.32 70.51 71.83 71.71 72.38 73.00 73.21 74.16 74.76 75.07 75.01 75.65 75.51 75.38 75.52 76.12 76.68 76.51 76.65 77.33 77.18 76.27 76.34 76.39 76.02 74.84 74.35 73.75 72.26 71.39

GFSSGP_sfc_wetblb_024.txt.gz
Wetbulb
74.92 75.54 75.30 71.16 62.74 62.48 59.14 60.40 64.86 62.51 63.54 67.44 66.26 66.34 65.28 64.00 62.84 60.64 72.36 71.86 74.09 73.37 73.30 76.11 77.16 77.16 76.55 76.70 77.20 77.46 77.39 77.20 77.31 76.91 76.89 76.89 77.09 76.76 76.64 76.66 76.57 76.55 76.25 76.12 75.84 75.59 75.35 75.15 75.04
75.25 74.77 73.44 68.95 59.49 57.48 59.40 63.31 62.15 64.58 66.75 68.69 67.95 67.24 65.49 61.47 67.91 69.28 70.49 73.61 74.49 74.59 74.91 75.94 76.15 77.28 77.01 77.30 77.59 77.56 77.20 77.29 77.09 77.08 76.98 77.09 76.75 76.66 76.47 76.09 76.06 76.53 76.08 75.92 75.87 75.49 75.15 74.68 74.49
75.83 74.50 68.10 63.35 61.38 57.30 59.01 63.28 64.75 66.40 67.87 67.34 66.43 69.38 67.69 65.52 68.94 70.57 73.51 73.51 74.23 73.82 74.66 76.50 77.22 78.12 77.68 77.53 77.71 77.80 77.33 77.16 77.16 77.14 76.93 76.98 76.71 76.45 76.28 76.36 76.40 76.42 76.41 76.09 75.74 75.46 74.95 74.33 73.97
72.31 70.50 68.15 62.12 59.53 62.05 62.51 65.25 66.26 66.01 67.29 68.13 68.01 65.33 68.73 70.21 69.78 71.67 73.40 74.11 73.66 74.86 75.33 76.51 77.56 77.55 77.98 77.75 77.56 77.28 77.22 77.25 77.20 76.95 76.93 76.83 76.53 76.59 75.92 76.49 75.43 76.01 76.18 75.90 75.71 75.21 75.29 74.42 74.31
72.29 67.06 61.84 61.78 61.15 63.04 65.75 67.29 67.30 65.79 66.54 67.07 67.55 64.65 64.88 69.40 72.37 72.44 73.27 73.57 73.42 74.51 75.73 76.86 78.13 78.18 78.20 77.72 77.49 77.30 77.14 77.09 77.17 76.70 76.69 76.59 76.62 76.59 76.17 76.45 76.51 76.54 75.88 75.57 75.29 75.26 75.60 75.20 75.35
67.45 68.31 60.62 57.36 59.86 63.80 65.92 67.96 67.43 66.51 67.12 66.95 66.14 65.69 65.99 71.46 71.44 72.79 73.66 73.29 74.31 74.49 75.25 76.36 77.94 78.13 78.28 77.85 77.25 77.14 76.98 76.89 76.89 76.68 76.47 76.56 76.37 76.26 76.48 76.68 76.57 76.37 75.70 75.40 75.26 75.09 75.59 75.38 75.65
66.52 64.83 60.81 60.37 60.24 62.60 64.67 68.67 66.79 66.42 66.48 65.99 68.58 65.20 67.60 69.58 72.34 73.36 73.91 73.92 74.06 74.55 74.70 75.61 76.68 77.38 77.31 78.26 77.10 77.07 76.98 76.78 76.90 76.83 76.53 76.34 76.12 75.85 75.90 76.18 76.07 76.12 75.41 75.21 75.13 75.19 75.25 75.21 75.51
68.68 66.11 60.68 61.38 60.20 61.81 66.40 67.75 68.74 67.42 66.32 70.04 69.78 64.51 65.28 70.21 72.93 73.56 73.76 73.30 73.74 74.01 74.53 74.97 75.87 76.04 77.38 77.46 77.18 77.24 76.98 76.87 76.74 76.55 76.39 76.12 75.88 75.40 75.59 75.21 76.24 75.29 75.17 74.78 74.78 74.60 74.47 74.44 74.64
69.79 63.77 60.65 59.99 60.83 62.57 67.55 66.35 69.03 70.45 67.75 67.80 68.82 68.80 70.63 72.34 72.94 72.76 72.42 72.42 72.16 73.79 74.43 74.44 74.71 75.70 76.79 76.94 77.03 76.90 76.88 76.86 76.75 76.77 76.23 76.79 78.31 78.10 77.51 76.46 75.85 75.23 75.02 74.59 74.77 74.50 74.69 75.08 75.98
66.51 63.32 60.65 63.42 63.33 62.04 65.06 66.99 68.19 67.10 66.68 66.49 67.76 70.26 71.54 71.90 71.79 71.01 71.13 71.30 72.72 72.98 73.93 74.17 74.32 74.93 75.74 75.14 76.73 76.76 75.92 75.89 76.16 75.94 76.90 77.63 77.80 78.87 77.18 76.55 75.15 74.37 75.07 75.07 74.93 74.66 75.22 76.21 73.84
65.84 62.89 63.94 63.53 64.13 64.17 64.17 66.72 69.35 66.53 64.76 66.99 66.90 68.44 70.29 70.59 70.91 70.89 71.24 71.66 72.09 73.49 73.60 74.30 74.57 75.45 75.37 75.22 75.68 75.53 75.59 76.01 76.72 77.33 76.99 78.17 78.92 78.98 78.60 77.61 77.29 76.09 75.43 75.72 75.18 74.89 75.83 75.30 74.51
63.21 65.47 65.82 64.55 64.14 63.32 61.70 66.87 67.30 67.64 66.63 69.53 70.45 70.23 70.24 69.89 70.20 70.56 70.81 71.42 72.00 72.97 73.64 74.53 75.24 75.37 75.44 75.39 75.12 75.33 74.81 75.21 75.44 76.16 77.49 77.75 76.87 77.77 78.32 77.40 77.74 76.59 76.61 77.10 76.68 75.25 75.68 76.68 75.22
64.06 63.78 64.09 64.82 64.40 63.93 62.54 63.57 65.31 67.38 68.93 70.45 71.03 70.11 70.00 70.12 70.49 71.42 71.72 72.33 72.42 72.39 73.57 74.34 75.39 75.80 75.75 76.03 74.94 74.50 74.79 74.78 75.50 76.32 76.89 76.91 77.40 78.50 78.74 78.09 78.00 77.87 77.66 76.98 76.73 76.28 75.08 75.65 75.85
63.82 64.30 63.41 60.54 61.02 62.41 59.90 62.57 65.66 67.45 70.28 69.42 69.73 69.48 70.08 70.11 70.59 71.31 71.51 71.64 72.20 72.94 73.49 74.61 75.03 76.03 76.19 76.06 76.52 75.52 75.80 75.67 75.90 75.69 75.39 77.34 77.36 78.50 78.30 77.94 77.78 78.22 78.17 77.04 77.17 76.38 76.63 73.93 74.98
62.53 58.70 58.04 58.50 59.80 59.41 60.30 58.91 62.84 67.58 70.17 69.18 69.18 69.49 69.87 70.31 71.07 70.95 71.65 71.87 72.93 73.41 74.09 74.24 75.26 76.01 76.30 76.55 76.84 76.35 75.76 75.84 75.36 74.91 76.09 76.94 77.56 78.31 78.97 78.16 77.08 77.66 78.77 76.86 77.46 76.63 76.37 74.12 72.68
55.97 56.38 53.71 59.05 60.02 59.40 60.00 56.67 64.06 68.43 69.04 68.76 69.20 69.35 69.38 70.19 70.60 71.67 72.35 72.68 73.68 74.35 74.71 75.37 75.27 75.75 76.32 76.52 76.79 76.14 75.65 75.45 74.76 74.49 75.13 76.76 77.71 78.83 78.59 78.50 76.46 78.27 78.34 77.39 76.63 76.09 74.17 75.48 74.32
54.08 52.31 54.46 56.93 59.77 59.75 60.21 58.03 62.88 68.28 68.58 68.52 69.40 69.47 69.54 69.82 70.65 71.63 72.55 73.25 74.01 75.20 75.63 75.69 76.25 75.88 76.41 77.15 76.89 76.79 76.59 75.53 74.99 74.82 74.73 77.26 77.77 78.36 78.31 78.40 76.81 78.10 77.37 77.46 76.26 76.55 75.07 73.46 73.00
51.28 51.69 54.36 54.94 58.59 58.62 58.25 59.09 61.65 66.07 67.18 67.90 69.36 69.50 69.43 69.36 70.10 71.82 72.72 73.61 74.33 75.30 76.06 76.35 76.19 76.83 77.07 76.92 77.13 76.28 75.08 75.22 75.29 75.20 75.23 77.02 77.53 78.22 78.56 77.82 77.40 76.80 77.91 77.13 76.59 76.50 75.37 73.34 70.43
54.26 53.52 53.30 55.75 58.91 57.21 57.88 58.33 59.77 64.28 66.70 66.77 68.63 69.28 69.47 69.80 71.57 72.34 72.95 73.73 74.28 74.97 75.52 75.74 75.71 76.83 76.61 75.55 74.74 74.21 73.21 74.30 74.42 74.96 76.76 77.88 78.42 79.21 79.29 78.01 77.30 76.68 76.57 77.08 75.95 75.44 74.12 72.27 72.17
52.38 51.41 52.50 55.83 57.20 55.98 56.89 56.85 60.21 62.71 66.03 67.05 68.28 68.92 69.66 70.34 70.97 71.71 72.59 73.24 73.39 74.35 75.39 75.92 76.09 76.82 77.01 76.13 76.19 75.15 74.53 74.30 74.90 75.57 77.16 78.29 78.71 79.64 79.19 80.07 77.94 77.20 77.55 76.79 76.14 75.95 73.66 73.19 71.02
50.93 50.58 51.73 52.66 55.67 56.18 55.59 55.01 57.26 59.52 63.01 66.31 68.19 69.79 70.29 70.35 70.41 71.17 71.78 72.42 73.13 73.73 74.86 75.61 76.50 76.82 77.13 77.70 76.07 75.46 75.44 75.00 74.37 75.23 76.27 77.68 78.83 79.21 79.59 79.13 78.75 78.68 77.26 78.24 76.92 76.09 74.71 71.89 71.08
48.64 52.33 52.00 52.06 52.11 50.27 56.71 50.29 57.10 58.98 60.41 63.16 65.90 68.10 69.47 70.53 71.38 71.85 71.88 72.08 72.61 73.68 75.25 76.16 76.88 77.15 77.39 77.82 76.86 77.15 73.99 73.29 74.51 76.00 76.06 76.94 78.93 78.64 78.96 79.36 79.02 79.20 77.28 77.79 78.02 76.41 75.60 74.82 70.24
49.71 52.12 51.42 51.22 50.55 51.49 52.89 51.53 54.79 58.80 57.66 60.19 63.98 66.54 69.13 70.49 71.42 71.78 72.00 72.24 73.10 74.00 74.60 75.95 77.12 78.39 78.66 78.11 78.49 76.03 76.03 75.37 75.76 75.72 78.39 79.36 79.24 78.94 78.49 79.07 78.96 78.74 78.60 78.13 77.97 76.89 76.45 74.80 72.32
53.31 51.00 50.53 50.88 50.10 46.18 51.55 51.95 52.84 55.80 58.39 60.16 64.19 66.73 68.95 70.08 71.17 72.39 73.30 73.12 72.83 74.07 74.97 75.45 77.44 78.98 78.86 78.25 77.57 78.78 78.50 77.35 75.70 76.59 75.33 75.85 76.68 77.34 78.55 78.74 78.45 78.57 78.60 78.37 78.15 77.94 76.82 76.00 74.19
52.21 49.75 45.09 43.64 44.01 44.42 52.65 50.89 53.46 57.55 59.55 60.56 61.67 64.24 68.78 70.40 71.01 71.76 72.57 72.86 72.85 73.50 74.31 75.21 76.80 77.59 77.88 77.60 77.63 77.63 78.05 78.47 78.29 77.63 76.09 77.46 75.38 75.72 78.70 78.68 78.74 78.27 79.24 78.74 78.87 78.22 77.01 76.46 74.34
50.75 49.97 45.56 41.51 42.76 45.28 51.90 48.70 53.09 58.91 60.48 61.10 62.52 63.24 67.46 70.02 71.11 71.49 72.71 73.38 73.58 73.49 74.97 75.54 76.57 77.18 77.49 77.40 78.80 79.41 79.59 76.89 77.08 78.27 77.08 76.51 76.01 76.54 77.96 78.06 78.53 78.60 78.85 78.87 78.86 77.63 76.81 76.62 75.29
50.83 48.61 51.77 47.68 48.91 46.52 49.25 52.05 55.84 58.02 58.89 60.04 60.79 62.32 63.90 68.91 70.75 71.50 72.45 73.53 74.01 74.47 75.70 76.71 77.20 77.86 77.59 76.78 78.78 79.33 79.20 78.92 77.24 79.31 79.08 77.57 79.34 77.31 77.73 78.10 78.35 78.40 78.54 78.80 78.91 77.19 77.03 76.49 75.76
52.72 53.67 47.07 48.07 43.04 42.56 46.70 49.09 50.34 55.02 56.68 59.09 59.77 61.42 63.55 67.17 70.04 71.23 72.29 73.03 74.35 74.99 75.43 76.26 77.17 77.75 78.25 78.04 78.05 77.74 78.45 79.34 79.51 79.92 79.34 79.59 79.17 79.15 78.21 77.99 78.07 78.19 78.44 78.66 78.70 77.66 77.67 76.65 75.25
50.19 49.86 50.45 50.19 48.28 44.87 44.10 47.80 55.61 56.02 58.35 58.48 60.19 62.10 63.61 65.84 68.06 70.17 71.48 72.89 73.83 75.04 75.58 75.70 75.99 77.10 77.02 78.07 78.56 78.50 78.17 78.38 78.67 78.69 79.71 80.15 79.39 79.97 78.99 78.84 77.93 77.61 77.93 78.39 78.36 78.38 77.55 76.59 76.01
52.71 51.04 51.09 46.70 46.73 48.10 48.18 48.42 55.05 56.42 57.73 59.82 60.35 62.10 63.79 65.50 66.82 68.01 69.41 71.32 72.89 73.76 74.80 75.41 75.84 75.76 76.82 77.77 78.80 78.72 79.15 78.96 78.17 78.87 79.42 80.19 79.78 80.08 79.74 79.02 78.41 77.84 77.56 78.65 78.05 77.46 76.71 76.53 75.73

GFSSGP_sfc_wetblb_027.txt.gz
Wetbulb
74.72 75.92 75.18 72.10 61.56 61.79 57.29 59.35 64.01 63.66 63.86 67.88 68.79 66.09 65.05 66.64 64.98 60.32 70.48 71.14 68.80 70.04 72.77 76.03 76.53 76.17 76.34 76.82 77.53 77.65 77.25 77.15 77.33 77.02 76.54 77.12 76.97 76.40 76.50 76.51 76.58 76.53 76.53 76.25 75.83 75.84 75.39 75.56 75.14
75.26 74.40 72.76 68.55 59.77 54.96 58.87 62.31 60.98 64.43 67.57 69.08 68.94 67.87 66.32 62.77 70.05 68.86 70.46 70.40 70.48 70.36 74.69 75.49 77.00 77.03 76.84 77.29 77.54 77.40 77.23 77.30 77.07 77.08 77.28 76.86 77.00 76.75 76.50 76.45 76.64 76.30 76.25 76.06 75.48 75.36 75.06 74.83 74.58
74.78 74.30 67.97 63.94 60.66 56.75 58.55 62.08 63.69 67.15 68.70 67.48 68.12 69.57 67.26 65.80 69.65 70.66 73.39 73.99 73.53 73.94 74.52 76.19 77.01 77.16 77.32 77.49 77.45 77.32 77.09 77.24 77.22 77.04 76.93 76.68 76.72 76.47 76.67 76.00 76.48 76.69 76.20 75.89 75.42 75.24 74.75 74.44 74.33
72.35 71.94 69.72 62.71 57.99 62.52 62.41 64.08 66.35 66.84 68.47 69.36 69.22 66.21 69.96 71.77 71.08 73.06 74.25 74.18 73.14 73.94 74.76 76.48 77.07 77.49 77.65 77.50 77.22 77.20 77.17 77.16 77.23 77.21 77.23 76.83 76.66 76.39 76.67 75.92 76.14 76.17 76.03 75.78 75.33 75.58 75.26 75.11 74.64
71.61 69.36 63.44 59.86 59.70 63.62 65.27 67.44 67.14 65.81 67.11 67.73 68.83 66.43 66.63 70.07 73.08 73.78 73.50 73.66 73.41 73.50 75.33 76.70 78.19 78.24 77.82 77.30 77.25 77.20 77.17 77.28 76.90 76.93 76.72 76.86 76.58 76.39 76.48 76.87 76.59 75.97 75.86 75.75 75.69 76.03 75.95 76.03 75.67
67.88 69.43 57.56 56.09 60.19 63.51 66.09 67.83 66.39 65.74 67.98 67.62 67.39 66.58 66.64 71.47 72.78 73.49 73.75 73.81 74.03 73.39 74.49 76.47 77.67 78.30 78.18 77.42 77.29 77.23 77.21 77.14 76.79 76.86 76.67 76.67 76.56 76.67 76.67 76.73 76.50 76.02 75.80 75.77 75.63 75.66 75.64 75.45 75.72
67.64 63.70 57.73 57.92 60.01 61.78 64.35 68.16 65.98 66.62 67.09 66.95 69.48 66.17 67.72 69.26 72.30 73.48 73.33 73.38 73.74 74.43 74.40 75.30 76.10 77.39 77.94 77.74 77.23 77.21 76.85 76.82 76.69 76.58 76.47 76.53 76.42 76.31 76.25 76.17 76.16 76.09 75.66 75.66 75.41 75.36 75.48 75.39 75.37
69.37 66.85 61.28 58.08 57.27 60.19 65.34 65.83 67.81 67.00 67.38 70.87 71.72 65.76 65.32 70.01 72.53 72.85 72.71 72.79 72.99 73.80 73.91 74.20 75.37 75.86 77.37 76.86 77.02 76.94 76.80 76.72 76.75 76.81 76.39 76.31 76.28 76.58 76.05 76.45 76.05 75.62 75.16 75.10 74.66 74.58 74.97 75.39 75.66
70.95 63.12 60.56 59.77 58.95 63.13 66.55 64.30 67.86 70.56 68.23 69.16 69.97 70.27 71.24 72.66 72.17 71.18 71.24 71.38 73.12 73.08 73.41 74.00 74.35 75.67 77.21 75.98 76.93 77.01 76.75 76.70 76.72 76.61 76.42 76.63 75.71 76.53 76.12 76.72 75.92 75.06 75.15 74.86 74.39 74.64 74.46 75.24 75.93
66.58 60.99 58.96 63.04 63.48 63.09 65.52 65.24 66.19 67.33 66.99 67.34 68.56 71.67 72.19 72.65 71.57 69.87 69.97 69.79 70.99 71.72 72.57 73.59 74.06 74.74 75.61 74.60 76.41 76.45 75.96 75.60 76.22 76.23 76.25 75.63 77.66 78.39 76.49 77.26 76.14 75.59 75.15 75.33 74.53 75.10 74.38 76.37 72.97
66.14 61.52 62.14 63.87 64.83 64.67 65.07 66.37 67.45 65.00 64.88 67.49 67.73 69.78 71.10 71.44 71.67 71.72 71.56 72.20 72.45 73.22 72.84 73.42 74.31 75.41 74.78 76.53 74.82 74.76 74.81 75.19 75.97 76.87 77.28 78.30 77.32 76.90 72.97 75.06 74.28 75.22 76.18 74.50 74.91 74.38 74.04 74.15 74.20
62.71 65.81 63.31 64.08 65.19 63.88 63.38 67.03 66.13 65.97 65.83 69.07 70.59 71.22 71.19 70.75 70.94 71.29 71.81 72.43 72.48 73.08 73.26 73.26 74.44 75.34 75.01 75.06 74.52 74.32 74.10 74.61 74.74 75.83 77.34 78.12 76.78 76.84 77.25 75.99 76.77 76.76 75.39 75.03 74.99 75.40 75.93 72.99 74.77
62.92 64.44 65.69 66.48 65.61 64.60 63.76 63.67 65.50 66.26 67.37 69.50 71.08 71.10 70.73 70.99 71.26 71.95 72.42 72.84 73.36 72.58 73.13 73.58 74.63 76.75 77.41 76.74 74.84 74.47 74.45 74.10 74.71 75.91 76.56 76.75 76.58 77.32 76.97 77.18 76.80 77.30 76.17 74.26 75.22 76.15 75.42 75.24 74.06
64.16 64.57 65.04 65.10 64.55 64.11 62.32 62.33 65.22 67.74 69.01 69.00 70.11 70.33 70.80 70.78 71.40 71.94 72.09 72.13 72.76 73.29 73.39 74.24 74.95 76.22 76.42 76.72 77.89 75.34 74.69 74.97 74.88 75.02 75.80 77.37 77.42 77.56 76.83 76.69 75.83 75.89 76.17 75.37 75.93 76.07 75.39 74.26 74.08
63.85 61.05 63.56 64.34 62.48 61.83 63.08 60.06 62.79 68.53 69.68 68.85 69.62 70.04 70.54 70.95 71.72 71.60 72.18 72.17 72.81 73.40 74.13 74.33 75.06 75.96 75.90 76.39 76.61 75.66 75.08 75.07 74.88 74.88 76.38 76.98 77.92 78.46 78.65 76.88 76.52 75.91 78.17 77.57 76.80 76.46 72.28 73.65 72.13
60.06 60.81 58.14 61.47 61.68 61.91 61.42 56.65 62.61 68.16 69.28 68.18 69.14 69.26 70.04 70.81 71.33 72.40 72.71 73.03 73.55 73.88 74.28 74.97 74.75 75.30 75.61 76.51 76.81 75.86 75.54 75.11 75.16 74.70 75.20 76.68 77.89 78.65 78.76 77.82 77.17 75.87 77.53 76.48 75.17 76.86 72.92 73.38 71.91
56.46 53.88 55.97 58.51 61.96 61.16 60.43 58.97 63.20 67.30 68.72 68.47 69.12 69.47 69.19 70.27 71.35 72.54 73.00 73.31 73.73 74.42 74.74 74.92 75.53 75.49 76.27 78.26 77.01 76.77 78.27 75.66 75.14 74.65 74.33 77.71 78.09 78.68 78.49 76.85 77.73 78.01 76.12 76.24 75.46 74.65 74.44 71.61 70.74
52.74 53.42 55.72 56.19 60.14 60.60 59.44 59.49 62.13 66.69 67.12 67.70 69.08 69.71 69.76 69.32 70.26 72.25 73.02 73.43 74.04 74.65 75.59 76.29 75.79 78.31 79.21 77.52 78.57 76.26 75.70 75.42 75.19 74.54 74.37 78.71 77.88 78.55 78.61 77.51 77.52 77.46 74.11 76.29 76.17 75.96 73.85 72.15 69.56
56.41 55.33 54.56 57.74 60.57 58.93 58.70 59.88 61.45 63.89 65.79 66.03 68.39 69.61 69.87 69.94 71.13 72.20 73.06 73.46 73.92 74.81 75.75 76.92 77.44 79.39 77.79 76.27 75.14 75.03 73.92 74.78 74.19 75.03 76.72 77.51 77.77 78.71 79.33 77.40 77.61 77.27 77.58 76.61 75.76 74.95 74.02 70.60 72.09
55.49 54.73 54.92 57.20 58.91 59.18 58.59 58.05 60.98 62.71 64.28 65.93 67.39 69.02 69.91 70.43 70.86 71.26 72.26 73.02 73.23 74.22 76.15 78.04 78.47 79.61 78.69 77.17 77.47 76.47 76.25 74.39 74.49 75.03 77.93 77.60 78.14 79.10 79.45 78.92 77.64 77.91 76.27 76.69 76.29 75.86 73.56 70.78 70.81
53.10 52.92 54.22 54.59 57.48 58.66 57.88 56.81 58.48 61.49 63.66 66.49 67.69 69.76 70.28 70.58 70.72 70.99 71.54 72.27 73.14 73.93 76.12 77.69 78.78 79.39 79.14 79.47 78.23 78.04 77.20 76.62 74.25 74.96 74.84 76.94 78.20 78.72 79.80 78.47 78.07 78.36 78.40 77.74 77.02 75.97 75.28 71.25 69.95
49.67 53.72 54.16 54.05 54.19 51.95 57.59 50.89 57.61 59.60 60.46 64.21 66.01 68.35 69.63 70.48 71.73 71.97 71.62 72.04 72.77 74.20 75.59 78.20 79.00 79.24 79.32 80.06 77.39 77.36 73.87 72.54 73.44 74.67 75.32 76.72 78.90 78.46 79.09 79.19 78.13 80.03 77.27 77.93 77.65 76.10 76.56 75.24 70.69
51.36 54.34 52.95 53.34 52.93 53.57 54.34 53.18 56.87 59.44 58.24 60.21 63.17 66.27 69.29 70.25 71.44 71.86 72.19 72.26 73.10 73.87 74.49 76.61 79.29 79.58 79.43 79.47 79.27 76.55 75.93 73.96 74.60 74.82 78.42 78.52 80.11 79.13 78.34 79.93 79.83 79.38 77.46 79.78 77.83 77.71 77.25 75.17 73.58
54.84 52.78 52.61 52.48 51.27 47.68 52.27 53.03 54.42 57.19 59.47 60.89 62.94 64.43 67.33 69.23 70.93 72.38 73.35 73.17 72.73 73.45 74.13 76.12 78.84 79.38 80.04 79.75 79.05 79.73 77.25 76.44 74.74 75.74 75.30 75.34 75.89 77.82 79.82 79.16 80.44 79.87 79.71 78.87 78.15 78.64 77.84 76.67 75.82
53.14 50.70 45.63 44.33 44.85 45.10 52.64 51.41 54.51 59.21 60.31 61.77 62.17 63.70 65.77 68.21 70.32 71.71 72.59 72.47 72.72 73.86 74.80 76.26 78.46 78.93 79.78 79.80 78.88 78.85 79.43 78.60 80.24 79.88 75.28 76.43 74.95 75.17 78.75 80.13 80.48 78.48 80.35 79.36 80.41 80.09 78.72 77.16 75.78
51.96 50.98 46.47 42.19 43.07 45.68 51.80 49.28 53.32 59.78 61.43 62.35 63.66 64.37 66.52 67.78 70.11 71.36 72.69 73.19 73.59 74.18 75.74 76.38 77.92 78.88 79.81 79.49 79.58 79.49 80.43 77.51 76.94 78.52 76.49 75.78 75.29 75.95 80.17 80.28 80.16 79.90 79.80 79.23 80.64 78.20 77.27 78.69 76.08
52.14 49.70 52.80 49.49 50.22 47.76 49.33 52.39 56.39 59.14 59.71 60.97 61.99 63.32 64.55 67.17 69.33 71.24 72.56 73.62 74.40 74.19 75.93 76.74 77.88 78.80 79.56 79.20 79.78 80.06 79.78 79.44 77.98 78.86 79.46 77.99 79.17 76.91 80.15 80.39 79.87 79.99 80.06 80.47 80.52 77.31 78.62 78.71 77.63
54.35 54.32 48.23 49.45 45.34 45.05 48.69 50.94 51.00 56.33 57.98 60.10 61.23 62.12 63.77 65.89 68.96 71.08 72.22 73.38 74.99 74.53 75.81 77.30 78.15 78.79 79.30 79.34 79.60 79.59 80.26 80.40 80.02 80.55 80.32 78.88 79.83 80.63 80.59 79.54 79.64 79.58 80.07 80.38 80.57 78.62 79.35 79.22 77.14
51.56 51.58 51.78 51.36 49.80 46.84 46.51 49.47 56.87 57.97 59.46 59.49 61.03 62.38 63.55 64.66 68.08 70.58 72.20 73.26 74.63 75.17 75.08 75.94 77.49 78.68 79.06 79.11 79.49 79.48 79.69 79.98 80.53 80.08 80.70 80.53 81.09 81.65 80.15 80.91 79.94 79.81 79.69 80.26 80.26 79.66 79.34 78.66 78.57
54.39 52.39 53.01 48.04 48.91 49.75 50.10 52.00 57.36 58.38 58.84 60.55 61.01 62.50 63.50 65.15 67.53 70.40 71.66 72.55 73.13 74.28 75.12 75.63 76.15 76.51 78.84 79.20 79.70 79.42 79.92 79.70 79.78 79.92 80.20 81.10 80.81 81.13 81.70 80.98 80.62 80.32 79.66 80.08 79.83 79.05 77.56 78.77 77.65

GFSSGP_sfc_wetblb_030.txt.gz
Wetbulb
74.83 75.20 74.26 71.69 61.93 59.99 57.35 58.05 62.42 62.36 64.05 67.46 68.66 66.31 64.95 66.84 64.13 59.29 69.34 70.48 70.15 71.17 72.74 74.97 76.70 76.84 77.13 77.97 78.51 78.03 78.10 78.14 77.74 77.28 77.76 77.15 77.07 76.74 77.26 77.47 77.41 77.22 76.82 76.24 76.19 76.00 75.95 75.58 75.20
74.92 74.28 72.59 67.81 58.96 52.83 56.57 62.42 60.61 63.91 66.64 68.80 68.25 67.44 66.35 63.65 67.29 67.09 68.30 69.23 69.99 71.49 72.51 74.20 76.96 77.49 77.50 77.52 78.27 77.97 77.48 77.21 77.41 76.82 77.48 77.46 77.60 77.71 77.39 77.07 76.68 76.57 76.39 76.17 75.81 75.64 75.47 75.19 75.11
73.91 74.42 67.37 63.91 59.68 55.33 57.10 60.63 63.54 66.39 68.73 68.09 67.47 69.59 67.09 64.74 67.45 68.39 69.75 69.50 69.94 71.82 73.11 75.32 77.48 77.84 77.77 78.14 78.18 78.11 77.85 77.73 77.35 77.05 77.20 76.90 76.82 77.43 76.80 76.83 76.82 76.52 76.25 76.11 75.89 75.35 75.18 74.81 74.79
72.05 71.15 68.76 60.10 57.68 60.59 62.63 64.65 65.59 66.28 68.12 69.13 67.77 65.15 67.96 69.88 69.58 70.69 68.52 69.30 70.13 72.90 74.25 76.57 77.19 77.41 77.70 78.18 78.03 77.74 77.70 77.39 77.39 77.17 77.43 77.04 76.91 76.83 76.45 76.56 76.56 76.47 76.17 76.03 76.14 76.03 75.63 75.21 75.13
72.27 68.59 61.18 59.61 59.24 62.50 65.84 67.13 66.41 65.35 66.44 67.08 68.39 64.20 65.58 70.68 72.89 70.84 70.53 71.04 71.60 73.38 74.83 74.85 78.13 77.94 78.26 78.09 77.95 77.83 77.33 77.20 77.37 77.75 77.13 76.85 76.80 76.80 77.14 77.00 76.53 76.56 76.34 76.28 76.50 76.34 76.17 75.81 75.50
67.10 63.43 57.04 56.62 58.17 63.41 65.89 67.81 67.55 66.20 67.59 67.98 66.32 65.45 65.92 71.45 71.77 72.14 73.16 72.55 73.88 73.40 74.09 75.39 77.69 78.02 78.15 77.87 77.86 77.79 77.25 76.82 77.04 77.13 77.11 76.99 77.13 77.22 77.25 76.92 76.47 76.50 76.36 76.16 76.05 75.91 75.50 75.78 74.73
63.22 58.75 56.23 58.17 57.11 61.73 64.93 68.50 66.75 66.39 66.18 66.82 68.94 64.17 66.79 69.15 71.86 73.03 72.74 72.53 73.15 73.52 73.98 75.47 76.29 77.14 77.76 78.05 77.98 77.34 77.03 76.76 76.77 76.66 76.61 76.64 76.47 76.50 76.73 77.25 76.98 76.35 76.12 75.84 75.53 75.31 75.16 74.77 75.31
67.78 61.51 59.03 58.97 57.78 57.49 65.93 67.04 68.38 66.95 66.04 71.33 70.17 63.80 63.87 69.00 72.25 72.66 72.81 73.18 73.47 72.41 73.73 74.76 75.49 75.11 75.99 75.96 77.34 76.93 76.85 76.55 76.44 76.36 76.39 76.31 76.14 76.04 75.73 77.39 77.59 76.23 75.90 75.29 74.81 74.61 74.45 75.13 75.78
70.13 61.07 58.61 58.71 60.06 60.60 64.97 66.25 68.93 69.25 68.30 69.75 70.35 68.48 69.87 71.46 71.98 71.35 70.25 71.92 72.24 71.87 72.55 73.41 73.61 75.83 76.64 76.13 76.21 76.72 76.58 76.47 76.61 76.08 75.86 75.52 77.70 75.35 76.14 77.37 77.11 76.01 75.20 74.53 74.39 74.55 74.79 75.58 76.39
65.22 58.45 57.68 63.74 62.74 62.39 64.95 63.87 66.28 66.19 66.48 67.61 68.38 70.04 70.96 71.45 70.92 69.71 69.01 69.31 71.12 70.11 71.45 72.89 73.72 74.81 75.17 73.82 76.26 76.78 75.66 75.38 75.86 74.88 67.56 69.03 75.33 76.20 76.39 76.53 77.81 76.36 74.78 75.23 75.57 76.47 76.36 74.02 73.22
64.59 59.19 62.61 62.83 64.95 65.24 64.07 63.75 67.22 65.02 63.98 67.84 66.66 67.94 69.79 69.80 69.80 69.35 69.78 70.15 70.43 71.10 71.66 72.95 74.00 75.42 74.35 74.63 75.23 75.41 75.15 75.31 74.88 73.69 67.32 70.48 75.16 75.14 74.66 75.67 75.05 75.83 73.51 74.16 74.30 74.51 75.29 74.11 73.99
61.75 63.06 62.24 63.93 65.73 64.14 64.36 64.22 64.08 64.94 65.20 70.14 70.00 69.91 70.20 69.06 69.18 69.61 69.47 70.31 70.86 71.37 72.06 72.70 74.38 75.52 74.80 74.75 73.60 74.68 74.35 73.79 75.48 76.54 76.64 75.96 74.00 73.54 76.20 74.65 76.89 73.80 74.64 74.14 75.01 74.73 75.72 75.73 75.35
62.03 63.86 64.91 62.31 64.51 63.70 66.33 63.57 63.28 63.88 67.58 70.34 70.79 70.10 69.75 69.98 70.18 71.08 71.65 71.74 72.51 71.96 72.10 73.07 74.42 75.57 77.67 76.00 74.13 73.98 75.01 75.03 75.40 76.58 77.67 73.83 72.70 76.89 77.64 77.93 73.51 73.22 72.81 72.41 73.36 75.54 75.37 75.34 71.89
63.47 63.74 63.78 64.39 65.42 64.32 61.81 64.24 64.47 65.32 67.65 68.93 69.70 69.45 69.82 69.97 70.61 71.18 71.51 71.74 72.44 72.84 71.98 73.96 74.70 75.92 78.61 78.29 80.23 76.80 78.35 75.50 76.12 75.35 76.32 78.26 76.91 77.72 79.33 78.05 74.15 75.91 73.78 72.54 73.39 71.96 72.03 72.61 72.41
62.75 59.92 62.58 63.59 64.33 62.50 63.19 59.95 61.71 66.26 67.52 66.77 68.37 69.24 69.74 70.12 70.79 71.04 72.41 71.92 73.00 72.47 73.76 73.82 74.56 75.40 77.25 78.08 79.52 79.03 78.19 74.73 75.41 75.55 77.88 78.10 79.33 79.67 76.32 77.37 76.07 77.32 78.21 77.86 76.78 74.57 72.85 70.56 72.11
59.89 59.85 56.83 62.35 63.61 62.64 61.31 56.14 64.29 66.30 66.91 66.07 67.60 68.52 69.26 69.97 70.33 71.79 72.32 72.42 73.35 73.08 73.60 74.27 74.06 74.79 75.64 76.45 77.88 77.56 75.97 76.29 76.41 77.03 76.62 77.97 79.75 80.73 80.01 75.82 74.37 73.39 76.85 75.96 75.52 75.44 72.06 72.11 71.09
57.89 53.94 56.10 58.89 62.97 61.49 60.04 57.27 61.84 66.85 66.34 66.84 66.75 67.90 68.58 69.96 70.86 72.08 72.03 72.93 73.18 73.90 74.81 74.97 75.29 74.80 75.07 77.06 76.94 76.50 77.07 77.69 77.43 78.21 76.50 77.79 79.31 79.73 79.79 78.72 76.72 77.50 73.52 76.14 75.72 75.61 75.34 71.29 70.89
53.41 54.09 55.59 56.59 60.64 60.43 58.57 58.20 62.01 64.81 65.21 66.88 68.13 67.59 68.34 68.65 70.00 72.00 72.38 73.02 73.69 74.58 75.40 75.59 75.11 75.64 75.81 76.37 77.28 76.03 76.09 76.74 77.23 77.93 77.42 77.62 78.51 79.54 80.23 78.57 78.96 77.05 73.69 76.88 76.78 76.47 74.70 73.13 70.71
57.29 55.44 53.86 56.74 60.05 59.11 58.15 59.16 61.76 63.69 61.64 65.92 67.23 68.27 68.04 68.76 70.59 72.29 72.42 73.05 73.72 74.62 74.83 74.96 75.75 77.70 76.19 75.63 74.83 74.88 73.59 75.41 75.97 77.65 79.16 78.65 78.85 79.69 80.56 79.11 74.11 78.02 75.54 77.21 76.86 76.07 74.96 71.92 72.06
56.22 54.84 54.09 56.18 58.52 58.35 58.41 57.69 61.02 63.35 61.51 63.40 66.57 66.62 68.75 68.52 69.72 71.36 72.03 72.38 72.83 73.79 75.05 75.09 75.79 77.53 76.89 76.24 76.06 75.66 75.81 75.82 75.66 76.70 78.75 78.17 78.29 78.77 79.24 78.92 77.47 77.45 76.88 77.34 77.46 77.03 74.07 71.88 71.37
55.19 54.21 54.12 54.18 56.61 58.45 58.10 56.36 58.87 62.29 64.19 63.99 67.32 67.55 69.35 69.50 69.27 70.36 71.34 71.98 72.46 73.54 74.99 75.78 76.36 77.88 77.05 77.51 77.48 77.59 78.32 78.18 74.75 75.19 76.68 77.18 78.52 78.57 78.84 78.42 78.78 77.89 77.52 76.24 77.22 76.97 75.85 72.55 71.34
50.91 56.35 55.27 54.86 54.00 50.70 56.91 49.76 57.87 59.78 60.72 62.94 64.25 65.87 68.53 70.11 70.71 70.79 71.33 71.72 72.32 73.73 75.71 76.91 77.31 77.85 77.44 78.27 76.75 76.38 73.95 72.42 74.28 74.85 75.73 76.10 77.55 78.76 79.04 78.95 78.84 79.27 77.97 76.39 76.62 77.89 76.96 75.38 70.67
51.17 54.06 53.77 53.57 53.07 52.93 53.67 51.57 55.08 60.07 58.53 60.29 64.06 66.68 67.82 70.31 70.86 70.70 71.15 72.06 72.99 74.01 75.54 76.83 77.31 77.66 78.06 77.19 78.20 75.92 74.63 74.78 74.48 75.18 77.00 76.74 77.44 78.12 78.56 78.54 79.08 79.18 78.39 77.38 76.75 78.21 77.22 77.25 73.88
54.02 52.15 52.22 52.05 51.20 47.97 51.73 51.79 53.11 56.21 59.42 60.72 63.42 65.04 68.38 68.40 71.12 72.05 72.29 72.89 72.82 74.26 75.24 76.48 76.95 76.99 77.87 77.71 76.69 77.61 75.32 75.02 73.76 74.14 74.36 75.86 77.07 77.33 78.74 79.41 78.57 79.12 77.87 78.21 77.82 78.13 78.63 77.21 76.76
52.61 49.93 45.24 44.41 44.74 44.25 52.12 50.95 54.45 58.55 61.23 61.77 62.20 63.96 66.85 69.66 70.74 72.06 71.95 71.96 72.35 73.23 74.45 75.17 76.71 76.27 77.01 77.50 76.34 76.58 77.22 75.21 77.08 76.48 74.82 75.35 74.39 76.37 76.97 78.70 78.63 77.66 78.43 78.86 77.79 78.38 78.59 77.73 76.58
50.92 49.89 45.99 41.18 42.67 44.41 50.65 47.90 52.23 58.98 60.97 63.27 63.82 64.13 66.18 67.92 69.84 71.66 72.56 72.73 72.39 72.98 73.73 74.79 76.31 76.20 76.90 77.03 77.21 76.53 78.41 76.24 75.00 77.98 75.37 75.54 75.36 75.36 78.32 77.44 78.45 78.45 78.35 78.29 79.30 77.49 77.33 77.56 76.50
51.32 48.49 52.08 47.82 48.77 45.80 47.92 50.65 54.92 58.28 59.01 61.02 61.44 63.78 64.63 66.43 68.22 70.95 72.89 73.29 72.98 72.89 73.51 74.54 75.71 76.52 77.30 76.65 77.63 77.14 76.47 77.77 75.13 76.24 77.81 77.06 77.16 77.34 78.87 77.76 77.72 77.62 78.46 78.22 78.38 77.03 77.36 77.99 76.77
53.15 54.26 47.71 48.92 43.66 43.66 47.01 50.16 50.09 55.13 57.68 59.97 61.39 61.68 64.42 66.45 67.98 70.70 72.55 73.64 73.54 73.27 74.11 74.70 75.97 76.50 77.38 77.66 77.50 77.55 76.73 77.43 77.61 76.14 77.28 76.59 78.06 77.43 80.59 77.97 77.95 78.13 78.20 78.85 78.31 77.65 77.80 76.94 77.15
51.43 51.29 50.86 50.43 49.08 45.26 45.46 48.29 57.48 57.55 59.19 60.38 61.24 62.77 64.13 66.50 68.10 70.08 72.59 73.85 74.30 73.80 74.13 74.35 74.87 76.52 77.37 77.70 77.75 77.69 77.86 76.96 77.19 77.25 76.92 78.54 77.31 80.11 77.67 79.62 78.35 78.03 77.83 78.09 78.18 77.29 76.85 77.30 76.35
53.54 51.98 52.59 47.95 47.91 49.61 49.63 49.80 57.85 59.88 60.59 61.24 61.61 62.87 64.70 66.37 69.05 69.99 71.81 73.57 74.31 73.84 73.83 74.26 75.14 76.09 77.35 78.19 78.12 77.75 78.12 78.36 77.55 76.44 77.34 78.12 79.20 77.93 79.66 78.85 78.41 78.18 77.73 78.00 77.54 77.18 76.08 76.53 76.38

GFSSGP_sfc_wetblb_033.txt.gz
Wetbulb
74.20 72.83 72.24 70.58 61.72 59.43 55.83 57.54 62.56 61.83 62.23 66.74 67.70 65.94 63.93 64.04 62.55 56.84 68.43 70.08 70.74 71.16 72.87 75.15 77.05 77.72 77.26 78.49 78.13 77.67 77.68 77.27 78.07 78.12 77.84 77.33 76.74 77.30 77.76 77.13 76.81 76.69 76.54 76.27 76.35 76.30 75.94 75.52 75.38
73.62 73.04 72.13 67.30 58.18 51.99 54.98 60.89 60.34 63.03 65.39 66.80 67.79 66.79 64.84 60.92 65.84 66.02 66.33 69.79 70.84 71.32 72.54 74.40 77.12 77.61 77.23 77.98 78.25 78.19 77.15 77.03 77.82 78.00 78.17 77.59 77.23 77.66 77.08 76.64 76.54 76.54 76.35 76.19 76.05 75.80 75.64 75.44 75.25
73.21 73.90 66.34 62.45 58.97 53.85 56.28 61.60 62.69 65.48 67.86 66.89 66.06 67.84 65.65 61.89 66.00 66.32 68.35 69.57 70.39 70.40 72.43 74.38 77.69 77.69 77.43 77.83 77.93 78.00 78.04 77.30 77.50 77.88 77.26 77.24 77.84 77.44 76.81 77.09 76.57 76.32 76.30 76.36 75.92 75.61 75.47 75.16 74.92
70.72 70.09 67.54 59.75 57.15 59.85 60.91 62.89 64.80 65.55 67.36 67.33 66.25 62.29 66.10 67.85 67.50 67.64 68.74 69.60 69.31 70.03 73.55 76.67 77.60 77.37 77.55 78.08 77.63 77.59 77.27 77.72 77.53 78.06 77.24 77.06 76.79 76.63 76.66 76.61 76.50 76.25 76.14 76.30 76.14 75.83 75.61 75.22 75.11
71.74 67.37 60.39 58.33 58.34 61.28 63.75 65.48 66.41 64.64 65.74 65.70 65.68 61.51 62.90 65.65 67.96 68.39 68.20 68.88 69.17 71.06 74.29 75.26 78.19 77.67 78.09 77.76 77.49 77.84 77.67 77.52 77.91 78.24 76.92 76.90 77.23 77.24 76.83 76.61 76.67 76.47 76.58 76.53 76.25 76.19 75.94 75.31 75.17
66.47 63.24 56.02 53.96 57.16 60.81 63.78 66.06 66.27 65.99 66.62 65.75 64.47 64.38 65.47 65.13 65.74 66.90 67.60 67.97 71.59 72.48 73.54 75.37 77.61 77.87 78.37 77.39 77.28 77.63 76.96 77.12 78.21 78.08 77.44 77.14 77.31 78.07 77.54 76.56 76.61 76.28 76.05 76.05 76.25 75.72 75.86 75.06 74.34
63.37 59.29 54.39 55.05 56.81 59.50 63.39 67.04 64.61 65.34 65.30 64.70 66.99 63.02 66.18 64.52 67.19 68.15 67.85 69.38 72.30 72.14 73.56 74.83 75.71 76.38 77.48 78.17 77.18 77.15 76.96 77.16 77.24 77.17 76.92 77.03 76.88 76.83 77.02 77.61 77.25 76.27 76.18 76.13 75.99 75.83 76.00 75.69 74.89
63.70 59.33 54.86 57.93 56.61 57.58 64.24 66.25 66.63 66.04 65.47 69.24 68.46 62.65 63.15 66.79 70.23 70.29 70.24 70.91 71.90 73.09 73.99 74.25 74.63 74.38 74.45 75.03 77.30 76.97 76.89 76.83 76.87 76.68 76.52 76.19 75.83 76.02 76.53 77.23 77.62 76.26 76.06 75.80 75.41 76.44 76.97 76.69 76.43
69.51 58.66 53.41 57.59 58.20 59.36 63.91 64.33 67.63 70.00 67.00 67.33 68.16 67.17 68.51 70.21 71.20 69.88 68.98 69.39 69.96 71.86 72.56 73.22 73.29 73.19 73.21 74.08 75.31 76.56 76.76 76.85 76.90 76.35 76.02 74.23 73.36 73.71 74.43 76.12 77.50 76.03 76.06 76.20 76.97 76.83 78.00 76.47 74.53
63.78 58.79 58.13 63.27 62.86 61.26 63.28 63.49 65.63 66.21 65.11 65.30 66.43 68.79 69.85 70.26 69.48 68.47 67.88 67.89 68.04 69.32 71.02 71.95 72.29 72.92 73.08 74.57 73.29 73.42 74.24 73.76 73.84 71.67 67.67 68.86 70.49 72.31 74.53 75.67 77.64 76.80 76.83 76.91 77.76 77.03 76.69 76.76 71.68
64.28 59.11 62.71 62.66 63.90 64.03 63.20 63.58 65.18 65.12 62.38 65.04 64.37 66.89 68.83 69.29 68.76 68.74 68.66 68.74 68.07 69.14 70.33 70.72 71.92 73.13 71.74 72.75 72.79 73.09 72.71 72.64 72.86 67.38 70.02 71.14 73.30 73.41 73.24 72.98 73.49 73.56 72.40 71.30 72.47 72.63 72.86 71.93 71.58
60.49 63.90 63.75 62.52 63.70 63.60 62.68 63.57 62.44 65.21 65.46 67.84 67.78 68.51 68.49 67.92 68.10 68.22 68.30 68.77 69.04 68.43 69.35 70.58 71.79 72.46 70.99 71.95 72.33 72.52 72.06 72.17 72.82 69.91 70.70 70.88 71.66 72.69 73.68 72.87 73.49 72.17 71.74 72.23 72.69 72.79 72.47 71.67 71.65
60.95 62.51 63.09 63.69 63.09 62.27 64.20 62.56 62.72 65.45 67.98 68.90 68.55 68.43 67.65 67.59 68.12 69.10 69.55 69.64 70.02 67.91 68.97 70.25 71.66 72.08 72.04 71.21 71.03 70.67 70.94 71.53 73.37 71.04 70.78 72.11 69.31 71.39 72.46 74.23 72.29 72.19 71.89 68.02 68.19 71.97 69.98 71.46 70.73
62.12 63.46 62.04 63.47 63.11 63.23 61.19 60.93 62.74 66.56 68.28 67.54 67.65 67.09 67.50 67.74 67.82 68.53 69.38 69.48 69.11 68.61 69.30 70.71 71.43 72.26 71.80 71.66 69.60 69.78 73.10 70.92 73.85 73.64 73.06 72.26 73.16 72.14 73.41 73.03 71.44 71.07 71.16 69.58 70.54 70.48 67.78 68.91 69.96
62.47 59.54 63.19 62.50 62.76 62.77 64.08 59.95 58.99 67.63 68.02 66.48 67.00 66.81 67.45 67.84 68.60 68.16 68.97 68.86 69.48 69.59 69.99 70.49 70.77 72.38 72.36 71.93 73.02 72.77 72.15 71.14 70.69 73.97 73.65 73.72 73.33 73.24 72.65 71.76 73.01 73.17 72.28 71.12 72.35 70.67 69.28 68.58 69.81
59.01 58.80 54.52 61.03 62.31 63.11 62.38 55.58 62.74 66.69 66.74 65.44 66.50 67.12 67.34 67.56 68.67 69.32 69.66 69.59 70.25 70.34 70.55 71.05 72.21 72.38 72.38 72.13 72.53 72.69 71.00 72.36 71.53 73.33 73.11 73.63 74.01 74.56 72.73 73.29 72.51 71.54 74.11 74.23 71.99 71.33 71.02 69.43 70.02
54.59 51.07 52.22 54.92 60.86 61.37 57.92 55.24 62.16 65.11 65.24 65.35 66.04 66.68 67.29 67.59 68.55 69.64 70.55 70.50 70.37 70.25 70.66 71.09 71.33 71.31 72.43 71.96 72.98 72.02 72.21 71.92 73.04 74.21 72.80 72.76 74.11 74.62 74.38 72.72 73.20 73.28 72.31 71.80 71.95 71.23 72.19 68.77 67.07
49.06 50.22 51.60 52.75 57.85 59.43 56.55 54.60 61.38 63.85 64.28 63.17 63.73 66.14 66.64 67.03 67.71 69.59 70.39 71.17 70.73 70.83 70.87 71.05 71.45 70.98 72.01 72.54 72.71 71.35 71.09 72.51 72.19 72.42 72.44 73.36 74.20 75.05 74.61 73.51 72.76 72.37 71.34 71.52 72.32 69.93 67.90 65.47 65.20
54.31 53.66 52.18 55.10 58.09 56.93 56.60 54.85 61.04 62.78 63.64 64.13 63.89 63.64 66.13 66.79 68.36 69.20 69.80 70.35 70.54 71.43 70.88 71.19 71.40 71.47 71.61 72.29 71.58 71.12 70.13 71.28 70.67 71.73 73.49 73.95 74.78 75.12 74.91 74.31 72.35 73.61 71.26 72.18 71.29 69.64 69.10 64.88 66.62
52.89 52.27 52.46 54.92 56.64 56.29 56.73 55.08 61.63 61.12 60.43 62.27 62.26 62.64 65.12 66.82 67.43 68.73 69.04 69.68 70.00 70.88 71.27 70.91 72.02 72.01 71.53 72.63 71.53 71.51 71.65 71.61 71.47 71.29 74.09 74.74 75.07 75.66 75.26 73.69 72.68 73.47 72.77 72.09 71.35 71.04 69.14 66.59 64.99
50.86 50.52 51.61 51.76 54.57 54.89 54.85 54.33 57.49 61.40 61.81 61.90 62.33 63.40 66.22 66.67 66.82 67.89 68.44 68.94 70.06 70.59 70.75 71.78 71.70 72.75 72.14 73.18 72.87 72.24 72.46 71.56 70.55 70.64 72.34 74.50 74.61 75.88 74.63 74.41 73.73 73.70 73.42 72.42 72.00 71.92 70.09 66.29 65.65
47.57 53.89 54.15 53.71 51.45 46.10 53.14 47.33 52.68 58.02 58.62 59.18 61.20 62.84 65.10 66.29 67.49 68.26 68.29 68.59 69.76 70.99 71.69 71.96 72.52 74.28 73.51 73.62 73.13 71.93 70.99 70.29 70.02 69.77 71.04 73.20 74.39 74.99 75.43 74.59 74.02 73.84 72.62 71.56 72.29 73.15 70.70 69.28 63.30
51.16 54.21 53.23 53.37 50.66 46.59 49.47 45.97 51.90 57.32 56.13 57.67 60.70 64.29 65.16 66.49 67.36 67.83 68.40 69.25 70.03 71.77 72.00 72.03 72.71 74.43 73.92 74.26 73.69 72.96 71.37 70.95 70.40 70.07 70.74 71.83 72.87 74.90 76.26 75.43 74.81 73.95 74.21 72.55 71.43 72.26 71.81 71.89 68.23
55.95 52.73 49.62 51.13 48.71 42.19 46.47 44.66 45.73 53.06 55.60 58.96 62.25 64.76 65.74 64.86 66.86 67.40 69.43 69.77 69.71 71.77 72.77 73.18 72.85 74.16 73.96 74.12 74.20 73.11 71.95 70.11 69.85 69.76 69.67 72.07 73.19 73.90 74.61 75.45 75.11 74.89 73.85 73.10 72.68 73.28 72.95 71.01 71.67
52.45 46.90 39.47 38.19 40.39 39.57 44.35 44.39 46.27 53.36 58.24 58.85 61.91 63.89 63.84 63.15 64.56 67.63 68.30 68.59 69.48 70.99 72.43 73.48 73.55 73.72 74.27 73.51 73.40 74.07 72.57 71.62 70.27 69.79 70.11 71.54 73.02 73.23 73.81 75.14 74.58 75.11 73.90 74.53 73.78 73.23 74.08 72.37 71.35
48.80 46.80 37.44 32.70 36.06 39.21 44.42 41.67 47.06 54.12 56.41 59.42 62.62 64.13 63.45 64.54 66.56 68.09 68.46 68.79 69.45 70.32 72.04 73.78 73.49 73.36 74.60 74.33 73.14 73.09 74.81 73.24 72.10 72.81 70.56 71.97 72.13 73.65 74.34 75.09 75.48 74.63 74.85 74.85 73.82 73.85 73.42 73.85 71.82
47.38 44.11 46.16 38.86 41.54 38.08 41.13 44.66 48.86 52.09 53.87 54.58 58.84 61.61 65.08 66.77 68.16 68.22 68.65 69.25 69.30 70.30 71.49 72.88 73.74 73.44 74.14 74.41 74.27 72.96 73.56 74.99 72.02 71.51 73.20 71.28 72.61 72.85 74.59 75.09 75.86 75.18 75.01 74.53 75.04 74.41 73.31 74.09 72.82
49.32 49.27 41.91 42.76 35.14 35.37 41.08 42.89 44.20 47.80 50.54 53.64 55.10 58.28 62.76 67.16 66.80 69.05 68.92 69.40 69.66 70.39 71.91 72.51 74.33 73.64 73.96 73.95 74.68 74.18 73.33 74.07 74.74 72.02 71.56 73.81 72.05 72.68 73.42 74.73 74.64 75.30 75.61 75.23 74.50 74.36 74.46 73.52 73.61
47.21 45.96 45.99 42.65 40.85 36.08 36.53 42.27 50.54 49.96 51.81 53.56 55.18 58.03 61.76 64.67 68.15 69.30 69.63 70.04 70.12 70.67 71.56 72.08 73.19 73.95 74.09 74.30 74.17 74.60 73.97 73.56 75.02 73.92 71.78 73.36 73.46 73.50 73.19 74.96 74.48 74.88 74.78 75.66 74.58 73.65 73.74 73.92 73.07
50.38 47.55 46.86 42.58 39.13 41.53 40.53 43.22 53.65 53.67 54.04 55.34 56.00 57.82 60.43 63.86 68.04 69.97 70.24 70.48 70.14 69.99 70.96 71.53 72.42 74.04 74.53 75.06 74.39 74.38 74.86 74.56 73.36 74.66 74.11 72.05 73.73 73.80 75.53 75.88 75.22 75.32 75.18 75.11 75.30 74.55 74.71 73.37 73.30

GFSSGP_sfc_wetblb_036.txt.gz
Wetbulb
73.75 72.95 72.16 69.84 60.99 58.62 55.41 57.69 62.14 61.04 61.88 66.24 66.83 64.78 62.78 63.34 61.29 54.54 67.72 69.39 71.08 71.67 73.91 75.54 77.41 77.60 77.64 77.62 77.51 77.40 77.25 77.22 77.34 77.23 77.17 77.18 77.18 77.18 77.11 76.92 76.82 76.34 76.45 76.45 76.11 75.76 75.54 75.76 75.10
72.92 71.78 71.19 66.89 57.75 51.90 53.88 60.58 59.88 62.96 64.96 67.08 67.03 65.98 63.70 60.07 65.18 65.51 66.51 70.31 71.61 72.40 73.09 74.94 77.25 77.91 77.76 77.72 77.63 77.46 76.70 77.02 77.56 77.32 77.19 77.15 76.98 76.79 76.69 76.91 76.39 76.39 76.37 76.10 75.93 75.72 75.69 75.63 75.24
72.86 73.22 66.18 62.15 57.86 52.01 55.31 60.59 62.19 65.38 67.40 66.54 64.85 66.50 64.06 61.58 65.76 65.60 69.00 70.49 71.63 72.04 73.37 74.88 77.79 77.94 77.93 77.80 77.43 77.51 76.96 77.04 77.04 77.18 77.08 76.84 76.96 76.98 76.92 76.59 76.32 76.21 76.10 75.77 75.50 75.19 75.14 75.27 74.91
70.57 70.09 67.43 59.16 56.64 59.22 59.85 62.06 64.73 64.04 66.05 66.33 64.99 60.60 64.43 67.13 65.37 67.41 70.00 70.54 70.67 72.02 73.21 76.57 77.51 77.43 77.66 77.34 77.48 77.28 77.07 77.18 77.04 77.16 77.05 76.72 76.81 76.95 76.63 76.54 76.41 76.30 76.38 76.05 75.75 75.28 74.89 74.97 74.97
70.68 67.13 60.15 57.88 57.90 60.90 63.19 65.08 66.03 64.14 64.52 64.65 64.39 60.75 61.99 65.35 67.83 68.61 69.03 69.77 69.01 71.90 74.18 75.44 77.91 78.18 77.77 77.18 77.28 77.15 77.24 77.32 77.23 77.27 77.24 77.27 76.98 76.77 76.65 76.74 76.49 76.63 76.49 76.35 76.10 75.86 75.47 75.16 74.82
64.69 62.62 55.29 53.39 55.23 60.49 62.68 65.25 65.28 64.52 64.65 63.63 62.98 63.59 60.27 66.53 66.24 67.23 68.65 68.45 72.15 72.91 74.13 75.49 77.69 78.02 77.96 77.23 77.35 77.12 77.51 77.11 77.39 77.28 76.88 77.09 77.51 76.87 76.65 76.60 76.58 76.22 76.08 75.91 75.52 75.63 75.57 74.47 74.87
62.74 57.33 54.35 54.74 56.58 58.98 61.51 66.11 64.06 64.22 64.02 63.26 65.84 61.62 60.13 64.19 66.49 67.42 67.58 70.11 72.50 73.46 74.16 74.86 75.06 76.15 77.23 77.64 77.41 76.87 77.03 77.19 77.19 77.16 77.06 77.01 76.89 76.96 76.72 76.83 76.61 76.19 75.96 75.91 75.58 75.52 75.49 75.35 74.78
63.77 57.41 54.99 57.47 56.16 57.48 64.51 64.84 66.70 65.36 64.33 68.30 67.82 60.91 57.43 63.33 66.22 66.39 67.21 71.34 71.20 72.81 74.07 74.09 74.09 73.94 74.40 75.01 77.16 77.07 77.20 77.04 76.90 76.86 76.53 76.48 76.41 76.44 76.50 76.85 77.58 75.84 75.39 75.39 75.26 75.22 75.99 75.70 75.46
66.37 55.32 53.31 53.52 56.93 57.98 63.24 62.71 67.43 68.22 65.44 66.86 67.83 66.67 63.94 65.59 65.76 65.24 66.20 69.34 70.72 72.96 73.46 73.95 73.22 73.07 73.53 73.96 75.12 76.38 77.02 77.06 76.84 76.38 76.36 75.27 72.72 72.93 74.51 75.29 76.80 75.67 74.73 74.92 75.59 76.97 76.80 75.74 75.27
64.24 54.94 55.21 59.67 62.17 60.98 63.46 63.52 63.37 64.75 64.79 64.75 65.48 66.00 66.11 66.19 65.05 65.30 66.78 68.14 69.55 70.62 72.43 72.91 72.51 72.53 72.77 74.91 73.14 72.71 73.86 73.63 73.56 72.97 70.96 70.68 70.49 71.01 73.81 75.27 76.58 75.87 75.25 76.02 77.10 76.50 75.69 75.08 70.82
63.28 57.87 61.82 62.81 63.90 64.32 62.64 63.23 66.44 64.29 62.19 64.22 63.54 64.47 66.21 65.98 66.73 66.81 67.29 68.35 69.13 70.54 71.90 71.68 71.77 72.29 72.26 72.47 72.23 72.19 72.49 72.75 72.56 69.89 67.61 69.13 71.61 72.09 72.94 72.36 73.55 71.90 72.25 70.96 71.53 71.48 72.17 72.02 70.94
58.83 63.67 64.07 63.35 64.89 63.97 62.25 64.46 64.68 65.11 64.66 67.50 67.00 66.92 67.26 66.64 66.76 67.04 67.37 67.49 68.73 69.81 70.57 70.89 71.70 71.90 69.94 71.98 71.85 71.92 71.93 71.81 71.74 66.73 69.66 70.40 70.78 71.59 71.89 71.49 71.40 71.25 71.19 71.39 71.37 71.71 72.12 71.56 69.65
60.13 61.73 63.97 65.31 65.03 62.74 63.68 61.97 61.97 64.64 67.35 68.15 67.58 67.63 67.10 66.89 67.38 68.52 68.74 68.33 68.54 68.72 69.60 70.25 71.74 71.28 70.32 70.19 70.40 71.14 70.71 71.40 72.14 69.05 69.55 71.24 69.96 70.93 71.69 72.45 71.98 71.82 71.32 69.96 67.08 71.21 70.37 69.84 68.81
61.11 61.46 62.31 63.66 62.64 61.08 61.44 60.92 62.53 65.50 67.45 66.76 66.61 66.41 67.17 67.29 67.90 68.08 68.01 67.93 67.74 68.44 68.93 70.06 71.07 71.05 70.99 69.83 68.77 69.18 69.88 70.38 71.55 70.66 70.22 71.47 69.56 71.41 72.27 71.94 71.17 71.82 71.17 69.34 68.43 70.16 67.23 66.38 68.10
58.73 57.93 60.47 61.74 62.00 61.56 62.98 59.47 62.57 65.87 66.70 65.76 65.90 66.59 66.98 67.37 68.17 67.74 68.31 68.34 68.06 67.90 69.09 69.41 70.58 71.09 70.83 69.89 68.03 68.49 69.66 71.12 71.87 72.17 72.20 71.68 72.00 71.90 71.84 71.44 70.40 70.61 70.53 69.86 70.14 70.14 68.19 69.06 68.45
56.04 56.66 53.29 60.45 62.39 62.56 62.08 55.37 63.85 65.97 64.97 64.29 65.17 65.76 66.16 66.83 67.44 68.60 69.23 68.96 69.58 68.09 68.27 69.38 71.59 71.43 70.70 70.46 70.67 71.11 70.11 69.40 71.17 72.27 72.67 72.54 72.07 73.24 72.49 71.15 71.45 71.94 71.46 71.49 70.52 70.03 69.35 69.25 69.22
49.53 47.35 51.14 55.68 62.22 61.60 60.87 56.71 63.83 65.68 64.49 63.68 64.53 65.10 65.82 66.22 67.11 67.96 69.36 69.50 69.66 68.88 68.30 69.09 70.17 71.43 70.27 71.01 70.79 70.93 70.59 70.28 70.77 71.43 71.78 72.67 73.24 74.03 72.77 72.22 71.65 70.95 70.99 70.47 70.41 69.67 70.14 67.65 68.25
44.61 47.13 49.81 52.03 56.30 59.92 58.80 56.97 63.09 64.65 64.21 63.80 64.25 64.82 65.14 65.82 66.30 68.02 68.85 69.55 69.47 68.98 69.20 69.46 69.64 71.05 70.68 71.00 70.16 69.98 69.71 70.17 71.48 72.97 71.55 72.02 72.77 73.98 73.11 71.86 72.35 71.75 69.81 70.88 70.66 68.32 66.02 62.69 63.69
50.14 50.05 50.20 53.70 57.06 54.82 55.68 59.18 61.96 63.72 63.70 63.76 63.73 64.42 64.72 65.47 67.61 68.70 69.23 69.54 69.39 69.24 69.19 69.23 69.18 70.42 70.73 70.11 69.07 68.00 67.68 68.49 70.05 71.01 71.78 71.87 72.81 73.68 73.28 72.97 71.97 71.25 69.99 70.80 69.54 68.46 66.93 62.60 64.81
49.71 48.00 50.03 54.51 56.78 52.92 53.75 57.31 61.74 63.43 63.17 64.25 64.10 64.54 65.13 65.91 66.86 67.97 68.94 69.41 69.15 68.94 69.31 69.29 69.50 69.50 71.01 70.73 70.67 69.07 68.42 68.95 69.98 69.93 71.85 72.17 73.13 73.92 73.61 72.74 71.65 71.96 70.78 70.07 69.56 69.50 67.29 63.87 64.05
48.05 46.62 48.40 50.16 54.00 53.10 54.10 55.32 58.46 62.07 63.41 64.41 64.93 65.76 66.01 65.99 65.72 67.20 68.15 68.89 69.55 68.77 69.19 69.55 69.79 69.62 70.71 71.05 70.10 70.20 70.74 69.70 69.51 68.83 71.47 72.34 73.63 74.45 74.04 72.76 72.58 72.38 71.91 70.89 70.63 70.16 67.66 62.83 64.88
44.59 51.08 51.23 51.09 48.94 45.19 51.10 46.59 54.67 58.86 59.58 60.54 61.73 63.42 64.16 65.59 66.95 67.22 67.69 68.55 68.64 69.35 69.66 70.36 70.44 70.23 70.32 71.24 70.04 70.24 69.83 69.47 69.64 68.95 70.14 72.66 73.80 74.27 74.05 73.42 73.08 72.32 71.91 71.41 71.16 71.71 69.42 65.87 61.79
48.53 51.76 50.45 50.67 47.19 43.84 48.31 42.92 52.02 58.44 56.44 56.79 59.49 61.02 63.70 65.54 67.00 66.94 67.41 68.05 69.05 70.09 69.97 70.31 71.16 70.69 70.73 71.89 70.92 70.21 69.60 70.20 69.66 68.67 68.86 71.61 72.78 74.20 74.15 73.34 72.80 72.24 72.11 70.58 71.06 71.59 70.51 68.76 65.96
54.44 50.96 49.32 49.20 45.05 39.79 46.89 44.00 42.54 54.39 56.77 58.33 60.17 61.25 63.09 65.42 66.96 67.79 68.47 68.72 68.85 70.27 70.31 70.68 71.30 70.69 71.05 72.10 71.60 70.73 69.88 69.29 68.76 68.27 68.52 70.02 72.25 72.74 73.71 74.16 73.01 72.53 72.96 72.02 70.47 70.64 71.45 70.06 68.34
52.08 45.17 40.18 38.01 38.60 38.86 47.35 41.28 45.76 57.39 60.16 60.55 59.85 61.13 63.80 65.81 66.62 67.11 67.38 67.86 68.26 69.45 69.81 70.33 70.46 71.58 71.80 71.89 72.03 71.63 71.15 70.47 70.02 68.59 68.49 69.80 70.23 70.44 72.49 73.96 73.22 73.10 72.87 72.65 71.68 71.03 71.83 70.27 70.39
49.53 46.74 39.69 34.26 33.59 39.59 41.58 37.57 44.02 51.34 60.41 61.98 62.26 63.08 65.05 65.65 65.42 66.85 67.59 68.15 68.19 69.61 70.00 69.99 70.37 71.00 72.08 72.30 71.95 72.43 72.28 71.94 71.40 69.58 69.12 69.71 71.85 71.62 72.37 74.11 74.10 73.72 73.55 72.99 72.11 71.69 71.83 71.99 70.39
46.56 45.62 45.00 36.79 35.87 35.08 39.80 41.12 45.99 49.52 49.79 56.66 61.82 63.63 64.65 65.30 65.51 66.53 67.68 68.37 68.46 69.52 70.18 70.25 70.20 70.61 72.39 72.28 72.55 72.76 72.87 72.50 71.81 70.76 70.83 69.48 71.36 73.16 72.81 73.55 74.33 73.86 74.10 72.96 72.84 71.85 71.69 72.87 71.52
50.55 47.67 40.12 35.97 31.87 30.66 36.72 38.46 42.86 46.04 47.55 49.22 59.65 62.37 64.51 65.77 65.78 65.90 67.43 68.33 69.05 69.97 70.78 71.48 71.42 70.88 72.50 72.73 72.58 72.39 72.41 74.06 72.87 71.21 70.24 71.69 70.69 71.85 73.37 73.14 74.43 74.08 73.68 73.52 73.20 72.84 72.04 72.06 72.28
45.92 45.62 41.59 41.98 36.75 34.38 32.71 40.33 45.58 46.70 47.68 49.43 57.72 62.39 64.41 65.19 65.75 64.96 67.53 68.72 69.15 69.70 70.80 71.97 72.10 71.64 72.49 73.33 73.28 72.66 71.94 72.07 74.17 72.09 70.25 70.54 71.73 71.14 71.63 73.21 73.39 74.21 73.95 73.61 73.02 72.91 73.58 72.30 72.36
51.29 44.86 43.65 40.37 35.41 35.94 36.88 41.58 49.79 50.64 50.81 51.16 51.66 62.98 64.26 65.17 65.89 66.40 67.97 68.45 68.58 68.98 70.04 71.41 72.64 72.34 72.68 73.62 73.66 73.45 73.09 72.07 72.08 73.80 72.07 71.06 71.10 72.44 71.28 73.29 73.24 73.74 74.26 74.23 73.43 72.49 73.28 73.61 72.19

GFSSGP_sfc_wetblb_039.txt.gz
Wetbulb
73.75 72.85 71.56 68.88 59.82 58.03 54.55 57.53 62.23 59.81 61.52 66.15 66.11 63.98 62.24 62.74 60.55 53.93 67.31 68.99 71.27 71.96 73.24 75.27 77.46 77.52 76.96 76.77 77.41 77.06 76.63 77.11 77.14 76.92 76.80 76.82 76.84 76.72 76.60 76.25 76.23 76.29 75.90 75.85 75.71 75.66 75.53 75.19 75.30
72.77 71.67 70.52 66.23 57.75 51.09 53.99 60.34 59.66 62.11 64.40 66.30 66.25 65.00 62.09 60.49 64.29 65.33 65.89 70.66 72.42 72.92 73.52 74.73 77.28 77.55 77.15 76.81 77.28 77.24 76.88 76.86 76.55 76.77 77.11 76.92 76.91 76.93 76.69 76.53 76.61 76.23 76.04 75.60 75.39 75.75 75.34 75.12 75.13
71.79 72.22 65.19 62.05 55.88 52.00 54.46 59.49 61.71 64.45 66.47 66.29 63.82 65.05 62.89 61.93 65.04 65.60 68.84 71.46 72.75 72.55 73.80 75.04 77.67 77.66 77.37 76.77 76.74 76.75 77.10 76.38 76.74 76.78 76.57 76.86 76.80 76.57 76.46 76.38 76.16 75.91 75.72 75.39 75.56 75.40 75.26 74.73 74.56
69.76 69.00 66.90 59.23 56.36 58.13 58.84 61.96 63.62 64.27 65.43 65.69 63.59 59.92 64.10 67.38 65.49 67.77 70.50 72.22 71.72 72.87 73.50 76.58 77.02 77.31 76.67 77.02 76.96 76.95 76.82 76.72 77.23 77.25 76.77 76.77 77.03 76.36 76.36 76.30 76.17 76.14 75.84 75.48 75.42 75.34 75.07 74.87 74.26
69.86 66.47 59.56 57.77 57.44 60.13 62.44 64.53 65.29 62.81 64.02 64.10 63.85 59.71 61.53 65.57 68.44 69.28 70.03 71.46 71.27 71.86 74.06 75.07 77.60 77.52 76.94 77.35 77.13 77.00 77.04 76.70 76.88 77.33 76.57 76.52 76.66 76.63 76.52 76.39 76.52 76.36 76.14 76.08 75.81 75.64 75.48 74.87 74.59
64.34 61.79 55.37 52.99 54.03 60.06 62.77 64.57 65.13 64.94 64.31 63.38 61.44 60.91 60.85 66.54 67.58 68.35 69.84 69.86 72.25 72.92 73.90 75.06 77.09 77.00 77.36 76.60 77.20 76.95 77.16 76.98 76.83 76.84 77.07 76.90 76.73 76.73 76.61 76.58 76.42 76.29 75.79 75.57 75.72 75.37 75.20 75.12 74.76
62.88 56.94 53.50 53.58 56.21 58.48 61.95 65.73 64.36 63.99 62.73 62.43 65.41 58.66 62.17 64.36 67.57 68.21 68.06 70.60 72.03 73.50 74.03 74.29 74.96 75.17 77.08 76.95 76.98 77.49 76.87 77.43 77.20 77.04 77.00 76.83 76.79 76.63 76.56 76.59 76.51 76.12 75.79 75.42 75.26 75.34 75.23 74.95 74.84
62.56 56.47 55.53 56.91 54.87 57.35 63.85 63.74 65.53 64.72 63.40 67.17 64.62 57.50 59.71 63.45 67.20 67.48 68.83 70.87 71.71 72.92 73.66 73.14 73.37 73.13 74.07 74.51 76.66 77.13 77.04 77.15 77.09 76.72 76.62 76.38 76.67 76.59 76.31 76.55 77.10 75.98 75.78 75.47 75.28 75.15 75.51 75.35 75.23
66.53 53.95 53.03 54.49 55.93 57.96 62.98 62.14 66.68 67.92 65.03 66.62 66.84 62.32 64.12 65.57 66.38 65.69 69.11 69.63 70.78 72.44 72.77 72.88 72.47 72.85 73.18 73.59 74.70 76.55 76.92 76.75 76.57 75.99 76.36 74.91 72.16 72.51 73.79 74.76 75.70 75.67 75.58 75.24 75.42 75.65 74.40 74.95 75.22
63.09 52.91 55.14 59.10 60.30 60.02 62.46 63.41 65.30 63.94 64.26 63.75 61.43 63.76 65.09 64.73 64.16 64.57 67.33 67.97 68.84 70.74 72.70 72.21 72.12 72.30 72.78 74.58 72.85 72.70 73.91 73.47 73.37 73.15 72.08 70.77 71.17 70.41 73.61 74.72 75.54 75.18 75.50 75.70 75.87 75.65 75.23 74.05 69.92
63.32 55.91 60.62 60.79 63.55 63.45 62.50 63.16 65.04 63.64 61.79 63.80 59.59 61.46 63.08 62.70 64.00 64.86 67.46 68.29 68.61 70.66 72.51 71.87 71.87 71.69 72.24 72.75 71.90 71.90 72.16 72.44 72.37 70.64 69.05 69.37 70.36 70.69 72.26 72.16 72.85 70.43 72.12 70.84 71.04 71.71 71.77 71.02 70.37
59.48 63.30 63.65 63.80 64.44 63.60 62.27 63.92 63.62 64.71 64.44 66.52 63.17 63.33 62.39 61.93 63.36 65.46 67.35 68.28 68.96 70.34 71.52 71.48 71.39 71.30 71.03 71.12 71.20 71.27 71.66 71.82 71.28 69.08 67.96 68.57 70.18 70.75 71.11 71.15 70.83 70.93 70.37 70.31 70.64 70.29 71.34 70.45 68.63
59.41 62.05 63.24 65.03 64.91 64.68 64.18 63.48 64.14 64.23 66.97 66.70 64.11 63.21 61.97 62.94 64.59 67.09 68.40 69.25 69.51 69.34 70.61 70.61 70.96 70.96 70.27 70.27 70.39 70.63 70.71 71.34 71.46 67.50 68.22 70.19 69.93 70.31 71.28 71.16 70.06 70.42 70.50 69.61 66.31 69.76 68.98 68.51 68.01
59.59 60.81 61.61 62.49 62.35 62.14 61.87 63.03 64.00 65.04 66.83 65.10 63.61 62.20 62.61 63.96 66.00 67.03 67.21 68.13 68.62 69.34 69.61 70.05 70.69 70.99 69.42 69.34 68.73 69.92 70.24 70.73 70.94 70.24 67.67 70.35 68.65 69.64 70.24 70.84 70.68 70.53 70.50 69.58 67.70 69.31 65.76 66.20 67.44
56.51 55.23 56.36 59.16 60.96 60.61 62.92 57.72 59.59 65.61 65.67 64.23 63.28 63.23 64.01 65.58 66.88 66.84 67.18 67.67 68.33 68.83 69.27 69.11 70.18 70.88 69.13 68.80 67.87 68.86 69.47 70.35 69.97 71.10 69.88 70.88 69.79 70.71 71.56 70.96 70.14 70.00 70.13 68.95 69.62 69.91 69.10 66.12 67.72
52.11 51.54 47.52 56.45 59.98 61.41 60.67 52.94 62.90 65.16 63.86 63.17 64.12 64.12 64.66 65.39 66.82 67.97 68.16 67.61 68.35 68.49 68.30 68.82 71.16 70.60 69.39 68.86 67.43 67.81 68.86 69.21 69.77 71.04 71.02 71.26 71.32 71.33 70.57 70.57 69.89 70.41 70.21 70.19 69.84 69.17 69.22 67.23 67.31
44.38 43.41 49.24 52.95 59.70 60.28 59.40 56.92 62.80 65.10 63.66 62.61 63.52 64.35 64.91 65.41 67.04 67.90 68.41 68.58 67.89 67.67 67.75 68.07 69.51 69.92 69.40 68.79 68.83 68.79 68.96 68.86 69.69 71.02 71.28 71.36 72.03 73.03 71.57 71.07 71.02 71.12 70.04 70.52 70.27 69.57 69.42 67.23 67.08
41.17 44.56 47.37 49.22 55.11 59.68 57.10 56.16 62.02 63.86 63.47 62.89 63.48 64.24 64.66 65.02 66.03 67.83 68.41 68.81 68.94 67.65 67.30 68.31 69.02 69.81 69.60 68.80 69.13 69.25 69.10 69.64 70.03 70.31 70.99 71.75 72.51 73.03 71.78 71.38 70.41 71.00 69.42 69.32 69.32 67.08 65.41 62.08 64.14
47.25 48.01 48.78 52.24 55.94 55.34 56.26 57.51 60.88 62.52 62.80 62.72 62.93 63.46 64.21 64.67 67.06 67.88 68.56 69.09 68.99 68.07 66.89 67.64 68.21 69.10 69.91 68.51 68.18 67.32 67.03 67.82 69.38 70.48 71.11 71.29 72.17 73.25 71.63 70.83 71.24 70.72 68.89 69.99 68.78 67.50 63.84 62.69 62.96
45.49 44.39 46.32 51.45 54.41 52.26 51.63 55.77 61.17 61.97 62.00 62.98 62.80 63.18 63.88 64.78 65.72 66.65 67.28 68.53 68.46 67.59 67.40 67.51 68.13 68.41 70.03 69.56 70.22 67.91 67.08 67.49 68.83 69.68 70.60 71.06 72.04 72.92 72.54 71.95 71.47 71.03 69.62 70.09 69.10 68.16 65.87 62.05 63.71
44.53 43.54 45.38 47.69 51.55 52.57 52.54 53.69 57.00 61.75 63.00 63.69 64.12 64.41 64.88 64.79 64.86 65.80 66.46 67.20 68.12 67.48 67.77 67.59 67.86 68.24 70.33 70.30 69.04 69.03 68.68 68.25 67.99 68.17 69.88 70.39 71.99 72.96 73.16 72.23 71.28 70.97 70.48 69.61 69.14 69.02 65.21 61.06 64.31
41.28 48.16 49.14 48.66 48.36 42.19 49.83 46.43 55.85 59.25 59.92 61.85 62.86 63.64 64.53 65.16 65.95 66.12 66.62 66.80 67.62 67.88 68.70 68.59 68.29 68.32 70.00 69.89 69.30 68.52 67.61 66.90 66.34 67.59 69.65 70.58 72.04 72.79 73.71 72.26 71.79 71.57 71.71 70.43 69.98 70.52 67.96 62.53 62.41
45.68 49.40 48.40 48.53 44.24 42.19 45.48 43.78 51.05 58.88 57.44 59.90 62.18 63.69 65.06 65.77 66.19 66.00 66.75 67.68 68.50 68.76 68.67 68.94 68.75 68.48 69.43 69.69 69.85 68.94 66.85 66.67 68.38 67.77 68.44 70.41 71.35 72.55 73.64 72.91 71.99 71.29 71.31 70.68 70.65 70.21 68.93 66.67 61.73
51.52 47.78 46.33 44.82 42.00 39.12 44.53 43.26 41.79 53.53 57.48 59.91 62.43 63.66 65.06 65.68 66.60 67.23 67.78 68.39 68.55 69.41 68.88 69.05 68.67 68.44 68.94 69.66 69.40 68.88 68.37 67.47 68.13 67.41 67.22 69.10 70.61 71.80 72.74 72.79 71.83 71.35 71.48 70.41 69.99 70.70 69.98 69.14 66.42
49.72 43.18 34.95 35.03 34.94 38.27 44.57 41.76 46.61 54.37 59.66 60.78 61.65 62.97 64.22 64.29 65.81 66.58 66.57 67.40 68.02 68.33 68.45 68.78 68.64 68.31 68.89 69.19 69.50 69.19 68.68 68.30 68.68 68.28 67.48 67.61 69.39 69.91 71.45 72.44 71.74 71.20 71.33 71.95 70.58 69.51 70.37 69.50 69.45
47.18 44.98 36.31 30.62 33.57 39.65 41.93 38.53 43.29 53.15 60.52 62.41 63.24 63.64 63.63 62.38 64.93 66.43 66.58 66.95 67.78 68.19 68.47 68.45 68.85 68.58 69.08 69.51 69.80 69.93 69.55 69.41 69.44 69.23 68.83 68.69 69.57 70.76 71.76 72.75 72.77 72.23 72.15 72.32 71.32 70.25 70.17 70.58 69.23
45.95 44.45 46.10 36.82 32.46 35.24 41.85 39.66 45.33 49.28 55.83 59.98 61.49 62.61 62.24 62.32 63.86 66.09 67.31 67.38 67.38 67.92 68.39 68.70 68.87 69.44 69.48 69.71 70.49 70.48 70.26 70.17 69.91 69.37 69.40 69.35 69.72 71.07 70.88 72.56 73.10 72.91 72.75 72.25 71.66 70.41 70.49 71.48 70.58
49.51 48.72 40.78 36.25 32.10 31.70 35.01 37.34 41.62 45.04 48.17 53.43 59.69 60.87 62.26 63.05 63.82 65.89 67.30 67.50 68.05 68.30 69.02 69.26 69.29 69.65 70.12 70.43 70.73 71.00 71.04 71.06 71.00 70.18 69.20 68.64 69.56 71.19 71.27 71.42 72.38 72.74 72.96 72.41 71.86 71.05 70.55 70.69 71.04
45.12 44.75 44.80 43.70 36.70 36.44 30.21 39.44 43.99 46.13 47.72 49.01 57.24 60.86 61.51 62.71 64.27 65.69 66.63 67.90 68.40 68.51 69.37 69.12 69.22 69.37 70.18 70.88 71.16 71.24 71.44 71.63 71.55 71.02 70.21 70.82 69.25 70.51 71.54 71.57 71.93 72.59 72.64 72.56 72.06 71.90 71.47 70.49 70.58
48.72 44.42 40.66 43.13 36.76 33.59 34.62 40.16 47.22 47.52 48.14 50.28 54.34 59.32 62.13 64.14 65.18 66.20 66.54 66.96 67.88 68.02 68.89 69.33 69.42 69.42 70.05 71.34 71.20 71.32 71.73 72.18 72.18 71.71 70.53 70.21 70.61 70.42 70.80 71.99 71.99 72.46 72.76 72.65 72.16 71.81 72.82 71.76 70.75

GFSSGP_sfc_wetblb_045.txt.gz
Wetbulb
73.02 72.43 72.38 69.72 59.62 58.85 54.65 57.97 62.61 61.21 60.38 64.87 64.72 62.67 62.21 63.18 60.39 58.01 69.68 71.58 72.03 72.54 74.85 75.77 76.76 77.00 77.00 77.12 76.96 77.17 77.32 77.04 77.09 77.09 76.79 77.02 76.64 76.55 76.47 76.39 76.34 76.38 76.03 75.93 75.74 75.49 74.92 75.30 75.67
72.10 71.09 70.51 65.76 56.30 53.49 56.65 60.99 60.05 62.52 64.54 67.08 65.43 64.68 63.29 61.26 65.46 66.01 68.12 71.79 72.15 72.87 75.22 75.42 76.56 77.34 77.11 77.10 77.60 77.09 77.11 76.55 76.67 76.70 76.90 76.59 76.63 76.42 76.54 76.36 76.06 75.90 75.57 75.99 75.39 75.61 75.69 75.51 75.61
71.81 71.26 65.52 61.36 57.41 52.98 56.06 59.86 61.52 64.91 66.88 65.26 63.78 66.27 63.91 62.10 66.14 67.32 71.09 72.10 72.87 73.69 75.56 76.05 76.63 77.10 76.79 76.78 77.17 77.16 76.98 76.92 76.82 76.80 76.59 76.45 76.20 76.19 76.14 76.25 76.01 75.82 75.30 75.92 75.47 75.25 74.61 74.78 74.39
69.09 68.81 66.65 59.60 56.47 58.09 58.88 61.30 62.88 64.36 65.36 66.00 64.79 62.28 65.52 67.83 67.25 69.63 72.09 72.62 73.09 74.35 75.04 76.27 76.58 77.02 77.19 77.15 77.21 76.54 76.88 77.00 76.92 76.79 76.77 76.41 76.61 76.65 76.43 76.35 76.10 76.10 75.90 75.58 75.17 75.17 74.83 74.83 74.64
70.44 67.78 59.66 59.12 57.95 60.73 62.65 64.83 65.01 64.24 64.65 63.51 64.14 60.63 62.14 66.59 69.87 71.29 72.01 72.53 72.69 73.56 75.36 75.57 77.49 77.57 76.83 77.17 76.65 77.12 76.95 76.67 76.48 76.51 76.86 76.96 76.85 76.74 76.66 76.44 76.33 76.11 75.88 75.61 75.31 74.97 74.92 74.70 74.64
65.87 64.44 56.63 54.11 56.82 60.31 64.28 65.45 65.55 65.45 63.61 63.36 62.33 61.33 62.06 68.34 69.23 70.68 72.21 72.55 73.71 73.31 74.91 75.99 76.76 77.00 77.37 77.01 76.96 76.90 76.78 76.76 76.90 77.05 77.00 76.86 76.95 76.82 76.83 76.47 76.08 76.03 75.86 75.63 75.41 74.95 75.05 74.72 75.08
64.05 60.85 56.77 56.46 56.61 59.48 63.14 66.27 65.01 65.32 63.72 62.54 64.56 60.50 64.03 66.72 69.86 71.21 72.20 73.24 73.63 74.15 74.66 76.02 75.39 76.94 76.84 76.93 77.07 76.98 76.75 76.99 77.13 77.29 77.06 77.02 76.95 76.79 76.47 76.22 75.97 75.64 75.58 75.50 75.05 74.80 75.19 75.16 75.28
65.47 62.13 56.27 58.05 57.48 59.01 63.91 65.11 66.41 65.17 63.61 66.17 66.22 60.31 61.25 66.19 69.94 71.29 72.33 72.53 73.50 73.84 74.92 75.54 75.45 76.52 76.77 76.78 77.09 76.91 76.92 77.04 77.38 77.24 77.00 76.86 77.02 76.80 76.32 76.68 76.72 75.54 75.25 74.64 74.77 75.11 74.72 75.50 75.93
66.11 59.13 57.45 56.63 57.77 60.74 64.09 63.92 66.89 68.33 64.33 65.64 65.28 64.92 66.83 68.66 69.84 69.85 70.23 71.40 72.59 73.07 74.49 74.70 75.65 75.92 77.05 77.22 76.89 77.05 77.02 77.22 77.00 76.97 77.07 76.66 76.66 76.73 75.93 75.86 75.80 75.42 75.26 75.19 75.27 74.77 74.92 75.28 75.94
64.53 59.95 58.48 61.46 62.19 61.98 63.41 65.87 66.31 64.88 64.25 62.85 63.64 66.43 67.58 68.29 68.09 67.80 68.04 68.60 70.39 71.53 73.40 74.21 74.70 75.00 75.94 76.13 77.08 77.28 76.61 76.15 76.32 76.85 77.00 76.77 76.62 76.11 75.36 75.36 75.72 75.64 75.65 75.36 75.85 76.13 75.17 73.99 75.54
64.16 59.50 61.71 62.04 63.87 64.38 63.60 65.53 67.25 64.81 62.40 64.53 62.89 64.39 65.48 67.14 67.75 67.46 67.96 68.79 69.84 71.57 73.30 74.63 74.50 75.85 75.48 75.77 76.08 76.12 76.01 76.09 76.51 76.86 75.78 76.21 75.95 76.11 76.06 75.86 76.20 75.64 74.32 75.66 75.70 76.24 76.00 75.10 75.46
61.60 64.34 64.36 64.14 64.56 64.02 62.91 65.76 64.79 65.75 65.78 68.11 66.27 66.59 66.22 65.95 66.99 67.73 67.88 69.09 69.98 70.43 72.26 74.50 74.52 75.44 75.47 75.85 75.47 75.90 75.36 75.65 75.37 75.05 75.57 75.56 74.97 75.69 76.19 75.57 75.83 75.49 76.02 75.55 75.75 75.89 74.75 74.65 75.06
61.86 63.36 64.73 65.67 65.74 65.64 66.19 64.22 64.00 65.26 67.67 68.01 66.51 66.20 65.37 65.63 66.70 68.19 68.68 69.73 70.99 71.01 72.32 74.01 74.72 75.06 75.46 75.74 75.33 75.20 75.21 75.00 75.01 74.63 73.93 74.94 75.16 75.86 76.07 75.66 75.37 75.92 76.57 75.53 75.64 75.19 74.19 74.18 73.40
61.05 62.70 63.78 63.99 64.57 64.93 63.51 63.85 64.35 66.05 66.93 65.52 65.04 64.91 65.31 65.26 66.37 67.74 68.46 68.67 69.85 71.12 71.70 73.92 74.40 74.90 75.37 74.80 75.56 74.93 75.00 74.96 74.81 74.75 73.62 74.72 76.09 76.66 77.00 77.05 75.64 76.21 76.99 76.55 76.04 74.19 73.40 73.69 74.57
60.13 57.52 58.52 60.09 61.31 61.85 63.61 60.59 62.21 65.95 66.28 64.36 64.23 64.79 65.08 65.48 66.57 67.23 68.64 69.11 69.99 70.83 72.24 73.06 74.13 74.50 74.86 74.70 74.72 74.39 74.14 74.39 74.67 75.68 74.39 74.53 76.05 76.20 76.57 76.73 77.36 76.10 76.00 75.44 76.98 75.64 74.83 73.34 74.05
52.66 54.30 49.01 58.04 60.72 61.56 61.66 57.08 63.60 65.67 65.31 63.60 63.71 64.02 64.27 64.91 66.03 68.07 68.90 69.90 71.02 71.50 71.74 73.36 73.49 73.64 73.88 74.09 74.06 73.50 73.49 73.75 74.78 75.67 76.17 75.72 75.55 75.97 77.47 76.83 76.38 76.24 75.83 76.24 76.21 75.42 73.61 71.53 72.85
51.00 46.60 48.63 53.35 60.62 61.86 61.10 58.29 63.76 65.54 65.32 63.45 63.28 63.43 63.62 64.25 65.79 67.85 69.66 70.26 71.25 72.19 72.09 72.47 73.54 73.32 73.34 73.86 73.76 73.36 73.72 73.67 74.65 75.36 75.58 76.33 76.36 76.19 77.36 76.95 76.54 76.75 76.51 76.29 75.94 75.64 75.76 72.91 72.21
46.50 46.97 51.38 51.69 59.03 60.41 59.52 59.57 64.07 65.29 64.43 63.11 62.94 62.94 62.99 63.73 65.29 67.95 69.59 70.89 72.08 72.51 72.52 72.57 72.96 73.62 73.63 73.33 73.71 72.91 72.36 73.01 74.16 74.58 74.91 75.97 76.29 76.67 76.94 76.78 76.79 76.71 77.30 75.53 75.27 73.14 71.83 74.17 73.37
50.05 49.91 49.31 54.32 58.94 59.17 59.01 59.48 62.52 64.83 64.39 62.88 62.71 62.55 62.85 63.78 66.49 68.41 69.63 70.99 71.70 72.32 72.10 72.14 72.15 73.29 72.79 72.03 71.43 71.38 70.61 72.03 73.36 74.62 75.92 76.19 76.44 77.00 77.40 76.68 76.40 76.47 75.87 76.04 75.53 73.04 71.92 70.59 71.68
47.32 48.01 49.12 53.85 55.34 58.45 58.46 58.50 61.52 64.27 64.48 64.71 63.30 62.68 62.91 64.30 65.78 67.55 69.32 70.21 70.87 71.62 71.88 72.19 72.21 73.29 73.17 72.52 73.20 72.44 72.81 73.42 74.80 76.05 76.17 76.52 76.58 77.58 77.61 77.07 76.41 76.38 75.55 76.25 75.46 74.36 71.03 71.22 71.50
46.05 45.34 48.09 48.69 51.91 55.63 55.91 55.51 57.65 63.62 65.17 65.61 65.99 65.54 64.66 64.52 64.87 66.97 68.38 69.76 70.39 70.90 71.38 71.89 72.56 73.23 73.63 74.10 73.26 73.19 73.69 74.17 73.32 74.43 75.46 76.20 76.50 77.31 78.07 77.21 76.55 76.30 77.51 77.78 76.51 74.78 72.34 69.65 71.99
42.50 47.01 47.59 49.00 48.58 48.48 55.93 49.77 56.63 59.46 62.53 64.05 65.28 65.79 65.89 65.65 66.49 67.19 68.34 69.22 70.02 70.76 71.71 72.59 73.08 73.17 73.51 74.29 73.62 74.04 71.60 71.12 72.75 73.90 75.24 76.04 76.67 76.72 77.50 78.09 77.29 77.81 76.33 77.12 76.03 75.76 74.08 72.54 70.30
44.76 47.75 46.20 46.57 47.53 48.27 50.13 48.97 55.32 59.65 59.32 62.26 64.77 65.85 66.70 67.34 67.22 67.25 68.07 69.56 70.39 71.15 71.24 71.71 73.13 73.85 74.57 74.74 74.88 73.25 73.30 72.84 73.62 73.72 75.11 76.59 76.56 76.64 76.81 77.58 77.40 77.77 77.25 77.45 76.71 76.21 75.42 72.73 71.47
48.98 47.23 47.30 46.98 45.13 40.52 47.77 48.56 50.70 55.37 59.39 62.40 64.95 66.19 67.07 67.67 68.11 68.72 69.39 70.11 70.35 71.31 71.31 71.57 72.61 73.27 74.31 74.11 74.41 74.85 74.76 74.05 72.51 73.40 72.86 73.69 75.10 75.64 76.66 77.03 77.51 77.56 77.08 76.93 76.72 77.48 76.61 75.38 73.72
48.83 46.10 40.63 38.74 38.66 37.43 47.71 47.33 50.07 57.12 60.83 62.90 64.26 65.72 67.22 68.23 68.07 68.48 68.61 69.18 70.10 71.18 71.51 71.92 72.15 72.10 73.34 73.80 74.22 74.45 75.07 75.34 74.36 74.07 72.95 73.97 73.19 74.41 75.78 76.94 77.03 76.89 77.68 77.66 77.26 77.25 76.74 76.15 74.89
47.21 46.55 41.07 35.57 37.62 39.81 46.70 44.65 49.72 56.82 58.85 63.39 65.66 66.96 67.83 68.11 68.60 68.84 69.12 69.92 70.61 71.25 72.24 71.71 72.11 72.27 73.02 73.26 74.04 74.88 75.30 73.23 73.26 74.47 73.49 73.11 72.93 74.06 76.61 76.83 77.03 77.19 77.47 77.47 77.47 76.39 76.15 76.63 75.80
46.89 44.39 49.06 43.67 44.46 42.05 44.17 47.61 53.32 56.28 57.46 59.19 62.66 65.74 66.83 67.80 68.51 68.86 69.53 70.19 70.91 71.19 71.84 72.24 72.40 72.54 72.83 72.68 73.85 74.41 74.75 74.70 73.91 75.52 75.11 73.81 75.44 74.13 76.01 76.68 76.75 76.95 77.14 77.41 77.66 76.20 76.65 76.42 76.56
46.84 50.35 43.51 44.60 37.13 36.31 42.65 44.34 45.58 52.74 55.14 58.08 59.47 63.50 66.28 68.09 68.78 69.40 69.85 70.41 71.44 71.60 72.09 72.72 72.82 72.52 73.14 73.15 73.65 73.81 74.25 74.88 75.01 75.29 74.95 75.36 74.67 75.03 75.40 76.47 76.75 76.97 77.14 77.30 77.40 76.58 77.19 77.06 76.52
46.11 44.37 47.27 47.54 45.34 39.84 38.35 43.48 52.71 53.08 57.33 57.63 59.01 61.77 65.00 67.43 68.60 69.41 70.64 71.46 71.70 71.73 72.06 72.28 72.30 72.74 72.77 73.07 73.48 73.78 73.76 74.06 74.71 74.19 74.55 75.54 75.17 75.44 75.75 76.44 76.61 76.55 76.72 77.16 77.24 76.97 76.89 76.59 76.88
42.86 41.41 46.37 43.89 42.63 45.74 44.57 44.40 53.73 55.62 56.89 58.60 59.42 60.80 62.96 66.72 68.50 69.71 70.36 70.76 71.30 71.87 72.24 72.04 72.46 72.16 72.69 73.30 73.42 73.37 73.89 74.25 73.37 74.26 74.42 75.51 75.46 75.67 76.00 76.22 76.21 76.52 76.56 76.80 76.68 76.06 76.15 76.45 76.13

GFSSGP_sfc_wetblb_048.txt.gz
Wetbulb
73.62 73.74 73.34 71.58 62.09 62.49 58.27 60.01 65.12 63.58 63.81 66.60 66.83 64.62 64.57 66.04 63.67 60.33 72.50 73.68 71.09 73.34 75.32 76.21 77.25 77.22 77.46 77.42 77.11 77.28 76.77 76.82 76.77 76.91 77.24 76.80 76.59 76.62 76.19 76.36 76.38 76.35 76.36 76.20 75.70 75.28 75.59 75.67 74.95
72.33 72.09 72.00 69.14 57.93 55.69 58.91 63.27 61.91 64.67 66.58 67.69 67.26 65.43 65.36 63.30 67.89 68.95 70.46 73.14 73.75 73.72 74.58 75.76 76.95 77.42 77.04 77.19 77.24 77.40 77.30 77.18 76.99 76.76 76.58 76.97 76.51 76.22 76.58 76.45 76.22 76.13 75.86 75.81 75.78 75.97 75.92 76.05 75.81
72.43 71.84 65.64 60.88 58.86 55.32 58.03 63.05 64.94 66.34 68.24 66.44 65.78 68.43 66.73 64.61 68.70 70.31 73.15 73.36 73.36 73.70 74.53 76.77 77.12 77.12 77.24 77.20 77.23 77.15 76.70 76.70 76.73 76.79 76.65 76.77 76.60 76.54 76.43 76.24 75.84 75.75 75.81 75.70 75.59 75.01 74.92 74.76 74.87
69.09 70.18 66.36 59.56 57.72 59.59 61.34 63.94 63.88 66.36 65.87 67.26 67.45 64.75 68.03 69.71 70.00 72.56 73.68 72.90 73.02 73.86 74.67 76.51 77.00 77.12 76.92 77.00 77.13 76.70 76.96 77.01 76.81 76.80 76.87 76.59 76.60 76.51 76.67 76.45 76.53 76.08 75.98 75.59 75.62 75.03 75.14 75.06 75.15
71.76 69.06 59.50 59.75 59.27 62.78 63.64 64.48 67.20 65.86 65.81 65.53 65.88 63.82 63.46 68.80 71.52 73.15 72.77 72.47 72.82 73.52 75.04 76.75 77.21 77.82 76.91 77.10 77.03 77.01 77.01 76.96 77.05 76.89 76.79 76.42 76.72 76.92 76.70 76.48 76.37 76.36 75.84 75.64 75.34 75.17 74.95 75.26 75.81
66.14 65.48 59.71 56.25 58.38 62.84 66.43 67.86 66.09 66.20 65.02 65.51 66.01 64.05 63.60 70.15 70.37 72.69 72.83 72.61 73.12 73.42 74.52 76.17 76.60 77.36 76.98 76.76 77.08 77.21 77.05 76.80 77.05 77.15 77.27 77.06 77.13 77.11 76.81 76.42 76.31 76.20 76.03 75.76 75.31 75.20 75.17 75.53 76.01
65.60 64.74 60.99 60.57 58.37 60.11 64.74 68.41 66.34 65.50 65.18 65.75 67.00 63.60 65.89 68.55 71.30 72.83 73.04 72.98 73.22 73.85 74.51 75.39 76.75 77.26 76.95 77.35 77.04 77.16 77.12 77.04 76.83 77.02 77.34 77.48 77.25 76.90 76.59 76.28 76.09 76.03 75.83 75.22 75.06 75.03 75.34 75.70 76.26
68.77 65.68 60.29 61.01 59.34 61.01 66.37 67.44 67.36 65.87 65.65 67.95 68.33 64.37 63.41 68.74 71.70 71.85 72.70 72.98 73.07 73.57 74.62 74.73 76.10 76.43 77.20 77.11 77.11 77.20 77.33 76.92 76.99 77.46 77.21 77.25 77.26 76.81 76.34 76.77 76.70 75.76 75.22 75.18 75.22 74.89 75.45 76.20 75.93
69.86 62.52 60.83 60.19 60.77 63.67 67.02 64.95 67.69 68.82 65.96 67.79 68.55 67.71 69.93 70.86 71.63 70.30 71.28 71.66 72.07 72.55 74.49 74.03 75.21 76.37 77.49 77.22 77.39 77.17 77.19 77.14 77.35 77.56 77.27 77.15 75.92 75.76 76.70 76.84 75.99 75.88 75.52 75.05 74.92 75.00 75.34 76.09 76.22
65.69 62.04 60.54 64.47 64.76 64.73 66.47 65.40 67.40 67.16 66.72 65.62 66.25 69.04 69.90 69.94 69.78 69.30 69.75 69.83 70.42 71.52 73.38 74.00 76.05 75.90 77.00 76.26 77.43 77.85 77.44 77.07 76.96 77.20 77.34 76.47 76.37 76.33 75.43 76.41 75.73 75.53 75.46 76.03 75.84 75.52 75.30 75.71 75.08
65.89 61.59 64.52 64.63 65.57 67.53 67.30 67.03 69.54 67.24 65.43 67.02 65.91 67.00 67.60 69.40 70.21 70.14 70.08 70.28 70.42 71.98 72.60 73.30 75.09 75.81 76.45 78.23 76.86 76.60 76.02 76.40 76.92 77.51 77.03 76.88 76.10 75.20 75.80 75.98 75.99 76.14 75.81 76.09 76.69 76.97 76.53 75.58 75.91
61.67 65.27 65.73 65.69 66.59 66.81 65.39 68.18 66.78 66.26 67.88 70.47 69.15 69.27 69.20 68.74 68.98 69.64 69.63 69.94 70.65 71.59 72.75 73.40 74.72 75.59 76.18 76.40 75.64 75.55 75.20 75.59 75.39 76.06 77.37 76.65 75.72 75.55 75.75 76.34 75.65 76.50 76.96 76.25 77.87 75.06 75.68 76.21 76.85
61.82 64.42 66.31 65.96 66.62 66.63 66.37 65.72 64.64 66.68 69.71 70.88 69.75 69.10 68.53 68.62 69.18 70.15 70.41 70.60 71.37 71.19 72.90 73.36 74.68 75.95 76.17 76.74 75.65 75.48 75.54 75.60 75.67 76.05 76.56 76.47 76.32 76.27 76.42 76.34 77.53 77.37 76.83 76.32 76.50 75.45 75.57 75.66 75.39
59.92 61.83 64.91 65.49 66.97 66.33 64.36 65.60 65.50 67.60 70.52 69.44 68.91 68.42 68.83 68.61 69.25 69.84 69.88 69.96 71.04 71.73 72.69 73.90 74.21 75.63 76.30 76.30 76.88 76.47 76.16 76.21 75.79 75.40 75.54 76.81 77.40 78.08 75.69 75.60 77.02 78.06 78.08 76.85 76.38 75.21 74.09 73.32 74.22
59.91 59.06 61.03 62.87 64.66 64.98 66.08 62.87 63.42 69.06 69.82 68.32 68.47 68.50 68.70 68.85 69.68 69.50 70.25 70.34 71.51 71.91 73.23 73.66 74.24 75.02 75.74 76.24 76.45 76.00 75.64 75.48 75.68 75.98 76.90 77.32 78.21 78.40 76.85 75.96 75.87 77.09 77.35 76.99 76.13 75.15 74.63 72.96 73.02
54.59 55.25 54.66 61.12 63.01 64.72 64.62 59.01 65.94 69.08 68.68 67.70 68.06 68.01 67.93 68.51 69.30 70.27 70.84 70.90 71.97 72.00 72.65 74.14 73.63 73.90 74.94 75.51 75.57 74.93 75.24 75.79 76.08 76.77 77.04 77.16 77.92 77.98 78.18 76.03 75.98 77.54 76.24 75.85 74.34 73.24 73.25 73.68 71.65
51.76 49.18 52.04 56.94 63.49 63.97 63.52 61.00 66.85 68.74 68.45 67.47 67.86 67.79 67.61 67.86 69.04 70.27 71.10 71.26 71.41 72.25 72.92 73.72 74.14 73.60 74.12 75.22 75.05 75.19 76.15 75.86 76.39 76.68 76.92 78.20 77.86 78.33 78.70 77.30 77.92 77.50 77.23 77.00 74.40 74.14 73.17 72.58 70.97
48.50 48.79 52.64 53.33 61.14 63.54 62.42 61.89 66.41 67.64 68.00 67.68 67.74 67.86 67.53 67.59 68.09 69.94 70.74 71.55 71.80 72.50 73.27 73.92 74.07 74.49 74.97 74.51 74.82 74.23 74.94 75.67 76.51 76.62 76.99 78.05 77.94 78.18 78.27 77.49 77.16 77.07 75.22 75.60 75.67 75.02 74.82 73.92 72.68
51.53 51.93 51.48 55.93 60.47 61.05 61.55 62.06 64.46 67.34 67.23 66.79 67.47 67.63 67.50 67.85 69.27 69.95 70.78 71.23 71.81 72.58 73.29 73.50 73.83 74.85 74.37 73.10 71.99 72.78 73.06 74.47 75.27 75.99 77.40 78.43 78.26 78.55 79.11 77.82 76.22 76.46 75.14 75.36 76.08 74.12 74.34 72.34 73.43
49.87 50.84 52.60 55.35 58.03 60.43 61.62 61.40 63.81 67.02 66.90 67.27 67.18 67.21 67.21 67.81 68.45 69.14 70.12 71.13 71.73 72.32 73.20 73.59 73.87 74.91 74.87 73.28 73.67 73.72 74.22 74.39 75.15 76.62 78.10 78.58 78.39 78.77 78.37 77.85 76.97 77.41 76.26 75.30 75.18 75.68 72.28 72.01 72.78
49.20 48.42 49.72 52.12 55.26 57.57 59.73 59.62 61.59 64.94 67.57 68.28 68.15 68.28 68.28 67.67 67.90 68.81 69.50 70.60 71.57 72.28 72.99 73.75 74.50 74.84 75.31 75.72 73.61 74.37 75.00 75.31 75.12 76.15 76.38 77.67 78.43 78.75 78.97 77.72 77.67 76.35 76.89 74.73 75.85 75.85 74.38 70.56 72.43
46.48 50.22 49.42 49.32 51.27 50.34 57.69 52.58 59.65 62.37 64.69 66.60 67.95 68.11 67.82 68.24 68.70 69.39 70.02 70.59 71.14 72.26 73.72 74.28 74.92 74.99 75.09 75.91 74.94 76.17 73.20 72.48 73.19 75.09 76.00 77.12 78.62 78.33 78.78 78.98 77.84 77.33 78.90 76.81 76.20 76.08 74.62 74.61 70.98
48.33 50.96 49.37 48.73 48.02 51.23 53.56 53.03 57.93 61.93 61.21 64.77 67.13 68.42 68.71 68.96 69.06 69.18 70.19 71.26 72.06 72.46 73.18 74.13 75.00 75.89 76.54 76.19 76.49 74.03 74.36 72.56 73.59 74.71 77.08 78.26 78.82 78.62 78.12 78.87 77.85 77.35 76.29 77.57 77.87 77.41 76.50 73.50 73.13
51.60 50.22 49.58 49.47 47.64 42.39 49.88 52.61 54.82 58.61 61.50 63.52 66.84 68.09 69.31 69.70 69.74 70.04 71.19 72.06 72.31 72.83 73.17 73.85 75.45 75.91 75.98 75.32 74.86 76.28 75.69 74.88 73.46 75.07 74.29 74.76 75.76 77.20 78.42 78.53 78.85 77.84 77.06 77.78 77.15 77.36 77.71 76.42 74.66
51.48 48.75 43.57 42.31 42.11 41.11 49.52 49.06 54.10 59.46 62.25 64.29 65.39 67.52 69.29 70.38 70.66 70.42 70.36 70.91 72.21 72.52 72.69 72.98 75.08 75.73 75.92 75.01 75.24 75.06 75.81 76.36 76.36 75.68 74.50 76.24 73.79 74.65 77.01 78.76 78.88 78.11 78.56 78.41 78.66 77.75 77.57 77.37 75.73
49.90 49.37 45.49 40.68 41.73 43.14 48.48 45.27 50.53 58.89 61.88 63.66 66.34 67.43 69.37 70.03 71.04 71.23 71.49 71.25 71.99 72.55 72.81 72.95 74.24 75.14 75.86 75.56 76.84 77.51 77.32 74.70 74.73 75.98 75.20 74.46 73.98 74.55 76.83 78.24 78.37 78.83 78.93 78.70 78.77 78.34 77.12 77.82 76.83
49.76 47.47 51.71 48.09 49.45 46.27 47.54 48.99 52.30 57.02 59.11 61.14 62.37 65.51 67.04 69.40 70.69 71.34 72.34 72.32 72.20 72.71 73.83 74.55 75.26 75.38 75.17 74.73 76.80 77.31 77.28 76.92 75.90 78.32 76.68 75.43 77.39 75.33 76.27 76.84 77.76 77.89 78.40 78.75 78.95 76.93 77.78 77.84 77.62
49.80 53.01 46.69 47.38 41.22 40.91 46.44 48.01 47.33 52.80 57.20 59.63 60.91 62.60 66.22 69.29 70.60 71.61 72.13 72.67 72.73 73.24 73.61 73.97 74.31 74.81 75.10 74.97 75.34 75.65 75.91 77.23 77.23 77.06 77.51 77.44 76.58 77.15 76.44 76.61 76.79 77.25 78.04 78.34 78.87 77.57 78.15 77.97 77.53
47.31 46.73 48.53 49.77 47.66 43.50 43.17 46.86 54.81 54.43 55.92 58.60 60.74 62.89 64.57 68.30 70.20 71.40 72.25 73.11 73.43 73.60 73.54 73.80 74.10 74.38 74.66 75.32 76.14 76.14 75.54 75.89 76.46 75.98 76.51 76.95 77.22 77.41 77.43 76.81 76.55 77.16 77.88 78.34 78.25 78.22 77.60 77.80 77.96
44.67 46.44 48.61 44.72 44.78 47.81 47.43 48.79 56.21 56.07 56.98 57.86 59.98 62.93 64.94 67.53 69.91 71.32 72.04 72.83 73.30 73.34 73.50 73.62 73.94 74.08 74.73 76.49 77.16 75.87 76.46 76.55 75.59 76.09 76.48 77.40 77.06 77.42 77.60 77.43 77.04 76.97 77.09 78.27 78.16 77.65 77.05 77.25 77.15

GFSSGP_sfc_wetblb_051.txt.gz
Wetbulb
73.88 73.72 74.58 70.93 61.35 62.12 59.67 59.75 65.04 63.77 64.77 67.83 68.03 65.86 64.82 66.06 63.27 59.84 72.32 72.77 71.81 73.96 75.58 76.34 77.12 77.21 76.74 76.76 76.65 76.73 76.95 76.89 77.02 77.07 76.97 76.90 76.65 76.27 76.46 76.46 76.40 76.55 76.24 75.86 75.55 75.94 75.72 75.05 76.04
74.04 72.96 72.50 67.60 60.15 55.21 59.34 63.22 63.05 64.46 67.16 68.47 67.86 66.63 66.04 64.83 69.68 69.88 71.00 73.95 72.98 74.72 75.36 76.10 77.27 77.60 77.49 77.17 77.56 77.02 76.81 77.19 77.02 77.12 76.69 76.53 76.29 76.55 76.48 76.46 76.34 75.99 76.03 76.14 76.35 76.22 75.94 75.66 75.42
73.60 72.44 65.43 62.33 60.52 57.15 59.69 63.57 64.61 67.21 68.04 67.38 66.63 68.93 68.56 65.94 70.28 71.27 73.57 72.13 74.46 73.81 74.88 77.16 77.45 77.60 77.33 77.33 77.28 77.23 77.17 77.05 76.86 76.88 76.87 76.60 76.33 76.59 76.03 76.05 75.91 75.84 75.89 75.72 75.50 75.42 75.25 75.25 75.66
70.45 69.65 67.81 60.00 59.02 61.72 62.40 64.72 66.61 66.67 66.72 68.49 68.96 65.23 69.08 71.34 70.58 71.84 73.52 73.95 72.74 73.30 75.46 76.92 77.39 77.39 77.37 77.48 77.13 77.05 76.92 76.78 76.69 76.91 76.62 76.62 76.16 76.50 76.60 76.32 75.96 76.03 75.69 75.80 75.36 75.33 75.44 75.33 75.25
70.71 69.76 62.18 59.69 61.11 62.70 65.11 67.40 68.25 65.05 66.75 67.74 67.81 65.52 66.32 69.85 72.46 73.47 73.82 72.93 72.46 73.98 75.30 76.34 77.81 77.24 77.11 77.25 77.11 77.04 76.82 76.82 77.00 77.00 76.91 76.51 76.63 76.75 76.53 76.30 76.55 75.66 75.72 75.72 75.28 75.33 75.36 75.63 75.53
66.25 68.81 60.63 58.58 60.11 63.29 64.40 67.02 67.22 65.18 65.97 66.94 67.21 65.40 65.18 71.44 70.97 71.89 73.46 72.47 73.02 73.30 74.32 76.19 77.08 77.10 77.04 77.20 77.32 77.07 77.11 77.14 77.02 76.80 76.58 76.91 76.86 76.96 76.67 76.58 76.28 76.17 75.80 75.61 75.33 75.41 75.66 76.02 75.99
65.73 65.04 60.74 60.07 60.47 62.28 65.00 69.05 65.90 64.92 65.14 66.43 68.24 64.04 67.31 69.79 71.41 72.03 72.64 72.94 72.52 73.09 74.37 75.69 76.57 76.84 77.01 77.08 77.38 76.99 76.93 76.70 76.91 76.85 77.32 76.89 76.89 76.69 76.47 76.39 76.22 75.59 75.08 75.00 75.43 75.46 75.80 76.15 75.90
67.98 65.03 60.44 61.85 58.36 60.73 66.65 68.01 68.82 66.33 64.53 69.26 69.03 64.64 64.59 69.38 71.55 71.74 72.07 72.26 72.52 72.80 73.13 74.60 75.40 76.31 76.35 76.93 77.07 77.21 76.87 76.69 77.02 77.37 77.23 77.17 76.78 76.50 76.33 76.74 76.38 75.32 75.44 75.50 75.34 75.32 76.11 76.29 76.03
70.96 62.05 60.16 60.56 60.82 64.58 69.12 67.28 68.38 69.72 66.27 67.93 69.80 69.61 70.90 71.25 71.30 70.51 70.34 70.99 71.74 71.98 72.89 74.08 74.46 75.49 77.63 77.34 77.17 77.33 77.18 77.16 77.52 77.11 77.28 77.59 75.17 76.12 76.70 76.89 76.00 75.25 74.87 75.09 75.06 75.46 75.92 76.10 76.28
66.34 61.34 60.33 64.21 65.62 64.40 68.02 67.63 67.76 65.93 67.12 67.55 68.64 71.44 71.30 70.42 70.10 68.68 69.23 69.21 70.84 71.35 71.63 73.01 74.27 75.55 75.70 75.37 77.11 77.31 76.79 76.21 76.63 76.18 77.70 75.62 76.57 76.29 75.54 76.17 75.41 75.51 75.68 76.04 75.70 75.34 75.44 75.69 74.51
65.84 61.20 64.25 65.31 66.49 68.15 68.11 67.00 68.56 66.06 65.29 67.93 67.26 68.86 69.39 69.10 69.51 69.11 69.76 70.17 70.56 71.93 71.21 73.19 75.31 75.62 75.46 76.22 76.31 75.80 75.66 75.96 77.13 76.93 76.89 76.68 74.81 74.90 74.88 75.20 75.47 75.69 74.87 75.54 76.63 76.43 74.40 72.81 73.39
62.66 65.08 64.96 65.43 67.48 67.38 65.92 68.24 67.49 67.91 65.41 70.43 70.21 70.30 69.69 70.17 70.02 69.16 69.54 70.45 70.80 71.79 71.33 73.59 74.25 74.23 76.27 75.61 74.41 75.54 75.06 74.92 74.69 75.85 76.98 76.61 76.80 76.29 75.92 75.57 75.04 75.08 74.25 74.62 71.52 73.94 74.95 75.17 75.96
62.89 63.69 66.39 67.34 67.57 67.01 68.48 65.96 65.73 65.99 70.58 71.16 70.69 70.05 69.85 70.27 70.34 71.03 70.49 71.18 71.53 70.96 71.15 73.17 74.01 76.32 75.43 77.33 76.34 74.87 74.62 74.22 75.33 75.88 76.62 76.25 75.39 75.33 75.42 76.18 74.21 74.27 75.76 74.62 74.80 74.23 75.74 73.86 74.02
61.68 63.12 65.22 67.35 66.34 66.70 64.84 65.20 66.93 67.09 71.00 70.20 69.83 69.56 70.16 70.39 70.74 71.02 70.98 70.62 71.17 71.39 71.58 72.90 74.16 75.98 76.87 76.83 77.20 76.46 76.81 76.42 74.92 75.20 75.80 76.88 75.48 78.30 76.08 75.90 75.73 76.50 72.14 74.31 74.97 75.19 74.45 74.68 73.03
60.19 58.91 61.34 65.67 66.99 64.27 65.69 61.90 63.91 69.05 70.66 69.31 69.44 69.69 69.88 70.21 70.89 70.60 70.89 70.76 71.48 71.70 72.40 73.01 74.31 75.55 76.27 76.89 76.44 76.74 75.62 74.86 74.99 75.94 77.29 77.62 77.60 77.70 78.02 76.50 76.10 75.86 76.75 76.31 75.29 74.50 74.99 72.76 73.98
56.54 58.07 57.40 63.55 65.38 65.97 66.01 58.70 65.71 70.04 69.77 68.80 69.13 69.29 69.50 69.95 70.26 71.22 71.24 71.41 72.26 72.03 72.68 73.70 73.67 74.75 75.62 76.19 76.19 75.66 75.35 75.24 74.98 76.11 77.07 77.85 77.44 77.44 77.97 75.97 75.02 76.78 76.88 75.78 73.80 71.51 73.58 73.56 72.51
52.70 51.29 54.22 57.55 64.77 64.22 64.61 59.58 61.29 69.77 69.32 68.57 69.24 69.13 69.28 69.51 70.15 71.28 71.47 71.62 72.13 72.21 72.98 73.62 74.07 74.35 75.23 76.58 76.24 76.10 77.05 76.42 76.13 75.95 77.06 78.40 78.26 77.92 75.88 75.48 76.47 77.38 76.71 74.02 75.14 72.65 72.18 73.47 71.79
48.97 50.44 53.71 54.91 61.89 63.42 62.43 62.22 64.21 68.54 68.74 68.55 69.09 69.10 69.01 69.17 69.63 71.19 71.58 71.98 72.17 72.28 72.93 74.05 73.78 76.25 76.90 75.83 76.35 75.38 75.28 76.07 75.44 75.29 75.96 78.37 77.69 78.06 78.64 76.64 76.64 76.95 74.70 74.68 73.75 75.48 72.71 72.32 70.29
52.84 51.82 52.32 56.30 60.65 61.29 60.67 61.93 62.83 67.46 68.16 68.23 68.72 68.99 68.78 69.17 70.75 71.53 71.72 71.94 71.81 72.20 72.50 73.65 74.72 77.74 75.40 73.87 73.46 73.83 73.43 74.80 75.70 77.76 77.98 78.39 77.97 77.98 78.49 75.92 76.83 77.01 75.90 77.02 75.55 73.82 73.87 71.54 72.90
52.17 51.12 52.70 55.64 59.66 62.11 61.83 60.30 63.21 66.75 67.35 68.59 68.60 68.91 68.77 69.39 69.82 70.68 71.31 71.40 71.31 71.51 72.47 74.84 75.76 77.89 76.15 74.46 75.65 75.58 76.03 74.77 75.07 75.83 78.16 78.51 78.13 78.38 77.24 77.74 77.28 74.71 75.86 76.51 75.66 76.20 73.28 70.93 74.09
51.24 50.55 51.92 54.41 57.43 59.73 59.77 59.05 60.94 65.05 67.60 68.80 69.37 69.85 69.89 69.25 69.22 69.97 70.37 70.95 71.34 71.50 72.50 74.65 76.55 77.76 76.99 76.87 75.45 75.69 76.54 75.95 74.14 76.63 76.33 77.74 78.35 78.47 78.63 77.66 78.30 77.28 77.64 74.22 76.22 75.64 76.87 71.31 71.54
49.59 52.78 51.76 52.34 54.62 52.21 58.99 51.26 58.54 62.77 64.88 67.13 68.22 68.79 69.36 69.32 70.13 70.29 70.39 70.65 70.92 71.85 73.12 75.68 76.26 77.68 77.14 78.05 74.56 76.41 73.55 72.15 72.95 75.21 75.73 77.07 78.33 78.32 78.27 78.30 77.95 77.64 76.59 77.73 76.63 76.49 76.94 75.49 71.61
50.65 53.67 51.63 50.61 50.44 52.20 54.38 53.34 56.57 62.75 59.86 65.09 67.54 68.53 69.24 70.03 69.65 69.99 70.36 71.07 71.94 72.41 72.89 73.90 76.82 77.61 77.77 77.72 77.07 74.67 75.16 73.41 73.71 73.62 79.11 80.01 80.00 78.53 78.17 78.21 78.36 78.29 76.55 77.85 77.38 77.35 77.17 73.75 75.22
54.00 52.08 51.99 51.21 49.34 44.78 50.94 54.04 55.77 58.77 60.59 63.82 67.09 68.88 69.42 69.73 70.28 70.60 71.58 72.02 72.09 72.76 73.21 74.47 76.65 77.50 78.15 77.75 76.80 77.57 75.53 76.05 72.51 74.32 74.99 74.95 76.02 76.98 78.69 78.39 78.65 78.60 78.14 78.06 77.50 77.81 77.65 77.69 75.96
52.66 50.28 45.07 44.07 43.73 42.81 50.34 51.28 55.54 60.74 63.23 63.73 66.12 68.20 69.88 70.20 70.45 70.42 70.67 71.22 72.23 73.21 73.80 74.99 76.49 77.07 77.50 77.29 76.28 76.77 77.75 77.23 78.15 77.44 73.87 75.49 73.52 74.25 78.81 79.91 79.63 77.98 78.55 78.53 78.62 78.76 78.20 77.27 75.98
51.31 50.44 46.41 41.78 43.59 45.08 49.76 47.42 52.54 60.43 63.64 62.03 66.13 67.16 69.72 70.20 70.48 70.79 71.30 71.60 73.00 73.85 74.68 74.98 76.36 77.03 77.67 76.89 76.95 76.89 77.82 74.08 72.92 76.31 74.71 73.80 73.49 74.59 80.38 78.68 78.45 78.78 78.97 78.27 79.61 77.44 76.76 78.51 76.52
51.34 49.03 52.43 48.43 50.41 47.91 49.49 50.65 53.66 57.77 59.53 62.58 63.77 66.38 66.98 69.51 70.75 71.11 71.60 72.21 73.35 73.98 74.95 75.15 76.36 77.06 77.53 75.34 77.15 77.67 77.44 76.18 74.16 76.04 78.11 76.44 77.97 75.20 77.87 78.33 78.14 78.26 78.22 79.35 80.34 76.63 77.63 79.03 78.02
50.69 54.12 48.13 48.21 42.57 42.74 48.72 50.29 49.00 52.78 55.78 59.11 62.16 64.17 66.55 69.03 70.61 71.40 72.20 72.47 72.99 73.58 74.62 75.61 76.37 76.96 77.37 76.80 77.31 77.37 77.60 78.18 77.62 78.43 79.22 77.92 78.71 79.21 77.64 77.94 77.49 77.88 78.78 78.94 80.68 78.62 79.44 79.02 77.41
46.09 46.37 49.54 50.33 48.72 43.98 44.69 49.14 56.56 55.37 55.80 56.98 59.87 63.30 65.52 67.37 69.89 71.25 72.21 73.28 73.47 73.80 74.12 74.46 75.29 76.31 76.39 77.09 77.26 76.57 76.65 77.18 77.99 78.46 79.03 79.40 79.23 79.99 79.39 78.75 78.21 77.89 77.76 79.12 80.22 79.76 78.94 77.75 79.11
46.75 46.84 47.47 44.94 45.80 49.12 48.11 49.16 57.77 58.07 57.39 57.79 59.40 62.62 64.35 66.52 69.18 71.31 72.12 73.29 73.81 73.72 73.87 74.46 74.50 74.31 75.88 76.75 77.96 77.17 77.28 77.19 76.81 77.47 78.74 79.84 79.72 79.29 79.51 79.26 78.98 78.42 78.08 79.59 79.56 77.83 77.37 77.47 77.46

GFSSGP_sfc_wetblb_054.txt.gz
Wetbulb
73.87 72.82 72.47 70.07 60.42 60.75 58.29 59.44 64.03 63.14 63.84 66.42 67.54 66.38 64.55 66.10 62.88 59.75 70.02 71.83 72.62 73.00 74.00 75.39 76.76 77.63 76.89 76.89 77.43 77.32 77.49 77.04 76.83 77.33 77.23 76.98 76.69 76.82 76.71 76.77 76.33 76.44 76.11 76.12 76.25 75.45 75.59 76.37 76.14
72.73 72.23 71.44 68.07 59.44 55.02 57.92 62.83 62.41 64.26 66.17 68.04 68.03 67.33 65.65 63.80 68.34 67.82 69.42 71.92 73.65 73.43 74.52 74.89 77.04 77.17 77.24 76.91 76.96 76.89 76.81 76.92 77.33 77.10 77.06 76.90 76.79 76.65 76.55 76.54 76.22 76.47 76.66 76.30 76.50 76.20 75.81 75.53 76.20
74.25 73.02 65.56 62.40 59.72 56.60 58.03 62.70 64.64 65.37 67.47 66.64 66.97 68.45 66.83 64.38 67.89 69.11 71.80 72.97 73.72 74.23 74.94 75.59 77.53 77.91 77.58 77.61 77.46 77.80 77.31 77.17 77.07 77.19 76.96 76.47 76.79 76.60 76.23 76.34 76.10 76.09 75.98 75.90 75.73 75.48 75.45 75.84 75.96
71.20 69.67 68.31 60.95 58.56 61.51 61.69 63.84 64.46 65.44 67.94 68.91 68.18 64.84 69.07 69.64 69.58 71.30 72.76 73.46 73.72 74.33 75.34 77.21 78.11 77.72 77.68 77.41 77.57 77.34 77.20 76.99 77.08 77.29 77.12 76.77 76.54 76.77 76.65 76.22 76.31 76.09 76.15 75.84 75.90 75.76 75.62 75.37 75.45
69.93 68.65 61.39 59.47 59.79 62.04 65.33 65.24 66.98 65.68 66.56 66.86 68.17 64.48 65.11 69.51 72.38 71.94 72.14 73.02 71.66 73.90 74.47 76.32 78.32 77.97 77.84 77.44 77.36 77.32 77.29 77.00 76.84 77.00 76.79 76.54 76.81 76.73 76.56 76.73 75.87 76.04 75.98 75.56 75.76 75.76 75.84 75.56 75.59
65.62 66.54 59.53 56.78 58.97 62.97 64.67 67.75 67.64 65.13 65.29 66.76 66.35 65.37 65.90 70.83 70.35 71.39 72.48 72.34 73.67 73.06 73.85 75.55 77.48 77.89 77.98 77.26 77.20 77.45 77.25 77.06 77.14 76.90 76.93 77.41 77.43 77.74 77.36 76.62 76.34 76.29 75.98 75.53 75.73 76.12 76.06 75.89 75.53
64.61 63.43 60.61 58.75 59.37 62.26 63.49 67.55 65.71 64.33 64.05 64.95 67.10 63.59 67.16 68.83 71.06 72.33 72.04 71.94 71.99 72.72 73.99 74.79 75.61 76.87 77.59 77.18 77.17 77.17 76.98 76.98 77.40 77.78 77.20 78.05 77.63 77.39 77.06 76.84 76.34 75.69 75.35 75.81 75.89 76.09 76.35 75.66 74.68
66.26 64.14 60.15 59.81 58.59 61.10 65.70 66.41 66.92 63.93 63.20 68.42 68.86 63.20 64.13 68.95 71.53 71.81 71.96 71.20 70.42 73.08 73.43 74.39 75.30 75.03 75.98 75.92 77.11 76.88 76.99 77.78 77.32 77.41 77.58 77.96 77.31 76.59 76.34 77.21 76.90 76.11 75.72 75.72 75.81 76.20 76.30 76.10 75.28
68.45 60.45 59.14 58.65 60.74 61.85 67.18 66.28 67.58 69.13 66.70 67.69 68.64 68.99 69.82 70.98 71.60 70.56 70.77 69.22 70.73 71.62 72.35 73.39 73.90 75.13 76.89 76.62 76.90 77.08 77.28 77.11 77.49 77.45 77.94 76.77 75.31 75.91 75.83 76.95 76.31 75.47 75.88 76.23 76.03 76.09 75.54 75.31 75.25
64.07 60.40 60.28 62.97 63.81 64.73 66.37 67.35 67.68 66.57 66.34 66.34 68.11 70.41 70.97 70.48 70.17 69.03 68.76 67.92 69.49 69.45 71.24 72.36 73.80 74.66 75.84 74.81 76.86 77.05 76.41 76.02 76.03 75.79 75.64 77.27 74.80 76.61 74.92 76.05 76.81 75.30 75.58 76.70 77.08 76.43 73.89 72.21 73.18
63.96 60.54 63.13 63.31 66.02 66.83 66.84 67.18 68.09 65.03 63.93 67.41 66.57 68.02 69.26 68.96 69.00 68.39 68.95 69.48 69.51 70.47 70.79 72.23 74.98 75.18 74.91 75.34 76.20 75.87 76.14 76.05 76.07 73.79 73.35 77.14 76.47 74.26 75.10 74.73 75.32 72.86 75.16 74.83 75.08 73.79 70.43 69.83 71.45
61.16 64.45 64.86 65.06 66.54 68.04 65.37 66.75 66.16 64.13 65.55 67.88 69.58 69.57 68.70 68.32 68.39 68.37 68.67 69.87 69.98 69.83 72.10 73.76 74.31 74.79 75.00 75.54 76.05 71.74 75.97 74.88 75.18 74.29 75.44 77.30 76.50 75.21 74.08 73.15 73.59 72.73 74.27 75.23 72.92 73.42 71.17 73.74 73.14
60.93 63.08 64.10 67.16 66.70 67.92 68.95 65.53 64.44 65.52 68.25 69.21 70.08 69.27 68.08 68.71 68.71 69.56 69.89 70.53 70.68 69.61 71.53 73.54 75.31 73.32 73.12 77.12 77.79 71.64 73.57 74.46 75.72 75.61 73.12 73.24 75.87 76.24 77.81 72.38 72.30 75.59 72.86 73.79 72.36 75.44 73.75 73.73 73.23
61.95 62.78 63.29 65.72 66.75 67.27 66.20 63.82 65.45 66.25 68.53 69.40 68.89 68.23 68.65 68.73 68.64 69.90 70.30 70.07 70.43 70.47 71.51 73.13 74.66 75.92 75.66 75.11 76.22 73.90 75.89 73.70 75.31 75.21 75.26 73.35 77.20 77.26 78.18 77.34 72.98 74.36 72.82 74.49 70.88 75.31 74.87 71.43 73.35
59.26 58.17 60.09 61.99 66.35 65.66 66.91 62.53 63.75 67.86 67.74 67.98 67.86 68.49 68.84 68.89 69.89 70.06 70.93 70.55 70.88 71.06 72.26 72.67 74.85 74.69 75.89 76.52 78.88 77.36 72.66 75.17 75.92 76.08 77.93 78.03 78.68 79.90 77.20 78.02 72.25 71.73 75.59 77.85 77.12 75.77 70.63 74.04 72.64
54.75 56.05 53.98 59.87 65.23 66.04 65.77 57.42 63.78 67.10 66.38 66.78 67.63 68.28 68.80 68.54 69.42 70.57 71.18 70.77 71.43 71.55 72.86 72.92 72.56 74.91 76.29 76.29 78.24 75.01 76.05 75.95 76.94 77.15 77.88 78.13 79.15 79.94 77.39 76.56 76.45 76.06 76.39 72.10 70.05 70.97 73.38 70.83 72.67
53.28 49.43 53.01 56.39 63.69 64.68 64.43 61.01 65.06 65.93 65.03 66.73 67.48 67.70 68.10 68.48 69.62 70.73 70.73 71.37 71.32 72.83 73.21 72.76 74.62 74.65 75.21 75.41 77.05 73.19 73.71 74.07 73.73 78.67 77.10 79.26 78.42 76.48 74.84 73.97 77.89 72.46 71.58 73.36 75.04 74.15 73.25 74.04 71.07
49.34 49.37 51.98 53.72 58.49 63.01 61.31 60.57 64.12 65.12 63.06 67.11 67.94 67.92 67.99 67.56 68.81 70.68 70.58 71.34 71.72 73.06 74.21 73.65 74.62 76.22 76.28 76.77 78.58 77.87 74.94 77.12 76.26 76.25 77.76 79.49 78.66 76.22 75.14 75.21 77.73 78.15 71.72 71.86 74.76 71.91 71.22 73.35 70.52
52.76 51.44 50.28 54.00 57.58 61.49 60.52 58.82 60.61 62.21 62.16 65.73 67.38 67.70 68.13 67.77 69.52 71.01 71.01 71.22 71.87 71.95 73.13 74.57 74.99 76.52 75.20 74.53 74.33 73.39 73.87 72.10 73.04 75.50 76.00 79.43 79.14 77.51 73.35 74.96 77.09 76.01 75.26 72.72 77.51 74.41 73.73 72.36 70.47
53.39 51.49 50.60 53.46 56.62 59.84 61.21 58.07 60.47 61.36 63.04 65.56 67.54 67.46 67.76 68.20 69.05 70.39 70.68 70.66 71.17 71.38 72.53 74.49 75.16 75.91 75.12 75.12 75.69 76.40 73.10 75.26 74.59 72.52 78.88 79.02 78.04 79.21 78.01 76.67 77.35 73.12 75.78 77.83 76.96 75.07 74.79 72.01 74.13
51.71 50.64 50.66 51.17 55.34 58.32 58.15 55.81 55.93 59.73 63.32 63.29 67.73 68.30 68.45 68.80 68.80 69.78 69.94 70.31 71.34 71.24 72.12 73.67 75.20 75.56 75.23 76.65 75.45 78.07 78.97 76.17 74.57 76.73 76.97 78.47 77.59 79.10 78.15 78.58 77.99 79.40 77.57 76.50 77.34 77.21 73.97 72.59 71.51
49.03 53.19 52.11 51.23 51.30 50.44 57.53 50.64 57.29 60.42 61.49 59.64 61.04 67.58 67.68 68.81 69.80 70.46 70.18 70.44 70.64 71.65 72.63 74.02 75.31 76.24 75.23 76.94 74.62 76.44 74.10 73.46 73.54 74.18 75.29 77.41 79.25 78.06 79.32 79.36 78.64 78.13 75.85 75.32 77.73 77.48 75.04 71.63 72.74
50.37 53.90 52.55 51.53 49.67 51.00 53.83 52.14 55.51 62.61 58.81 58.26 62.59 68.03 68.23 69.16 69.62 69.92 70.06 70.97 71.13 72.25 72.40 73.30 74.65 76.16 75.27 75.39 75.91 74.35 74.71 74.66 77.34 75.65 75.99 77.53 79.81 79.83 79.03 79.13 79.75 78.95 77.70 78.10 78.13 78.17 77.49 76.94 74.47
53.72 51.70 51.87 51.90 49.28 44.04 48.79 50.49 52.32 58.07 59.36 58.95 62.25 64.87 67.80 68.94 69.80 70.42 71.32 71.73 71.42 72.56 72.45 73.44 73.81 74.90 75.97 75.09 75.54 75.37 74.06 76.00 74.71 75.16 74.95 75.97 77.13 78.05 79.05 78.40 79.81 80.17 78.54 77.68 77.86 78.92 78.60 77.86 76.63
52.05 48.96 43.68 42.82 43.08 42.19 48.75 47.18 51.21 58.38 64.43 62.03 60.35 61.01 63.98 70.11 69.89 70.31 70.61 70.77 71.40 71.26 72.05 73.03 73.65 73.41 75.17 75.28 74.21 76.22 74.53 74.66 76.71 77.31 75.23 74.99 75.30 75.32 77.42 78.63 79.00 78.30 79.31 78.89 78.84 78.87 78.79 78.43 77.13
50.22 49.33 44.53 39.70 41.53 43.96 50.20 45.19 49.15 56.29 62.31 65.55 63.99 64.09 65.69 69.76 70.10 70.29 70.69 71.12 71.11 71.55 72.34 72.77 73.71 73.58 74.42 75.61 74.18 74.92 76.40 73.68 74.31 76.61 75.21 76.84 75.94 75.71 77.74 78.55 77.89 79.03 79.20 78.96 79.15 77.49 77.25 77.95 77.49
49.96 48.21 51.44 46.89 48.42 45.57 48.29 50.61 53.34 55.62 58.06 63.66 63.08 65.73 63.51 66.44 69.43 70.29 71.16 71.48 71.74 72.14 72.23 73.28 73.82 74.36 74.92 74.48 75.47 74.05 75.88 75.49 73.31 75.75 77.26 76.97 77.14 76.71 77.76 78.27 78.88 78.80 78.59 78.23 78.88 77.15 77.32 78.46 78.38
50.04 52.31 46.83 47.86 41.17 41.13 46.10 48.88 49.31 53.38 56.12 60.39 62.33 62.25 63.45 66.12 65.74 69.76 71.42 71.80 72.79 72.91 73.65 73.81 74.83 74.45 75.28 74.95 75.20 74.79 73.70 75.15 75.64 73.30 75.61 75.67 78.50 78.16 77.65 78.09 77.96 78.46 78.96 78.75 78.95 77.66 77.70 78.32 77.24
47.02 45.91 48.20 49.45 48.15 43.51 42.52 46.58 56.65 58.21 56.93 58.38 62.54 63.09 63.69 64.68 66.31 66.71 66.99 72.56 73.26 73.65 74.17 73.69 74.44 75.01 75.43 75.90 75.01 74.79 74.29 74.48 74.01 75.31 72.97 77.20 76.45 80.21 79.08 79.50 78.58 77.78 77.70 78.90 78.95 77.74 77.71 77.23 77.43
47.70 45.95 45.97 42.32 44.58 47.61 46.99 47.17 56.54 58.58 58.20 58.09 58.17 61.13 66.67 67.77 66.76 66.27 64.18 66.00 72.79 73.22 73.63 73.91 74.16 75.16 75.67 76.08 75.26 74.79 75.31 74.43 73.95 72.72 76.51 76.45 78.57 77.99 80.71 78.71 79.58 78.12 77.87 78.11 77.90 77.33 75.95 76.43 76.79

GFSSGP_sfc_wetblb_060.txt.gz
Wetbulb
73.49 72.81 71.36 66.73 58.62 58.19 55.05 57.64 62.76 60.49 62.29 65.50 65.61 64.36 62.88 63.87 61.72 55.87 66.89 69.70 70.88 70.46 73.57 75.94 77.62 77.37 77.47 77.62 77.20 77.03 76.70 76.94 77.30 76.91 76.95 77.29 76.80 76.50 76.70 76.34 76.18 76.46 75.67 75.72 76.47 76.07 76.21 76.31 76.80
72.29 71.17 68.17 65.29 56.41 53.69 55.01 61.51 59.94 62.81 65.32 66.62 66.60 65.56 63.60 61.14 65.25 64.83 66.84 70.83 70.83 71.80 73.52 74.75 77.42 77.82 77.56 77.19 77.48 77.04 76.95 77.55 77.20 76.86 76.78 76.55 76.64 76.49 76.68 76.40 76.61 76.24 76.22 76.06 75.84 76.41 76.11 76.35 76.66
71.35 70.90 63.72 61.53 57.46 52.45 55.94 60.22 62.18 64.86 66.82 66.40 65.00 66.34 64.29 62.66 65.18 66.53 70.04 70.77 71.31 72.48 73.67 74.43 77.22 77.77 77.51 77.48 77.27 77.02 77.07 77.32 77.07 77.11 76.97 76.64 76.70 76.50 76.35 76.35 76.11 75.97 75.91 75.86 75.86 75.80 75.99 76.16 76.22
69.71 68.64 66.10 57.35 55.27 59.65 60.91 61.95 64.02 64.92 66.66 66.28 64.59 61.29 65.45 68.57 67.33 69.24 71.24 71.43 71.53 72.48 73.55 76.71 77.18 76.83 76.64 76.66 77.19 77.47 77.19 77.15 76.95 76.93 76.50 76.75 76.59 76.65 76.00 76.50 76.08 75.97 76.14 76.00 75.78 75.61 75.64 76.08 76.35
70.19 66.21 59.51 57.80 58.31 60.84 63.35 63.96 64.91 63.17 63.21 63.44 65.11 61.87 62.23 67.60 69.98 70.67 70.37 71.92 71.69 72.77 74.67 75.56 78.13 78.03 77.55 77.61 77.51 77.29 77.19 77.21 77.21 76.99 76.61 77.14 76.48 76.46 75.97 76.11 75.89 75.89 76.06 75.78 75.72 75.34 75.56 75.66 75.74
62.03 64.20 57.67 54.69 56.62 62.36 63.70 66.01 65.82 65.20 64.66 64.73 63.61 63.15 62.62 68.41 69.10 70.26 71.20 72.02 73.58 74.04 75.02 75.70 77.78 77.69 77.73 77.37 77.49 77.41 77.16 77.13 76.87 76.90 77.08 76.83 76.69 76.06 76.33 76.28 75.92 75.84 75.92 75.89 75.59 75.39 75.33 75.24 75.20
60.77 61.94 56.64 58.43 58.86 60.65 62.34 64.67 64.79 63.60 63.65 63.93 66.38 60.05 62.51 66.33 69.22 70.76 72.31 72.74 73.41 74.67 74.56 74.97 75.28 76.53 77.66 77.55 77.44 77.39 77.21 77.12 76.84 76.90 77.16 76.99 76.60 76.61 76.39 76.20 75.78 75.84 75.87 75.92 75.92 75.53 75.05 74.84 75.08
63.16 60.56 58.13 59.79 57.08 59.49 64.96 64.19 66.76 65.42 64.41 68.55 67.38 59.86 59.61 65.99 69.56 71.05 71.64 71.88 72.75 73.67 73.84 73.68 73.90 74.11 74.36 75.52 77.37 77.49 77.40 77.18 77.02 76.86 76.68 76.64 76.28 76.31 76.09 76.71 76.58 75.86 75.86 75.70 75.89 75.95 75.66 75.21 76.20
68.13 57.81 55.46 57.63 59.19 61.27 65.82 64.38 65.90 68.31 65.49 67.15 67.92 65.98 66.24 68.59 69.70 69.29 69.39 70.31 71.20 72.16 72.79 73.30 73.63 72.90 73.19 73.89 75.48 77.07 77.47 77.22 76.91 76.20 76.37 75.91 72.57 73.02 73.65 75.49 76.37 75.84 75.81 76.03 75.58 75.63 76.25 75.20 75.81
62.86 56.73 57.04 60.71 63.34 63.41 65.28 64.41 64.39 64.85 64.49 65.66 66.27 67.24 67.53 68.04 67.89 66.94 67.89 68.38 69.16 70.09 71.67 71.80 72.40 72.42 72.99 75.00 73.57 73.71 75.01 74.19 73.74 73.87 73.57 72.27 71.73 72.06 73.45 74.81 76.39 75.70 75.89 76.11 75.40 73.24 74.93 72.87 71.16
60.57 57.86 61.46 63.02 64.87 63.23 61.81 62.99 66.15 64.33 62.09 65.43 64.07 64.86 66.01 66.33 67.07 66.61 67.90 68.67 69.06 70.44 71.29 71.35 71.95 72.56 72.31 73.33 72.98 73.22 73.13 73.18 73.14 72.80 72.08 71.85 72.44 72.20 71.90 72.12 72.29 72.12 73.93 72.79 72.41 69.16 68.79 69.90 70.41
56.86 61.38 61.78 62.94 65.33 63.58 62.52 65.98 64.79 65.16 66.14 68.58 67.18 67.07 66.34 65.79 65.40 66.44 67.15 67.91 68.40 69.56 70.51 70.87 72.21 71.98 70.59 73.05 73.04 72.65 72.89 72.46 71.35 71.60 71.48 71.69 70.65 69.66 71.52 70.72 69.01 70.32 70.09 68.85 70.92 68.33 68.25 70.34 71.61
57.13 59.44 62.13 64.11 66.21 64.55 64.06 62.49 63.32 64.33 67.80 69.04 68.10 67.39 66.35 65.89 65.38 67.40 67.56 67.91 68.26 68.57 69.78 70.38 71.85 71.18 71.43 72.04 72.33 71.77 71.80 72.55 70.65 69.87 71.41 71.41 72.19 70.25 71.59 71.60 69.99 70.43 70.91 70.02 70.11 68.69 68.26 69.89 70.64
59.22 58.58 58.54 66.11 64.46 64.13 62.62 64.17 64.22 65.02 67.39 67.67 67.04 66.20 66.51 65.76 65.32 67.20 66.78 66.36 67.35 68.53 69.66 70.77 71.32 71.46 71.70 71.98 70.49 69.68 70.86 71.91 71.50 70.81 69.71 71.32 72.87 71.50 70.63 71.43 71.19 70.37 70.24 71.06 69.76 70.89 69.51 68.96 71.27
58.79 54.01 53.45 61.20 65.26 64.19 65.04 61.57 62.40 64.64 66.50 66.30 66.43 66.21 66.24 65.62 65.84 66.07 66.90 66.75 67.39 69.39 70.34 70.51 68.24 70.34 70.58 71.52 70.87 69.04 69.63 71.55 71.21 69.98 68.37 71.81 72.41 72.21 70.19 70.31 70.47 70.39 70.83 70.21 68.73 70.71 69.79 69.30 69.90
51.26 48.48 44.33 54.27 64.17 64.92 62.11 57.13 63.22 65.63 66.16 65.30 66.12 66.00 65.85 65.34 65.88 66.37 67.76 69.04 69.60 69.91 69.43 69.22 70.43 69.22 70.90 69.98 70.63 71.06 70.71 71.42 70.90 70.77 71.60 72.25 73.08 72.86 71.87 69.96 70.33 68.91 70.42 68.40 66.83 68.20 68.97 68.40 68.34
46.96 42.74 45.10 48.25 57.89 62.59 60.49 58.99 63.77 66.90 65.94 64.44 64.88 65.36 65.31 65.20 65.35 66.05 67.93 69.87 70.24 69.77 69.25 68.68 68.05 70.04 71.17 70.68 69.96 70.05 70.76 71.59 71.86 71.82 72.76 72.86 72.72 72.61 71.27 71.19 71.66 70.45 70.05 69.70 68.14 68.34 67.63 67.13 66.77
42.34 42.93 43.18 44.84 49.79 60.52 59.36 59.63 63.61 65.41 65.22 64.05 64.20 64.47 64.37 65.26 65.25 66.36 67.74 70.30 70.68 69.71 69.77 69.81 69.70 70.31 71.27 71.03 67.93 69.80 70.13 70.58 72.31 72.38 73.27 72.98 72.17 71.34 70.60 71.07 70.75 70.73 69.02 67.31 68.99 68.13 67.06 69.32 66.40
47.23 45.69 45.30 49.29 52.52 51.62 58.63 60.18 62.81 64.38 64.62 63.54 63.43 63.74 64.13 65.65 66.95 67.11 67.87 69.81 69.95 69.50 69.02 69.31 69.17 69.95 70.63 69.90 68.98 69.49 68.70 69.83 69.76 72.60 73.67 73.01 72.85 70.65 69.66 71.17 71.23 68.96 67.51 66.44 69.94 68.12 66.13 67.98 67.43
48.05 45.60 45.26 48.75 51.63 50.20 58.47 58.68 61.81 62.51 63.60 64.79 64.10 64.02 64.76 65.47 66.20 66.93 66.61 67.76 68.18 67.99 68.34 69.20 69.84 69.60 70.26 70.11 69.67 69.85 69.42 68.71 70.01 72.43 73.39 73.44 73.10 72.17 70.98 71.02 71.60 70.26 69.68 68.08 69.81 69.01 68.38 66.74 65.71
46.43 43.80 45.80 45.81 49.35 58.30 57.67 56.36 58.65 60.75 62.56 65.39 66.23 66.26 65.73 65.49 65.14 66.39 66.20 67.43 67.88 66.96 68.37 69.48 69.81 70.35 70.66 69.89 70.28 70.72 70.09 69.46 69.13 70.79 72.07 73.02 73.03 72.70 72.26 72.42 72.12 70.49 70.80 69.81 69.66 69.49 68.89 63.76 65.39
40.38 47.82 48.79 48.63 43.92 41.03 54.83 47.60 53.96 58.68 59.61 62.33 60.12 62.74 63.60 65.27 66.84 66.45 66.08 66.63 66.90 67.01 69.31 70.33 70.02 70.43 70.57 69.53 69.13 69.57 68.43 67.75 67.88 69.56 71.45 72.78 73.62 73.07 73.90 73.11 72.67 70.71 71.17 70.17 69.96 72.25 68.42 66.38 65.13
46.60 50.02 47.39 46.85 42.12 39.70 42.32 39.14 47.57 57.76 57.30 60.46 59.12 60.82 62.70 65.72 66.42 66.41 65.71 67.42 67.55 67.99 68.64 70.77 70.17 70.16 70.58 69.67 68.77 69.45 68.06 68.57 68.89 69.44 70.79 71.60 72.56 73.12 73.77 72.33 72.47 71.89 72.15 70.72 70.56 71.34 70.78 69.48 68.04
51.47 46.62 44.13 41.59 39.55 34.42 38.92 39.76 45.06 53.21 56.81 60.05 62.41 63.35 64.41 64.84 65.24 66.65 66.36 67.33 67.74 68.69 68.93 70.93 70.04 69.80 70.46 69.88 68.03 68.35 68.60 68.38 69.05 69.04 70.18 71.08 72.42 73.01 72.96 72.93 72.75 72.06 71.46 70.75 71.09 71.23 69.60 69.89 70.35
45.83 38.92 33.05 33.02 32.72 33.04 37.39 38.30 40.70 56.61 59.31 60.84 61.61 63.31 64.99 65.13 64.59 65.03 65.82 65.93 66.81 67.67 68.75 70.39 69.92 69.09 69.82 69.97 70.14 68.20 68.60 68.07 68.67 69.25 70.67 71.48 72.00 72.26 73.04 72.85 72.43 71.98 71.99 72.59 71.48 71.50 72.07 70.83 70.49
41.58 39.68 34.15 29.72 30.27 34.03 40.29 36.64 43.01 53.96 61.18 61.92 63.33 64.28 62.79 63.38 63.69 65.52 66.39 66.02 66.40 67.50 68.04 69.93 69.80 69.26 69.48 69.97 69.87 70.53 68.47 68.46 69.40 69.83 71.34 72.20 72.68 73.06 73.94 73.10 73.29 73.36 72.77 72.32 72.12 71.65 71.21 72.01 70.72
42.74 38.79 41.36 35.61 34.22 34.31 37.38 41.75 47.07 52.82 52.23 60.50 60.52 60.44 60.87 62.89 64.80 66.44 67.18 66.91 66.77 67.48 67.77 68.74 69.82 69.41 69.24 69.38 69.40 69.72 71.38 68.98 68.24 70.44 71.12 71.37 72.47 72.35 73.84 73.27 73.19 72.83 73.19 72.75 72.30 71.03 71.01 71.74 71.80
44.47 45.17 38.37 35.20 29.66 29.32 35.59 37.53 40.02 46.80 51.37 57.12 59.12 59.41 61.35 64.99 65.47 66.75 67.06 67.27 67.24 68.01 68.25 68.89 69.52 70.05 70.20 69.86 69.45 69.37 70.11 71.54 68.06 68.92 69.24 70.73 70.85 71.91 72.68 73.47 73.23 72.94 73.07 72.99 72.42 71.17 71.80 71.75 71.41
37.60 37.09 38.07 37.27 35.79 31.41 31.07 36.33 45.92 49.55 52.58 53.02 59.50 60.83 62.73 64.35 65.10 66.14 67.07 67.31 67.69 68.16 68.36 68.49 68.80 69.22 70.58 71.07 70.27 69.13 69.35 70.43 70.25 68.40 68.77 69.65 69.60 70.46 71.74 73.82 73.27 73.37 73.10 72.38 72.87 71.35 71.39 71.68 71.28
39.71 36.73 34.38 32.44 31.76 33.80 35.44 37.14 49.27 51.62 52.89 52.37 53.96 60.94 63.48 64.62 65.73 66.41 67.18 67.27 67.24 67.56 68.06 68.34 68.93 69.01 69.53 71.33 71.00 70.14 69.10 69.79 71.08 70.54 68.90 68.29 69.38 71.83 73.19 74.07 73.42 73.25 73.84 73.01 72.03 72.06 72.36 71.97 71.16

GFSSGP_sfc_wetblb_063.txt.gz
Wetbulb
73.17 72.39 70.90 66.01 57.67 57.23 54.29 57.26 62.41 60.42 61.88 65.37 63.71 62.55 61.29 63.19 61.08 54.91 65.29 68.67 69.75 70.54 73.10 75.52 77.39 77.14 77.32 77.45 76.69 76.20 76.57 76.88 76.43 76.81 76.90 76.80 76.58 76.67 75.59 76.17 76.01 75.14 76.23 75.92 75.64 76.13 76.42 76.70 77.08
71.88 70.82 68.08 64.39 55.66 52.88 54.10 60.62 60.08 61.99 64.47 64.98 65.87 65.14 63.37 60.61 64.77 63.45 66.22 69.63 70.03 71.58 73.58 75.00 77.17 77.59 77.42 77.20 76.70 76.39 76.93 76.85 76.52 76.76 76.52 76.56 76.29 76.15 76.26 76.04 76.25 75.72 75.28 75.90 75.67 75.78 75.91 76.56 76.53
71.46 70.62 62.97 60.51 56.80 52.55 55.21 60.48 61.49 64.48 66.35 65.53 63.98 64.98 64.06 61.22 64.54 64.54 69.13 69.51 70.95 72.72 73.60 74.87 77.40 77.49 77.11 77.13 76.80 76.83 77.25 76.80 76.69 76.82 76.33 76.42 76.19 76.26 76.17 76.04 75.86 75.67 75.34 75.45 75.86 75.65 76.13 75.97 76.06
68.14 68.24 65.33 56.54 54.60 59.03 59.98 60.91 63.59 64.30 65.38 65.79 64.06 61.08 65.40 67.55 65.39 68.65 69.82 70.05 72.02 72.71 73.27 76.28 77.16 77.42 77.30 77.35 76.77 76.64 77.10 76.83 76.62 76.79 76.47 76.45 76.06 76.08 75.86 75.73 75.50 75.89 75.51 75.15 75.17 75.61 76.11 76.22 75.92
69.43 65.09 58.92 57.25 57.94 60.98 62.20 63.13 64.69 63.17 64.01 64.31 65.20 60.75 61.98 66.44 69.65 69.65 69.69 71.18 71.63 72.08 73.99 74.87 77.50 76.72 76.50 76.62 76.98 76.75 77.02 76.67 76.55 76.34 76.33 76.26 76.22 75.67 75.88 75.69 75.92 75.70 75.64 75.20 74.98 75.40 75.48 75.39 75.17
62.02 62.64 57.24 55.21 57.48 61.86 63.26 65.11 64.61 63.88 64.32 64.50 62.50 61.85 61.97 68.22 68.27 69.22 70.47 71.25 72.24 73.13 74.09 75.02 77.23 76.85 77.10 77.18 76.98 77.22 76.85 76.86 76.62 76.25 76.29 76.26 75.99 76.00 76.05 75.92 75.84 75.73 75.37 75.15 75.20 75.22 75.22 75.35 75.92
60.50 61.13 56.95 57.91 58.49 59.89 62.53 64.53 64.52 63.50 63.62 63.40 65.81 59.17 63.91 66.17 68.67 70.06 70.95 72.21 73.22 74.24 74.17 74.25 74.94 76.19 77.28 76.93 77.28 77.06 77.06 76.57 76.70 76.61 76.38 76.15 75.78 76.17 76.03 75.92 75.79 75.79 75.59 75.18 75.44 75.25 74.90 75.20 76.03
62.47 61.03 57.66 58.80 56.62 58.84 63.17 64.09 65.83 64.48 63.96 66.42 64.92 59.12 60.47 66.10 69.03 71.20 71.81 71.92 72.94 73.66 73.84 73.27 73.54 74.13 74.15 74.76 77.37 77.07 76.99 76.82 76.58 76.61 76.62 76.11 75.95 75.81 75.54 76.35 76.47 75.93 75.76 75.45 74.97 74.82 75.12 76.05 76.24
67.70 58.43 54.22 56.07 58.02 60.84 65.01 63.95 66.23 67.84 65.37 65.27 67.64 63.39 65.84 68.56 70.46 69.91 70.37 71.06 71.98 72.69 72.29 72.40 72.87 72.94 73.62 73.90 75.36 76.70 76.97 76.78 76.40 75.73 76.28 75.57 72.23 72.61 73.33 74.82 75.81 76.12 76.09 75.65 75.07 75.26 75.43 75.83 75.20
62.25 57.22 57.21 60.28 62.72 62.37 64.65 64.75 64.31 64.57 64.36 64.81 63.13 65.57 67.50 68.97 68.82 68.18 68.59 68.25 69.72 70.70 71.49 72.03 72.07 72.31 72.99 74.83 73.65 73.65 74.45 73.75 73.31 73.35 72.18 71.72 71.20 71.63 73.20 74.54 75.79 75.76 76.15 76.07 74.98 75.14 75.06 73.24 71.18
60.80 58.30 60.56 62.08 64.28 65.42 64.37 64.36 65.66 63.71 62.06 64.95 61.10 63.82 66.17 67.26 67.31 68.01 68.18 68.53 68.93 70.61 72.22 71.21 71.37 72.06 72.36 72.67 72.52 72.75 72.66 72.67 72.80 72.42 71.95 71.33 71.95 71.40 71.71 71.92 71.88 71.22 73.94 72.64 69.93 68.86 68.41 69.95 70.22
55.61 60.92 62.43 61.15 64.29 62.86 61.46 65.94 64.08 64.98 65.12 67.80 64.92 66.11 66.19 65.85 66.35 67.38 67.54 67.81 68.57 69.86 70.80 70.72 71.49 71.65 71.24 72.36 72.14 72.23 71.91 71.98 71.30 71.31 71.03 70.79 70.40 70.05 70.13 70.34 69.81 70.11 68.94 68.67 69.44 67.48 68.95 70.42 70.61
56.72 58.96 60.18 61.84 62.51 63.83 64.19 62.07 63.77 64.62 67.86 68.26 66.11 66.09 65.66 65.76 66.30 67.68 68.31 68.62 68.81 68.87 69.69 69.81 71.40 70.59 70.71 71.53 71.55 71.69 71.53 71.78 71.22 70.52 70.81 71.36 69.60 69.01 69.73 69.27 68.76 69.08 70.03 68.83 68.92 67.28 68.31 69.14 70.11
58.95 59.22 58.17 61.40 62.89 63.23 61.91 63.20 64.05 65.44 67.90 66.42 65.65 64.45 65.27 65.67 65.92 67.01 67.45 67.17 68.38 68.75 69.10 69.54 70.61 70.46 70.79 70.94 70.75 70.87 71.29 71.82 70.49 69.74 70.43 71.11 70.90 70.08 70.61 69.92 69.39 69.94 69.78 70.01 69.05 69.13 68.12 68.02 69.66
57.83 54.44 55.16 62.33 62.26 62.50 64.39 61.28 61.37 65.51 67.09 65.36 65.23 64.96 65.33 65.44 66.33 66.44 66.84 67.08 68.19 68.44 69.41 69.83 70.23 70.56 70.38 70.99 70.93 69.90 70.01 71.73 70.58 69.99 69.50 70.42 72.30 70.93 69.54 69.62 69.76 69.86 69.30 69.64 69.74 69.63 68.98 68.52 69.23
49.55 47.47 43.59 59.69 62.22 64.10 62.16 55.21 62.03 65.98 65.90 63.94 64.89 64.87 65.51 64.80 65.05 67.10 66.68 67.27 68.36 68.36 68.65 70.14 71.68 70.10 70.29 70.60 70.71 68.99 69.22 70.26 70.57 70.03 68.70 71.00 72.43 71.98 69.86 69.59 69.18 68.61 70.33 69.16 67.47 68.08 68.54 67.71 67.17
45.26 41.67 44.34 50.76 63.09 62.34 60.88 57.03 62.58 65.75 65.36 64.21 64.34 64.33 65.22 64.53 64.71 66.24 66.89 66.93 67.60 68.70 69.21 68.78 69.46 69.15 69.98 69.64 70.10 70.00 69.35 70.10 70.29 70.16 70.85 70.91 72.68 72.61 70.81 69.80 69.98 69.24 68.84 66.84 66.39 66.89 67.40 66.40 66.11
41.35 42.19 42.25 43.99 58.54 60.16 58.55 57.49 62.26 64.16 65.03 64.20 64.29 64.14 64.45 64.34 64.31 65.66 67.72 67.42 68.67 69.22 69.21 69.07 68.82 69.38 69.94 69.29 68.70 68.70 69.44 70.23 70.53 70.57 72.00 72.44 71.55 71.42 70.44 70.66 69.97 69.86 67.44 67.30 67.23 66.64 66.26 66.67 65.57
46.44 44.24 43.70 46.94 50.50 47.89 57.03 57.34 61.37 63.58 64.45 63.88 63.46 63.37 63.42 64.23 65.80 65.61 68.22 68.80 68.95 69.31 68.20 67.53 67.68 69.00 70.03 67.50 66.65 68.27 67.90 68.78 70.15 71.45 72.82 72.03 71.33 70.19 69.73 70.52 70.57 69.19 67.50 66.25 68.17 65.78 66.33 66.88 65.30
46.62 44.16 43.21 47.19 50.08 47.24 49.44 56.24 60.96 62.86 63.27 63.71 63.50 63.01 63.33 63.98 64.96 65.30 66.49 68.64 68.63 68.04 68.15 67.48 67.95 69.35 70.10 68.76 68.44 69.17 68.57 68.92 69.79 71.60 72.45 72.24 71.59 70.09 70.06 70.24 70.36 67.81 66.69 67.31 69.19 67.42 67.16 65.80 64.38
43.63 42.40 43.23 44.78 47.69 57.35 56.56 56.16 58.68 61.68 62.93 64.23 64.66 64.43 64.50 63.92 64.98 64.79 65.99 67.90 68.56 67.70 67.80 67.70 68.02 69.45 69.50 69.02 69.23 68.99 69.21 68.36 68.44 70.43 71.34 72.38 72.50 71.92 70.73 70.61 70.54 69.67 68.80 69.13 68.82 68.50 66.38 62.45 64.04
40.09 47.51 48.34 46.63 42.45 37.98 53.56 44.59 56.09 58.30 58.71 61.42 63.54 64.01 64.10 64.47 65.93 65.30 65.05 66.59 67.75 67.71 68.36 68.50 68.49 69.24 69.36 68.82 69.00 68.53 67.36 66.40 67.33 69.13 70.61 72.25 72.83 72.13 71.53 71.60 71.74 69.88 70.20 69.04 69.10 70.31 68.25 64.41 63.21
45.46 49.21 46.56 45.35 41.04 37.45 40.87 40.35 44.56 57.50 56.82 58.68 62.75 63.92 64.77 65.50 66.00 65.23 64.51 66.03 67.48 67.64 67.92 68.74 68.77 69.16 69.47 68.80 69.36 68.53 67.34 67.91 67.60 68.64 69.90 70.81 71.80 71.95 72.99 72.10 72.05 70.12 70.79 69.94 69.61 70.52 69.17 67.14 66.75
50.53 45.82 42.20 39.25 37.49 33.02 37.91 38.06 41.87 54.14 56.39 58.33 61.56 63.61 64.65 65.79 65.96 66.13 66.04 66.63 66.70 67.40 68.18 68.93 68.63 68.90 69.07 68.63 67.57 68.19 68.06 67.78 67.58 67.31 68.51 69.77 71.36 71.33 72.26 71.70 71.39 71.36 70.50 70.08 69.41 70.24 69.23 68.96 68.64
43.91 38.10 32.75 31.37 31.04 32.26 35.70 37.19 40.37 53.48 58.46 59.40 60.33 62.71 62.13 63.70 64.95 65.87 64.54 65.56 65.87 65.93 67.69 68.95 68.53 68.21 68.93 68.48 67.20 67.43 68.15 67.91 68.08 67.92 68.19 69.56 70.44 71.22 71.92 71.51 71.38 70.62 70.89 70.31 70.39 70.31 69.71 69.37 69.47
39.91 39.00 33.09 28.34 28.92 33.25 36.75 35.67 41.51 50.46 56.17 60.48 62.31 63.03 64.04 63.57 64.57 65.55 64.47 65.87 65.84 66.08 67.04 69.03 68.41 68.09 68.85 68.78 68.13 67.05 67.42 68.33 68.01 68.70 68.85 69.85 70.83 72.04 72.26 71.67 72.14 71.72 71.31 71.76 70.60 70.84 70.25 71.11 69.47
40.22 37.65 39.26 33.07 31.15 33.11 35.06 39.61 45.33 52.15 52.14 53.98 60.12 62.49 62.87 64.42 64.90 65.70 65.32 65.66 66.33 66.40 66.66 68.60 68.38 68.34 68.82 68.82 68.75 68.30 67.45 67.17 67.84 68.89 69.68 69.82 70.98 72.11 72.55 72.09 71.90 72.37 72.10 71.35 70.95 70.60 70.13 70.46 70.69
39.33 42.57 36.24 33.59 28.78 27.98 33.32 35.18 39.59 45.88 47.65 51.08 57.66 60.53 62.66 64.14 65.03 64.31 65.89 65.24 66.42 67.22 67.61 68.40 69.14 68.55 68.72 69.13 69.25 69.02 69.53 68.45 67.24 68.22 69.57 70.16 70.76 71.29 71.91 72.30 71.70 72.05 72.10 71.88 71.07 70.16 70.26 69.71 70.48
35.82 33.62 32.38 34.24 32.91 29.72 29.74 34.50 45.89 46.13 46.97 48.26 52.87 59.40 62.28 61.35 62.30 64.05 65.46 66.52 66.11 67.21 67.59 67.86 68.73 68.55 68.51 68.88 69.15 68.84 68.34 70.00 68.91 67.24 68.08 69.07 70.11 70.76 70.76 72.34 71.91 71.36 71.80 71.89 71.49 70.59 70.36 70.70 70.20
39.72 33.22 30.56 29.19 29.83 30.98 33.18 34.49 44.09 46.74 47.27 48.36 58.04 58.41 60.32 62.56 63.32 65.83 66.45 65.94 65.63 65.88 66.28 66.66 68.30 68.74 68.92 69.13 68.84 68.45 68.28 68.56 69.83 68.56 67.51 67.95 68.32 68.96 69.80 71.12 72.28 71.79 72.03 71.76 71.60 71.37 71.71 70.19 70.18

GFSSGP_sfc_wetblb_066.txt.gz
Wetbulb
72.86 71.92 70.42 65.62 57.05 56.26 53.45 57.38 62.32 60.32 61.81 63.65 62.42 60.43 59.47 60.78 58.52 54.28 64.45 67.40 69.43 70.42 72.86 75.01 77.35 77.28 76.51 76.28 75.82 76.14 76.72 76.13 76.63 76.55 76.67 76.50 76.38 75.74 75.95 75.34 75.08 76.04 75.62 75.57 76.11 76.31 76.56 76.59 76.91
71.55 70.75 67.70 63.69 55.13 52.09 53.99 60.19 59.56 61.99 63.42 64.09 64.38 64.34 62.83 60.18 64.36 62.67 65.59 68.75 70.22 71.66 73.61 74.77 77.05 77.34 77.11 76.50 76.23 76.68 76.43 76.26 76.86 76.62 76.47 76.47 76.15 76.24 76.10 76.34 75.32 75.53 75.36 75.54 75.65 75.91 76.25 76.38 76.71
71.30 70.51 62.03 60.11 56.73 52.02 55.19 60.11 61.37 62.01 64.71 63.50 62.85 65.10 63.95 61.01 63.40 64.05 68.06 69.34 71.33 72.82 73.87 74.67 77.12 77.23 76.93 76.83 76.45 76.75 76.59 76.30 76.58 76.38 76.25 76.16 76.39 76.16 76.39 75.96 75.80 75.54 75.67 75.47 75.71 75.70 75.91 76.20 76.20
67.61 67.85 64.55 56.30 54.75 58.55 59.51 61.09 61.71 63.02 64.99 65.47 64.56 61.36 65.12 67.00 63.92 67.90 69.02 70.71 72.09 72.69 73.63 76.45 77.19 77.25 77.17 76.80 76.64 76.79 76.84 76.68 76.47 76.24 76.42 75.88 75.72 75.71 75.62 75.46 75.62 75.60 75.43 75.59 75.89 76.06 76.07 75.90 75.58
69.48 65.46 58.50 57.36 57.41 60.69 62.27 62.84 63.89 63.06 63.93 63.92 64.79 59.94 61.12 66.29 68.87 68.49 69.05 71.81 71.54 71.81 73.41 75.29 77.56 77.20 77.36 76.78 76.63 76.39 76.60 76.48 75.95 76.15 76.34 76.07 75.32 75.56 75.68 75.57 75.47 75.34 75.30 75.32 75.53 75.37 75.35 75.21 75.87
62.83 62.58 57.06 54.43 57.50 61.73 63.01 64.45 64.65 63.70 64.30 64.48 62.06 61.23 62.43 67.78 67.22 67.88 70.49 71.21 72.24 72.77 73.69 74.68 76.77 76.47 76.23 76.79 76.76 76.53 76.60 76.45 76.24 76.14 75.80 75.93 75.47 75.20 75.11 75.67 75.93 75.41 75.21 75.59 75.14 75.18 75.56 75.94 76.11
61.34 60.81 57.46 57.16 57.88 59.56 61.99 65.75 64.04 63.19 63.47 62.78 64.65 59.50 64.31 65.89 67.68 69.17 70.64 71.44 72.83 73.74 73.82 74.39 74.05 75.56 77.29 76.91 76.63 76.16 76.32 76.47 76.15 76.00 76.30 75.59 75.52 75.25 75.17 75.87 75.82 75.46 75.32 75.79 75.40 75.27 75.87 76.07 76.38
63.00 59.97 57.20 57.56 55.44 58.35 63.30 64.27 65.60 64.75 63.31 66.05 64.94 59.22 61.71 65.54 68.81 70.27 71.22 71.91 72.67 73.44 73.67 73.30 74.02 74.34 74.30 75.00 76.67 76.56 76.39 76.66 76.63 76.45 75.73 75.81 75.64 75.54 75.76 75.81 76.28 75.43 75.49 75.57 75.43 75.21 75.84 76.13 76.18
67.28 58.00 53.70 55.23 57.21 60.58 64.25 63.52 66.04 68.12 64.09 64.65 65.51 63.89 65.85 68.08 69.81 69.76 70.19 71.06 72.01 73.11 72.08 72.56 73.22 73.55 73.83 74.29 75.66 76.57 76.57 76.14 76.05 75.71 75.87 74.47 72.90 73.53 74.03 75.50 75.90 75.66 75.05 74.49 74.77 75.32 75.36 75.52 76.41
61.84 57.86 56.56 60.13 61.95 62.14 63.87 64.45 64.89 64.51 63.97 61.48 63.51 66.08 67.40 69.11 68.66 67.78 67.77 67.67 68.56 69.98 72.27 72.08 72.54 72.92 73.57 74.93 74.19 73.80 74.80 73.78 73.94 73.56 72.80 72.47 72.28 72.83 73.79 75.08 75.96 75.94 75.24 74.52 74.88 75.02 75.20 73.30 73.30
60.99 57.52 60.08 61.48 64.44 65.22 64.02 63.97 65.59 63.56 61.77 62.61 62.02 64.13 67.07 67.67 67.58 67.66 67.72 67.88 68.51 70.02 71.86 71.63 71.78 72.70 72.86 73.02 73.07 73.15 73.27 73.24 73.27 72.98 72.36 72.61 72.59 72.35 72.38 72.62 72.63 73.32 74.35 72.00 70.62 69.78 70.98 71.64 72.30
55.46 59.87 61.35 60.33 63.68 63.13 62.86 65.06 63.60 64.11 64.92 65.18 65.30 66.03 66.98 66.81 67.21 67.20 67.40 67.82 68.80 69.62 71.23 71.49 71.77 71.91 72.03 72.74 72.63 72.66 72.50 72.62 72.03 72.27 72.45 71.92 71.42 71.53 71.64 71.52 71.55 71.78 70.47 71.42 69.90 69.39 70.91 71.53 71.66
55.40 58.73 59.84 61.09 60.46 62.42 64.43 63.13 63.77 64.63 67.42 65.37 66.16 66.11 66.47 66.72 67.50 68.46 68.72 68.88 69.18 69.83 70.53 71.06 71.28 71.21 71.57 71.91 72.17 72.01 72.04 72.26 71.73 71.63 71.72 72.11 71.35 71.19 71.29 71.00 70.48 70.95 71.14 71.20 69.79 69.57 70.56 70.85 71.57
58.20 58.56 58.04 57.94 57.56 61.90 60.87 61.98 63.92 66.02 66.71 64.75 65.32 64.75 65.97 66.55 67.25 68.19 68.25 67.33 68.12 69.59 69.21 70.05 70.80 70.73 71.21 71.39 71.51 71.73 71.92 72.44 71.88 71.30 71.74 72.09 71.87 71.43 71.31 71.28 70.88 71.46 71.20 70.99 70.75 70.36 70.65 70.11 71.03
56.77 53.10 54.12 54.76 61.22 61.11 64.51 60.70 60.62 66.69 65.11 63.68 64.40 64.76 65.45 66.38 67.68 67.10 67.88 67.48 68.18 68.69 69.16 69.18 70.26 70.52 70.58 71.12 71.41 71.31 71.62 72.52 71.95 71.49 71.44 71.34 72.29 71.04 71.17 71.39 71.41 71.59 70.84 71.79 71.62 71.26 71.09 70.47 70.69
48.31 46.62 43.58 56.57 61.02 62.98 60.02 53.04 62.33 66.65 64.38 62.07 63.62 64.27 64.99 65.17 66.80 67.77 68.07 67.93 68.32 68.15 68.38 69.52 71.72 70.48 70.23 70.71 71.01 70.62 70.64 71.48 71.80 71.53 71.00 70.75 71.78 72.15 71.03 70.83 71.50 71.00 72.10 71.11 69.88 70.19 70.55 69.70 69.32
44.74 41.28 43.34 47.47 61.56 61.92 59.42 55.65 61.96 66.31 64.81 62.28 62.57 63.04 64.18 64.46 66.08 67.34 67.45 67.82 68.12 68.22 68.64 69.32 70.59 69.89 70.06 70.55 71.15 70.55 70.23 70.44 71.45 71.50 71.42 71.23 72.48 72.92 71.17 71.03 71.99 71.19 71.07 69.69 69.22 69.26 70.31 69.09 68.66
41.25 41.42 41.42 43.48 58.55 59.69 57.80 56.74 62.23 64.59 64.63 63.55 63.20 62.98 63.02 63.46 63.84 66.55 66.82 67.86 68.34 68.36 69.08 69.64 70.18 69.59 69.94 69.98 70.47 70.27 70.10 70.64 71.29 71.40 71.90 72.46 73.05 72.35 71.84 72.21 71.65 71.38 70.23 69.93 69.93 70.04 69.16 69.41 69.07
45.79 43.70 43.08 45.91 51.08 48.35 48.06 54.44 60.23 62.59 64.25 63.74 63.23 62.73 63.10 62.88 64.76 66.43 66.29 67.38 67.70 68.50 68.50 68.63 68.83 69.03 69.48 68.14 68.09 68.68 68.88 70.00 70.82 71.54 72.85 73.27 72.96 72.06 71.66 71.56 71.30 71.38 69.43 69.56 70.37 68.90 69.86 69.32 68.22
45.56 43.19 42.35 46.56 49.12 45.93 47.54 51.97 59.26 61.01 63.61 64.23 63.43 62.59 63.18 63.20 63.23 64.33 66.13 66.04 67.12 67.88 68.33 67.68 68.51 68.92 69.87 68.94 68.68 69.66 69.45 70.25 71.25 72.25 73.32 73.32 72.87 71.22 71.20 71.73 71.31 70.57 68.84 70.88 71.05 70.56 69.92 68.28 67.38
42.99 41.51 42.12 43.59 47.65 51.04 54.50 52.20 57.98 62.38 63.26 63.93 64.83 64.42 64.41 63.58 62.61 63.59 65.67 66.10 67.23 67.61 67.78 67.25 67.83 69.26 70.25 69.17 69.46 69.19 69.29 69.61 70.26 71.73 72.36 73.11 72.95 72.17 72.00 72.20 71.64 70.72 69.74 70.94 71.54 70.95 69.78 66.83 66.96
37.89 47.08 47.51 46.14 42.10 36.74 50.99 41.15 52.28 58.79 59.72 61.41 62.82 63.01 63.06 63.59 64.35 64.17 65.39 66.42 67.12 67.58 68.07 68.17 67.78 69.15 70.07 69.20 69.35 68.92 68.09 67.36 68.97 70.58 72.10 73.08 73.92 72.90 72.60 72.33 72.46 72.16 71.59 71.56 71.85 72.01 70.47 68.22 67.18
45.50 48.00 46.49 45.00 40.12 36.41 40.05 43.62 42.59 55.82 56.08 58.90 61.88 63.31 63.58 64.19 64.67 64.34 65.25 67.19 67.95 68.11 67.96 68.07 67.87 69.08 69.87 69.73 69.58 68.82 68.09 68.49 69.10 70.34 71.55 72.45 73.38 73.37 72.90 73.20 73.45 71.97 72.27 72.26 72.26 72.77 71.48 70.06 69.33
49.07 44.60 39.92 37.77 36.31 32.15 37.16 41.44 38.09 51.67 55.19 56.97 61.47 63.66 64.36 64.73 64.86 65.70 65.75 67.39 67.82 68.40 68.05 68.19 67.59 68.22 69.42 69.53 68.98 69.14 68.43 68.37 68.21 68.75 70.00 70.86 72.57 73.09 73.15 73.66 72.55 72.27 72.69 72.61 72.20 72.83 72.37 72.04 71.48
43.06 37.97 31.36 30.16 30.28 31.60 34.48 36.79 38.58 47.14 49.91 54.15 59.05 62.44 65.15 65.57 65.23 65.31 64.19 65.18 66.62 66.97 67.45 67.87 67.70 67.49 68.85 69.03 68.53 69.08 69.16 68.98 68.82 68.89 69.11 70.16 71.29 72.31 72.79 73.23 72.36 72.08 72.67 72.59 72.24 72.84 72.05 71.78 72.36
39.31 38.39 32.37 28.11 27.50 32.40 36.30 34.49 40.87 49.72 51.68 51.96 59.33 62.49 64.75 65.33 65.89 65.89 64.95 65.23 65.83 66.56 67.01 67.85 67.72 67.54 68.54 68.98 68.38 68.54 68.97 69.29 69.59 69.58 69.63 70.01 71.13 72.49 73.72 73.60 73.20 72.78 73.07 72.60 72.14 72.49 73.28 72.68 72.01
38.20 35.86 38.02 32.58 29.48 31.26 34.22 39.37 46.01 49.49 48.68 49.79 51.70 60.05 62.57 63.54 64.93 65.37 65.92 65.71 65.74 66.01 66.48 67.61 67.97 67.95 68.54 68.94 68.80 67.73 68.08 68.54 68.83 69.73 70.57 70.49 71.78 72.59 73.54 73.28 73.32 73.28 73.24 73.06 73.01 72.30 72.20 72.79 73.24
38.63 39.03 34.69 32.69 28.70 27.56 32.68 36.03 38.35 42.95 45.05 47.30 49.94 55.21 60.56 62.89 62.96 64.54 65.70 65.33 66.21 66.40 66.65 68.28 68.56 68.22 68.61 69.17 69.12 68.63 68.17 68.43 68.98 69.58 70.04 70.89 71.66 72.67 73.50 73.54 73.40 73.40 73.86 72.86 73.02 72.36 72.37 72.33 72.41
35.25 32.69 31.73 33.12 31.48 29.69 28.86 34.40 42.72 42.64 44.90 44.53 56.78 60.95 57.95 63.04 64.21 65.05 65.66 65.37 66.42 66.82 66.58 67.48 68.64 68.45 68.41 69.22 69.27 69.22 68.89 68.11 68.16 68.78 70.04 71.22 72.03 72.21 72.67 73.48 73.48 73.19 73.16 73.78 73.15 72.91 72.51 72.15 72.17
36.84 32.57 29.75 31.55 30.58 28.60 31.75 33.68 41.96 41.35 43.04 46.71 54.07 61.42 61.76 61.93 63.89 65.52 65.90 65.85 65.59 66.21 66.74 66.66 67.99 68.36 68.75 69.11 69.29 68.85 69.18 69.86 68.46 68.14 68.93 70.10 70.79 71.85 72.71 72.88 73.50 73.18 73.03 72.86 73.28 72.91 73.15 72.17 71.97

GFSSGP_sfc_wetblb_069.txt.gz
Wetbulb
73.56 72.77 71.69 67.90 60.48 59.51 56.36 57.82 62.57 61.53 60.52 63.83 63.98 61.96 60.90 62.45 59.75 58.71 68.11 70.09 71.96 72.76 75.20 75.85 77.58 76.71 76.46 76.16 76.64 76.53 76.33 76.84 76.76 76.94 76.99 76.18 75.94 75.91 75.35 75.43 75.88 75.57 75.65 76.45 76.60 76.40 76.47 76.84 76.49
73.02 71.12 69.81 67.35 58.61 55.25 56.92 60.35 59.86 61.27 63.54 64.42 64.85 63.72 62.81 60.74 65.35 64.76 66.83 70.78 72.39 73.26 75.34 75.91 77.58 77.32 76.52 76.13 76.60 76.47 76.18 77.03 77.02 76.98 76.61 76.31 75.79 76.04 75.80 75.65 76.14 75.73 75.82 76.09 76.09 76.34 76.48 76.83 76.65
71.80 71.07 66.27 63.57 59.31 55.35 55.74 59.77 61.49 63.04 64.07 64.61 63.78 66.58 64.83 62.04 64.73 66.27 70.10 71.55 72.85 74.15 75.43 76.03 77.17 77.46 76.60 76.44 76.81 76.86 76.39 76.87 76.71 76.50 76.24 76.32 76.30 76.06 75.95 75.67 75.77 76.03 75.57 76.12 76.29 76.32 76.65 76.40 76.37
68.99 69.13 66.76 58.86 56.73 58.74 59.39 60.49 62.40 62.95 63.51 66.33 65.40 62.68 65.02 66.99 66.08 69.27 70.95 72.22 72.94 74.29 75.33 76.92 77.17 77.07 77.09 76.69 77.15 76.71 76.71 76.95 76.46 76.20 76.19 76.14 76.07 76.04 75.75 75.69 75.80 75.69 75.73 76.26 76.32 76.38 76.40 75.67 75.66
71.20 67.94 60.41 58.71 58.57 61.16 62.61 62.72 63.13 61.74 63.97 64.34 65.08 60.67 60.83 66.91 70.28 70.34 71.07 72.70 72.70 74.08 75.53 76.22 77.67 77.38 76.93 77.02 76.82 76.82 76.95 76.48 76.42 76.67 76.36 76.04 76.13 75.86 75.57 75.35 75.13 75.39 75.88 76.20 75.93 75.63 75.58 76.08 76.11
64.06 63.37 58.70 56.74 58.69 62.39 63.19 63.96 63.42 62.91 64.53 63.52 62.02 61.88 63.33 69.60 68.63 69.78 71.98 72.58 73.60 73.95 75.33 76.30 76.95 77.26 76.78 76.87 76.54 76.58 76.53 76.36 76.57 76.30 76.40 76.05 75.65 75.46 75.25 75.22 75.64 75.55 76.02 75.63 75.73 75.90 75.97 76.33 76.70
62.44 63.31 59.27 58.78 58.95 60.24 62.36 65.82 63.16 63.91 64.62 64.11 64.98 61.12 64.87 67.10 68.97 70.84 72.18 73.10 73.55 74.39 75.23 76.53 76.30 76.27 76.71 76.85 76.80 76.25 76.40 76.21 76.14 76.53 76.20 76.20 75.79 75.75 76.03 75.97 75.55 75.66 76.02 75.88 75.82 76.10 76.04 76.92 76.44
65.01 63.99 58.32 59.42 58.35 58.90 63.75 64.49 66.41 65.24 63.99 67.63 67.38 61.68 61.17 66.46 69.32 71.24 72.31 72.91 73.66 74.30 75.05 74.64 74.97 76.93 76.81 76.71 76.61 76.61 76.43 76.69 76.21 76.01 76.12 76.20 76.04 76.18 76.07 76.36 76.44 75.83 75.83 75.88 75.63 76.18 76.28 76.03 76.53
68.22 61.16 57.47 58.08 59.17 61.23 64.71 63.51 66.10 68.56 64.27 64.83 66.52 65.56 67.16 68.81 69.89 69.89 70.80 71.78 72.83 73.32 74.79 75.46 75.97 76.28 77.00 76.77 76.83 76.54 76.85 76.31 76.42 75.94 76.32 75.85 75.70 75.69 76.00 76.55 76.16 75.50 75.11 75.30 75.61 75.58 75.60 76.32 76.69
64.22 61.19 59.25 62.66 63.75 62.94 65.04 64.53 64.62 64.95 63.13 62.99 64.69 67.15 68.14 68.68 68.60 68.17 68.65 69.42 70.61 71.67 73.64 74.95 75.73 75.61 76.09 76.10 77.16 76.71 76.01 76.14 76.39 76.54 76.54 75.65 75.79 76.24 76.23 76.38 76.14 75.33 74.91 75.36 75.33 75.74 74.89 74.95 76.43
63.77 60.65 62.49 63.26 65.44 66.10 65.11 64.96 66.88 64.82 61.25 62.89 63.39 64.92 66.92 67.26 67.58 67.87 68.52 69.75 70.17 71.56 72.85 74.52 75.55 76.23 75.83 76.66 75.91 75.61 75.52 75.86 76.17 76.28 76.13 76.21 75.36 75.95 76.13 76.20 75.72 76.10 74.44 74.14 74.73 74.45 74.48 74.83 75.74
60.42 62.59 62.99 63.09 65.49 65.27 64.32 66.64 65.03 65.66 65.17 66.13 66.96 66.75 66.86 66.72 66.98 67.87 68.40 69.53 69.97 70.24 72.08 74.53 75.19 75.91 75.99 76.12 75.14 75.68 75.02 75.56 74.79 75.53 76.27 75.65 74.24 74.73 75.18 74.74 75.39 75.04 74.46 74.04 73.56 73.98 74.88 74.95 75.00
60.67 61.53 62.77 63.24 62.78 63.49 65.61 64.46 64.59 65.54 67.37 67.97 67.47 67.28 66.56 66.70 67.52 69.00 69.88 70.50 71.31 69.68 71.79 74.13 75.07 75.87 76.03 76.36 76.05 75.41 74.98 75.05 75.29 75.49 75.69 76.02 75.02 74.55 74.98 74.66 74.86 74.95 74.56 73.86 73.39 74.45 74.29 74.77 74.74
60.82 60.52 60.46 60.67 60.06 62.33 62.93 63.74 65.21 66.26 66.61 66.15 66.54 66.63 66.91 66.71 67.83 68.82 69.76 70.17 70.55 71.22 72.13 73.70 74.31 75.43 75.61 75.71 76.15 75.30 75.04 75.06 75.20 75.65 75.80 75.90 76.02 75.45 75.32 74.40 75.09 75.44 76.10 74.95 74.65 74.41 74.42 74.51 74.61
59.70 56.63 56.82 61.52 62.72 62.65 65.60 61.37 62.28 64.71 65.78 64.49 65.09 66.47 66.94 67.20 68.55 69.35 70.19 70.22 70.92 71.57 72.54 73.27 73.77 74.73 75.03 75.63 75.79 74.75 74.51 74.88 75.22 76.14 76.47 76.08 76.58 76.44 74.31 75.60 75.12 75.39 76.10 75.86 76.34 75.67 75.31 74.53 74.29
55.01 53.42 52.91 60.83 63.43 63.93 63.75 57.79 64.21 66.22 64.49 63.11 64.01 66.19 66.76 67.65 68.30 70.03 70.75 71.50 71.66 71.32 72.14 73.57 72.90 73.73 74.66 74.99 75.44 74.40 74.74 75.30 76.05 76.52 75.86 75.41 75.93 76.61 76.40 75.69 76.20 75.48 76.23 75.33 74.90 75.08 73.98 73.82 73.64
52.12 51.30 50.92 52.39 64.01 63.38 62.20 59.13 64.42 65.84 64.41 62.83 63.83 65.38 66.45 67.45 68.65 69.94 70.30 71.63 71.62 71.46 72.18 72.68 73.40 73.23 74.09 74.89 74.89 74.86 75.28 75.29 76.20 76.73 76.46 75.46 75.69 76.36 75.77 75.41 75.69 75.69 74.94 74.29 74.42 74.28 74.80 73.61 73.33
49.77 49.54 49.65 51.67 60.21 62.24 60.33 59.69 63.80 66.59 64.74 64.30 63.79 64.79 65.95 66.64 67.85 70.20 70.23 71.76 71.81 71.44 71.91 72.38 73.09 73.94 74.30 74.29 74.69 74.29 74.50 74.86 75.41 75.86 76.65 75.52 76.21 76.43 75.88 75.57 75.77 75.81 74.44 73.88 74.36 74.68 74.16 74.36 73.95
51.60 50.45 49.64 51.39 56.71 55.69 52.27 53.50 58.82 65.38 65.88 64.31 64.44 64.70 65.86 66.80 68.98 70.42 69.33 71.58 71.36 70.94 71.51 72.20 72.84 74.05 73.53 72.97 72.46 73.18 72.98 73.87 74.49 75.32 76.16 76.22 76.41 76.54 76.41 76.90 75.33 75.42 74.46 74.86 74.59 73.91 73.86 73.23 74.17
51.64 50.02 49.67 51.48 52.96 52.91 52.19 53.80 62.38 63.83 65.41 65.66 64.81 64.65 65.62 66.90 68.08 68.73 69.93 70.49 70.57 70.47 71.42 72.31 73.05 74.01 74.14 73.23 73.83 74.19 74.19 74.64 75.81 75.69 76.19 76.49 76.54 76.49 76.15 76.17 75.19 75.38 73.67 75.16 74.75 74.68 73.41 73.73 73.16
50.98 50.68 49.48 49.42 51.81 56.03 58.26 56.51 59.84 63.09 64.96 66.28 66.76 66.20 66.40 66.34 66.78 67.87 69.06 69.60 70.49 70.70 71.26 72.08 73.07 73.91 74.61 74.35 73.98 74.27 74.43 74.80 74.31 74.86 75.14 76.02 76.77 74.99 75.62 76.36 75.91 75.24 74.77 74.51 75.39 74.53 74.03 71.48 72.36
49.70 52.20 51.71 50.23 49.51 46.30 54.89 47.21 56.29 61.09 61.72 64.02 65.98 66.27 66.21 66.77 67.48 68.11 68.58 68.92 69.60 70.72 71.95 72.66 73.08 73.84 74.51 74.64 73.85 73.86 72.81 72.08 73.59 74.51 75.13 75.98 76.83 76.02 75.55 76.04 76.15 75.83 74.64 75.58 75.60 75.92 74.89 73.44 71.13
51.62 52.93 51.74 50.71 49.48 47.26 48.38 49.51 52.77 58.84 59.36 61.08 65.12 66.44 66.74 67.39 67.57 67.53 68.41 69.37 69.67 70.90 71.40 72.16 72.89 73.50 74.60 74.78 74.94 73.41 73.79 73.73 74.41 74.86 75.88 76.62 77.33 76.85 76.27 76.18 76.41 76.07 75.83 76.29 76.35 76.18 72.95 74.31 73.07
53.93 49.50 47.60 47.17 47.64 43.30 46.78 49.38 47.42 52.55 53.93 55.83 63.75 66.56 67.21 67.85 67.95 68.50 69.30 70.13 69.94 71.19 71.51 71.78 72.12 73.35 74.04 74.21 74.20 74.13 74.06 74.13 73.40 74.08 74.42 74.80 75.89 78.02 76.93 76.55 76.87 76.83 76.41 76.36 76.13 76.96 76.51 76.44 75.95
51.34 48.61 42.51 41.38 41.34 42.53 45.21 46.33 48.09 51.95 53.42 54.32 56.63 62.21 67.64 68.26 68.22 68.12 68.21 68.84 69.93 70.51 71.07 71.57 71.70 72.00 73.24 73.73 73.89 74.05 74.22 74.94 74.78 74.76 74.04 75.02 74.77 75.62 76.97 77.31 77.14 76.66 76.83 76.98 76.82 76.65 76.78 76.36 75.69
48.70 48.70 43.64 37.73 39.00 42.68 44.86 44.32 47.75 51.29 54.71 57.81 61.86 62.86 66.81 68.20 68.73 68.62 68.64 69.10 70.11 70.68 71.16 71.38 71.37 71.70 72.50 73.20 74.09 74.83 74.72 73.93 73.98 74.91 74.41 74.41 74.58 75.52 77.61 77.47 77.46 76.92 76.94 76.61 76.72 75.97 75.88 76.27 75.66
45.52 44.69 48.18 43.03 42.06 43.18 44.81 47.29 50.17 51.13 53.42 57.11 62.09 63.75 64.34 67.47 68.78 68.73 69.03 69.49 70.24 70.74 71.19 71.55 71.71 72.00 72.22 72.46 73.96 74.15 74.27 74.50 74.43 75.27 75.52 74.60 76.19 75.56 76.86 77.47 77.19 77.01 77.02 76.96 76.84 75.45 76.02 76.84 76.52
46.94 46.57 43.48 44.76 38.65 38.57 41.67 44.12 44.23 45.99 50.01 55.23 59.51 61.99 62.99 66.05 68.41 69.22 69.22 69.09 70.03 71.04 71.61 71.96 72.26 72.07 72.49 72.52 73.15 73.04 73.38 74.27 74.61 75.11 75.14 75.61 76.03 76.41 76.34 76.80 77.19 77.28 77.27 77.08 76.87 76.27 76.63 76.17 75.63
44.92 44.04 43.47 45.37 43.38 41.21 39.68 42.02 45.60 47.12 52.18 52.32 52.52 58.06 63.37 65.90 66.56 68.76 69.73 69.84 70.31 70.68 71.01 71.30 71.73 72.12 72.10 72.57 73.45 73.31 72.76 73.12 73.75 73.78 74.78 75.74 76.33 76.50 76.52 76.83 76.80 77.19 76.96 77.31 77.03 76.65 76.33 76.06 76.16
43.37 40.67 41.09 43.42 41.15 41.76 44.94 40.25 47.26 50.79 52.61 50.71 50.36 52.81 56.35 60.76 64.04 67.21 68.65 68.92 69.31 69.81 70.18 70.42 71.21 71.20 71.57 72.92 73.32 72.82 73.53 73.18 72.71 72.95 73.89 75.50 75.73 76.44 76.83 77.08 76.90 77.19 77.03 77.30 76.84 76.56 75.87 75.67 75.62

GFSSGP_sfc_wetblb_072.txt.gz
Wetbulb
74.07 73.59 74.66 71.26 62.99 62.72 59.39 59.26 63.53 62.69 62.78 65.90 66.17 63.87 63.10 64.19 62.94 60.66 71.55 72.74 73.83 74.13 75.81 76.55 77.40 76.69 76.41 77.33 76.79 76.90 77.42 77.23 77.57 77.26 76.21 76.48 76.04 75.56 75.80 75.91 75.70 76.28 76.58 77.00 76.80 76.77 77.13 77.12 76.91
73.33 72.41 72.37 70.01 61.30 57.77 56.56 60.82 60.19 60.91 65.29 66.75 65.63 64.90 63.99 63.87 67.92 68.21 69.63 73.01 74.01 74.50 75.67 76.31 77.21 77.25 76.33 77.18 76.67 76.86 77.17 77.18 77.41 76.81 76.64 76.46 76.31 76.17 76.11 76.40 75.92 76.40 76.33 76.31 76.72 76.92 77.05 76.92 76.96
73.59 73.08 68.47 65.43 61.89 59.35 56.73 60.54 60.32 62.40 65.74 65.85 65.51 68.26 66.99 64.46 67.67 69.13 72.36 73.46 74.35 74.99 76.03 77.44 77.51 77.30 76.56 77.21 76.75 76.81 77.25 77.19 76.71 76.69 76.67 76.64 76.29 75.99 75.92 76.18 76.19 75.71 76.56 76.50 76.73 76.67 76.48 76.33 77.00
72.51 71.84 70.04 60.46 58.24 59.35 60.22 61.25 62.58 62.02 65.22 67.65 67.61 65.08 67.27 69.45 68.80 71.10 73.04 73.58 74.18 74.96 75.92 77.18 77.83 77.05 76.83 76.99 77.22 76.73 77.13 76.91 76.16 76.32 76.56 76.25 76.30 76.06 76.15 76.09 76.23 76.03 76.46 76.76 76.77 76.69 75.95 76.18 76.66
73.04 70.25 62.70 61.72 60.31 62.72 64.16 62.98 63.60 61.02 63.09 66.23 67.19 63.81 63.54 69.32 71.38 72.31 72.97 73.53 73.90 74.73 76.06 77.32 77.75 77.24 76.91 77.13 77.33 77.47 76.87 76.56 76.20 76.49 76.44 76.08 76.06 75.95 75.70 75.65 75.96 76.25 76.11 76.26 76.18 75.87 76.05 76.23 76.61
66.13 68.45 61.43 57.83 60.47 63.63 63.05 63.89 63.69 62.63 64.93 65.79 65.30 62.52 64.63 70.81 70.58 72.05 73.48 73.90 74.56 74.41 75.83 76.84 77.36 77.34 77.10 76.79 77.14 76.99 76.72 76.62 76.79 76.40 76.24 76.01 75.93 75.59 76.01 76.07 75.87 76.31 76.18 76.26 76.37 76.37 76.31 76.72 76.65
65.47 65.17 60.63 60.12 60.70 62.54 63.05 65.67 62.68 63.64 65.97 65.38 66.84 64.14 66.61 68.88 71.14 72.80 73.83 74.36 74.45 75.04 75.88 76.14 77.54 77.65 76.92 77.06 76.64 77.06 76.76 76.56 76.57 75.96 76.36 76.08 76.17 76.04 76.12 75.84 76.35 76.18 76.17 76.20 76.34 76.34 76.66 76.89 76.73
66.82 66.53 60.72 61.08 60.03 60.86 64.83 65.46 67.15 66.34 64.61 69.47 69.56 64.32 64.18 69.06 71.89 73.13 74.02 73.75 73.91 74.78 76.29 75.97 75.23 75.78 77.06 77.19 76.70 76.90 76.63 76.60 76.28 76.39 76.15 76.16 76.40 76.15 76.07 77.01 76.75 76.32 75.98 76.56 76.48 76.48 76.71 76.62 76.23
70.05 62.84 59.80 60.52 61.70 62.24 65.17 64.06 68.24 69.66 67.65 67.89 68.86 68.17 69.25 70.54 72.06 72.24 72.29 72.68 73.27 74.52 75.38 73.86 75.51 77.09 77.68 77.42 77.39 76.79 76.40 76.61 76.37 76.17 75.47 76.05 75.73 75.89 75.94 76.63 76.10 76.07 76.21 76.37 76.04 76.15 76.56 76.84 76.38
65.95 63.86 61.36 64.61 65.36 64.56 64.98 64.95 66.63 64.76 64.99 65.56 66.97 69.58 69.89 70.29 71.08 70.35 70.47 70.91 72.01 73.11 74.03 74.12 76.17 75.82 76.86 76.59 77.53 76.45 75.80 75.71 75.97 76.16 76.52 75.86 76.57 77.32 75.73 76.40 75.76 75.70 76.07 75.96 76.18 75.04 75.14 76.83 76.52
66.55 62.89 64.72 65.11 66.66 66.96 66.46 64.37 65.90 65.30 62.37 66.58 66.41 67.45 68.80 69.59 69.98 69.96 70.65 71.37 71.97 73.57 73.26 74.76 75.59 76.62 76.62 77.03 75.28 74.86 75.14 75.67 76.41 76.65 76.38 76.37 75.82 75.48 75.03 75.73 76.08 75.68 75.69 75.91 76.31 76.16 76.18 76.39 75.67
62.90 65.62 65.45 65.08 65.68 66.25 65.08 67.82 66.34 65.00 65.56 66.44 69.63 69.25 68.75 68.63 69.31 69.96 70.41 71.27 72.14 72.95 72.85 74.60 76.06 76.29 76.43 76.23 74.48 75.15 75.17 75.62 75.25 76.19 76.65 76.13 74.89 74.99 75.18 74.89 75.64 75.92 75.38 75.29 75.89 76.08 76.69 76.97 76.31
62.57 64.44 65.02 64.94 63.77 63.83 65.75 65.43 65.89 67.07 68.18 69.51 69.65 68.64 68.43 68.80 69.66 70.69 71.36 71.99 72.77 71.96 73.03 74.29 75.76 76.06 76.38 75.84 74.85 75.10 75.18 75.10 75.56 75.78 76.57 76.08 75.30 75.57 75.53 75.67 75.60 75.75 75.89 75.41 75.91 75.90 76.47 76.34 75.82
63.98 64.03 63.56 63.14 61.86 62.94 64.39 65.85 67.12 67.95 69.93 68.37 68.03 67.94 68.51 68.12 69.56 70.47 71.07 71.61 72.30 71.92 73.28 74.41 74.98 76.47 76.73 75.87 76.31 75.63 75.37 75.71 75.64 75.87 76.67 77.50 76.30 76.35 75.88 75.73 75.62 75.71 75.99 76.06 75.97 76.10 75.82 75.02 75.23
62.59 60.18 62.16 62.63 62.93 63.69 66.21 63.70 63.71 68.80 68.93 67.35 67.40 67.89 68.26 68.79 70.11 70.36 71.60 71.50 71.78 71.97 73.43 74.03 74.77 75.91 76.06 75.91 76.13 75.38 75.37 75.34 75.61 76.04 77.50 77.56 77.46 77.50 77.18 76.38 76.32 75.75 76.79 76.96 76.80 76.65 76.38 74.42 74.89
59.06 59.84 57.50 62.24 63.22 64.77 66.39 59.90 66.12 68.60 65.93 65.19 66.88 67.60 67.89 69.05 69.83 71.18 71.93 71.97 72.24 72.10 73.15 74.23 74.13 75.11 75.53 75.44 75.98 75.61 76.12 76.10 76.65 76.59 76.53 77.15 77.66 77.22 76.75 75.61 75.54 76.65 76.85 76.22 75.95 76.07 74.21 74.01 74.01
56.96 54.81 56.69 59.09 64.22 64.51 64.98 61.77 67.15 68.55 65.61 64.48 64.21 66.49 68.01 68.87 69.96 71.50 71.75 72.87 73.06 72.86 73.42 73.96 74.53 74.94 75.44 76.19 75.38 75.92 76.79 76.37 76.89 77.00 77.08 77.37 77.52 76.73 76.38 76.23 76.01 77.43 76.04 75.79 75.04 75.27 75.44 73.46 73.46
52.37 54.61 57.17 56.06 62.60 64.00 62.64 62.59 66.21 67.77 66.95 65.02 63.93 66.71 68.15 68.39 69.26 71.05 72.38 73.67 73.99 73.26 73.49 74.13 74.25 75.25 75.97 75.82 76.10 75.63 75.66 76.26 77.05 77.20 77.43 77.09 77.89 77.57 77.24 75.85 76.65 76.68 75.12 74.80 75.03 75.39 75.51 74.62 73.97
55.82 56.21 55.70 56.09 62.40 60.37 58.27 56.86 63.07 66.99 67.61 66.31 63.72 66.58 67.88 68.29 70.34 71.10 72.67 72.77 73.81 73.29 72.69 73.58 73.99 75.54 75.01 74.59 74.00 74.25 74.16 75.23 75.80 77.09 77.43 77.28 77.55 78.00 78.31 76.76 76.39 76.74 75.11 75.95 76.63 75.08 74.61 72.40 74.75
55.46 55.07 55.08 55.24 56.66 57.72 55.56 55.27 62.48 64.59 66.83 67.92 64.98 66.28 68.26 68.77 69.62 70.47 72.36 73.00 72.96 72.43 72.10 73.24 73.96 75.60 75.44 74.16 74.75 75.05 75.37 75.71 76.45 76.82 77.56 77.04 77.44 77.74 76.87 77.34 76.49 76.45 74.59 76.30 76.14 76.34 72.79 72.97 74.79
55.00 54.19 55.24 54.43 55.42 56.60 57.04 56.14 61.55 64.35 66.50 67.04 68.16 69.18 69.40 68.98 68.76 70.36 71.70 72.25 72.39 72.07 72.03 73.15 74.58 75.62 75.48 75.57 75.31 76.22 76.58 77.54 77.66 76.52 76.26 77.07 77.85 77.56 78.04 78.01 76.53 77.36 76.10 73.88 76.11 75.57 75.15 70.80 74.28
52.43 56.17 55.02 54.37 53.17 50.92 56.24 51.55 58.58 63.47 64.19 65.52 65.63 67.64 68.55 69.56 70.13 70.61 71.34 71.79 71.95 72.22 73.25 73.88 75.06 75.75 76.03 76.54 75.77 76.16 73.81 72.74 74.18 75.73 76.08 77.05 78.07 77.44 77.35 77.99 77.87 77.76 75.89 76.70 76.18 76.22 76.13 75.35 70.63
54.01 56.79 55.43 54.81 54.01 52.97 51.64 51.84 56.53 61.24 62.01 62.18 65.39 67.25 68.91 68.07 67.92 70.50 70.99 72.15 72.54 72.95 73.13 73.99 75.55 76.03 76.54 76.83 76.56 75.50 75.40 74.37 75.36 75.32 78.30 77.97 78.50 77.54 77.39 77.93 78.08 77.61 76.56 77.24 77.22 77.27 77.07 74.30 73.02
57.67 54.76 53.95 53.91 53.67 47.70 51.95 51.47 52.53 56.23 56.09 59.23 66.45 68.62 69.28 70.12 69.33 70.57 71.98 72.52 72.58 73.25 73.58 74.07 74.90 75.99 76.54 76.95 77.13 76.37 75.85 75.68 73.98 75.27 78.48 74.83 76.90 76.73 77.78 77.57 78.22 78.06 77.66 77.23 76.73 77.80 77.20 77.00 75.89
56.04 52.56 46.26 44.93 45.47 45.96 53.01 50.36 52.04 55.37 57.58 59.50 60.67 62.58 70.03 70.84 70.69 70.75 70.98 71.52 71.93 72.34 73.25 73.85 74.68 75.18 76.00 76.21 76.55 76.58 76.58 76.71 76.17 77.60 73.91 76.17 75.52 75.18 77.00 78.12 78.32 76.98 78.24 77.21 76.96 78.43 77.03 77.70 75.67
53.49 52.83 47.51 41.94 43.38 46.36 51.46 47.62 50.13 56.64 61.56 65.16 66.28 65.13 66.18 70.69 71.24 71.06 71.62 71.88 72.29 72.40 73.26 73.79 74.34 74.84 75.59 75.86 76.31 77.06 77.17 75.64 75.48 76.02 74.72 75.11 75.12 76.04 77.82 77.74 77.22 77.69 77.63 77.35 77.32 76.30 75.78 76.63 76.22
52.57 50.32 53.98 48.32 49.27 47.67 48.85 51.33 53.34 56.06 60.56 61.57 63.66 65.86 66.55 70.04 70.99 70.71 71.73 72.21 72.55 72.89 73.36 74.04 74.55 75.29 75.57 75.63 76.16 76.58 76.99 76.42 75.66 76.49 76.54 75.52 76.88 76.12 77.98 77.28 76.99 77.05 78.00 78.03 78.37 76.50 76.51 76.77 76.96
51.24 54.03 47.74 48.63 43.31 42.55 47.14 48.80 47.85 52.43 57.20 59.45 59.07 60.59 66.52 68.50 70.58 71.47 71.09 72.21 72.91 73.50 73.87 74.59 74.83 75.19 75.79 75.98 75.85 75.98 76.38 76.78 76.76 76.80 76.55 76.55 76.31 77.42 77.41 78.08 77.79 77.09 77.78 78.58 78.48 76.55 77.36 76.87 75.82
48.51 48.40 49.72 50.71 49.11 45.13 44.24 46.36 50.91 54.09 55.63 56.31 56.97 56.18 58.93 62.25 65.75 66.40 69.78 71.72 72.62 73.66 73.84 73.98 74.44 74.89 75.35 75.83 76.07 75.92 75.85 76.11 76.71 76.32 76.58 76.93 76.87 77.41 77.91 78.04 78.18 77.61 77.22 77.96 78.64 77.69 77.04 77.21 76.88
48.76 48.69 50.12 46.38 46.50 48.91 48.56 44.23 54.02 55.97 54.75 52.19 52.08 53.02 54.01 56.11 57.54 59.10 60.04 60.43 66.55 72.18 73.02 73.57 74.30 74.27 75.04 75.71 76.08 75.54 75.75 76.01 75.60 75.93 76.29 76.98 76.79 77.25 78.03 78.76 78.23 78.21 77.82 78.31 77.95 76.72 76.53 76.28 76.18

GFSSGP_sfc_wetblb_075.txt.gz
Wetbulb
74.11 73.44 74.72 72.52 62.81 63.48 59.51 59.18 63.95 62.49 63.21 66.75 67.20 64.98 64.60 67.16 64.24 60.97 72.52 74.64 75.15 74.68 75.48 76.24 77.34 76.65 77.60 76.53 76.64 76.80 77.07 76.78 76.28 76.18 76.65 76.22 75.84 76.46 76.00 75.90 76.86 77.05 77.22 76.97 77.25 77.38 77.19 77.19 76.91
73.98 72.47 73.13 68.31 61.18 57.39 57.46 61.98 59.68 62.14 65.90 67.24 66.40 66.10 66.12 64.64 69.26 69.22 71.35 74.58 74.68 74.03 74.71 75.17 77.12 76.90 77.06 76.58 76.92 76.84 76.51 76.56 76.39 76.50 76.50 76.56 76.53 76.55 76.53 76.09 76.67 76.64 76.92 77.12 77.11 77.25 77.06 77.18 76.70
75.61 73.65 67.12 64.75 62.15 56.80 57.00 59.97 60.84 62.60 66.74 66.21 65.53 69.13 67.76 64.92 69.24 70.39 73.62 74.54 74.37 73.74 75.10 76.31 77.48 76.79 76.99 76.68 76.95 76.53 76.95 76.48 76.78 76.82 76.70 76.38 76.16 76.24 76.48 76.39 76.12 76.76 76.89 77.00 76.86 76.86 76.91 76.94 77.00
72.21 71.00 69.28 62.62 59.46 62.32 62.29 60.77 62.80 63.89 67.32 67.92 68.59 65.22 68.89 71.11 70.44 72.44 73.99 74.39 73.24 74.45 75.44 76.76 77.34 76.68 77.11 77.34 76.71 77.10 76.78 76.54 76.64 76.77 76.38 76.30 76.29 76.34 76.51 76.54 76.26 76.76 76.92 76.73 76.51 76.40 76.65 76.97 76.70
71.66 69.91 63.61 61.48 61.38 63.44 64.25 63.04 63.36 64.31 65.44 66.78 67.35 64.86 65.83 70.51 72.78 73.36 73.67 74.41 73.80 74.11 76.38 77.25 77.95 77.17 77.13 76.99 76.86 76.60 76.83 76.52 76.59 76.43 76.30 76.29 76.29 76.18 76.04 76.32 76.56 76.70 76.65 76.57 76.51 76.15 76.45 76.89 76.39
66.55 68.07 60.45 57.41 60.46 63.20 63.42 63.84 62.95 63.27 66.44 67.51 66.70 65.37 66.46 71.88 71.93 72.86 73.76 73.70 73.83 73.66 75.61 76.69 76.99 77.25 77.08 76.63 76.74 76.68 76.73 76.70 76.52 76.16 76.37 76.01 75.84 76.14 76.10 76.26 76.57 76.54 76.68 76.73 76.60 76.54 76.47 76.63 76.29
66.57 66.14 59.98 60.54 60.68 61.85 63.27 65.25 63.15 65.04 66.31 65.94 69.04 64.82 68.02 69.92 72.23 73.15 73.43 74.23 73.78 74.71 74.50 76.01 77.06 77.43 77.02 76.73 76.78 76.64 76.90 76.81 76.66 76.34 76.25 76.15 76.29 75.93 76.06 76.62 76.57 76.21 76.48 76.40 76.09 76.12 76.94 76.73 76.50
69.37 66.12 60.63 62.94 60.21 60.91 64.28 65.48 66.67 66.56 66.44 70.83 71.01 64.66 65.17 70.05 72.85 73.35 73.62 73.69 73.86 74.01 74.25 75.88 76.03 75.58 76.69 76.97 76.45 76.70 76.77 76.53 76.59 76.45 76.40 76.70 76.51 76.15 76.71 76.82 76.06 76.26 76.40 76.68 76.70 76.77 76.61 76.33 75.89
71.74 62.79 59.05 60.95 62.49 63.46 66.65 64.77 68.93 69.76 68.10 68.28 69.38 69.38 69.84 71.61 72.73 72.50 72.36 72.60 72.98 73.45 74.28 73.65 74.58 76.35 77.42 76.94 76.87 76.07 76.65 76.59 76.42 75.87 75.82 76.15 75.63 75.84 75.42 76.70 76.37 76.74 76.51 76.51 77.04 76.98 76.87 76.51 75.72
68.13 61.84 61.02 65.44 66.74 63.33 66.03 66.51 68.11 67.27 66.10 67.11 68.36 70.21 70.66 71.39 71.43 70.79 70.47 70.52 71.69 72.14 71.86 73.83 74.88 75.34 76.17 74.89 77.27 76.52 75.93 75.92 76.19 76.09 76.37 74.97 75.35 75.75 75.81 76.50 76.54 76.51 76.57 76.32 76.32 77.03 77.17 76.76 74.43
66.66 61.33 64.20 65.94 68.11 68.05 65.90 65.02 67.59 65.83 65.19 67.02 67.06 68.01 69.45 70.44 70.75 70.39 70.48 70.69 71.31 72.00 72.14 74.79 75.06 76.41 74.31 75.77 74.66 74.52 74.82 74.31 74.71 77.31 75.86 76.39 74.96 75.14 74.77 75.57 75.68 76.53 76.18 75.68 74.95 75.70 75.82 76.25 74.31
63.75 65.97 65.88 66.43 68.16 68.05 66.82 68.28 65.80 66.60 66.83 69.57 69.27 70.02 69.66 69.86 69.98 70.09 70.18 70.59 71.26 71.89 72.52 74.30 75.13 75.40 76.80 75.05 74.06 76.05 74.38 74.09 74.72 75.70 77.90 75.96 74.12 74.95 75.60 74.78 75.42 75.90 75.85 75.54 73.06 74.65 76.25 75.30 74.95
65.04 65.47 66.43 66.09 65.79 66.22 67.74 67.34 67.03 65.15 66.94 69.62 70.99 69.95 69.30 69.88 70.21 71.03 71.27 71.42 72.01 71.11 72.47 74.22 75.54 77.08 77.39 75.47 75.17 75.02 74.30 73.76 74.43 74.64 77.40 76.05 74.51 75.86 76.96 76.95 74.38 75.83 74.70 75.28 75.61 76.02 75.94 75.71 75.12
66.93 66.36 65.35 65.53 64.67 64.43 65.29 66.48 66.67 68.03 69.35 69.29 69.70 68.96 69.34 69.62 70.19 70.97 70.83 71.03 71.47 71.66 72.70 74.46 75.44 76.78 76.17 76.07 77.19 77.73 74.72 74.65 74.91 75.17 76.57 78.02 75.82 78.24 75.29 75.58 74.82 75.54 76.55 77.07 76.17 74.56 75.50 74.21 74.58
65.05 63.70 64.18 63.68 63.49 62.95 67.77 64.07 64.91 68.83 70.11 67.80 68.46 68.72 69.25 69.71 70.87 70.71 71.11 71.20 71.52 71.84 73.43 73.90 75.20 76.10 76.25 75.64 75.84 76.30 76.22 74.71 74.90 76.19 77.30 76.92 76.29 77.45 76.98 74.98 74.69 74.65 76.96 77.17 76.47 75.90 76.52 74.77 74.65
61.54 62.88 59.70 63.06 63.71 65.51 66.48 60.16 66.60 69.98 68.61 66.86 67.51 68.34 68.76 69.52 70.50 71.39 71.95 71.64 71.75 71.75 73.31 74.14 74.27 75.21 75.20 75.52 75.81 75.79 74.78 74.87 75.12 76.42 76.80 77.27 77.10 77.64 77.85 75.47 75.86 75.71 76.70 74.73 76.33 74.71 74.62 75.67 74.09
58.88 56.57 57.96 60.22 63.73 64.33 65.10 61.81 67.20 69.73 68.58 66.45 65.88 67.13 67.89 68.55 69.41 71.12 71.99 71.07 71.61 72.19 73.58 73.80 74.71 74.87 74.96 75.97 75.84 76.79 77.79 75.21 75.35 77.21 75.61 77.81 77.37 77.42 77.07 75.88 76.01 78.54 78.50 78.11 74.10 75.49 74.75 73.08 73.83
53.43 55.35 57.72 58.64 61.82 63.79 63.74 60.88 67.08 68.29 66.80 66.38 66.07 66.41 66.87 67.37 68.36 70.80 71.31 71.70 72.98 73.49 73.83 74.31 74.37 75.78 76.00 75.37 76.21 75.91 74.95 75.29 77.92 77.12 76.22 77.52 76.94 76.88 76.79 76.18 76.50 77.66 76.09 73.72 75.54 75.91 72.61 74.43 73.28
56.11 56.06 55.66 59.24 62.75 61.98 61.29 62.29 65.20 68.13 67.24 66.86 64.82 65.01 67.43 66.97 69.63 71.01 71.07 72.33 72.03 73.37 73.06 73.91 74.40 76.30 75.26 74.37 73.50 74.06 73.63 75.60 76.20 77.15 77.68 77.45 76.76 77.19 77.38 75.70 76.17 77.51 76.89 76.68 76.05 74.61 74.60 72.77 74.18
55.67 54.98 56.55 58.83 61.64 61.64 59.28 58.12 64.54 65.95 67.70 68.05 65.80 64.28 67.17 67.45 68.56 70.05 70.37 72.47 71.59 72.98 72.94 73.67 74.44 76.10 75.51 75.20 76.81 75.13 74.38 75.40 75.28 77.00 77.53 77.50 77.24 77.71 77.28 77.74 76.68 77.27 75.28 76.59 75.76 76.81 75.60 72.83 73.61
56.23 55.83 57.00 56.40 57.61 60.50 57.93 56.78 60.94 63.64 66.66 68.13 67.16 68.15 68.39 67.83 67.56 68.89 69.82 71.33 71.72 72.46 72.40 73.24 74.57 76.04 76.48 77.27 75.52 75.93 76.53 78.20 76.34 76.47 75.84 77.00 77.26 77.21 77.61 77.96 78.58 76.73 77.93 74.21 76.20 75.54 76.41 74.16 71.95
53.41 56.70 57.34 56.24 55.62 52.28 58.38 50.79 59.39 62.27 62.96 66.87 65.85 67.62 67.54 68.31 69.01 69.17 69.65 70.93 70.98 72.06 72.03 73.57 74.63 75.88 76.03 76.94 77.04 78.22 74.16 73.77 73.54 75.89 76.21 76.66 77.94 77.30 77.51 77.64 77.52 77.70 76.29 76.93 75.81 74.89 77.53 75.52 71.77
54.40 56.72 56.11 57.21 54.88 55.00 55.12 53.52 54.21 63.07 62.01 65.06 66.48 67.92 69.11 68.95 69.17 68.85 70.03 71.48 70.77 72.32 72.41 73.78 75.35 76.69 77.70 77.38 77.96 75.83 75.28 73.64 74.88 74.88 76.06 78.70 78.04 77.72 77.17 77.95 77.99 77.76 76.75 78.12 77.38 77.35 77.37 73.83 72.85
58.32 56.60 55.88 55.99 54.79 49.33 53.48 52.45 55.82 58.61 59.98 65.08 66.88 66.52 68.73 68.82 70.14 69.18 70.85 71.16 71.01 72.02 72.64 74.02 75.80 76.76 77.17 76.67 76.82 77.33 76.74 75.96 75.32 73.08 75.09 75.21 75.43 76.35 77.68 77.53 77.95 78.11 78.30 77.80 76.63 77.86 77.23 77.33 76.86
57.76 54.90 48.60 47.35 47.66 47.53 53.89 51.98 55.00 58.69 60.61 61.84 65.48 65.82 69.58 68.75 70.37 70.38 68.87 71.38 70.27 71.59 71.91 73.45 75.42 75.98 76.74 76.72 76.75 76.65 76.80 76.85 77.11 76.62 74.64 73.84 76.23 74.49 77.53 77.97 78.15 76.90 77.88 77.22 78.22 78.64 77.89 76.01 75.86
55.50 54.49 48.82 43.52 44.93 47.58 54.05 50.12 53.69 61.20 65.26 66.18 66.50 66.90 69.93 69.51 70.53 70.75 71.35 70.79 70.70 71.88 72.07 73.29 74.66 76.08 76.49 76.59 77.45 78.01 77.91 75.83 75.16 76.32 75.75 75.27 74.52 73.45 79.13 77.58 77.10 77.32 77.58 77.51 77.79 76.63 75.46 78.40 75.93
54.45 52.13 55.48 50.86 51.60 48.74 51.55 53.21 57.18 61.84 62.59 63.39 65.48 67.13 65.96 69.52 68.73 70.54 71.00 72.14 70.74 71.53 73.00 73.59 75.68 76.05 76.63 76.40 77.26 77.59 78.22 77.20 76.55 79.26 77.25 75.92 77.58 73.99 78.05 77.67 77.23 77.49 77.67 77.83 78.73 75.63 77.03 78.17 77.20
53.81 56.56 50.88 51.44 45.66 44.89 49.23 50.38 51.17 57.53 59.37 61.24 60.82 63.16 65.54 65.30 64.98 64.68 67.56 70.84 71.48 71.92 73.04 73.36 74.52 75.68 76.75 76.85 76.78 76.94 77.30 77.79 77.43 77.13 77.48 77.66 76.66 77.27 74.49 77.55 77.63 77.33 77.46 77.58 78.30 78.03 78.20 77.47 76.00
51.31 51.50 53.28 53.24 50.74 47.09 46.17 48.24 57.08 58.27 59.32 58.75 55.14 57.99 59.47 59.80 61.64 63.17 62.51 65.21 67.52 68.45 72.45 72.98 74.31 75.10 76.12 76.62 76.95 76.99 76.96 77.38 77.60 76.72 77.00 77.42 77.13 77.62 77.48 79.47 78.08 77.79 77.26 77.39 78.43 78.82 77.59 76.64 77.45
52.36 51.71 52.71 48.56 48.57 50.34 49.48 46.36 58.51 58.67 57.91 55.99 52.53 53.42 56.41 55.05 53.97 58.60 59.93 61.33 61.02 64.06 66.32 68.76 73.20 74.43 75.36 76.44 77.57 76.82 77.18 77.22 76.85 77.06 77.23 78.34 78.13 77.41 77.73 78.12 77.86 77.77 77.42 78.28 77.98 76.76 76.09 76.47 76.05

GFSSGP_sfc_wetblb_078.txt.gz
Wetbulb
73.53 72.59 72.99 70.81 61.32 61.93 57.52 59.01 63.34 62.17 62.65 65.35 66.59 65.59 64.56 65.84 62.48 59.16 71.81 73.51 73.83 73.86 74.87 76.10 77.73 77.54 76.74 77.00 77.09 77.17 76.98 76.53 76.25 76.82 76.58 76.26 76.46 75.91 76.59 77.14 76.93 77.45 77.44 77.70 77.44 77.68 77.34 77.23 77.31
73.11 72.41 71.91 68.06 59.28 55.28 56.10 61.29 59.20 61.49 64.87 66.75 67.88 67.39 65.50 63.25 68.21 69.46 70.48 73.54 74.24 74.10 74.83 74.58 77.42 78.01 76.76 77.24 77.36 77.27 76.92 76.44 76.55 76.50 76.49 76.80 76.76 76.63 76.54 76.81 77.07 77.27 77.27 77.27 77.29 77.37 77.36 77.06 76.98
74.48 73.32 67.92 64.22 60.67 55.64 56.37 60.82 61.13 63.61 66.68 66.17 66.60 68.13 66.02 64.40 69.16 70.20 73.01 73.97 73.59 72.99 73.53 74.98 77.80 77.70 76.79 77.30 76.60 76.85 76.58 76.50 76.53 76.79 76.48 76.31 77.28 76.87 76.41 76.58 76.91 76.91 77.17 77.06 76.81 77.49 77.00 76.93 76.74
71.90 71.06 68.57 61.41 59.06 61.03 61.15 60.79 61.96 64.28 66.96 67.81 67.31 63.76 67.87 70.60 69.92 71.93 73.28 72.47 72.38 73.38 73.91 76.75 77.55 77.47 77.13 77.12 77.10 77.02 76.92 76.96 76.87 76.66 76.56 76.23 75.98 76.74 76.61 76.66 76.80 76.93 76.98 76.79 76.74 76.87 77.27 76.74 76.44
71.19 69.39 61.56 60.41 60.29 62.75 63.15 61.98 61.56 64.09 65.69 65.89 66.55 63.39 64.92 69.66 72.14 72.99 72.70 73.47 73.62 73.16 73.96 75.64 77.98 77.88 77.81 77.04 76.79 76.93 76.51 76.79 76.76 76.97 76.60 76.60 76.32 76.50 76.77 76.68 76.87 77.05 76.86 76.58 76.64 76.87 76.82 76.38 75.88
66.30 67.50 59.66 57.62 59.82 62.34 62.79 64.01 64.00 64.57 65.20 65.96 64.99 64.82 65.49 71.23 71.10 72.25 73.15 73.53 74.87 73.28 73.69 74.99 77.60 77.38 77.13 76.66 76.99 76.91 76.76 76.56 76.36 76.97 76.32 76.32 76.26 76.96 76.54 76.69 76.78 76.94 77.08 76.89 76.80 76.84 76.67 76.31 75.57
65.60 64.54 59.48 60.20 60.09 60.73 61.78 65.38 64.15 66.13 65.72 65.05 67.89 63.18 66.70 69.10 71.47 72.79 73.13 73.94 73.02 74.77 74.95 75.46 75.57 76.77 77.02 76.93 76.92 76.81 77.02 76.90 76.40 76.54 76.35 76.95 76.99 76.83 76.72 76.61 76.94 76.78 76.72 76.44 76.44 76.90 76.77 76.41 75.75
67.75 65.18 60.23 61.02 60.20 59.36 63.67 64.94 66.17 66.27 65.66 70.45 69.92 63.38 63.85 69.40 71.64 72.63 72.56 71.86 73.90 73.99 74.32 74.93 75.30 74.86 75.00 75.90 76.81 76.87 76.82 76.71 76.52 76.46 76.27 77.26 77.25 76.80 76.03 76.91 77.46 76.66 76.61 76.67 76.74 76.78 76.52 75.94 75.37
70.90 62.85 59.62 60.29 61.39 61.97 64.91 64.23 67.72 69.62 67.33 67.88 69.60 67.67 69.15 70.93 71.39 71.34 71.25 72.41 70.91 73.33 73.64 73.74 74.59 74.92 76.51 76.22 76.30 76.73 76.58 76.82 76.52 76.16 75.39 76.32 75.41 74.82 75.24 76.70 77.50 76.89 76.78 76.75 76.77 76.45 76.20 75.87 75.61
65.56 61.66 61.31 65.09 65.05 63.41 66.08 65.44 66.92 66.84 65.64 66.24 67.02 68.84 69.81 70.42 70.09 69.60 69.40 70.03 70.23 71.12 72.16 73.43 75.02 75.08 75.27 73.69 76.00 75.52 75.36 75.22 75.82 75.94 74.25 74.78 76.15 75.21 75.55 76.58 77.39 76.64 76.64 77.00 77.04 76.92 76.27 75.69 73.47
63.98 60.96 64.71 66.40 67.51 67.46 66.86 66.60 68.64 64.83 63.38 66.39 64.97 67.13 68.74 69.00 69.50 68.88 69.37 69.95 68.73 71.49 73.58 74.24 76.05 75.63 75.16 75.63 76.14 75.04 75.14 74.64 76.22 77.60 76.16 75.49 74.64 74.65 74.76 75.58 75.07 75.47 76.08 73.82 76.13 76.43 75.55 74.41 74.75
63.77 66.42 66.30 67.23 68.27 66.99 65.41 67.75 66.13 66.16 66.51 68.46 68.34 68.63 68.80 68.27 68.53 68.27 68.16 69.34 69.68 72.20 73.13 73.87 75.45 73.32 74.11 75.89 74.63 73.07 74.88 74.54 74.52 75.25 77.55 77.07 76.30 73.64 72.38 75.79 74.86 76.10 72.68 71.79 72.71 75.50 75.88 75.49 74.04
62.67 65.11 66.55 66.67 68.83 67.92 67.54 66.51 65.35 64.93 67.90 69.61 69.23 68.70 68.34 68.53 68.85 69.15 69.30 69.62 70.83 71.70 72.71 74.54 75.31 76.88 77.85 73.26 76.44 73.28 73.64 74.34 74.95 75.89 77.97 77.13 73.28 75.87 74.88 72.77 76.30 71.96 72.82 72.72 74.20 74.51 75.93 72.93 73.29
66.46 64.84 65.31 65.63 64.82 66.48 66.18 65.77 66.75 65.19 68.53 69.19 68.28 67.82 68.57 68.49 68.89 69.75 69.70 69.52 70.33 70.87 72.14 75.27 75.16 75.80 77.96 75.09 72.28 74.42 72.19 74.69 75.00 75.97 77.65 76.50 74.47 77.92 76.12 72.91 76.53 75.78 72.45 75.86 73.33 75.65 73.23 73.40 73.95
65.29 64.02 64.69 64.27 64.16 64.46 67.67 64.12 64.41 66.71 68.48 68.67 67.41 67.82 68.51 68.76 69.48 69.68 70.23 70.51 70.69 71.06 74.02 74.57 75.24 76.06 76.97 78.16 76.18 72.73 76.89 75.49 72.79 76.97 75.17 74.49 76.30 75.68 73.83 76.08 72.70 74.53 78.40 77.86 75.02 75.89 77.19 73.60 73.87
61.06 62.45 59.13 63.06 62.99 64.87 66.19 59.72 65.79 68.71 67.89 67.20 67.26 67.47 68.02 68.37 68.72 70.52 70.51 70.74 71.58 71.66 73.91 74.36 74.24 74.29 76.19 77.48 78.88 78.22 76.14 74.75 75.60 76.94 76.52 74.24 76.04 76.08 71.48 75.82 73.79 75.09 77.50 76.36 71.14 75.46 70.40 74.22 70.84
58.32 55.86 57.45 58.60 62.98 64.23 64.57 60.68 65.49 68.16 67.20 66.41 67.06 66.99 67.34 68.18 68.03 71.04 70.66 70.53 70.90 72.69 74.47 74.15 74.20 74.46 75.54 77.57 77.50 76.20 75.19 74.87 76.51 74.02 75.34 77.98 78.23 78.19 75.83 74.81 73.80 75.96 76.01 75.76 71.78 73.90 75.03 73.95 73.26
53.44 54.86 57.63 57.59 61.33 62.93 62.67 58.11 61.28 66.86 66.49 65.59 66.29 66.45 67.06 67.34 67.20 69.92 69.85 70.83 70.95 73.39 74.64 75.02 75.36 75.72 76.99 76.12 78.39 76.07 75.44 72.24 73.61 74.38 73.93 77.43 78.34 78.71 78.57 74.03 78.15 78.42 77.08 74.26 74.42 75.77 73.47 70.41 70.06
56.32 55.52 55.17 60.33 61.89 61.03 62.62 60.64 63.60 66.24 66.75 65.34 65.51 65.83 65.92 66.37 69.43 69.69 69.42 70.71 69.92 72.87 73.42 74.89 76.35 76.49 75.85 75.01 74.39 72.53 74.14 75.40 75.83 78.19 76.65 75.53 74.14 78.98 79.40 77.43 78.41 76.01 73.47 70.87 78.14 76.89 73.96 74.66 72.85
54.11 53.47 54.59 58.58 61.34 62.72 59.71 58.64 62.47 65.09 65.56 65.91 66.20 65.55 65.58 66.93 67.34 69.24 69.90 71.27 71.47 72.06 73.17 74.85 76.24 76.75 76.61 75.31 76.72 73.29 76.75 76.71 74.51 75.84 77.72 76.21 76.67 79.07 78.83 76.12 77.31 75.59 75.90 77.35 77.55 76.10 73.23 74.75 72.53
52.69 52.36 55.07 56.73 57.51 61.30 59.81 58.38 60.36 65.35 66.45 67.44 67.49 66.99 67.15 67.13 66.90 68.52 68.76 70.70 71.29 70.86 72.88 74.15 76.08 76.42 76.58 77.92 77.48 75.21 71.68 72.64 70.82 72.15 76.15 77.36 77.69 78.28 78.20 77.87 79.10 72.82 77.77 76.58 77.14 75.60 71.56 74.36 72.79
50.96 55.94 56.80 57.49 56.03 52.02 59.24 51.27 59.43 62.84 63.35 65.41 65.23 65.73 66.73 68.22 67.41 67.69 70.03 70.64 71.40 70.24 73.48 74.53 75.85 76.27 75.86 78.00 76.83 78.00 75.40 72.55 75.48 75.66 76.35 77.05 78.02 77.45 76.44 78.98 79.10 77.03 73.45 71.61 77.27 76.48 74.62 74.51 73.00
53.85 57.08 56.21 56.82 55.50 54.23 54.18 51.95 56.54 59.98 61.43 64.46 65.34 65.90 67.44 68.59 68.48 68.28 69.07 71.02 72.08 71.40 72.47 74.07 75.05 76.64 76.01 77.08 78.45 76.82 77.14 75.07 74.04 74.69 73.81 76.75 78.49 77.58 76.43 78.03 79.40 76.68 73.44 72.27 76.37 77.78 77.19 76.87 73.21
57.97 56.37 54.90 55.53 54.62 48.56 52.75 52.48 55.98 57.42 56.49 61.70 66.83 67.02 67.58 68.77 68.92 69.84 69.98 71.53 71.21 71.43 71.26 73.54 74.55 76.30 77.41 76.39 77.41 77.77 76.34 71.37 69.81 74.39 72.33 75.95 76.30 77.50 77.13 77.12 79.16 77.74 72.81 75.51 73.56 78.15 77.86 77.82 77.77
56.04 54.14 47.52 46.37 47.46 47.06 53.37 52.03 55.94 59.15 60.38 59.87 65.08 67.69 67.47 69.48 69.05 69.22 68.85 70.68 70.86 69.22 70.95 73.79 75.02 75.56 76.16 75.93 76.46 77.04 76.77 77.39 73.22 73.60 71.91 75.60 73.40 75.59 76.95 79.27 79.37 77.04 78.45 76.33 78.34 79.25 78.31 77.19 76.59
53.93 53.56 48.56 42.59 43.91 46.87 52.69 49.44 54.56 61.98 63.26 63.88 66.40 67.60 69.55 69.55 69.62 68.96 70.35 71.42 70.09 70.18 70.83 73.81 74.94 75.35 76.25 76.20 77.03 77.28 78.21 76.40 75.22 72.75 75.48 73.84 71.25 74.40 78.44 78.20 78.24 78.87 78.05 78.43 78.58 77.84 77.18 77.61 76.57
53.67 51.77 55.81 50.43 50.97 47.76 50.71 55.07 60.16 62.46 63.21 65.45 65.35 64.48 64.79 65.48 65.14 67.14 70.96 71.85 69.97 71.41 70.59 73.79 75.16 76.10 76.54 76.50 77.34 77.31 77.39 76.89 77.47 77.55 78.85 74.96 73.03 75.89 76.27 77.32 77.57 78.14 76.40 78.53 78.08 75.50 76.42 77.39 75.64
53.70 56.49 50.19 51.18 44.14 43.30 48.52 51.18 52.87 58.11 59.48 61.83 60.70 59.81 59.83 60.90 62.90 64.00 66.10 68.44 69.47 72.15 71.81 74.30 75.88 75.91 76.58 76.59 77.08 77.31 77.41 77.98 78.04 78.89 78.33 79.58 72.89 72.41 72.24 72.17 75.30 77.60 76.28 77.10 77.87 77.36 74.26 75.51 74.67
52.99 52.19 52.23 52.17 50.93 46.45 44.35 47.21 59.61 58.93 60.21 58.07 57.85 57.02 55.03 56.86 58.08 61.53 61.63 63.85 67.01 69.25 70.53 69.36 75.17 76.06 76.45 76.81 76.85 76.83 77.02 77.69 78.09 77.84 79.32 78.82 79.44 72.81 70.82 67.27 68.37 74.40 77.49 78.42 78.02 76.47 75.11 75.83 76.17
53.92 52.53 52.49 48.88 48.46 50.63 46.37 46.13 59.82 58.74 57.90 56.27 55.73 56.31 54.04 52.86 55.22 57.80 58.28 58.69 60.15 63.86 66.31 65.95 70.22 70.02 76.06 76.69 77.25 76.98 77.57 77.55 77.55 77.39 78.00 79.41 78.64 78.88 74.26 70.13 70.25 74.86 76.70 76.85 77.43 75.94 76.39 75.27 75.76

GFSSGP_sfc_wetblb_081.txt.gz
Wetbulb
73.20 72.63 71.39 68.14 59.21 59.54 54.82 56.61 62.47 60.81 61.44 64.78 66.58 65.01 63.42 64.53 61.77 57.49 70.37 72.08 72.66 72.83 74.69 75.78 77.92 76.96 76.64 77.11 77.51 77.03 76.75 76.58 76.74 76.89 76.59 76.70 76.01 76.80 77.18 77.23 77.26 77.37 77.68 77.61 77.62 77.31 77.32 76.97 76.63
72.49 70.47 68.35 65.13 56.23 53.73 54.38 60.91 59.17 61.86 64.78 67.05 66.24 65.02 63.65 61.86 67.57 67.83 68.74 72.15 72.98 73.64 74.10 75.52 77.42 77.67 77.53 77.60 77.52 77.08 76.56 76.70 76.63 76.83 77.03 77.08 76.49 77.27 77.03 77.11 77.16 76.99 77.25 77.26 77.65 77.48 76.88 76.58 76.83
72.80 73.25 64.83 61.43 57.93 52.67 54.31 60.92 61.77 64.28 67.50 66.47 64.61 66.47 65.41 63.84 68.45 68.79 71.53 72.76 73.27 72.74 73.84 75.60 78.14 77.76 77.36 76.75 77.07 76.51 76.52 76.64 76.78 76.49 76.39 76.80 76.74 76.46 77.07 77.04 76.99 77.32 77.24 76.92 77.40 77.12 76.75 76.75 76.69
70.37 69.25 66.37 60.10 57.88 60.55 60.51 61.65 62.60 64.22 66.41 67.11 65.21 62.47 67.57 70.24 69.09 70.67 72.62 72.75 70.94 71.81 74.07 77.30 78.02 77.00 77.19 77.27 76.92 76.89 76.88 77.05 76.54 76.60 76.32 76.15 76.74 76.49 77.02 76.93 77.17 77.29 76.91 77.12 77.34 77.11 76.69 76.53 76.24
70.60 67.31 59.71 58.88 58.77 60.64 61.29 61.53 62.32 63.64 64.33 65.21 65.10 62.66 64.44 69.29 71.61 72.04 70.79 71.82 70.94 72.34 73.93 75.78 78.25 77.55 77.25 77.12 76.84 76.90 77.00 76.89 76.60 76.69 76.62 76.49 76.85 76.66 77.00 77.23 77.13 77.05 76.94 77.15 77.29 76.27 76.44 76.43 76.51
64.18 65.18 58.35 56.77 58.23 59.74 60.86 62.35 62.49 64.37 65.25 65.04 63.82 63.05 63.63 69.87 69.94 70.62 71.80 70.81 72.35 72.35 74.09 74.91 77.32 77.81 77.07 77.17 77.17 77.03 76.72 76.21 76.63 76.45 76.30 76.32 76.62 76.78 76.80 76.86 77.16 77.00 76.89 76.97 77.02 76.30 76.07 76.45 76.26
63.80 61.49 58.84 59.42 58.69 59.43 60.64 64.97 63.41 64.84 63.83 63.45 66.31 61.38 64.98 67.52 70.61 72.12 71.60 70.86 71.45 72.80 73.39 74.73 75.05 75.89 77.06 77.20 76.98 76.81 76.61 76.55 76.59 76.40 76.55 76.54 76.66 76.82 76.86 77.11 77.11 76.89 77.33 77.24 76.76 76.45 76.09 76.26 76.30
67.07 62.90 59.99 60.49 58.29 57.54 62.80 64.22 66.64 66.17 64.45 67.88 67.70 61.06 61.23 67.64 71.29 72.32 72.42 71.26 71.97 73.02 73.46 73.07 73.95 73.67 73.72 74.37 76.94 77.14 76.72 76.70 76.54 76.43 76.33 76.75 76.50 76.55 76.58 77.69 77.76 76.70 76.56 76.81 76.71 76.35 75.85 75.96 75.99
70.01 59.54 58.10 59.17 58.71 59.82 63.99 63.08 66.85 68.58 66.82 66.84 67.18 66.12 67.41 69.92 71.04 69.92 70.08 70.92 71.62 72.33 72.74 72.58 72.67 72.98 73.23 73.62 75.04 76.26 76.73 76.42 76.46 75.81 75.64 75.78 72.58 72.68 74.36 76.92 77.72 76.86 76.70 76.42 75.91 75.28 74.95 74.84 75.00
62.75 58.39 59.41 63.49 63.31 61.50 63.73 64.70 66.00 63.59 65.39 65.86 65.45 67.76 68.91 69.98 69.44 68.39 67.64 67.08 69.11 70.31 71.66 72.37 72.67 73.29 73.01 74.55 73.45 73.65 74.18 73.46 72.80 70.90 71.80 71.96 71.42 71.79 74.18 75.88 77.22 77.00 76.95 76.74 76.19 75.58 75.00 75.17 71.53
61.60 59.16 64.14 63.88 64.79 65.53 64.78 64.69 66.84 64.65 62.44 64.39 63.40 65.44 67.26 68.10 68.88 68.43 66.65 66.14 67.83 69.89 72.35 71.95 72.04 72.86 71.17 72.58 72.67 72.47 72.78 72.47 72.60 70.53 71.22 71.62 73.12 72.49 72.92 73.11 73.87 73.15 75.24 72.89 74.85 74.18 73.79 73.08 72.23
61.38 64.22 64.77 65.37 67.10 66.25 65.31 67.19 64.44 65.67 65.88 67.36 66.68 66.86 66.88 67.18 68.18 68.06 67.96 67.47 69.33 70.36 71.84 72.98 72.00 71.73 71.67 73.64 73.64 71.81 71.89 72.19 72.38 72.03 73.65 72.98 71.97 71.33 71.10 72.06 72.64 73.00 71.42 70.27 71.27 72.15 73.92 73.78 73.14
61.45 62.70 66.12 67.66 66.97 67.01 67.72 65.46 64.63 64.89 67.02 68.27 67.73 67.13 66.01 65.54 67.49 68.01 67.32 69.83 69.97 69.61 71.87 71.07 69.81 70.52 72.24 72.14 72.02 72.60 71.21 70.56 72.01 71.67 73.59 72.52 72.10 70.36 71.24 70.30 71.19 72.34 70.19 69.43 70.52 71.12 72.51 70.95 70.17
62.83 62.65 62.98 66.19 65.53 66.12 64.43 64.46 64.49 65.50 67.36 67.09 66.79 65.79 66.07 65.94 66.60 66.28 67.02 69.62 70.02 71.15 71.17 71.56 72.19 72.67 71.95 70.44 70.28 70.27 71.44 71.06 72.17 73.23 72.19 72.27 72.46 71.91 67.71 69.79 72.12 71.10 71.45 70.54 71.32 71.42 70.61 70.07 69.38
64.73 59.16 61.99 64.17 65.83 64.61 66.08 61.96 63.07 65.47 67.72 65.98 66.01 65.94 66.44 67.07 66.61 66.86 67.26 68.87 70.72 71.43 72.32 71.78 71.81 72.73 72.41 71.12 69.09 70.67 71.63 72.39 72.27 71.72 68.97 71.37 71.35 71.69 71.75 71.30 71.54 71.40 71.17 70.51 70.80 71.41 72.30 69.98 70.77
60.61 60.14 55.12 61.47 63.43 66.17 63.88 57.84 62.57 64.87 65.90 65.20 65.49 65.90 66.01 66.86 66.26 67.81 68.09 67.44 71.04 71.65 71.01 71.95 73.19 72.61 71.32 71.91 70.65 72.51 71.68 72.25 72.90 73.61 71.62 72.23 71.47 69.30 68.71 72.73 70.19 71.89 72.70 69.38 69.46 71.29 68.71 69.38 67.97
52.46 49.44 54.81 58.29 63.89 64.32 62.49 58.81 64.05 66.18 65.77 64.17 64.83 65.41 65.58 66.15 66.53 67.47 68.23 68.03 69.47 71.11 71.09 70.34 70.20 71.21 70.75 71.54 72.93 71.09 72.02 73.06 71.95 72.47 72.27 73.77 74.19 72.53 71.49 73.43 69.82 73.01 73.57 71.86 70.04 69.97 70.17 69.18 69.01
47.68 49.73 52.33 54.98 59.65 63.27 57.62 56.65 62.52 63.92 64.39 64.49 64.58 65.12 64.68 65.94 65.71 66.88 68.12 68.55 68.79 70.07 69.06 71.78 71.51 71.63 70.65 71.36 71.20 72.14 72.26 70.86 71.73 71.89 70.77 72.87 74.07 74.15 72.36 71.89 72.60 72.80 71.70 69.69 69.21 69.58 70.70 68.63 68.95
52.46 52.28 52.63 58.47 61.11 58.53 56.33 55.67 58.79 62.63 63.06 64.26 64.29 64.34 64.36 64.69 66.99 68.26 67.70 69.01 68.90 70.44 69.15 71.03 71.36 72.11 70.33 70.45 70.94 70.26 69.16 69.72 71.42 72.14 71.59 73.07 71.15 74.36 73.52 72.10 71.17 71.26 70.70 69.58 69.33 71.48 68.59 71.28 68.02
51.16 48.67 51.07 57.92 62.12 59.42 56.75 55.25 57.06 58.82 61.83 64.27 63.29 63.70 64.63 64.77 65.65 67.50 66.56 68.27 68.98 69.34 69.36 71.17 71.72 71.56 70.26 70.11 71.52 70.66 70.10 71.97 72.28 72.93 72.72 73.62 72.39 74.19 73.91 71.57 71.06 71.63 71.43 72.08 71.44 70.40 69.89 69.85 68.81
49.31 46.62 48.82 54.22 57.92 60.44 58.90 56.88 56.68 60.05 64.78 64.41 64.86 66.11 65.56 65.32 65.39 65.92 66.74 66.83 69.09 69.04 69.94 71.10 71.59 71.94 71.54 71.02 72.17 71.25 71.28 70.58 68.43 69.76 71.54 73.97 74.10 74.41 74.03 71.72 72.77 70.85 71.55 71.07 70.49 69.92 68.52 69.28 66.56
43.61 51.33 52.20 56.31 53.34 49.56 58.41 46.91 55.57 61.09 61.35 62.73 63.55 64.15 64.53 64.97 66.34 66.59 66.87 67.84 68.60 69.20 70.99 71.29 72.56 72.43 71.46 72.90 71.84 70.73 69.24 69.17 69.70 69.63 71.39 74.05 74.68 73.70 74.28 73.89 72.82 71.09 69.88 69.53 72.32 73.42 71.14 70.21 67.14
48.30 52.30 53.18 55.46 51.11 50.72 53.35 49.88 53.52 60.22 58.99 60.72 63.27 63.98 65.18 65.99 66.64 66.41 67.60 68.82 69.24 70.24 71.17 71.48 73.00 72.08 69.94 72.11 72.21 70.84 69.44 71.77 70.31 71.52 72.99 72.68 73.24 74.26 74.46 73.42 73.55 71.63 71.07 71.00 70.55 71.47 71.59 71.64 70.35
53.34 51.34 52.50 53.27 51.34 45.44 48.13 49.08 50.50 56.79 58.85 61.75 61.90 62.39 65.49 66.71 66.75 66.28 68.29 69.10 68.91 69.98 70.85 71.20 72.64 71.95 71.43 71.54 72.70 71.48 69.32 66.10 66.63 69.03 69.58 71.84 72.51 74.04 74.43 74.59 73.19 72.74 71.18 71.42 70.61 71.29 71.23 70.76 72.07
49.55 45.73 40.12 39.21 40.43 43.52 50.08 48.86 51.16 58.59 61.86 61.32 61.06 61.31 62.90 67.00 66.70 66.43 67.50 68.79 69.14 68.68 70.05 70.79 70.85 72.24 72.65 71.64 72.57 72.13 70.13 67.76 65.83 69.50 70.31 70.46 71.53 72.24 71.81 73.18 73.08 73.27 73.25 71.93 71.63 72.49 71.40 71.72 69.92
47.23 45.46 40.95 35.72 37.43 41.89 47.08 47.20 50.96 58.79 60.40 61.05 60.84 63.42 64.05 65.04 66.63 67.37 67.60 68.70 69.11 68.87 69.68 70.56 70.31 71.44 72.30 71.41 72.12 72.29 72.12 71.01 70.42 70.05 70.23 71.38 70.05 71.95 72.95 74.01 73.74 73.32 72.90 72.85 72.67 71.57 72.38 72.13 70.58
46.75 45.18 49.45 43.78 42.77 39.75 46.55 52.11 56.96 57.30 58.23 60.39 59.81 62.03 62.40 64.89 65.65 67.14 67.50 66.79 69.09 68.13 68.93 70.37 70.85 71.64 72.65 72.23 72.97 72.69 72.25 72.21 70.67 68.92 69.98 72.17 70.46 73.15 72.57 72.74 73.55 73.54 73.52 73.15 73.10 71.47 71.47 71.69 71.51
46.90 51.08 43.78 43.27 37.34 38.00 47.80 48.94 50.59 55.55 56.69 54.97 53.60 54.87 57.31 59.70 64.08 64.71 64.63 64.93 67.87 69.20 69.40 71.65 72.36 71.97 72.89 73.18 74.00 73.81 73.76 73.27 72.99 72.70 72.57 71.59 71.76 71.69 70.64 69.82 70.43 72.67 73.22 74.67 72.90 72.04 71.64 71.21 71.37
47.71 45.66 46.76 44.70 43.20 38.43 41.00 44.40 55.23 55.37 54.07 51.33 51.18 51.74 54.40 56.05 57.66 60.66 62.58 63.38 64.29 66.65 68.33 68.96 68.80 70.01 71.43 73.27 73.12 73.16 73.63 73.91 73.41 73.27 73.47 72.16 71.32 69.49 69.34 69.13 68.16 70.01 72.55 73.17 72.66 72.15 72.10 71.37 70.83
47.61 47.67 48.04 40.57 39.70 44.38 45.49 44.96 57.02 55.35 54.33 52.47 51.46 51.51 52.41 55.04 56.08 57.28 57.91 59.35 61.10 64.07 65.32 66.08 67.07 67.27 67.68 68.71 71.15 73.26 73.88 73.97 73.59 73.40 73.00 73.55 71.94 71.45 69.71 69.35 67.62 68.64 71.62 73.07 72.86 71.97 72.23 71.92 71.28

GFSSGP_sfc_wetblb_084.txt.gz
Wetbulb
73.26 72.62 71.32 67.06 58.73 57.35 54.56 55.66 61.57 60.35 61.41 64.47 60.77 61.76 59.80 62.10 60.26 55.58 68.61 71.34 72.02 72.85 74.87 75.80 77.50 76.48 76.76 77.22 76.91 76.59 77.12 76.72 76.60 76.79 76.12 76.60 76.74 77.05 77.39 77.28 77.34 77.29 77.61 77.43 77.02 76.89 76.70 76.37 76.15
71.95 70.89 68.06 63.36 55.82 52.70 53.57 60.25 58.91 61.89 64.46 65.78 66.05 65.08 63.00 61.41 66.90 67.04 68.15 71.79 72.67 73.57 74.03 75.22 76.97 77.50 77.50 77.24 77.03 76.79 76.84 76.68 76.92 77.05 76.92 76.54 76.96 77.01 77.16 77.15 77.10 77.22 77.67 77.29 77.00 76.89 76.81 76.09 75.84
72.64 71.10 62.88 60.40 58.01 51.68 52.43 60.12 61.17 63.67 66.51 64.76 64.08 66.46 64.99 63.52 67.68 68.08 70.83 72.39 73.21 73.39 74.74 74.65 77.38 78.01 77.04 77.15 76.70 76.54 76.67 76.64 76.46 76.58 76.79 76.62 76.73 76.92 77.02 76.91 77.16 77.08 77.23 77.84 77.13 76.92 76.65 76.18 75.87
68.87 68.61 66.08 59.37 56.51 57.70 57.94 61.49 62.81 63.35 65.00 65.80 65.29 62.05 66.81 69.79 68.32 70.21 72.16 72.92 72.31 73.76 74.31 76.71 77.13 76.88 77.01 76.72 76.56 76.66 76.77 76.54 76.57 76.34 76.47 76.46 76.81 77.02 77.01 77.21 77.07 77.13 77.21 77.24 76.87 76.72 76.43 76.42 76.29
69.09 66.94 59.64 58.68 58.33 59.59 61.35 62.04 62.83 63.25 64.57 64.87 65.14 62.16 63.66 68.59 71.24 71.55 71.82 71.82 72.08 73.11 74.85 75.37 77.85 77.13 77.24 76.84 76.85 76.92 76.56 76.41 76.44 76.55 76.49 76.65 76.88 76.96 77.10 77.08 76.86 77.08 77.13 77.11 76.51 76.59 76.57 76.01 77.53
64.37 64.90 57.41 56.40 57.37 59.59 61.12 63.37 63.01 64.30 64.13 64.52 63.34 62.69 63.04 69.82 69.86 70.20 70.87 70.81 72.53 73.29 74.85 75.15 76.93 77.05 76.95 76.76 77.11 76.62 76.46 76.51 76.33 76.15 76.37 76.78 76.81 76.87 77.00 76.98 76.95 76.98 77.11 77.03 76.31 76.24 76.36 76.06 76.69
63.42 61.60 58.68 58.78 57.10 57.86 60.69 64.73 63.46 62.86 63.45 62.96 65.74 61.22 64.66 67.59 69.07 70.14 70.94 71.29 72.42 74.00 73.70 74.02 74.41 75.80 77.21 76.89 76.71 76.44 76.51 76.26 76.04 76.14 76.21 76.65 76.66 76.75 76.67 77.11 77.17 77.15 77.17 76.76 76.26 76.08 75.88 76.40 76.88
66.65 63.15 59.76 59.76 57.80 57.37 62.26 64.47 66.76 64.19 63.34 67.45 67.24 61.11 61.96 66.25 69.60 70.35 70.51 71.34 71.87 72.89 74.02 73.55 73.10 73.64 73.77 74.28 76.82 76.75 76.67 76.41 76.21 75.89 76.44 76.58 76.53 76.56 76.78 77.62 77.46 77.04 76.84 76.42 76.31 75.83 75.94 76.02 76.35
69.02 60.12 56.51 57.86 57.65 58.81 63.94 63.22 66.87 68.71 64.90 65.65 66.70 65.61 67.29 69.30 69.61 68.32 68.68 69.52 70.67 72.00 72.14 72.84 72.48 72.42 72.78 73.06 74.87 76.30 76.50 76.39 76.11 75.81 76.66 75.07 71.93 73.06 74.16 76.76 76.84 76.35 76.23 76.06 75.86 75.56 75.50 75.34 75.10
63.93 57.22 58.47 63.11 62.45 61.25 63.70 64.26 65.47 65.34 64.10 64.58 64.75 67.66 69.71 69.85 68.65 66.88 68.06 68.47 69.40 70.21 70.77 71.71 71.53 71.63 72.24 74.49 73.04 72.98 73.58 72.48 72.45 71.96 72.36 71.51 70.99 71.58 74.22 75.81 76.76 76.43 75.84 75.71 75.59 75.40 75.45 74.80 70.83
61.86 59.31 63.22 63.51 63.74 64.50 63.84 64.11 65.67 63.20 61.85 63.89 62.58 65.22 67.87 68.12 67.99 68.19 68.82 69.32 69.52 70.67 70.97 71.19 71.44 71.76 71.63 72.37 72.29 72.31 71.76 71.65 69.37 70.09 70.49 70.41 72.33 72.51 72.71 72.53 72.99 72.45 74.42 72.73 73.66 72.32 72.50 72.54 72.26
58.89 62.66 63.94 64.23 65.30 64.53 64.00 65.41 62.61 65.41 65.52 66.20 66.59 67.44 67.37 66.73 67.05 67.89 67.75 68.50 69.53 69.80 70.85 71.44 71.21 71.05 69.96 71.68 71.63 71.47 71.41 71.07 70.38 69.67 70.85 70.61 70.63 70.94 70.39 71.46 71.81 71.82 70.72 70.45 70.70 70.81 72.18 72.83 72.73
61.85 63.08 65.44 66.36 66.15 66.24 66.84 64.75 64.14 64.73 67.64 67.66 67.31 67.66 66.79 67.17 67.70 67.12 66.90 68.44 70.05 69.86 70.69 70.90 70.57 70.13 71.34 71.85 71.21 70.57 70.79 70.77 70.61 71.73 72.48 72.02 69.04 68.71 70.31 70.41 71.08 71.90 68.84 68.00 69.71 70.15 71.25 69.33 70.32
64.29 62.97 64.82 65.78 66.05 66.68 63.92 64.11 64.69 65.06 67.08 66.35 65.84 65.73 67.14 68.01 67.88 66.31 67.45 68.70 69.43 70.70 70.59 69.19 69.58 70.30 71.28 70.99 70.07 69.82 70.26 69.47 70.78 71.43 71.56 71.32 70.62 69.79 68.80 69.05 70.83 70.78 69.76 68.92 69.47 70.32 69.68 68.20 68.60
63.77 59.67 62.23 63.96 64.95 64.49 65.54 61.56 62.09 65.55 66.67 64.40 64.99 64.60 66.01 67.20 68.31 66.38 68.69 68.83 70.22 70.63 70.17 70.37 71.14 70.53 69.20 68.86 69.47 69.95 69.84 71.07 71.21 70.94 70.21 71.90 71.72 70.44 68.44 68.93 69.67 69.40 69.26 70.21 69.90 70.39 69.81 68.58 69.52
60.64 58.72 54.57 62.04 64.43 64.60 62.64 56.51 63.85 65.57 65.38 63.79 64.56 64.60 64.97 64.88 66.59 68.88 69.38 69.60 70.64 70.38 70.04 71.75 72.47 70.50 69.21 67.82 69.76 70.54 70.84 71.64 71.79 71.19 70.58 71.06 71.67 70.88 69.88 70.33 69.79 70.98 72.12 69.10 69.55 68.84 68.09 68.63 67.21
55.24 51.52 54.74 58.91 64.75 63.77 60.83 57.44 63.73 65.47 65.65 63.11 64.08 63.76 65.25 64.88 65.53 68.71 70.20 70.43 70.51 70.50 70.09 69.63 70.94 69.97 70.45 70.06 70.58 70.28 71.78 71.37 71.51 71.85 71.83 72.29 72.23 69.08 69.66 71.18 69.42 72.09 71.38 68.54 69.07 68.64 68.88 69.00 67.76
43.41 46.73 52.81 56.64 61.93 62.92 59.48 58.61 61.92 64.57 65.11 63.46 63.94 63.52 64.39 64.00 64.47 67.80 69.85 70.77 70.70 70.35 70.24 69.80 69.96 69.41 69.88 70.75 69.76 70.39 70.07 70.70 71.29 71.15 71.14 71.46 72.97 73.41 70.95 70.07 70.96 72.92 70.60 69.21 68.32 69.33 69.45 67.40 67.16
48.24 47.47 49.96 57.77 61.60 58.43 58.45 57.22 59.66 63.24 64.27 63.70 63.65 63.55 63.70 64.78 65.51 66.48 69.37 70.61 70.13 69.50 69.36 68.58 69.15 68.60 69.10 69.72 69.48 69.35 68.29 68.10 70.69 71.51 70.95 71.23 71.33 73.06 70.45 71.49 70.95 70.45 69.52 68.66 68.88 68.21 67.50 68.76 67.18
48.69 46.28 48.18 59.55 61.07 57.90 57.43 57.75 60.11 61.67 63.17 64.04 63.61 63.16 63.50 64.19 64.60 65.17 66.65 68.40 68.57 67.59 69.45 69.18 69.86 68.67 68.33 68.95 70.10 69.74 69.44 70.48 70.80 71.68 71.39 71.96 71.52 72.65 72.91 71.68 70.44 69.99 70.02 69.97 70.31 68.89 68.65 68.43 67.74
46.12 43.70 46.36 53.68 58.58 58.61 56.97 54.96 55.91 59.67 61.25 64.30 64.39 64.60 64.54 64.84 64.62 64.30 65.76 66.77 67.83 67.29 69.76 69.39 70.45 68.68 68.68 69.45 70.31 70.12 70.29 68.72 68.76 69.79 70.73 72.89 72.66 73.23 71.55 71.69 72.07 70.91 70.87 70.04 69.16 68.06 67.22 67.42 66.03
41.26 49.19 50.54 55.62 51.60 47.22 55.55 43.38 55.77 57.21 58.19 61.85 62.14 62.95 63.10 64.84 65.59 65.22 65.58 66.43 67.43 67.81 70.20 70.33 70.77 69.56 69.39 70.64 69.55 69.04 68.41 67.37 67.95 69.22 70.48 72.73 72.98 72.72 73.05 72.18 71.35 70.49 69.04 69.33 70.80 71.92 70.31 68.37 67.01
46.04 49.94 50.23 54.08 50.20 52.49 51.93 49.27 50.99 58.42 58.53 59.77 61.55 62.28 62.90 65.09 65.50 65.38 65.15 66.71 67.48 69.13 70.29 70.50 70.50 70.40 70.09 71.26 70.54 69.36 68.50 70.22 69.51 70.54 69.88 71.63 72.13 72.66 72.86 72.69 71.13 69.40 68.83 69.40 69.32 71.09 69.74 70.66 69.15
50.79 49.23 51.70 50.04 48.46 41.86 49.88 49.60 48.04 55.80 57.96 60.70 63.09 63.78 64.29 64.42 65.47 66.51 67.06 67.86 67.74 69.45 70.07 71.43 70.29 69.86 68.88 70.40 71.08 70.13 68.40 68.57 67.73 68.70 69.72 71.02 71.44 72.03 73.39 72.69 71.77 71.91 70.96 70.87 69.36 69.56 70.06 69.64 70.07
46.74 42.88 37.40 36.49 40.00 40.15 47.82 49.79 49.93 57.98 61.61 61.82 62.52 64.00 64.59 65.06 65.68 65.74 66.38 67.25 67.74 68.32 69.37 71.28 70.44 69.38 69.23 69.64 71.10 70.49 68.87 66.06 66.96 68.63 69.56 69.54 70.42 71.05 71.10 72.15 71.69 70.98 70.93 70.26 70.22 71.12 70.53 69.98 68.25
43.04 43.50 38.85 35.36 36.01 40.88 50.33 46.49 49.62 58.57 62.70 62.74 63.09 63.10 63.04 63.49 66.17 65.36 66.08 67.16 67.65 67.95 69.35 70.02 70.63 69.78 70.01 70.14 70.72 71.01 69.73 68.83 67.15 68.76 70.02 70.27 70.54 70.77 71.84 72.60 72.40 72.21 72.10 71.49 71.09 70.39 70.70 70.61 70.54
43.12 41.14 45.85 41.88 38.92 39.57 46.84 49.42 53.86 57.19 55.58 56.62 57.70 59.63 60.85 64.75 65.54 66.73 66.59 67.80 68.26 68.32 69.24 69.54 70.45 70.68 70.38 70.68 70.38 70.59 70.94 70.07 69.77 69.57 69.00 69.40 70.28 71.36 71.94 73.19 72.73 72.61 71.77 71.39 71.89 70.24 70.04 70.72 70.02
44.75 47.35 41.94 39.65 35.11 33.71 45.13 46.32 46.89 52.66 50.99 52.57 53.06 55.60 57.37 59.00 61.27 64.47 65.11 65.91 68.09 69.08 69.10 69.27 69.74 70.87 71.08 71.04 70.97 71.57 71.02 71.28 70.66 69.67 68.04 69.83 69.45 72.64 71.61 71.85 72.50 72.40 72.38 72.02 72.04 71.12 70.09 69.76 69.52
44.92 42.72 43.57 42.26 39.61 36.41 39.28 43.49 55.61 52.25 51.52 49.98 50.95 53.82 54.68 57.30 58.96 59.83 62.98 65.91 67.37 67.69 68.12 68.36 68.18 69.06 68.18 68.63 68.79 71.34 72.15 71.91 71.61 71.39 71.54 71.57 70.90 71.20 70.72 69.87 69.31 69.95 71.05 72.37 72.12 70.67 70.85 70.29 69.54
47.65 43.45 42.94 41.44 40.41 42.39 42.34 46.37 55.59 53.06 52.82 51.25 50.63 51.88 53.97 55.68 57.07 58.42 58.94 62.07 64.73 65.40 66.81 67.37 67.64 67.06 67.33 68.32 68.86 69.89 70.55 71.30 71.58 71.80 71.86 71.46 70.67 70.18 69.61 68.29 67.54 67.49 69.69 71.39 71.65 70.92 71.82 70.81 70.02

GFSSGP_sfc_wetblb_087.txt.gz
Wetbulb
73.19 72.21 70.57 66.80 58.08 57.43 54.37 55.72 60.51 59.76 59.25 58.45 56.83 57.47 57.14 59.94 58.65 54.04 67.59 70.64 72.04 73.15 74.58 75.64 76.99 75.94 76.46 76.75 76.30 76.36 75.98 75.90 75.68 76.33 76.57 76.88 77.00 77.05 76.94 77.05 76.64 76.70 77.46 76.68 76.84 76.34 76.32 76.37 75.93
71.74 70.71 67.83 62.93 55.18 51.57 53.18 59.42 58.55 61.90 63.35 59.30 57.60 63.30 62.63 61.14 66.35 65.70 67.60 71.23 72.82 73.62 73.94 74.87 76.92 77.19 76.77 76.68 76.33 76.37 76.20 76.36 76.55 75.99 76.46 76.30 76.90 77.12 77.04 76.78 77.07 77.11 77.38 77.06 76.67 76.05 75.83 75.74 75.66
70.70 70.43 62.32 58.90 54.97 51.89 52.95 59.42 60.88 63.43 63.90 58.36 62.09 66.02 64.80 63.33 66.72 67.21 70.04 71.89 73.37 73.59 74.03 73.90 76.74 77.22 76.67 76.54 76.50 76.54 76.51 76.35 76.26 76.36 76.32 76.52 76.75 76.67 77.06 77.14 77.30 77.43 77.08 76.84 76.73 76.18 75.66 75.58 75.18
68.51 67.54 66.50 58.13 54.96 56.51 57.22 61.08 63.09 63.14 65.04 66.06 64.99 61.49 66.15 69.06 67.56 69.63 71.55 72.74 72.89 73.46 73.25 76.35 76.83 76.86 76.76 76.49 76.51 76.62 76.26 76.08 76.08 76.12 76.23 76.51 76.85 76.94 76.95 77.13 77.11 76.92 76.84 76.81 76.73 76.31 76.07 75.58 75.74
69.16 66.80 59.57 57.89 56.27 58.56 60.58 62.73 63.21 62.20 64.18 64.55 64.50 61.60 62.94 68.21 70.63 71.16 71.31 72.68 72.59 72.90 73.81 74.95 77.20 76.99 76.72 76.62 76.49 76.55 76.18 76.19 76.05 76.10 76.50 76.51 76.97 76.83 77.09 76.74 77.06 77.19 76.93 76.70 76.46 76.27 76.24 76.47 76.82
64.22 65.37 57.73 55.10 57.30 59.63 61.68 63.47 62.85 63.31 63.93 63.83 63.07 62.18 62.79 69.36 69.59 70.72 71.64 72.09 73.72 73.59 74.12 74.75 76.82 77.05 76.51 76.69 76.84 76.30 76.49 76.41 76.19 76.20 76.23 76.54 76.77 76.76 76.76 76.79 77.15 77.09 76.60 76.35 76.48 76.11 76.43 76.62 76.32
62.94 61.98 58.27 57.98 57.00 58.07 60.60 64.54 62.49 62.76 62.63 62.24 65.19 60.39 64.62 67.36 69.87 70.36 70.78 72.06 73.16 74.22 73.56 73.43 74.19 75.50 76.66 76.75 76.15 76.33 76.26 75.83 75.85 76.19 76.39 76.38 76.70 76.68 76.73 76.54 76.40 77.01 76.36 75.99 76.25 75.87 76.04 76.62 76.52
65.80 62.48 59.22 58.96 55.87 56.42 62.39 63.96 65.41 63.64 62.40 66.85 66.60 60.64 61.81 66.42 69.27 69.92 69.90 71.07 71.91 72.80 73.34 72.65 72.96 73.46 73.33 73.57 76.29 76.21 76.00 75.93 75.91 75.95 76.31 76.49 76.46 76.68 76.85 76.08 77.15 76.99 76.27 75.94 75.62 75.71 74.94 75.66 76.46
68.91 59.59 55.36 57.82 57.14 58.58 63.42 63.07 66.81 68.34 64.04 65.30 66.28 65.31 66.93 68.21 69.49 68.20 69.01 69.80 70.65 72.29 71.47 71.72 72.18 72.05 72.39 73.11 74.71 75.58 76.07 75.68 75.82 75.83 76.57 74.05 72.01 72.76 74.30 76.20 76.43 76.27 75.94 75.72 75.49 75.40 75.29 75.79 76.54
62.84 56.15 57.64 62.28 61.45 60.44 63.63 64.53 65.27 63.62 62.51 63.08 64.39 66.64 67.58 68.15 67.37 66.69 66.65 67.69 68.62 69.61 70.77 71.36 71.29 71.29 71.86 74.19 72.61 72.12 73.50 72.06 72.22 72.48 71.30 70.86 71.05 72.28 74.60 75.33 76.10 75.83 75.71 75.30 75.19 74.88 75.08 73.48 71.02
62.27 58.08 62.86 62.20 63.15 64.73 63.05 63.62 65.26 61.67 60.60 62.72 62.30 64.36 66.08 66.45 66.09 66.23 66.57 67.36 68.08 69.98 70.74 70.72 70.57 71.20 71.19 72.03 71.97 71.64 70.85 70.33 70.02 70.60 70.37 70.13 71.28 72.21 72.62 72.02 72.46 72.32 74.05 72.09 72.66 71.87 72.10 71.43 70.42
58.17 62.57 64.29 63.51 65.16 64.61 63.05 65.33 63.63 63.53 64.95 65.86 66.50 66.68 66.37 65.75 65.47 66.88 67.69 68.01 69.00 69.57 69.60 70.47 70.82 70.37 69.94 71.70 71.47 70.94 70.66 69.59 67.94 69.21 69.94 70.30 70.44 70.30 70.45 70.84 71.08 71.28 70.04 69.49 69.96 70.25 70.88 71.70 71.84
60.67 63.18 65.59 64.90 64.73 65.39 65.51 63.82 63.25 64.42 67.73 67.10 67.81 67.33 66.35 66.18 66.72 68.31 68.92 69.14 69.43 68.85 69.55 70.24 70.40 70.12 69.83 71.01 70.79 70.42 70.39 70.15 69.67 70.30 70.57 70.63 69.01 68.42 69.28 70.00 70.13 71.05 68.74 67.65 68.82 69.56 70.11 69.36 69.21
62.83 64.24 63.88 65.19 63.95 65.93 64.08 63.20 64.32 64.94 67.16 65.84 66.18 65.82 66.45 66.32 67.35 67.48 67.86 68.27 68.56 68.97 69.67 69.95 69.89 70.03 70.27 70.68 69.68 69.68 69.81 69.60 70.04 70.94 71.20 70.53 68.08 68.71 69.20 68.62 69.61 69.99 69.28 68.58 68.15 69.50 69.23 67.41 67.15
63.78 60.26 61.83 63.58 64.99 63.94 65.57 60.95 61.63 65.88 66.13 64.67 65.10 65.36 65.84 67.12 66.66 65.73 67.15 68.32 69.12 69.39 69.77 69.04 69.45 70.07 70.27 70.01 69.64 69.38 69.51 69.89 70.48 69.89 71.21 71.03 70.38 69.15 67.61 67.96 69.21 68.90 68.67 69.79 69.49 69.84 68.46 67.78 68.30
59.38 58.63 54.14 61.63 64.06 64.57 62.11 57.00 62.44 66.09 65.04 63.37 64.36 65.46 65.81 66.94 66.74 65.70 68.00 69.02 69.89 69.39 68.92 69.09 71.89 69.88 68.28 68.49 69.28 69.21 69.92 70.67 70.19 68.56 70.09 71.21 71.64 70.61 69.46 69.27 69.09 70.28 70.98 68.60 68.55 67.87 67.50 67.34 66.60
48.82 49.72 53.16 58.69 63.64 62.83 61.07 57.88 63.40 65.70 64.91 61.64 63.40 64.46 65.71 65.39 66.88 67.79 69.21 69.44 69.97 69.43 69.00 69.76 69.17 68.06 67.54 69.05 69.58 69.41 70.58 70.71 71.06 69.90 70.87 70.55 71.68 70.31 69.96 69.97 69.35 70.86 70.47 67.16 68.39 67.94 68.26 67.89 66.83
42.88 47.68 52.53 56.63 61.11 61.66 59.35 58.49 62.19 64.21 64.77 62.07 62.78 63.47 63.87 64.22 65.11 67.36 68.55 70.01 69.82 69.45 69.68 69.43 68.97 68.62 68.26 69.55 69.59 69.79 69.77 70.16 70.57 70.58 71.00 71.73 72.24 69.85 70.57 70.84 69.02 71.63 69.94 68.83 67.65 67.96 68.45 66.82 66.40
47.25 45.50 46.43 57.34 62.45 60.43 58.98 58.55 60.77 63.31 64.03 62.28 62.37 62.29 62.61 63.31 66.30 68.29 68.97 69.73 69.46 69.37 68.45 68.62 68.14 68.30 69.40 68.11 68.43 67.92 67.67 67.84 69.96 70.42 70.68 70.56 71.20 72.04 70.34 69.89 70.46 69.99 69.15 68.12 68.69 68.47 66.74 67.25 66.42
47.07 45.03 50.32 57.81 59.95 59.35 58.45 57.61 60.15 61.72 63.11 63.37 62.98 62.17 62.65 62.92 65.48 67.77 68.28 68.98 68.86 68.63 68.22 67.72 68.05 67.94 68.74 68.78 69.03 68.97 68.32 69.05 69.96 70.92 70.53 70.94 71.44 71.72 71.83 70.49 69.39 68.95 69.15 68.50 69.64 68.65 67.40 67.10 67.00
42.78 42.41 45.92 53.36 57.37 58.18 57.45 55.08 57.42 61.08 61.80 64.00 65.15 64.67 63.68 62.62 63.78 66.19 67.43 68.11 68.76 67.78 67.88 67.95 68.22 67.31 67.85 69.27 69.92 69.54 69.24 68.46 68.52 69.62 70.38 71.31 72.15 71.96 72.30 70.71 70.61 69.51 70.34 69.13 68.77 67.60 66.37 65.34 65.91
38.46 47.10 50.62 56.05 51.46 48.42 54.88 46.09 53.45 57.32 57.44 60.28 63.45 63.30 63.17 62.69 63.68 66.16 67.36 67.02 67.45 67.54 69.07 68.52 69.03 67.02 67.45 69.67 69.03 68.76 67.83 67.00 67.58 68.26 69.97 71.02 72.52 72.12 71.97 71.20 71.19 69.68 68.45 69.20 69.86 72.22 69.35 67.26 66.40
45.08 48.15 49.18 55.28 48.55 48.93 51.13 45.79 48.12 55.87 54.59 57.44 61.94 62.28 63.55 64.01 63.45 64.80 66.61 67.23 67.53 68.72 69.45 69.24 69.20 67.52 68.22 69.27 68.86 68.48 67.64 67.82 68.97 69.98 68.28 70.50 71.29 71.93 72.73 71.49 70.12 69.17 68.09 68.70 69.26 69.38 69.28 69.70 68.11
49.21 46.83 48.41 46.76 45.28 41.44 47.07 46.81 46.34 53.36 55.32 58.38 62.36 62.54 63.02 63.99 64.22 65.19 66.40 67.20 67.39 68.86 69.84 69.81 68.96 68.14 69.30 69.59 69.01 68.24 67.99 68.49 68.07 68.19 68.61 69.92 70.66 71.06 72.07 72.09 70.49 69.42 68.49 68.87 68.83 70.05 69.10 68.66 69.75
44.75 41.23 37.42 37.97 38.89 39.86 45.73 47.06 45.76 55.18 59.81 61.15 61.35 62.44 63.55 64.17 64.19 64.07 64.97 65.75 66.69 67.24 69.27 69.60 68.89 67.88 68.78 69.77 69.78 69.51 68.51 68.42 67.72 68.29 68.70 70.02 69.58 70.21 71.01 71.11 70.57 70.46 70.17 70.63 69.58 69.67 70.12 68.92 67.35
41.61 41.20 36.67 33.79 34.99 39.62 47.19 43.09 48.26 56.41 60.83 62.14 63.15 63.40 63.62 64.81 64.38 65.04 65.18 66.26 66.88 67.59 68.84 69.58 68.61 68.37 67.73 68.49 69.65 69.68 68.67 67.04 66.59 68.12 69.15 69.29 69.83 70.23 71.31 71.42 71.54 70.85 71.12 70.02 69.87 70.39 70.18 69.92 69.95
41.45 39.87 43.93 38.62 37.05 37.25 44.61 47.37 54.23 55.91 53.79 57.66 59.15 60.37 60.08 62.57 65.13 65.23 66.16 66.85 66.94 67.58 68.36 69.73 69.78 69.02 68.86 68.37 69.14 69.67 68.85 68.22 66.94 67.34 69.28 69.65 70.18 70.62 70.79 71.51 72.02 71.44 71.21 70.50 70.83 69.88 69.03 69.74 69.37
44.29 46.28 40.14 38.25 34.19 32.51 43.38 43.77 46.02 53.29 51.99 54.09 56.17 56.87 58.72 60.48 61.31 63.42 65.32 66.91 67.44 67.71 68.90 69.10 70.56 69.89 69.77 68.92 68.90 69.52 69.67 69.90 69.09 69.10 68.38 68.38 69.08 69.90 70.75 71.57 72.11 71.64 71.46 70.33 70.38 70.24 69.48 69.01 68.83
42.62 41.73 41.15 40.22 38.19 35.28 38.49 42.72 51.55 52.14 51.62 50.97 53.71 54.89 57.13 58.43 59.82 61.02 62.75 66.86 68.01 68.72 69.26 69.42 68.88 69.74 68.37 69.80 69.46 70.00 70.02 70.20 69.49 69.46 69.05 68.19 68.96 69.79 71.70 70.95 71.09 71.19 71.17 71.30 70.95 70.44 70.27 69.42 68.62
43.26 38.81 40.94 39.16 37.60 39.45 40.26 42.48 53.53 51.99 51.47 51.30 51.50 54.06 55.71 57.35 58.21 59.70 61.06 63.18 66.11 67.51 68.37 68.73 68.21 67.56 67.71 67.83 68.30 69.04 70.03 70.65 70.03 69.92 70.57 70.43 70.75 70.16 69.45 70.00 69.23 68.96 69.20 70.34 70.93 70.91 70.96 69.91 69.10

GFSSGP_sfc_wetblb_090.txt.gz
Wetbulb
72.72 71.60 69.97 66.70 57.34 57.28 53.97 55.34 59.71 55.35 55.27 56.19 55.82 55.08 54.82 59.96 57.89 51.99 66.46 70.05 72.45 73.32 74.13 74.88 76.88 75.37 75.80 75.52 76.16 75.77 75.22 75.43 76.28 76.42 76.84 76.58 76.55 76.63 76.96 77.03 76.86 77.26 77.30 76.79 76.08 76.26 76.15 76.21 76.55
71.33 70.65 67.05 62.66 55.08 51.16 52.76 58.81 57.70 60.13 60.73 56.63 56.08 60.06 62.00 61.02 65.66 65.58 67.27 71.42 73.43 73.81 74.11 74.45 76.76 76.71 76.15 76.30 75.95 76.00 76.07 76.18 75.94 76.21 76.17 76.53 76.87 76.87 76.83 76.70 76.65 77.58 76.75 76.24 76.02 76.44 76.13 75.97 75.25
70.81 70.12 62.41 59.11 54.91 51.78 53.11 58.65 60.92 62.53 58.66 55.62 57.50 65.59 64.52 62.91 65.61 66.75 69.46 72.31 73.59 73.36 73.60 73.90 76.67 76.52 76.37 75.85 76.24 76.33 76.33 76.11 76.02 76.15 76.38 76.80 76.74 76.97 76.67 76.47 76.32 76.29 76.27 76.51 75.94 75.97 75.58 75.66 75.52
68.17 67.04 66.49 56.33 53.45 56.64 58.01 60.44 63.13 63.32 58.92 61.79 64.35 61.43 65.89 68.50 66.53 69.10 71.67 73.10 72.83 72.74 72.58 76.09 77.02 76.62 76.43 76.32 76.32 76.06 76.27 76.12 75.70 76.27 76.23 76.61 76.77 76.90 76.61 76.70 76.83 76.88 76.64 75.69 76.10 75.99 75.69 75.61 75.22
68.67 66.46 59.45 56.19 54.04 58.37 61.39 62.79 63.56 62.20 64.13 63.77 64.13 61.24 62.89 68.22 69.98 70.59 72.07 72.97 72.20 72.10 73.61 74.78 77.13 76.45 76.38 76.00 75.85 75.87 75.95 76.00 75.97 76.07 76.45 76.61 76.42 76.77 76.52 76.69 76.77 76.78 76.90 76.49 76.16 76.16 76.08 76.30 76.40
64.22 64.95 57.51 54.43 55.86 58.60 61.77 63.61 63.40 62.44 63.80 63.49 62.36 61.75 63.55 69.10 69.14 70.29 72.10 72.49 73.36 72.95 73.61 74.63 76.29 76.37 76.49 76.42 75.75 75.91 75.88 75.96 75.58 75.93 76.31 76.37 76.40 76.75 76.92 77.07 77.21 76.82 76.52 76.27 75.83 76.33 76.33 76.19 75.55
62.73 61.63 57.82 57.61 56.74 57.76 60.92 64.37 62.51 62.38 62.31 62.26 64.93 60.35 65.08 66.86 69.54 70.82 71.75 73.08 73.73 73.76 73.16 74.03 74.38 75.28 76.12 76.14 75.67 75.60 75.91 75.90 75.90 76.11 76.41 76.30 76.60 76.48 76.75 77.03 77.10 76.36 76.13 76.00 75.83 75.69 75.85 75.79 75.79
65.03 63.15 58.79 57.99 55.87 57.04 62.38 63.35 65.66 63.10 61.82 66.34 65.98 59.68 62.04 66.61 69.28 70.21 71.37 71.85 72.27 72.80 73.03 72.73 73.05 73.34 73.30 73.73 76.35 76.00 76.13 75.64 75.86 76.02 76.15 76.62 76.47 76.60 76.36 77.44 77.14 76.47 76.16 75.91 75.41 75.38 76.40 76.22 76.02
68.36 59.03 56.54 57.54 56.70 58.86 63.35 62.25 66.42 67.35 63.15 64.89 65.96 64.63 66.51 68.38 68.66 69.02 69.84 70.56 71.48 72.27 71.75 71.98 72.36 72.19 72.81 73.57 74.66 75.39 75.68 75.79 76.06 75.36 75.86 73.99 73.31 73.75 74.33 76.93 76.87 76.24 75.91 75.30 75.33 75.46 74.76 75.73 76.06
61.81 55.58 57.62 62.12 60.71 61.00 63.15 63.46 64.37 62.90 62.09 62.26 63.58 66.08 67.70 67.88 67.10 66.82 67.54 67.96 69.63 70.31 71.29 71.14 71.52 71.69 72.49 74.18 72.72 72.91 72.97 72.53 72.67 71.71 71.44 71.82 72.84 74.99 75.31 75.71 76.19 76.19 75.77 75.24 75.00 74.69 75.25 73.27 72.95
62.20 57.48 62.49 61.49 62.74 64.33 64.01 63.84 65.13 61.51 59.74 61.81 61.74 63.95 66.16 66.46 66.03 65.37 66.59 68.01 68.17 69.59 71.28 70.85 70.87 71.54 71.79 72.32 72.01 71.05 70.81 71.13 71.40 71.28 70.89 71.63 72.68 73.23 73.26 72.91 73.45 73.10 73.97 72.76 72.82 72.63 72.74 72.34 71.56
57.07 62.37 64.02 62.52 64.75 64.35 62.92 65.23 61.96 64.04 63.28 64.78 65.11 65.70 65.92 65.12 65.02 64.76 65.86 66.81 67.69 69.42 70.42 70.58 70.88 70.86 71.07 72.08 71.48 70.78 70.47 69.39 69.75 70.52 71.20 71.09 71.21 71.45 71.48 71.83 72.28 72.28 70.55 71.09 71.02 72.05 72.32 72.60 73.13
59.40 62.73 63.94 64.97 64.75 64.55 65.31 63.48 62.52 62.81 65.17 66.23 66.04 65.78 65.07 64.90 65.31 66.27 66.92 67.69 68.66 68.59 69.26 70.09 70.64 70.32 70.37 71.41 71.05 70.94 70.94 69.03 69.80 70.50 71.68 71.19 70.50 70.00 70.97 71.22 71.78 72.23 70.15 70.39 70.85 71.65 71.53 70.17 70.45
62.92 63.12 63.43 64.32 64.21 65.07 63.21 63.28 62.78 63.65 66.14 65.49 65.06 64.54 64.85 64.90 66.04 67.28 67.82 67.79 68.38 68.74 69.09 70.00 70.30 70.27 70.15 70.80 70.47 70.54 70.93 71.05 71.08 72.23 71.92 71.14 69.85 70.28 70.78 70.23 71.30 71.29 71.65 70.95 70.78 71.09 70.50 69.85 69.72
62.34 59.35 62.66 62.58 63.46 63.48 64.92 60.71 61.28 65.25 65.61 64.54 64.44 64.75 65.08 65.76 67.13 67.28 68.03 67.92 68.54 68.45 69.70 69.61 69.98 70.33 69.92 70.70 70.18 70.13 70.89 70.86 71.22 71.37 71.83 71.18 71.28 70.61 70.17 70.07 70.89 71.00 71.09 71.42 71.60 71.39 70.69 70.09 69.99
58.41 57.54 54.38 62.02 63.30 63.94 62.79 56.33 63.12 65.66 64.01 63.31 64.23 64.80 65.21 65.96 66.90 67.41 67.94 68.20 68.85 69.18 69.10 69.53 71.25 70.21 69.99 70.06 70.14 70.16 70.37 71.37 70.98 70.73 71.64 72.39 72.33 71.99 71.34 71.00 70.81 72.30 72.67 70.84 70.72 70.45 70.19 69.54 69.67
51.23 48.50 52.21 58.16 63.59 62.70 61.33 57.42 63.56 64.85 63.64 62.61 63.35 64.20 64.70 65.89 64.62 65.55 67.48 68.70 69.10 69.00 69.03 69.05 70.23 69.49 69.06 69.20 70.00 69.91 70.66 71.42 71.02 70.56 71.96 71.92 72.76 71.54 72.16 71.77 71.32 72.55 71.98 70.18 70.63 70.36 70.63 70.41 69.48
44.84 48.10 51.01 55.06 59.17 61.55 59.89 58.18 62.02 64.18 63.06 62.50 62.87 63.67 64.63 64.80 64.70 65.47 67.60 69.07 69.64 69.15 69.13 69.58 69.20 68.63 68.09 69.59 69.70 70.39 70.56 71.27 72.05 71.46 72.55 72.84 73.40 70.96 72.71 72.53 72.03 73.48 71.92 71.01 71.06 70.71 70.97 70.20 69.22
48.03 47.10 47.89 55.75 60.88 60.08 59.06 58.03 60.39 62.25 63.37 61.51 62.68 63.04 64.04 64.47 66.26 66.77 68.12 69.42 69.10 68.93 68.95 68.81 67.94 68.06 68.80 68.83 68.87 68.70 68.86 69.62 71.17 71.65 71.46 72.57 73.02 73.35 72.60 71.57 72.69 72.12 72.23 71.00 71.95 71.77 70.12 70.37 70.07
46.03 43.86 51.09 57.22 61.48 59.01 56.07 57.28 60.01 61.89 62.90 62.42 61.60 61.87 62.67 64.17 65.19 66.27 67.36 68.64 68.61 68.43 68.77 68.30 67.97 68.37 68.92 69.21 69.39 69.48 69.35 69.89 71.28 71.88 71.69 72.26 72.35 73.38 72.32 71.62 71.58 71.47 71.49 71.47 72.23 71.34 69.99 69.58 69.70
41.90 41.52 44.45 52.74 57.09 58.85 57.16 55.28 57.75 60.86 62.90 63.98 64.85 63.08 62.75 62.94 63.87 65.66 66.82 67.71 68.37 68.01 68.23 68.51 68.09 68.68 68.96 69.51 69.96 69.72 69.89 69.75 70.18 71.05 71.96 72.38 72.81 72.40 73.86 72.38 71.95 71.74 72.37 71.55 71.84 70.59 70.47 68.89 69.43
39.64 46.44 50.80 55.62 52.93 48.55 56.80 47.69 54.91 57.85 59.27 60.75 63.30 63.15 61.97 62.57 65.51 66.55 66.81 67.03 67.74 68.15 69.10 68.61 68.36 68.16 68.71 69.81 69.53 69.34 68.66 68.14 69.01 70.31 71.62 72.54 73.61 73.25 73.20 72.70 72.55 72.12 71.26 72.36 72.58 73.44 71.82 70.59 69.48
45.14 47.35 49.22 55.13 48.79 49.21 51.58 46.69 47.62 57.18 56.61 58.70 60.77 63.71 62.21 62.02 65.02 66.42 67.22 67.77 68.56 68.80 68.62 68.63 68.53 67.37 68.28 69.57 69.80 69.11 68.56 69.05 70.00 70.37 70.66 72.05 73.15 73.30 73.45 72.63 72.59 71.75 71.09 71.69 72.63 72.53 72.49 72.01 70.84
49.37 45.45 46.69 47.35 45.81 42.28 47.09 47.04 45.45 51.89 55.35 58.60 61.20 63.09 62.78 62.12 63.60 66.74 68.09 68.51 68.07 68.69 69.20 69.00 68.44 67.39 68.04 69.09 69.21 69.07 68.81 69.03 69.44 69.98 69.60 70.77 72.40 72.88 73.35 73.05 72.06 71.80 70.93 71.44 71.99 73.18 72.32 71.77 72.29
43.86 38.84 37.81 37.49 39.74 38.68 43.88 46.29 45.64 55.00 57.68 58.69 59.77 62.54 63.37 62.98 62.59 65.06 66.43 66.54 67.08 67.56 69.17 69.39 68.31 67.40 68.33 69.14 69.01 68.88 69.11 69.91 69.48 69.68 69.82 70.41 71.54 71.99 72.64 73.35 72.45 72.26 72.50 72.23 71.62 72.64 73.12 71.72 71.20
40.12 39.86 36.15 34.02 35.14 39.57 46.75 42.58 46.98 55.44 58.41 62.01 62.70 62.85 63.33 63.30 63.21 64.39 65.46 66.61 67.33 67.69 69.14 69.24 68.87 68.32 68.44 69.77 69.89 69.85 69.48 69.50 69.33 69.80 70.41 70.98 71.40 71.96 73.27 73.29 73.07 72.70 72.41 71.81 72.20 72.58 72.53 72.80 72.34
40.35 37.63 41.30 37.04 35.05 38.33 42.89 47.45 53.53 56.38 56.74 59.29 59.39 60.73 61.97 64.03 64.59 64.63 65.40 66.52 66.97 67.73 68.31 69.24 69.01 68.80 68.54 69.59 70.26 69.99 69.61 68.93 68.19 68.53 70.71 71.13 71.75 71.97 72.67 72.86 72.91 73.03 72.83 72.59 72.29 72.24 72.13 72.34 71.98
42.98 45.08 39.21 36.83 33.08 31.38 42.35 44.16 44.40 53.08 53.98 57.07 57.25 58.18 59.98 61.80 62.90 64.86 65.77 66.14 67.17 68.01 68.56 69.87 69.73 68.73 69.08 69.25 69.41 70.31 70.09 69.70 69.70 70.05 69.79 70.43 71.18 72.14 71.66 72.30 72.66 72.46 72.70 72.70 72.49 72.35 71.89 71.90 71.36
42.10 40.63 38.83 38.95 37.14 36.06 37.52 42.28 51.34 52.60 54.49 54.84 55.64 58.05 58.79 59.98 60.98 62.21 63.88 67.13 67.24 68.20 69.14 69.67 70.22 70.43 69.27 69.47 69.89 70.16 70.53 70.87 71.18 70.35 70.47 70.40 70.61 70.34 70.75 71.85 72.56 72.64 72.09 72.87 72.07 72.37 72.28 71.51 71.30
40.80 38.38 39.14 37.16 36.59 38.58 39.26 40.91 52.07 52.51 52.34 54.53 54.97 57.29 58.05 58.99 59.70 61.00 62.66 64.48 67.27 67.69 68.95 68.82 68.80 68.60 68.82 68.60 69.33 70.16 70.98 71.40 71.47 70.34 71.27 72.17 71.34 71.23 70.86 71.51 72.01 72.18 72.32 72.73 72.81 72.30 72.99 71.72 71.42

GFSSGP_sfc_wetblb_093.txt.gz
Wetbulb
73.45 72.43 72.14 69.84 59.21 60.16 55.75 57.09 61.13 55.10 55.07 58.08 57.93 56.20 59.32 62.68 59.90 53.91 69.68 72.29 73.81 74.16 75.32 76.00 76.63 75.66 75.67 76.42 76.07 75.36 75.73 76.64 76.59 76.81 76.76 76.90 76.77 76.66 76.46 76.51 76.95 76.92 77.01 76.50 76.71 76.77 76.55 76.38 76.24
72.52 70.64 69.84 66.39 56.95 54.21 55.22 60.10 55.26 57.71 58.56 59.00 58.46 60.00 62.89 62.48 66.19 66.65 69.35 73.05 74.54 74.65 75.40 74.57 76.98 76.89 76.50 76.44 76.39 76.22 75.81 76.30 76.34 76.69 76.79 76.68 76.66 76.74 76.78 76.72 77.01 77.12 77.01 76.91 76.67 76.39 75.89 75.20 74.36
71.13 70.86 65.53 61.04 55.23 54.05 55.46 60.50 62.17 62.34 59.48 58.14 62.75 66.70 65.56 63.44 66.47 68.54 71.87 73.95 74.81 75.10 74.52 76.38 76.75 76.50 76.47 76.01 75.82 76.11 76.14 75.87 76.10 76.28 76.53 76.75 76.69 76.47 76.70 76.55 76.52 76.91 77.24 77.19 76.33 76.25 76.27 76.11 75.94
69.97 68.78 67.74 56.55 52.73 57.81 58.76 61.96 63.77 59.40 58.19 61.84 65.96 63.21 66.65 69.47 68.20 70.91 73.40 74.36 74.34 73.96 74.58 76.68 76.52 76.54 76.63 76.65 76.53 76.27 76.24 75.92 76.33 76.49 76.75 76.43 76.56 76.86 76.28 76.99 76.84 76.88 76.41 76.30 75.94 75.66 76.00 75.64 74.97
70.94 67.72 57.05 55.09 55.22 59.25 62.52 64.07 64.77 58.77 57.53 62.15 65.56 61.97 63.59 68.88 72.00 72.43 73.47 73.75 72.67 72.87 76.48 76.72 77.12 76.44 76.32 76.30 76.27 75.99 75.72 75.83 76.04 76.29 76.34 76.76 76.80 76.92 76.87 77.08 76.79 76.85 76.83 76.33 76.25 76.30 76.38 76.41 76.38
64.68 65.63 57.67 53.36 55.11 59.43 62.90 64.49 64.82 63.91 63.93 64.33 63.95 63.12 63.67 70.54 70.80 72.03 73.63 73.67 72.52 74.75 75.03 75.71 76.35 75.96 76.41 76.07 75.89 76.03 76.14 76.11 76.26 76.18 76.59 76.63 76.68 76.41 76.38 76.75 76.85 77.08 76.56 76.36 76.50 76.58 76.30 75.83 75.62
62.65 62.52 57.84 56.30 57.04 57.48 62.02 65.67 64.32 64.16 64.30 63.77 66.20 61.12 65.23 67.99 71.37 72.90 73.91 73.98 72.82 74.68 75.10 75.48 75.44 76.64 75.93 75.75 75.72 76.06 75.98 76.14 76.37 76.36 76.56 76.46 76.32 76.08 76.80 76.56 76.80 76.78 76.39 76.08 76.00 76.17 75.86 76.03 74.91
65.05 64.14 58.80 58.87 55.88 58.47 63.39 63.61 66.19 64.97 63.47 67.68 66.87 60.70 61.93 67.84 71.76 73.29 73.73 73.24 72.77 74.55 74.85 75.53 76.01 76.10 75.72 75.65 76.16 76.07 76.01 76.19 76.41 76.50 76.69 76.93 76.74 76.67 76.94 76.83 77.21 76.36 76.17 75.91 76.08 75.92 76.02 76.06 75.54
68.17 60.69 57.17 57.83 57.53 60.25 64.63 63.47 66.62 67.48 64.96 66.11 66.85 65.30 67.95 70.49 71.77 71.70 71.86 71.48 71.90 73.17 74.27 75.16 74.68 75.32 76.52 75.94 75.92 75.97 76.05 76.27 76.55 76.48 76.26 76.58 76.47 76.63 77.05 77.19 76.75 76.31 75.52 75.86 75.83 75.78 76.00 75.99 76.05
64.11 61.27 58.84 62.61 63.55 61.84 64.36 64.41 64.41 63.86 64.08 64.31 65.52 68.06 69.51 70.08 70.06 69.33 69.36 69.15 70.41 71.56 73.48 74.76 74.56 74.84 75.65 75.51 76.14 76.51 76.16 76.34 75.94 76.06 76.53 76.66 76.94 77.39 76.34 76.82 76.47 75.97 75.64 75.61 75.63 75.68 75.19 74.63 76.22
63.60 60.58 63.68 63.51 64.99 65.66 64.15 64.15 65.39 63.34 61.79 64.32 64.07 66.09 68.26 68.73 69.04 68.80 68.48 70.15 70.44 72.52 73.11 74.31 74.53 75.64 75.67 76.14 75.17 74.69 75.19 75.11 75.09 75.37 75.89 76.83 76.44 76.31 75.84 76.08 75.23 75.26 74.67 74.84 74.68 74.77 75.24 74.33 75.18
59.86 63.74 64.52 64.12 66.19 65.29 62.98 65.30 63.19 63.96 64.31 66.74 67.04 68.01 68.25 68.03 68.07 67.80 67.61 69.65 70.58 71.86 72.66 73.61 74.16 75.01 75.34 75.09 74.20 74.09 73.90 74.39 74.24 74.58 75.69 75.83 74.94 75.19 75.36 75.19 75.33 74.63 74.90 75.00 75.72 75.88 75.70 75.30 75.53
61.17 63.71 64.68 65.93 66.23 64.83 65.51 63.41 63.33 63.97 66.09 67.59 68.14 68.12 67.50 67.31 67.05 67.21 68.07 70.09 70.94 70.76 72.38 72.78 73.81 74.80 74.97 74.83 74.33 73.96 73.91 74.07 74.21 74.78 75.44 75.22 74.35 74.36 75.30 75.28 75.84 75.04 75.11 75.22 75.51 75.82 74.73 74.18 74.55
63.73 64.62 64.54 65.66 65.18 65.31 62.43 63.28 63.39 64.02 66.71 66.30 66.54 66.61 67.38 67.62 67.87 67.38 67.83 68.75 70.12 71.00 71.60 72.65 73.01 74.42 74.76 74.68 75.21 74.86 74.60 75.04 74.56 74.71 74.81 75.17 74.55 75.03 74.82 74.92 75.28 75.29 75.48 75.77 75.96 75.44 74.64 73.99 74.92
65.01 61.89 63.78 64.22 64.81 63.71 64.97 60.22 60.27 64.88 66.11 65.00 65.62 66.61 67.43 67.95 68.90 68.06 68.21 68.52 70.61 71.35 72.16 72.30 72.89 73.86 74.29 74.89 75.24 75.05 75.45 75.06 75.36 75.33 75.86 74.47 75.33 74.75 75.24 74.98 74.48 75.12 76.57 76.13 76.72 75.49 75.34 74.31 74.18
60.87 62.18 57.80 62.77 64.07 63.62 62.98 57.13 63.07 65.27 64.85 64.36 65.28 66.30 66.80 67.86 69.15 69.78 69.78 70.08 71.63 72.07 72.41 73.07 72.45 73.32 73.78 74.67 75.06 74.98 75.44 75.70 75.07 75.54 75.62 75.58 76.13 75.97 75.75 75.09 75.20 76.42 76.06 75.80 75.31 74.83 74.46 74.21 74.81
57.02 55.58 56.55 59.14 63.67 62.58 61.21 57.03 63.72 65.07 65.08 64.35 65.23 66.02 66.54 67.79 69.24 70.74 70.64 71.18 72.01 72.81 73.06 72.96 73.68 73.56 73.95 75.00 74.89 75.06 75.14 75.73 75.11 75.66 75.84 76.16 76.06 75.78 76.29 75.80 75.62 77.01 74.89 74.99 75.46 75.12 75.58 74.96 74.84
53.28 54.36 57.09 57.56 61.21 61.70 59.71 59.61 62.57 64.03 64.76 64.25 65.30 66.10 66.52 66.88 68.45 70.68 71.27 71.66 72.61 73.21 73.52 73.66 73.80 74.50 74.79 74.39 74.95 74.88 74.66 75.81 76.08 75.48 76.09 75.58 76.35 75.38 76.80 76.43 76.17 77.55 76.69 75.81 75.69 75.72 75.77 74.92 74.11
57.32 55.90 53.69 57.29 62.25 60.81 59.14 59.68 61.09 63.23 64.26 63.51 65.07 65.57 65.74 66.08 69.69 70.57 71.23 71.95 72.55 73.19 73.23 73.59 73.74 74.26 73.43 73.21 73.20 73.26 72.90 74.54 75.08 74.98 75.97 76.13 76.92 75.72 77.30 76.03 76.18 76.63 76.13 75.58 76.57 75.98 75.04 74.15 74.68
52.66 53.48 52.31 59.44 62.00 60.19 58.51 57.64 60.05 63.00 63.08 64.65 64.97 65.64 65.59 67.61 68.65 69.17 70.34 71.33 72.02 72.59 73.23 73.63 73.98 74.17 73.83 73.87 74.03 74.16 74.17 74.45 75.48 75.66 75.60 76.08 76.44 76.88 76.85 76.30 75.98 76.22 75.43 76.00 76.19 75.75 74.39 74.09 73.82
50.53 50.61 56.69 56.42 58.38 58.37 56.20 54.31 57.50 61.87 64.88 64.79 65.65 66.69 67.33 67.45 67.82 68.74 69.52 70.67 71.77 72.14 72.80 73.44 74.04 74.09 74.17 74.49 74.16 74.21 74.21 74.15 74.10 74.52 74.74 75.11 76.00 76.24 76.99 76.42 76.31 76.61 76.65 75.33 75.99 75.69 75.33 72.54 74.21
49.28 51.93 54.66 58.08 56.22 51.39 57.46 47.06 54.43 59.54 60.89 63.11 64.09 65.36 66.51 67.76 68.66 69.08 69.75 70.51 71.05 72.09 73.26 73.98 74.08 73.81 73.88 74.94 74.28 74.58 74.22 74.39 73.68 74.15 75.26 75.56 76.22 75.79 76.47 76.50 76.42 76.88 76.75 76.25 76.48 77.08 75.93 75.77 73.37
50.67 51.45 53.43 58.26 54.96 55.32 53.08 49.87 53.06 59.03 58.40 61.20 64.34 65.10 65.75 66.87 68.15 68.65 69.66 70.87 71.27 72.38 72.61 73.35 73.89 73.85 73.72 74.52 75.06 74.01 75.18 74.28 74.20 74.23 75.27 76.17 76.65 76.64 76.61 76.39 76.57 76.10 75.74 76.81 76.84 76.75 77.05 75.88 74.55
53.06 52.86 54.22 55.88 54.95 47.68 53.65 52.26 50.97 56.21 59.35 61.71 63.87 65.34 65.90 66.17 67.57 69.07 68.22 70.06 71.17 72.07 72.28 72.59 73.47 73.31 74.35 74.08 74.59 74.74 74.25 74.68 73.53 73.97 73.46 74.16 75.48 76.16 76.72 76.24 76.57 76.14 75.81 76.06 76.41 76.86 76.33 76.22 75.90
50.61 47.44 43.70 44.83 45.72 44.09 52.07 52.99 54.04 59.00 59.81 61.76 62.73 65.13 66.62 66.12 67.06 68.48 68.10 69.22 70.39 70.69 70.65 69.50 72.88 73.13 73.32 73.62 74.21 74.42 74.56 74.79 75.26 75.05 73.86 73.81 75.14 76.33 76.14 76.68 76.23 75.54 76.08 75.75 76.25 77.27 76.64 75.63 75.01
48.90 48.88 44.43 40.53 42.85 46.26 52.16 48.64 53.87 58.35 60.53 63.24 64.58 66.05 67.08 66.89 66.68 68.01 69.37 68.72 67.41 68.46 70.69 70.84 72.17 72.90 73.22 72.86 73.77 74.67 75.01 73.88 74.54 75.24 74.94 74.37 75.67 77.43 77.53 77.05 76.97 76.50 76.53 76.06 76.24 75.31 76.14 77.08 76.48
47.29 45.41 51.10 47.31 47.20 47.39 50.85 53.80 56.71 58.96 59.52 61.94 63.30 64.41 65.77 66.27 65.74 67.36 69.61 69.90 69.82 67.84 70.07 72.21 71.83 72.45 72.83 72.85 73.45 74.08 74.52 74.43 74.39 74.97 75.52 75.48 75.84 75.34 76.33 76.92 76.77 76.89 76.61 76.36 75.77 74.82 75.67 76.42 76.05
50.17 51.48 45.87 46.59 42.45 42.03 48.48 50.37 53.43 56.27 56.94 59.06 60.54 61.19 63.16 65.47 65.64 66.61 68.35 69.69 70.41 69.32 68.85 70.69 70.52 72.27 73.07 72.53 73.10 74.84 75.02 75.03 74.86 74.32 74.00 74.68 75.61 75.66 75.89 76.12 76.25 76.53 76.68 76.60 76.35 75.61 75.75 75.78 75.41
48.30 47.83 48.28 49.51 47.98 44.49 44.17 49.24 57.19 58.12 59.11 57.91 58.63 60.40 61.00 62.56 64.03 65.14 67.22 68.41 68.87 68.97 68.54 70.08 70.89 72.69 72.01 70.25 71.72 73.26 74.65 74.91 74.87 74.61 74.87 74.89 75.06 74.81 75.14 75.64 75.40 75.99 76.09 76.20 76.00 76.37 75.93 75.24 75.57
49.05 49.09 50.33 45.59 45.27 49.54 49.62 49.84 56.44 57.82 60.26 59.94 59.34 60.78 62.00 62.19 62.63 63.89 65.71 67.59 68.88 68.97 69.07 69.54 71.01 72.17 72.01 72.45 70.75 70.90 73.46 74.31 75.00 74.66 74.97 75.42 74.92 75.17 75.09 75.00 75.27 75.25 75.42 76.43 76.11 75.36 74.86 75.27 75.03

GFSSGP_sfc_wetblb_096.txt.gz
Wetbulb
73.88 73.89 74.16 72.50 63.58 64.20 57.90 58.58 60.09 57.72 58.74 61.75 61.10 59.43 62.06 65.37 61.15 58.07 71.56 73.95 74.47 74.28 75.71 76.31 76.23 75.39 75.89 75.94 75.30 76.12 76.74 77.11 76.98 76.93 77.04 77.16 76.88 76.48 76.78 76.88 76.13 76.67 76.59 76.79 76.78 76.71 76.71 76.12 75.11
72.63 72.56 73.05 68.64 60.58 56.73 57.32 60.50 57.48 59.73 60.86 61.79 61.22 64.84 64.45 63.42 66.30 68.13 70.93 74.39 74.64 74.87 76.01 74.63 76.79 76.29 76.47 76.58 76.16 76.05 76.15 76.41 76.50 76.86 76.96 76.83 76.83 77.13 77.75 76.94 76.56 76.72 76.93 76.94 76.16 75.88 74.93 75.60 75.57
73.21 72.09 69.33 60.82 59.94 56.73 57.55 59.42 60.98 60.33 61.24 61.83 61.83 68.41 67.46 63.14 67.74 69.94 73.79 74.95 75.18 75.13 74.69 76.69 76.28 76.57 76.39 76.39 76.45 76.45 76.24 76.31 76.51 76.59 76.81 76.80 76.71 77.06 77.28 76.98 76.62 76.68 76.71 76.29 76.39 76.66 76.63 76.04 75.93
72.35 72.00 65.90 58.36 59.03 60.97 61.62 62.92 62.18 59.63 61.71 65.55 66.88 64.99 67.96 69.03 69.60 72.59 74.92 75.31 75.27 74.47 76.06 76.58 76.14 75.81 76.00 76.67 76.52 76.38 76.24 76.61 76.62 76.76 76.36 76.74 77.07 76.99 76.88 76.98 76.67 76.57 76.41 76.19 76.38 76.44 76.41 75.74 76.31
73.34 66.94 59.21 56.86 59.45 62.44 64.80 65.09 62.25 60.36 63.62 66.68 67.35 64.62 64.44 69.97 73.00 74.24 74.64 75.09 73.88 74.11 76.01 76.90 76.41 76.46 76.66 76.62 76.39 76.18 76.24 76.27 76.51 76.68 76.74 76.83 76.69 76.67 77.10 77.18 76.70 76.62 76.97 76.91 76.94 76.90 76.84 77.05 76.30
67.62 66.57 57.88 57.31 58.86 62.55 65.27 66.99 62.89 61.56 62.40 66.06 65.88 64.49 65.56 71.71 72.50 73.88 74.55 73.95 73.72 74.29 75.39 76.28 76.51 76.32 76.40 76.15 76.39 76.40 76.54 76.49 76.56 76.49 76.69 76.45 76.45 76.65 76.98 77.12 77.10 76.80 77.00 76.94 76.85 76.71 76.43 75.76 75.34
65.00 64.24 60.67 58.60 58.75 60.52 63.86 68.34 65.47 62.83 63.39 64.05 67.46 63.54 67.19 69.94 73.13 74.10 74.46 73.38 73.79 74.25 75.44 75.91 76.32 76.58 76.27 76.01 76.34 76.37 76.45 76.74 76.87 76.37 76.53 76.59 76.71 77.02 76.99 77.38 76.94 76.74 76.43 76.52 76.35 76.33 76.47 75.13 74.55
68.51 64.40 58.83 58.66 57.64 59.45 65.71 67.20 68.13 66.89 65.99 69.85 69.53 63.35 63.93 70.44 73.33 74.06 74.06 72.42 73.26 74.80 75.32 75.46 76.06 75.95 76.07 76.15 76.20 76.41 76.37 76.57 76.62 76.93 76.77 77.87 76.80 76.66 76.86 77.40 77.35 76.49 76.20 76.60 76.07 76.22 76.48 75.81 74.88
69.29 63.83 57.54 59.53 57.80 62.04 66.50 65.81 68.85 69.86 67.75 67.88 68.39 66.35 69.50 72.32 73.57 72.89 71.81 71.29 72.46 73.77 74.57 74.43 74.53 75.86 76.73 76.44 76.49 76.38 76.33 77.04 76.80 76.95 76.59 77.09 76.46 77.10 76.63 76.91 76.52 76.01 75.98 76.10 76.21 76.27 76.29 76.52 75.86
66.31 63.50 59.89 65.35 64.22 64.90 66.40 66.87 66.98 66.75 66.53 66.39 65.92 69.23 70.93 71.91 71.99 70.67 69.80 69.60 71.02 72.62 73.38 73.24 74.64 74.79 75.24 73.85 76.72 76.65 76.12 76.70 76.48 77.15 77.67 77.40 77.29 77.64 76.16 76.92 76.21 75.82 75.80 75.83 75.94 75.99 75.44 76.08 76.35
65.96 61.35 65.55 65.59 66.37 67.70 66.58 66.64 67.94 66.52 64.61 66.91 65.73 67.70 69.87 70.47 70.85 70.03 69.89 70.52 70.88 72.95 72.89 73.28 74.84 75.74 75.00 74.69 74.39 75.23 75.42 75.35 76.43 77.48 77.30 76.86 75.65 75.53 75.01 75.24 75.62 75.84 75.85 75.78 76.45 76.51 76.21 75.69 75.95
62.42 65.71 65.89 66.55 68.18 67.05 65.94 67.78 65.90 66.74 66.19 69.06 68.74 69.65 69.89 69.77 69.82 69.28 69.40 70.50 71.35 72.68 72.43 73.42 74.86 75.87 75.79 75.20 74.17 74.30 74.40 75.07 74.70 75.56 76.24 75.73 74.68 75.05 75.35 74.93 75.62 76.10 76.05 76.66 77.04 75.96 76.68 77.06 77.01
64.02 64.95 66.34 67.71 68.02 66.11 67.37 65.34 65.21 65.47 67.99 69.56 68.82 69.54 69.51 69.75 69.81 70.14 70.23 71.20 72.07 71.84 71.85 73.24 74.79 76.15 76.24 75.63 74.87 74.90 74.82 74.11 73.94 75.32 76.43 75.83 75.54 75.83 75.89 76.62 76.12 76.31 76.25 76.42 76.29 75.68 75.80 75.69 76.07
65.87 65.25 66.04 67.19 66.82 65.69 64.73 64.82 65.76 66.41 68.53 67.74 68.24 68.67 69.25 69.13 69.23 69.52 69.36 70.34 71.44 71.79 71.57 73.61 74.63 76.17 76.22 75.93 76.36 75.24 74.67 74.70 75.04 75.62 76.62 76.96 76.03 76.44 75.82 76.24 76.21 75.82 76.33 76.21 76.33 76.02 75.36 75.17 75.06
64.86 63.07 64.34 65.74 65.34 64.42 65.89 62.13 63.22 66.99 67.66 67.02 67.45 68.08 68.48 68.84 69.37 68.94 69.50 71.03 71.85 72.01 72.57 73.91 74.62 75.65 76.02 76.37 76.41 75.64 75.29 75.05 75.05 75.80 77.13 76.78 76.94 77.53 77.28 76.09 76.32 76.23 77.17 77.96 76.77 76.30 75.86 74.20 74.20
63.25 63.75 58.82 63.43 65.69 64.73 62.53 58.37 63.02 66.26 66.24 65.63 66.43 67.83 68.28 69.36 69.13 69.50 70.37 71.65 72.24 72.31 72.80 74.01 73.85 74.95 75.63 76.09 76.42 76.03 76.21 76.05 75.85 75.69 76.25 77.15 77.73 77.70 77.46 75.76 75.79 77.29 78.16 77.24 75.76 75.38 74.07 74.32 74.11
59.64 57.50 59.21 60.65 64.57 63.21 61.11 57.99 65.27 65.23 64.39 64.99 66.41 67.25 68.01 68.62 69.13 70.48 71.21 72.08 72.59 73.43 73.64 73.75 74.51 74.55 75.47 76.70 76.10 76.38 77.16 76.59 76.44 76.66 76.65 77.67 77.38 77.64 76.99 76.42 76.84 78.39 77.29 76.64 76.39 75.10 75.94 74.85 75.11
54.00 58.06 60.78 60.30 61.77 60.36 59.46 56.89 63.32 64.06 63.99 65.59 66.37 67.11 67.82 68.29 68.94 70.97 71.96 72.79 73.09 73.87 74.62 74.77 75.11 75.87 76.38 76.57 76.75 76.16 75.86 76.41 76.59 76.62 76.81 77.45 77.41 77.64 77.59 76.64 77.49 78.35 77.69 75.89 75.83 76.68 76.29 76.13 74.98
58.56 56.03 59.08 62.23 63.77 59.64 58.85 58.66 61.32 63.53 63.78 65.26 65.98 66.86 67.42 68.23 70.54 71.83 72.13 72.95 73.34 73.65 74.35 75.01 75.20 76.56 76.80 75.90 74.33 74.28 73.92 75.34 75.45 76.32 77.74 77.58 77.47 77.20 78.54 76.51 77.39 78.24 77.02 76.95 78.21 76.72 75.81 73.75 75.16
59.10 58.81 58.84 62.17 64.05 62.15 58.47 58.11 61.29 62.89 63.08 65.49 65.26 66.35 66.98 68.19 69.69 71.02 72.14 72.71 73.15 73.81 73.98 74.76 75.63 76.79 76.43 75.82 76.34 75.46 75.36 75.53 76.06 76.64 77.42 77.53 77.22 77.86 77.77 77.42 76.65 77.96 75.90 77.93 77.74 77.23 74.75 74.43 75.45
57.07 57.93 57.89 59.09 60.39 60.96 59.23 55.76 57.40 60.80 63.16 65.19 67.00 67.39 68.07 68.68 69.37 70.61 71.45 72.34 73.22 73.78 74.58 75.05 75.87 76.67 76.81 76.85 76.06 76.80 77.71 76.84 77.23 75.95 76.16 76.64 77.35 77.73 77.90 77.51 77.92 77.32 77.47 75.54 77.83 77.13 76.40 72.57 75.20
53.95 56.21 59.63 60.55 57.81 51.63 57.55 48.46 54.46 57.03 59.73 62.77 65.42 67.44 66.93 69.06 70.35 71.16 71.45 72.10 72.81 73.68 75.36 75.86 76.31 76.76 76.83 77.26 75.92 75.33 76.83 75.06 76.66 75.47 76.23 76.70 77.64 77.20 77.29 77.83 77.64 77.88 77.41 77.51 77.44 77.44 77.17 77.13 73.65
54.30 55.71 57.50 59.33 57.34 55.70 55.06 54.18 54.35 57.22 56.84 62.45 66.08 67.05 67.74 69.00 69.88 70.54 71.61 72.65 73.56 74.05 74.76 75.69 76.50 76.93 76.58 76.92 76.73 74.75 73.80 76.66 74.30 75.49 77.74 77.45 77.75 77.64 77.22 78.08 77.88 78.07 76.64 78.05 78.35 77.99 78.05 76.81 75.47
55.70 54.96 56.12 58.57 57.00 51.69 54.42 52.91 51.51 55.63 58.20 61.21 65.92 67.57 68.11 68.93 69.74 70.81 72.26 73.05 73.54 74.11 74.59 75.30 76.06 76.44 76.72 76.47 76.54 76.10 74.86 74.54 76.78 76.44 75.16 75.49 76.23 77.03 77.29 77.58 77.96 78.18 77.83 77.39 77.25 78.88 77.60 77.52 77.08
55.06 53.81 47.48 47.43 49.13 49.62 57.25 53.56 54.56 58.03 62.37 63.18 64.58 66.53 68.39 69.32 69.47 70.37 71.30 71.95 73.29 73.68 74.08 74.50 75.58 75.71 76.07 76.05 75.93 76.16 75.84 75.76 75.25 76.41 76.69 75.50 77.61 76.78 76.93 78.04 77.99 77.01 78.11 77.67 77.96 77.34 77.88 77.45 76.82
53.41 53.43 48.82 43.03 46.61 48.90 54.25 51.16 55.25 62.80 64.43 65.08 67.30 67.23 69.00 69.78 69.61 69.91 70.11 69.27 70.33 73.58 73.35 72.35 73.83 75.59 75.95 75.92 76.36 76.88 76.97 74.41 75.53 75.45 75.27 77.49 76.18 75.35 77.57 76.72 76.82 77.39 77.55 77.71 78.06 76.40 75.68 76.78 76.19
52.79 50.32 55.59 51.11 51.94 50.16 52.32 54.84 58.77 61.57 62.63 64.92 66.52 67.06 67.81 69.64 69.99 70.08 71.60 72.39 72.99 71.21 71.88 71.32 71.51 74.09 75.63 75.61 75.96 76.22 77.19 76.46 75.38 76.13 76.24 79.12 78.39 76.81 76.85 76.55 76.28 76.40 77.07 77.57 77.97 75.64 76.69 77.52 76.79
52.81 55.13 50.46 51.14 45.63 44.84 50.51 51.97 52.42 58.51 61.08 62.07 65.09 66.51 68.02 69.52 70.60 70.67 71.48 71.77 70.95 69.97 70.25 71.23 73.48 72.76 74.41 75.02 75.74 75.62 75.10 75.31 75.29 76.27 76.43 76.82 77.51 77.89 77.07 76.59 76.40 76.47 76.60 77.80 78.16 76.32 76.98 77.10 76.27
50.42 50.19 51.13 52.85 51.60 47.37 46.41 50.73 61.14 61.29 62.69 61.98 62.65 63.78 66.17 68.64 69.50 69.95 71.26 72.57 72.69 70.81 69.76 69.78 70.50 71.72 74.05 74.29 75.16 74.89 75.22 75.08 75.27 75.07 75.51 76.02 76.74 77.35 77.47 77.20 76.23 76.40 75.90 76.39 77.06 76.91 76.62 76.49 76.39
52.78 51.15 51.73 47.32 48.95 51.03 50.91 51.90 61.46 63.09 64.29 64.33 61.99 63.47 64.13 65.69 66.02 67.64 70.19 70.98 70.55 71.32 69.93 69.31 70.15 70.26 71.58 74.49 74.49 73.63 74.89 75.06 74.76 74.96 75.39 76.52 76.17 77.77 77.46 77.20 77.15 76.95 76.34 76.83 76.39 75.72 75.71 75.95 75.23

GFSSGP_sfc_wetblb_099.txt.gz
Wetbulb
72.97 74.53 75.10 72.80 63.31 62.18 58.82 58.12 62.00 59.78 60.16 62.93 62.63 63.02 64.03 65.31 62.37 59.33 72.11 73.89 73.92 74.25 75.17 76.15 75.71 75.10 76.03 75.69 76.29 76.81 76.89 77.08 77.15 77.28 76.87 76.75 76.89 76.86 77.27 76.96 76.67 76.88 76.88 76.71 76.56 76.22 74.94 75.13 76.23
74.44 74.06 74.14 70.07 60.38 56.13 56.67 60.17 58.84 61.14 62.09 62.45 64.57 66.32 63.64 62.38 67.99 69.18 71.08 73.56 73.85 74.26 75.56 74.38 76.37 76.11 76.00 75.60 76.21 76.62 76.44 76.98 77.25 77.25 77.08 76.88 77.20 77.19 76.60 76.90 76.92 77.37 77.43 76.24 75.71 75.55 75.91 75.80 76.26
74.08 73.89 69.35 60.81 58.35 56.11 56.19 60.17 61.04 61.81 62.43 63.09 65.88 68.21 65.15 64.97 68.91 70.82 73.15 74.22 75.31 73.61 74.34 76.81 76.39 76.26 76.29 76.13 76.13 76.46 76.24 76.79 76.84 77.04 77.13 76.96 76.73 77.03 77.02 76.93 76.87 76.21 75.98 76.28 76.11 76.06 76.18 76.02 76.15
72.96 71.85 66.40 61.40 57.11 60.48 60.18 61.82 61.66 61.15 63.93 66.69 67.44 63.28 67.23 70.67 70.78 72.35 73.42 74.19 73.80 73.79 74.91 75.91 76.23 76.19 76.20 76.75 76.34 76.12 76.42 76.94 77.04 76.93 76.88 77.01 77.21 76.93 76.85 76.66 76.66 76.38 76.44 76.21 76.32 76.80 76.19 76.40 76.18
72.36 68.77 61.21 57.98 59.81 61.31 64.27 62.83 62.05 61.79 65.15 65.69 66.47 62.94 65.19 70.59 73.05 73.70 72.96 73.40 73.34 73.58 75.01 75.68 76.19 76.44 76.39 76.46 76.38 76.44 76.72 76.90 76.77 76.94 76.69 76.96 77.35 77.26 76.82 76.77 76.77 77.02 77.05 76.91 76.91 77.20 76.94 75.93 75.75
66.73 66.62 59.69 57.53 58.66 61.99 64.76 63.84 63.97 66.37 65.72 67.03 65.68 64.42 66.82 72.41 71.79 72.53 73.64 73.60 73.49 72.82 74.43 75.50 76.59 76.52 76.36 76.45 76.32 76.43 76.58 76.73 76.82 76.66 76.81 76.86 76.87 77.20 77.21 77.00 77.11 77.22 77.14 77.05 76.71 76.02 75.55 75.37 75.04
65.76 63.07 60.55 59.84 59.53 60.96 64.38 65.84 64.46 64.78 64.04 65.83 68.07 64.06 67.92 70.12 71.75 73.44 72.82 73.32 72.83 73.40 73.85 74.83 75.88 76.55 76.69 76.36 76.40 76.58 76.63 76.90 76.56 76.60 76.66 77.01 77.21 77.07 77.47 77.16 77.00 76.77 76.60 76.41 76.77 76.54 75.22 74.75 74.47
67.95 62.99 59.44 59.55 60.66 60.88 66.38 66.60 64.59 64.10 63.47 69.28 69.12 64.18 65.48 70.73 72.87 73.18 72.47 72.31 74.08 73.22 73.73 74.20 74.27 74.96 74.59 75.88 76.34 76.71 76.79 76.98 76.90 76.83 76.82 77.38 77.19 77.39 77.21 77.47 77.27 76.65 76.71 76.29 76.33 76.57 75.85 75.10 74.63
70.60 62.61 58.12 58.92 61.58 63.09 67.34 65.55 68.15 69.42 68.06 68.54 69.27 68.26 70.65 72.09 73.18 71.92 70.93 71.33 73.38 73.54 72.77 73.55 73.76 75.53 76.20 75.30 76.12 76.55 76.80 77.12 76.86 76.74 76.72 76.94 76.32 76.08 76.82 77.30 76.43 76.31 76.46 76.55 76.24 76.27 76.42 76.16 75.72
66.83 64.00 60.14 64.96 65.55 65.20 67.16 66.67 66.66 66.94 65.98 67.01 66.92 69.68 71.42 71.87 71.69 70.14 69.42 69.70 71.22 71.43 71.73 74.08 73.83 73.56 75.34 73.96 75.82 76.50 75.70 76.10 76.75 77.15 77.30 78.13 76.99 76.69 75.16 76.26 75.89 76.03 76.18 76.49 76.55 76.24 77.17 77.24 75.73
66.01 62.99 65.47 66.62 67.84 68.54 67.21 66.13 68.86 65.36 64.11 66.30 66.12 68.15 70.22 70.72 70.92 69.86 69.53 70.01 71.24 71.74 71.42 74.20 74.26 74.26 73.28 74.86 74.13 75.66 75.67 75.10 76.17 77.54 77.70 78.02 74.65 74.66 74.42 75.28 75.61 75.84 76.37 74.93 76.32 75.56 75.62 74.85 75.39
62.65 66.21 66.37 66.50 68.33 68.10 66.76 68.75 66.51 66.56 66.96 69.14 69.42 69.96 70.12 69.86 69.81 69.43 69.38 70.26 71.14 71.46 71.55 74.16 74.02 74.98 74.09 73.81 74.11 74.48 74.10 74.83 75.82 76.17 76.52 75.70 74.06 75.36 77.20 75.54 74.76 75.52 75.79 76.21 76.06 75.04 75.99 75.33 75.66
64.15 65.08 66.66 67.16 67.66 67.87 67.88 66.41 66.06 66.74 68.52 70.12 69.96 69.96 69.68 69.78 69.82 70.10 70.52 71.16 72.23 70.69 71.64 74.28 75.35 75.89 75.83 75.15 74.13 74.51 74.08 74.07 74.79 75.61 76.02 75.24 75.43 75.73 75.97 77.40 76.18 76.54 77.01 77.07 75.54 74.94 75.26 75.35 74.85
65.94 66.28 65.87 66.84 67.66 67.98 65.78 65.41 66.16 66.67 68.87 68.66 68.81 68.91 69.60 69.61 69.51 69.91 70.17 70.83 71.68 71.05 72.02 74.37 74.94 75.91 77.28 75.28 76.41 74.97 74.80 74.09 74.70 75.10 76.04 77.10 76.38 76.24 75.71 75.15 76.89 75.01 77.64 77.68 75.28 75.83 74.83 74.99 73.44
66.79 62.73 64.40 64.79 67.06 64.53 65.86 62.77 62.32 67.31 68.35 67.50 67.88 68.84 69.18 69.30 69.89 69.32 70.15 71.49 71.78 71.64 73.21 74.20 74.54 75.20 76.09 76.52 75.59 75.58 74.29 74.21 73.86 75.75 77.30 77.05 77.24 77.87 78.04 76.00 75.77 75.01 76.44 77.26 76.68 75.51 75.29 73.05 72.73
65.06 62.44 57.79 63.26 66.07 65.40 64.62 57.94 64.43 67.43 67.07 66.31 67.32 67.85 68.03 68.48 69.20 69.40 71.38 72.19 72.28 72.22 73.24 73.93 73.61 74.31 75.22 75.91 77.59 77.07 75.75 75.28 76.06 75.52 76.32 77.60 77.92 77.41 78.65 75.27 75.86 76.15 77.94 74.89 76.05 73.88 72.99 72.94 73.27
63.14 55.60 58.10 60.06 65.22 63.19 63.10 59.25 65.27 67.14 66.31 65.93 66.57 66.48 67.52 68.43 68.63 69.87 71.44 72.07 72.37 72.99 73.50 73.61 74.49 74.19 75.72 76.14 75.32 76.69 77.34 76.84 75.52 75.65 76.27 77.83 77.46 77.77 76.60 78.07 76.26 78.10 75.86 75.75 76.21 73.37 76.36 73.60 73.04
56.68 54.91 59.94 59.44 62.14 63.43 58.47 57.13 62.66 64.83 63.84 64.31 65.27 66.79 67.10 67.00 67.91 70.05 70.98 72.32 72.92 73.63 74.13 74.01 74.09 76.08 76.80 75.69 76.26 74.91 75.80 76.31 76.02 76.33 75.87 77.60 77.22 77.42 77.50 76.35 76.92 76.60 77.01 74.94 75.48 78.15 74.66 74.73 73.86
57.33 55.55 54.83 61.37 61.97 59.26 59.34 57.91 60.94 62.61 62.10 63.69 65.09 65.19 66.22 66.07 68.75 70.53 71.34 72.17 72.69 73.77 74.09 74.37 75.49 76.27 75.95 75.35 73.96 74.10 73.48 74.66 75.01 75.74 77.47 77.49 77.35 77.60 78.37 76.59 76.89 77.32 78.12 77.32 76.51 75.50 76.10 72.55 74.20
60.20 57.48 53.82 60.47 62.59 59.72 58.76 57.40 60.72 61.78 60.80 62.32 64.67 65.23 66.15 67.19 68.20 69.55 70.51 71.64 71.95 72.89 74.02 74.81 75.76 76.68 76.86 75.69 75.54 76.43 74.12 75.78 75.65 75.92 77.36 77.67 77.38 77.97 77.61 78.79 76.84 77.94 75.84 77.05 77.08 77.42 75.06 72.37 74.01
57.54 57.56 54.21 53.41 60.04 59.25 57.72 55.62 58.48 61.33 61.04 62.91 65.42 67.09 66.47 67.27 68.35 69.28 69.97 70.92 72.27 72.88 73.58 74.64 75.91 76.79 76.90 75.23 77.19 77.13 77.35 76.80 75.83 76.07 76.09 77.04 77.40 77.37 78.19 77.95 76.91 77.47 78.45 75.54 77.05 76.38 76.98 73.92 73.34
53.86 59.98 57.73 56.58 58.91 54.57 57.96 49.26 56.95 58.12 58.86 60.96 65.74 64.78 65.59 66.81 67.15 69.70 70.15 71.12 71.69 73.65 74.84 75.45 76.03 76.80 77.03 77.00 77.00 75.52 76.80 75.44 74.45 73.80 75.14 76.79 77.49 77.05 77.37 77.62 77.64 78.44 77.96 80.09 77.88 76.51 78.37 77.39 72.40
55.30 58.61 59.22 58.15 58.17 57.84 56.36 53.00 55.72 59.53 56.45 58.48 65.26 64.98 65.90 66.98 68.64 68.35 70.17 71.45 72.28 74.06 74.40 75.47 76.36 76.93 77.39 77.24 77.86 75.17 75.20 76.02 76.10 74.13 76.58 75.20 78.08 77.51 76.68 77.51 77.66 77.80 76.77 78.05 79.90 77.58 78.65 75.53 75.62
59.51 56.81 57.24 59.88 58.82 49.45 55.82 54.63 54.06 56.56 57.37 58.58 61.70 64.99 66.47 67.97 68.53 70.22 70.77 72.27 72.05 73.75 74.35 75.09 76.21 76.85 77.02 77.04 76.78 75.94 74.36 75.22 75.40 74.88 76.04 75.33 75.85 76.30 77.38 77.55 77.90 78.44 78.30 77.96 77.26 78.46 77.90 79.41 78.18
58.71 54.79 49.03 48.29 47.27 50.15 56.19 54.34 55.28 60.61 59.67 60.51 61.51 64.66 66.67 66.12 68.71 69.00 69.91 69.54 72.06 72.73 74.09 74.84 76.09 76.19 76.65 76.50 76.02 75.77 75.94 75.75 75.03 76.16 73.81 71.78 72.48 73.81 77.77 77.89 77.50 77.26 78.29 77.74 78.12 78.28 78.01 77.38 77.48
55.90 55.49 50.51 45.53 47.47 49.61 56.65 51.56 54.77 61.13 62.37 63.16 65.57 67.04 68.62 68.53 67.12 68.50 70.96 69.93 72.92 73.12 74.20 74.57 75.80 76.35 76.34 76.24 76.36 76.84 76.55 74.80 74.45 75.71 76.82 74.90 73.28 75.06 78.38 77.39 77.45 77.38 77.95 77.73 77.80 76.25 75.69 78.26 76.13
54.08 53.49 57.44 51.50 53.45 48.82 52.15 57.14 60.89 61.88 62.06 64.41 65.49 67.11 67.58 68.85 67.91 69.02 70.27 72.72 73.00 73.60 74.37 75.17 75.86 76.26 76.22 75.91 76.48 76.62 76.76 76.33 75.70 75.98 76.85 75.99 77.90 76.20 77.24 76.93 76.69 77.17 77.36 77.63 78.06 75.47 76.34 75.88 77.17
53.78 57.02 52.51 53.16 46.63 44.22 50.24 52.60 53.38 59.07 61.31 64.38 65.34 66.89 68.58 69.14 70.64 69.23 71.28 72.69 71.57 70.65 74.44 73.15 73.03 74.45 75.74 76.37 75.94 76.01 76.13 76.29 76.03 76.15 76.03 76.82 74.38 76.65 77.28 76.32 76.53 76.55 76.67 77.07 77.65 77.52 77.76 77.13 76.14
51.51 51.20 54.09 54.40 52.59 47.94 47.65 52.18 60.43 61.40 64.03 64.20 66.56 68.08 68.79 69.70 70.66 72.10 71.89 73.02 74.02 73.60 73.37 71.62 73.26 73.74 74.83 75.75 76.21 76.41 75.68 75.96 76.47 75.57 75.63 76.41 76.75 77.28 76.50 77.00 76.60 76.68 76.66 77.01 77.84 77.87 76.96 76.86 77.10
53.54 51.84 52.73 49.11 50.08 51.98 50.51 50.44 63.14 64.21 65.27 66.52 66.36 67.51 69.23 70.95 71.36 71.84 72.34 72.10 71.93 71.89 69.41 70.52 69.92 70.59 71.03 73.24 75.21 75.55 75.21 75.77 75.38 75.17 75.73 76.37 76.48 76.78 76.78 76.94 76.92 77.10 76.48 77.52 77.37 76.15 76.05 76.23 75.66

GFSSGP_sfc_wetblb_102.txt.gz
Wetbulb
71.80 72.42 73.56 71.91 62.67 61.87 56.67 57.21 61.03 59.09 59.19 62.37 65.92 64.22 63.18 64.16 60.88 57.10 70.67 71.99 72.80 73.24 74.51 75.54 76.50 75.66 75.82 76.10 76.51 76.76 77.00 77.03 77.26 77.36 76.96 76.86 76.92 77.16 76.23 76.68 76.56 76.81 76.50 76.42 75.20 75.51 76.12 76.35 76.50
69.43 73.73 73.08 67.66 59.75 53.72 55.47 60.05 58.29 60.26 61.32 67.03 66.39 64.63 64.06 61.93 67.69 68.25 69.47 73.04 73.59 73.76 73.69 72.92 77.02 76.21 75.44 76.44 76.60 76.43 76.66 76.97 77.08 76.92 76.99 76.84 76.84 77.74 76.87 76.88 76.67 77.48 76.88 76.06 76.23 76.29 76.06 76.50 75.85
70.35 73.90 68.88 60.36 56.28 54.98 54.70 59.77 60.28 60.69 62.54 65.70 64.40 66.07 65.35 64.03 68.46 69.28 72.79 74.02 73.56 73.37 73.94 75.62 76.50 76.46 76.14 76.54 76.24 76.53 76.58 76.99 76.85 76.99 76.93 77.00 76.78 77.00 76.68 76.67 76.46 76.67 76.56 76.56 76.66 76.31 76.14 76.00 75.66
71.55 71.27 66.97 57.74 55.02 59.52 59.20 60.58 60.87 61.85 65.70 67.07 65.84 62.84 67.86 70.16 69.45 71.87 73.59 72.77 73.26 73.38 74.69 76.41 76.63 76.51 76.62 76.64 76.46 76.42 76.70 77.13 77.41 77.08 77.17 76.96 76.96 76.64 76.67 76.51 76.13 76.70 76.69 76.72 76.70 76.72 76.09 75.62 75.06
72.17 67.68 60.55 57.36 57.62 60.32 61.76 61.79 62.41 63.06 65.43 64.30 65.05 62.56 65.34 70.19 72.63 73.21 72.70 73.57 72.80 73.24 74.33 74.99 76.95 76.63 76.72 76.57 76.70 76.83 76.82 77.14 77.17 77.34 77.32 77.38 77.13 76.95 76.81 76.70 77.12 77.01 76.97 77.22 77.05 76.25 75.67 75.06 74.65
65.85 65.72 57.05 56.12 57.94 61.33 61.52 62.41 64.16 65.32 66.13 65.62 64.10 64.21 65.49 71.66 70.90 71.56 73.33 71.16 73.28 73.16 73.94 75.02 76.72 76.66 76.49 76.45 76.73 76.72 77.02 77.00 77.02 77.77 77.26 77.56 77.69 77.87 77.36 77.53 77.64 77.20 77.04 76.45 75.65 75.40 75.23 74.59 73.93
64.98 63.34 59.49 58.75 58.64 59.08 60.66 64.41 64.60 64.85 64.17 63.69 66.98 63.07 66.40 69.58 71.38 73.02 70.62 72.21 73.88 73.56 73.37 74.19 74.98 76.31 76.76 76.97 76.48 76.81 76.98 76.90 76.93 77.24 77.34 77.95 77.51 77.31 77.87 78.27 77.31 76.79 76.87 77.01 75.70 75.29 74.82 74.32 73.93
67.16 63.32 59.33 59.45 58.59 58.75 62.80 65.47 67.29 65.52 63.35 68.13 67.71 63.33 63.84 69.26 72.02 72.86 72.04 72.57 72.50 72.62 72.46 74.10 74.82 74.81 75.03 75.20 76.79 76.91 76.71 76.97 77.11 77.22 77.51 78.05 78.03 77.13 76.57 77.80 77.91 76.76 76.68 76.76 76.58 75.61 75.01 74.79 74.43
70.45 59.55 56.63 57.37 59.71 61.63 64.65 62.78 66.73 68.55 66.19 67.11 68.27 67.92 69.31 70.79 70.30 69.62 71.48 71.70 70.43 72.24 72.97 74.09 73.12 74.45 75.73 76.03 76.34 76.91 77.16 77.28 77.53 76.79 77.42 77.67 75.56 75.96 75.98 77.22 77.62 76.84 76.79 76.76 76.92 76.46 75.62 74.59 74.79
65.87 60.47 58.82 62.41 64.12 63.31 65.70 65.02 66.02 65.95 65.87 65.96 66.47 69.16 70.07 70.56 69.25 67.95 67.92 68.68 69.66 71.03 71.53 73.34 73.48 73.24 73.75 73.99 76.43 76.90 75.36 75.77 76.44 76.44 76.30 76.32 77.42 76.67 74.84 76.04 77.04 76.70 76.45 76.95 77.28 77.46 77.26 75.36 74.93
65.46 60.57 64.09 64.34 65.59 66.36 66.23 65.48 67.94 65.23 63.50 65.89 65.22 66.95 68.75 68.99 68.35 67.85 68.29 69.01 69.38 70.69 72.69 72.24 73.03 75.02 73.68 75.14 75.84 73.92 76.17 75.49 74.72 77.10 77.51 77.76 75.09 74.30 74.25 74.91 75.70 76.04 75.71 74.46 75.94 76.28 75.70 73.25 73.10
62.30 65.54 66.01 66.91 67.78 66.80 65.48 67.24 65.67 66.39 65.64 67.96 68.59 68.87 68.25 68.21 67.44 67.75 67.78 69.01 69.62 71.13 72.38 72.44 74.61 76.96 74.56 74.88 74.39 75.38 75.41 74.83 72.50 74.21 75.69 77.79 74.26 76.14 72.11 73.87 69.80 73.53 75.20 73.23 74.40 74.98 76.46 74.85 75.01
63.35 64.52 66.62 66.69 67.61 67.34 67.64 66.37 65.31 65.61 67.27 68.99 69.43 69.03 67.80 68.21 68.06 68.68 69.58 69.73 69.85 70.03 72.80 72.77 75.39 77.26 79.09 74.11 73.99 74.91 73.54 74.10 75.72 75.88 75.79 76.10 73.84 77.13 74.73 71.35 72.74 71.52 71.71 73.73 75.37 74.41 75.01 75.13 74.96
66.32 65.76 65.95 67.24 65.55 67.30 65.70 64.88 66.04 65.64 68.36 67.78 68.44 67.91 67.82 67.90 67.73 68.68 69.41 69.92 69.60 71.45 73.07 72.68 73.87 76.40 76.16 77.45 78.75 72.75 72.62 74.98 75.52 76.91 74.18 75.21 74.09 75.18 73.42 71.44 74.49 74.88 73.35 76.39 73.43 72.05 72.05 74.65 73.30
66.32 63.24 64.36 65.68 66.69 65.65 66.24 62.34 62.66 66.23 67.75 66.67 67.10 67.47 67.71 67.81 68.55 68.52 69.56 70.23 69.93 71.01 73.72 72.75 73.78 74.08 77.01 78.05 78.44 77.35 74.19 74.71 75.50 75.67 75.54 73.98 77.12 73.72 72.22 73.32 75.30 76.68 77.39 77.06 77.97 77.12 75.17 73.53 73.75
63.70 63.93 58.92 63.05 64.72 65.58 64.26 57.99 65.16 66.42 66.18 65.51 66.27 66.80 67.56 67.84 67.93 69.09 70.55 70.23 71.43 72.18 73.49 73.48 73.91 73.73 75.54 77.10 78.76 74.47 74.22 72.78 75.91 76.48 77.79 78.79 78.73 76.04 74.73 75.48 76.02 78.53 78.77 78.21 74.70 75.65 75.17 74.12 73.90
62.43 57.22 58.62 60.17 65.12 64.43 63.48 58.96 63.40 66.40 65.36 64.69 65.59 66.01 66.76 67.60 67.94 69.18 71.15 71.05 71.58 73.22 73.63 70.86 74.38 74.04 74.33 78.51 75.31 78.52 74.76 75.39 75.94 76.86 76.59 78.37 78.84 75.15 78.29 74.40 76.52 78.23 77.65 71.34 73.22 74.09 74.79 74.38 71.96
56.55 57.16 59.05 58.84 61.67 62.99 60.12 58.29 63.59 65.68 64.91 64.38 65.09 65.52 66.00 66.18 66.98 68.81 71.02 70.99 72.36 73.27 73.88 73.16 74.08 75.33 76.84 72.31 74.35 76.34 73.68 74.04 74.99 76.29 78.32 79.50 78.28 78.64 77.83 77.96 78.17 75.59 77.69 72.18 77.18 75.34 73.89 76.65 71.28
57.01 57.49 57.59 56.60 60.31 60.47 58.81 58.27 59.94 63.86 64.85 63.20 64.50 64.20 64.96 66.26 67.68 69.22 70.63 71.89 71.89 73.02 73.88 73.85 73.50 75.85 74.98 75.45 72.75 74.35 74.38 74.28 75.42 74.33 78.30 78.71 79.01 79.36 79.38 78.12 78.12 74.74 74.50 77.31 77.25 76.62 76.12 75.67 76.11
57.31 55.18 55.16 55.02 56.52 58.94 58.27 57.50 59.90 62.00 62.06 62.54 63.99 63.37 65.61 65.69 67.07 68.64 69.37 71.06 71.19 72.60 73.54 74.75 76.39 76.92 77.11 77.43 77.42 75.84 73.42 76.80 75.79 77.39 78.46 78.58 76.76 79.01 78.87 77.45 76.95 71.91 75.02 78.63 78.01 78.49 76.79 74.50 75.21
57.76 56.56 53.12 51.91 54.15 56.61 57.92 55.83 58.82 61.27 62.13 62.47 63.29 65.24 65.72 66.32 65.68 68.47 69.37 69.10 71.57 72.75 73.81 73.78 73.80 77.36 77.30 78.16 74.47 75.84 72.43 76.89 73.17 77.08 77.40 77.67 76.91 78.80 77.26 77.52 74.95 76.49 74.33 74.54 77.59 78.49 77.43 74.43 74.15
54.82 58.04 56.29 54.41 50.84 48.34 58.22 49.00 55.99 57.54 58.22 59.72 61.53 63.09 65.43 65.69 67.59 69.24 68.80 69.50 70.75 72.41 74.10 75.70 75.81 76.71 76.40 74.42 74.56 75.56 74.42 69.69 75.01 76.07 72.24 73.54 78.50 77.13 78.40 78.10 76.32 76.44 72.79 72.63 76.35 78.83 77.88 77.45 74.51
54.40 60.21 56.96 55.33 51.49 51.67 54.06 52.01 53.84 58.77 56.23 58.39 60.35 62.85 64.89 66.51 67.73 66.97 68.66 68.47 71.80 72.60 72.91 74.66 76.56 77.21 77.91 77.64 77.77 76.61 75.85 75.28 74.58 74.14 72.86 74.03 76.71 77.87 77.13 78.57 78.22 77.70 75.94 74.81 72.85 76.04 78.72 77.95 76.13
58.16 58.12 56.25 54.69 52.25 47.79 53.48 54.00 53.04 55.69 58.43 59.71 60.95 63.48 65.66 66.52 66.42 67.59 68.71 69.34 72.35 72.93 73.66 74.79 76.20 76.94 78.21 77.67 77.33 76.84 77.85 74.71 74.09 70.37 73.46 74.16 76.37 77.55 79.31 77.09 79.78 79.54 73.58 74.52 77.34 78.52 78.43 78.86 77.81
57.51 54.98 48.36 47.14 45.88 47.15 53.83 53.03 55.15 59.14 61.49 61.45 60.46 62.80 64.48 67.15 67.06 68.42 68.46 68.99 70.96 72.25 73.51 74.65 75.81 75.94 77.03 76.70 76.56 77.04 76.73 76.50 76.33 76.49 72.65 74.81 71.43 71.00 73.98 79.81 78.04 77.79 77.92 77.19 78.32 77.61 78.49 78.29 77.04
55.25 54.82 48.27 42.41 44.20 48.19 53.71 50.61 55.51 61.44 62.64 62.21 63.16 64.02 65.38 65.73 67.34 68.29 68.19 66.99 70.97 72.88 74.28 73.55 75.36 75.83 76.42 76.28 77.12 77.79 78.54 75.97 75.85 77.13 74.90 71.65 71.67 71.42 74.39 77.29 77.76 78.35 78.30 78.23 78.38 78.03 77.19 77.97 77.37
53.69 51.59 56.40 50.96 51.37 49.14 50.52 55.42 60.19 60.29 60.09 61.87 62.81 63.63 63.36 64.28 65.67 67.30 67.53 70.13 67.90 67.81 71.88 73.16 75.00 75.42 76.48 76.23 77.43 78.10 78.24 78.41 77.81 77.66 79.90 76.52 72.16 71.51 70.44 68.10 76.38 77.40 76.18 77.48 76.73 77.54 77.08 73.37 72.31
54.48 56.35 50.28 51.60 44.52 43.95 49.30 49.69 52.89 57.12 58.65 61.01 62.45 63.09 62.58 63.63 65.59 66.97 67.51 67.53 66.41 66.99 70.59 73.89 76.19 75.31 75.80 74.57 76.47 76.40 76.73 77.55 78.46 78.88 77.61 76.38 70.52 68.35 69.40 69.99 74.37 77.12 76.81 77.85 78.87 77.70 76.44 75.89 73.34
51.07 50.62 52.41 52.78 52.69 45.65 46.10 49.71 58.59 60.90 61.27 61.93 64.43 65.86 65.99 68.14 67.35 67.07 67.39 70.11 66.08 67.46 73.05 73.40 74.48 74.62 75.54 75.05 73.81 76.92 76.46 76.76 76.98 77.71 78.34 78.49 72.22 69.99 69.57 73.61 76.56 75.71 77.75 78.24 77.54 77.72 77.28 75.16 74.77
52.92 51.36 51.85 48.60 48.88 51.47 50.40 51.34 60.24 60.24 64.11 64.63 66.66 67.50 69.37 69.10 68.31 66.68 68.14 69.34 71.24 71.29 73.47 72.13 71.79 72.11 73.28 73.33 74.46 75.33 73.09 74.01 76.09 73.87 71.65 76.56 77.74 76.96 77.62 78.41 76.54 76.98 76.29 76.55 76.58 76.52 76.28 75.62 75.11

GFSSGP_sfc_wetblb_108.txt.gz
Wetbulb
70.01 70.78 71.27 70.18 59.91 57.80 52.83 55.90 59.92 59.16 59.92 63.85 64.03 63.03 60.60 61.87 58.51 54.02 68.00 70.69 71.69 72.51 74.21 75.00 76.75 75.88 76.02 76.47 76.62 76.75 76.85 76.54 77.41 76.70 77.17 77.03 76.34 76.45 76.71 76.78 76.80 75.97 75.76 76.47 76.44 76.30 76.39 76.06 75.37
65.84 67.74 69.94 64.93 54.40 50.29 51.34 59.24 57.43 59.91 63.13 65.07 64.82 63.48 61.69 59.70 65.51 66.07 67.35 71.25 72.65 73.08 72.92 73.85 76.43 76.18 76.54 76.58 76.87 76.57 76.36 76.67 76.78 76.60 76.57 76.64 76.53 76.86 76.96 76.63 75.62 75.46 75.54 76.09 76.37 75.84 76.04 75.92 75.24
67.36 70.63 62.80 58.54 53.48 51.67 49.16 59.12 59.72 62.43 64.72 63.80 63.11 65.12 63.95 61.39 65.95 66.69 69.67 71.88 72.79 71.28 72.11 73.75 76.67 76.60 76.51 76.46 76.88 76.77 76.83 76.92 77.06 76.72 76.70 76.62 76.36 76.91 76.66 75.93 76.66 76.56 76.34 76.58 75.98 75.79 76.06 76.20 76.09
66.12 67.30 63.25 54.92 53.80 58.56 55.24 60.24 61.40 62.17 64.43 65.49 64.51 61.69 66.19 68.93 67.69 68.83 71.46 72.36 70.76 72.10 73.00 75.82 76.02 76.50 76.53 76.57 76.77 76.80 77.06 76.94 76.81 76.82 76.55 76.63 76.62 76.37 76.39 76.39 76.52 76.52 76.28 75.68 75.54 75.45 75.67 75.79 76.20
63.91 63.59 56.54 56.16 55.69 58.35 60.14 62.73 62.71 61.82 63.14 63.42 64.28 61.53 62.99 67.68 69.86 69.94 70.46 71.75 72.08 72.47 73.91 74.76 76.92 76.73 76.36 76.57 76.52 76.86 76.98 76.86 77.03 76.62 76.60 76.61 76.65 76.50 76.81 76.56 76.47 76.58 76.31 75.65 75.13 74.82 75.12 75.18 75.98
62.84 62.16 55.80 54.18 55.01 56.93 61.18 64.08 63.30 63.03 63.61 64.25 63.12 62.81 62.97 68.93 69.47 70.28 71.75 71.92 73.15 72.84 73.77 74.58 76.69 76.59 76.46 76.61 76.81 77.11 77.10 77.09 77.01 76.89 76.88 76.83 76.79 76.83 76.84 76.65 76.51 76.92 76.56 74.76 74.63 74.32 74.07 74.49 75.54
63.14 59.94 55.97 56.20 54.19 55.41 59.62 64.29 62.11 62.93 63.14 63.08 65.76 60.99 63.03 66.75 69.48 71.22 71.23 71.99 72.52 73.33 72.94 73.27 73.92 75.42 76.71 76.76 77.07 76.97 76.75 77.17 77.05 77.23 76.71 76.84 76.96 76.98 76.90 76.85 75.99 74.95 74.72 74.34 73.75 73.34 73.21 73.74 74.32
65.62 61.66 58.22 57.80 53.46 53.78 61.38 65.34 64.97 63.97 63.43 67.50 66.97 60.48 60.11 66.21 70.00 70.97 70.77 71.16 71.74 72.56 72.46 72.30 72.81 73.27 73.28 74.55 76.97 77.01 77.17 77.18 77.17 77.24 76.98 77.13 77.20 76.74 76.51 77.31 77.11 75.71 74.84 73.80 73.31 73.15 73.13 73.18 73.74
67.65 57.25 55.55 57.68 56.02 57.35 64.61 63.77 65.68 67.44 65.08 65.24 66.74 65.00 66.89 69.38 69.49 69.13 68.61 69.43 69.87 71.42 71.29 71.70 71.98 72.06 72.74 73.63 75.27 76.77 77.13 77.32 77.46 76.92 77.15 76.03 73.11 73.43 74.34 76.06 76.40 75.93 75.29 74.62 73.84 73.53 73.31 73.66 74.24
64.06 57.10 56.60 61.24 61.97 60.73 63.85 63.72 63.42 63.59 63.65 63.44 64.05 67.03 68.35 69.26 68.05 67.37 66.68 66.91 67.75 69.25 70.58 70.39 70.93 71.60 72.75 74.93 73.05 73.11 74.45 73.79 74.09 74.02 73.35 72.42 72.10 72.22 74.27 74.88 75.81 75.93 74.42 74.27 75.49 75.62 75.62 74.91 71.64
63.55 58.20 61.29 61.27 62.52 63.09 63.71 63.07 66.13 62.53 61.52 62.94 62.69 64.96 66.86 67.24 66.85 66.89 67.01 67.84 68.22 69.67 70.32 69.97 70.88 71.11 70.66 72.87 72.43 72.94 72.50 72.17 72.12 72.03 72.09 72.15 72.79 71.66 68.65 67.53 67.94 67.00 69.65 65.11 67.66 68.87 74.35 69.78 69.51
60.55 62.88 62.77 63.33 64.55 64.49 63.47 66.14 63.59 63.99 63.86 65.90 65.54 66.87 67.16 66.06 65.99 66.58 67.46 68.29 68.68 68.85 69.53 69.33 69.41 69.63 70.60 72.08 71.87 71.76 71.69 69.61 70.02 71.17 71.83 70.09 70.04 70.23 65.70 64.49 64.43 64.80 67.23 67.54 67.31 68.09 71.40 72.73 73.01
61.88 61.67 63.77 64.23 63.87 63.77 64.65 63.79 63.54 63.89 66.53 66.40 66.78 66.82 65.73 65.98 65.26 68.11 69.05 68.85 67.97 67.62 68.74 69.51 69.18 69.32 71.03 71.82 71.25 71.68 70.94 65.71 69.22 71.76 72.00 72.48 68.38 69.38 66.88 65.14 66.73 67.89 68.86 69.70 69.43 69.06 70.44 70.95 70.50
65.47 64.47 63.21 63.54 62.79 64.03 62.95 64.16 63.27 64.77 66.13 65.12 65.62 64.73 65.03 63.64 66.66 67.65 67.96 67.35 66.91 67.78 69.01 70.18 70.81 71.19 70.39 70.26 70.66 71.13 70.82 68.64 71.47 70.74 70.87 71.56 70.33 69.48 66.93 65.77 67.16 68.50 70.02 69.74 69.34 69.27 66.39 68.19 68.68
65.69 61.40 62.20 62.08 64.20 62.56 64.89 61.09 60.38 64.39 65.69 64.20 64.47 63.84 65.03 65.46 67.37 67.10 67.98 67.63 67.67 68.61 69.17 69.20 69.64 72.30 71.58 70.19 70.01 70.48 70.44 71.42 70.59 69.08 70.61 71.37 69.89 69.41 68.39 67.86 68.75 69.81 71.21 70.51 69.94 69.32 68.99 69.21 69.20
62.06 60.26 56.50 61.28 62.27 61.44 63.39 55.87 62.27 64.72 63.95 63.21 63.35 63.88 64.63 65.25 66.63 68.14 68.86 68.74 68.51 68.90 68.41 68.95 71.86 70.83 70.35 71.24 70.44 69.45 70.29 71.84 70.61 68.17 71.00 72.33 70.32 68.23 68.18 68.16 70.00 71.08 68.98 72.71 71.62 70.47 70.37 69.51 68.35
59.98 51.95 55.65 59.38 61.50 62.25 61.15 57.29 62.56 64.32 63.96 62.66 62.99 62.55 63.83 64.24 64.95 67.67 69.58 69.28 68.94 68.74 68.18 67.29 69.10 70.38 70.69 71.65 70.98 72.07 72.28 70.39 70.73 71.36 72.06 71.99 72.66 72.32 71.72 70.93 70.55 71.52 72.01 68.98 69.79 68.74 69.27 68.64 67.40
49.76 54.35 54.87 53.83 57.73 59.78 56.60 58.13 62.64 64.13 62.79 62.17 62.25 63.16 63.71 64.19 63.60 67.63 69.29 69.42 69.32 68.80 68.38 68.55 68.65 70.33 69.89 70.62 70.47 69.65 70.63 71.58 71.52 71.47 72.04 72.78 71.62 73.31 72.94 71.53 69.63 67.42 71.20 70.69 71.81 70.34 71.35 69.68 67.82
57.25 54.92 53.50 55.45 57.79 56.92 55.57 55.96 59.65 62.50 62.82 61.61 60.43 61.34 62.72 63.74 65.05 67.38 69.01 69.22 69.05 68.60 68.90 68.91 68.36 69.16 68.50 69.51 69.45 67.48 68.29 70.31 70.75 72.93 73.28 72.62 72.71 73.45 72.43 72.26 69.60 68.92 70.58 70.74 71.17 71.20 71.45 70.65 69.34
55.86 53.62 53.27 54.89 57.27 56.08 55.07 54.68 57.86 61.49 61.29 61.79 62.14 61.56 62.34 63.39 64.43 66.74 67.48 68.10 68.45 68.07 69.47 69.29 68.77 69.40 69.57 70.24 70.71 70.29 69.47 71.28 70.91 71.18 72.61 73.45 72.16 72.80 72.73 71.69 70.48 70.57 69.88 68.17 69.34 71.98 71.49 70.34 68.26
54.48 54.16 52.85 52.92 55.07 56.08 53.97 52.67 55.17 61.08 62.27 62.90 62.61 62.98 64.47 62.58 63.77 65.30 65.84 66.34 68.05 68.25 70.02 69.60 69.48 69.59 71.10 71.09 70.20 69.59 70.45 70.31 70.01 70.69 71.14 71.85 73.64 73.08 72.46 71.14 71.05 69.73 67.89 63.46 66.85 71.77 71.49 69.58 70.24
50.26 57.22 55.92 53.78 51.39 46.96 54.35 47.05 55.31 58.38 58.95 60.41 62.23 62.45 62.72 63.81 65.10 65.65 65.85 65.70 68.27 68.75 70.37 70.22 70.51 70.87 71.12 70.50 69.52 68.61 67.75 67.31 68.97 69.42 70.06 70.86 69.99 72.41 72.93 70.31 70.91 69.12 64.06 66.27 69.13 71.72 71.90 70.65 69.58
53.72 57.47 54.91 53.87 50.42 50.75 51.09 48.81 53.26 57.72 56.48 58.43 60.48 61.84 63.23 64.14 65.08 65.31 66.07 66.37 68.48 69.80 70.14 70.85 70.80 70.78 71.24 70.32 70.17 69.34 68.05 68.71 70.16 69.89 69.55 68.52 69.93 72.24 73.72 69.53 71.49 69.17 68.91 69.88 71.06 71.70 71.54 72.12 70.20
58.02 54.87 53.91 53.08 50.09 43.21 49.80 49.63 50.07 53.81 56.27 58.67 60.73 62.21 63.46 64.00 64.24 65.49 66.78 67.47 67.64 69.27 70.25 70.51 69.85 70.21 70.79 70.56 70.79 69.88 68.62 68.92 68.82 68.61 69.38 70.07 70.83 70.97 71.27 73.12 72.23 71.24 69.47 67.76 68.00 71.70 72.00 71.74 71.41
54.53 48.54 44.76 43.81 43.47 42.13 51.06 49.08 50.71 56.72 58.40 59.13 59.84 61.56 63.32 64.63 64.70 64.14 64.85 66.27 67.25 68.09 69.23 70.22 69.19 68.80 70.77 70.28 70.50 70.01 70.14 69.47 68.77 68.16 68.82 69.60 69.99 69.22 69.62 71.18 71.48 69.84 68.88 64.84 69.67 70.50 70.05 71.56 71.00
51.79 46.80 43.78 39.64 39.90 45.00 51.93 47.52 51.81 58.64 59.98 61.32 61.38 62.21 63.63 64.66 64.73 65.04 65.27 66.40 67.38 69.16 69.38 69.80 69.50 68.91 70.65 69.83 69.46 69.83 70.60 70.17 69.84 69.01 70.17 70.53 69.43 69.13 70.74 71.27 71.82 71.93 72.00 71.04 71.84 70.56 70.87 70.99 69.58
50.98 46.17 49.50 45.02 43.74 44.52 48.95 52.50 56.43 58.50 59.63 59.66 60.21 61.57 62.21 64.10 65.41 65.16 65.06 66.59 67.14 68.07 69.65 70.34 70.10 70.18 70.20 70.72 70.54 70.35 70.70 70.60 70.69 71.35 70.10 70.31 70.69 71.07 70.48 71.33 69.63 69.01 71.49 71.74 71.60 70.52 69.94 70.08 68.62
52.17 52.97 43.43 42.28 38.85 39.46 45.19 46.67 48.51 52.77 55.31 59.02 60.08 60.22 62.45 63.84 64.48 65.26 66.05 67.86 68.39 67.72 67.54 69.98 70.91 71.09 71.06 71.07 71.24 70.20 71.10 70.90 70.80 70.53 70.28 70.91 71.04 70.52 70.76 69.71 68.26 68.12 69.78 71.69 71.22 71.11 70.88 70.10 69.67
43.98 43.36 42.51 44.49 44.27 41.39 41.97 46.00 53.10 53.54 55.44 57.94 59.37 61.27 61.86 63.06 63.62 65.35 66.71 68.35 68.84 69.28 69.34 68.12 69.30 71.25 71.63 71.14 71.48 71.04 71.67 71.33 70.95 69.93 69.42 69.24 68.47 68.11 68.90 68.02 67.86 69.72 71.44 71.69 71.02 70.69 71.04 70.08 69.66
46.19 43.96 42.44 38.37 38.63 43.37 44.43 46.81 57.99 57.42 57.61 58.83 59.66 60.94 61.81 63.30 64.13 66.14 66.13 65.93 67.02 67.53 67.75 68.49 67.68 69.36 71.02 70.34 70.84 71.67 71.89 71.10 71.10 70.32 70.53 69.40 68.17 67.18 65.94 67.27 69.99 71.71 71.89 71.54 71.20 71.02 72.26 70.69 69.92

GFSSGP_sfc_wetblb_111.txt.gz
Wetbulb
71.16 71.93 71.21 69.63 57.17 55.22 52.61 54.29 58.87 57.01 56.92 60.90 62.02 60.75 58.93 61.12 57.28 50.39 66.16 69.43 70.06 70.36 73.09 74.63 76.04 75.68 76.01 76.65 76.56 76.53 76.23 76.29 76.33 76.22 76.67 76.32 76.45 76.25 76.22 76.41 76.31 76.46 76.17 76.22 76.38 76.35 75.90 75.62 75.59
66.93 66.42 69.09 63.17 52.59 48.81 51.72 58.12 56.44 59.65 62.46 63.41 63.66 62.93 61.09 59.17 65.27 65.74 66.24 70.16 70.69 72.21 72.71 73.72 76.43 75.93 76.09 76.39 76.34 76.57 76.52 75.99 76.38 76.18 76.43 76.38 75.97 76.25 76.37 75.10 74.60 74.88 76.04 76.14 76.28 76.09 75.79 75.55 75.73
66.82 70.57 62.15 57.99 52.63 47.19 51.65 58.32 59.45 62.01 64.16 63.26 62.46 65.09 63.17 61.34 66.10 66.26 69.23 71.41 72.54 71.97 72.16 73.08 75.28 76.22 76.15 76.44 76.45 76.47 76.56 76.19 76.03 76.53 76.14 76.16 75.95 75.24 75.38 75.84 75.76 75.59 76.25 75.73 75.93 76.07 76.08 76.15 76.10
65.20 66.49 62.89 55.50 52.13 56.87 56.10 59.19 61.43 62.17 63.81 65.13 64.04 61.12 65.39 67.68 66.56 68.49 70.98 71.98 70.42 70.98 71.95 74.76 75.35 76.36 76.20 76.30 76.47 76.26 76.43 76.49 76.57 76.45 76.41 76.48 76.43 76.27 76.33 76.47 76.12 75.84 75.76 75.65 75.65 75.98 75.93 76.37 75.85
63.53 63.14 55.14 55.78 56.50 57.55 60.43 61.83 62.80 61.71 62.70 62.93 63.70 60.85 62.15 67.48 69.36 70.23 70.65 70.92 70.81 71.41 72.92 73.29 76.44 76.33 76.36 76.52 76.51 76.61 76.52 76.70 76.54 76.38 76.33 76.15 75.87 76.15 76.08 76.17 76.06 76.23 75.93 75.27 75.10 75.35 75.68 75.93 76.52
61.85 60.87 53.70 53.11 54.37 56.35 61.10 62.76 63.27 62.37 62.67 62.99 62.64 61.94 62.06 67.91 68.28 69.50 70.97 71.07 72.45 72.58 73.45 73.79 76.01 76.14 76.47 76.41 76.72 76.76 76.64 76.65 76.56 76.45 76.46 76.41 76.36 76.28 76.23 76.38 76.56 76.23 75.52 74.71 74.66 74.63 74.99 75.64 76.90
61.60 58.72 55.87 55.06 51.72 55.70 60.39 64.18 61.91 62.09 62.07 62.18 64.70 59.62 62.95 65.99 68.40 70.35 71.12 72.15 72.82 73.13 72.70 73.16 73.52 74.54 75.94 76.66 76.52 76.77 76.86 76.70 76.68 76.57 76.64 76.84 76.91 76.58 76.40 75.43 75.02 74.54 74.28 74.21 74.04 73.94 74.24 74.80 75.60
63.96 59.79 57.75 56.65 52.09 53.36 61.69 63.69 64.61 63.14 62.37 66.71 65.95 59.37 60.25 65.89 70.20 70.73 70.85 70.87 70.83 71.55 72.23 72.07 72.48 73.24 73.40 74.26 76.85 76.85 76.86 76.87 76.87 76.35 76.65 76.86 76.84 76.29 76.15 76.31 75.98 74.88 74.46 73.95 73.43 73.55 73.72 74.22 74.77
66.72 57.11 54.71 56.81 55.49 58.73 63.72 62.02 65.60 67.41 64.18 65.08 66.14 64.40 66.32 68.41 69.70 69.11 69.00 69.92 70.66 71.14 70.87 71.25 71.81 71.85 72.83 73.51 75.07 76.54 76.99 76.88 76.81 76.15 76.46 75.41 72.68 73.22 73.87 75.37 75.46 75.55 75.38 74.80 74.41 74.10 74.27 74.69 74.98
63.00 56.81 57.19 61.43 61.54 60.15 63.27 62.65 63.51 62.90 61.99 62.29 63.71 66.29 68.02 68.33 68.09 67.33 67.18 67.46 68.51 69.18 70.38 70.49 70.99 71.66 72.51 74.55 73.04 72.80 74.24 74.29 73.93 73.55 72.56 71.70 71.42 71.62 74.09 74.88 75.74 74.98 73.81 73.27 75.10 75.23 75.96 71.62 69.76
62.54 58.44 60.73 61.56 62.35 62.52 62.12 63.61 65.23 61.55 59.66 62.03 62.30 64.48 66.55 66.89 66.69 66.49 66.94 67.29 67.56 69.32 70.79 70.11 70.38 71.41 71.84 72.46 72.14 72.59 72.21 72.06 72.32 72.16 71.38 71.41 71.77 70.56 68.54 67.89 67.64 66.77 69.66 64.94 67.48 67.54 69.82 72.49 69.77
60.44 63.03 62.75 61.93 63.68 62.96 62.35 65.10 63.14 63.03 63.38 65.38 65.72 66.33 66.47 65.65 65.80 65.94 66.64 67.14 67.71 69.05 69.32 69.63 70.39 70.42 70.52 71.83 71.13 71.63 71.38 70.71 70.04 70.61 70.85 70.15 70.03 68.93 65.44 64.29 64.05 64.41 66.85 68.67 68.82 68.66 68.44 69.51 71.36
61.37 62.22 63.49 64.17 64.12 64.00 64.34 62.98 63.44 62.77 64.94 66.91 66.69 66.37 65.76 65.73 66.15 67.19 67.90 68.32 68.33 68.06 68.51 69.29 69.14 68.85 70.75 71.47 71.32 70.88 69.98 68.87 69.41 70.70 71.35 70.03 68.83 68.67 65.35 64.67 66.45 67.45 68.67 68.89 68.91 68.79 68.72 66.80 68.60
64.11 62.84 63.22 64.18 63.25 63.72 62.43 63.35 63.79 64.51 65.33 65.24 65.66 65.01 65.27 65.58 66.01 66.77 67.72 67.45 67.48 67.36 67.53 68.55 68.70 69.17 70.62 70.75 69.97 70.45 69.53 66.37 69.94 70.67 70.76 70.41 67.67 68.46 66.49 65.80 67.50 68.26 69.10 69.60 68.86 68.58 68.25 66.73 68.09
64.67 60.74 61.73 62.28 62.74 62.55 64.36 60.65 60.34 64.57 64.33 63.42 64.26 64.75 65.09 65.60 66.34 66.79 67.67 66.57 67.03 67.54 68.75 68.79 68.80 69.55 70.30 69.66 70.52 70.23 70.16 69.12 69.96 69.45 70.86 70.93 69.45 68.79 67.16 67.39 68.89 69.81 68.60 70.77 70.82 69.97 68.46 68.26 68.99
61.32 60.58 55.57 60.45 62.52 62.14 62.50 56.21 62.10 64.29 63.07 62.30 63.93 63.26 64.12 64.33 66.37 67.46 67.95 66.93 67.41 68.45 68.21 68.79 71.92 70.38 69.52 69.21 69.45 69.62 69.99 70.05 69.31 67.15 70.40 70.56 69.34 68.85 68.70 68.75 69.09 69.69 65.43 70.97 69.00 69.15 69.41 69.25 67.86
55.42 52.42 55.02 57.07 61.71 60.78 60.76 57.38 61.87 63.24 62.35 61.89 63.31 61.71 62.96 64.53 66.21 67.17 67.85 67.19 67.96 68.45 67.63 67.87 69.20 69.45 69.53 70.03 69.34 69.62 69.92 70.74 69.31 67.64 71.04 70.44 69.46 69.42 70.79 70.96 70.03 69.93 70.49 70.43 69.51 69.13 68.38 68.06 67.12
46.88 52.29 53.54 54.04 58.48 59.62 57.25 57.65 60.52 62.39 62.04 62.19 62.38 61.34 62.98 64.22 65.21 67.44 67.69 68.00 68.43 68.05 66.85 67.77 69.32 69.99 71.01 70.30 69.52 70.68 69.79 69.54 69.50 70.50 71.11 71.22 71.52 72.19 71.46 69.92 68.66 69.09 70.29 70.30 70.33 69.42 70.32 68.30 66.77
56.41 54.65 53.28 55.18 58.55 56.33 55.56 55.94 58.29 61.50 62.27 60.88 60.07 60.99 61.50 62.95 65.89 67.63 68.67 68.29 67.96 67.27 66.76 66.98 68.78 68.49 69.04 68.87 67.46 67.16 68.03 69.08 69.80 72.12 71.40 71.80 71.99 72.66 71.16 70.26 65.98 68.82 69.63 69.39 71.19 70.75 69.68 67.72 67.87
56.20 53.40 52.17 55.11 57.35 56.00 55.30 54.53 56.88 59.40 61.60 61.98 60.25 60.86 61.54 62.39 64.63 67.08 67.32 68.03 67.42 66.90 67.17 67.23 68.76 67.79 68.41 69.19 68.82 69.22 69.26 70.09 69.49 70.78 71.68 72.43 71.81 72.02 71.74 70.54 69.93 69.97 67.48 66.72 70.28 71.11 69.66 69.33 69.05
53.50 52.28 52.17 52.24 55.06 55.99 54.40 53.04 55.62 59.30 62.00 62.57 62.97 62.67 62.58 61.57 63.66 65.91 66.15 66.67 67.19 66.92 67.60 67.40 68.36 67.77 69.26 70.04 69.52 69.64 69.86 69.41 69.36 70.09 70.52 71.15 72.69 72.97 71.63 70.79 69.07 68.71 66.15 63.40 68.18 70.55 70.41 68.12 69.51
49.38 57.25 55.56 53.27 51.09 46.89 54.46 45.83 53.80 56.53 58.53 60.75 62.13 62.31 61.65 61.88 64.49 66.04 65.56 66.01 66.72 67.65 68.89 68.04 68.51 69.43 70.11 69.65 68.65 68.14 67.41 66.96 68.29 68.15 68.91 70.41 69.53 72.05 72.25 70.40 69.67 67.35 63.83 67.17 69.30 71.39 71.23 69.33 67.59
52.17 57.06 54.65 53.25 49.30 49.84 51.52 47.36 52.22 57.03 55.46 58.03 61.10 61.68 61.52 62.85 64.44 65.23 65.25 66.17 67.18 68.83 69.22 68.62 69.00 69.81 69.50 69.25 69.05 67.99 67.16 67.44 68.98 68.96 68.64 68.72 68.70 71.46 72.78 69.34 70.34 68.13 68.51 69.34 70.11 70.95 71.03 70.86 68.23
57.14 53.73 52.40 50.88 48.67 43.80 50.17 48.94 48.41 53.75 55.08 57.64 61.14 62.55 63.12 63.61 64.64 65.31 65.81 66.02 67.32 68.64 69.18 69.26 68.75 69.26 69.69 68.85 69.04 68.48 67.79 68.00 68.22 68.02 68.71 68.56 69.43 70.38 71.11 71.99 70.72 70.23 69.40 68.06 68.56 70.79 71.08 70.73 69.70
53.01 46.11 39.42 38.93 40.75 42.52 49.65 48.05 48.61 55.27 59.04 59.96 60.48 61.96 63.24 64.26 64.42 64.36 64.02 64.49 66.61 67.73 68.99 69.27 68.78 68.31 69.41 69.09 69.21 69.30 68.51 68.34 68.34 68.21 68.33 68.56 68.90 69.05 69.62 71.05 71.11 69.57 68.26 67.05 67.05 69.94 69.43 70.43 70.18
50.06 44.86 39.71 36.13 38.76 42.54 50.74 46.41 50.39 57.37 59.79 61.62 61.69 62.51 63.74 64.34 64.17 64.44 64.77 64.97 66.35 67.82 68.62 69.19 68.23 67.67 69.14 68.90 69.25 69.31 69.66 69.02 68.89 68.52 67.82 68.99 69.21 69.11 69.66 70.47 71.48 70.80 70.48 68.16 70.73 70.20 70.10 70.59 69.16
50.72 44.36 47.35 43.37 41.82 41.78 47.54 52.05 55.33 57.10 57.19 59.19 59.99 61.83 62.49 63.61 64.48 64.57 65.00 65.65 66.17 66.79 68.17 68.90 68.42 67.62 69.36 69.16 68.86 68.55 69.69 69.33 69.29 69.37 69.38 69.26 69.81 69.59 69.85 70.97 70.58 70.87 71.21 71.10 70.71 69.90 69.10 69.19 68.35
50.40 51.48 43.26 42.30 39.51 35.60 43.62 46.89 47.44 53.44 55.79 58.97 58.68 59.50 61.62 63.67 65.03 65.24 64.77 65.87 66.88 67.96 68.34 68.88 69.15 68.40 69.26 69.67 68.90 68.99 69.26 69.71 69.90 70.28 69.49 69.14 69.72 70.23 68.42 69.74 69.15 68.47 68.90 70.49 71.07 70.38 70.10 69.10 68.49
43.45 43.47 41.72 42.94 42.57 39.58 38.95 44.22 53.28 53.69 55.05 58.08 58.95 60.32 61.41 63.43 64.64 65.59 65.51 67.07 67.20 68.61 68.99 69.51 69.32 69.35 69.89 70.19 69.87 69.64 69.90 69.98 70.12 69.84 69.87 69.63 69.34 68.71 68.86 69.23 67.88 66.92 69.15 70.55 70.69 70.28 70.48 69.64 68.57
43.12 40.86 40.93 38.94 36.60 41.69 42.35 44.61 56.70 55.95 55.95 58.34 59.86 60.14 61.64 63.36 64.53 65.76 66.84 66.98 67.21 68.22 68.72 68.60 68.22 69.77 70.71 70.34 70.22 70.12 69.98 70.16 69.88 69.65 69.62 69.04 67.95 67.50 66.45 67.21 66.64 68.94 70.99 70.86 70.79 70.16 71.73 70.37 69.45

GFSSGP_sfc_wetblb_114.txt.gz
Wetbulb
70.69 72.40 70.94 68.66 55.21 53.60 50.11 53.28 57.12 54.75 55.28 59.30 61.12 59.61 58.48 61.06 57.24 48.66 64.85 67.95 68.97 69.42 72.53 72.85 74.79 74.65 75.77 76.66 76.62 76.29 76.30 76.42 76.29 76.06 76.25 76.34 76.34 76.52 76.42 76.05 75.98 76.11 76.21 76.37 76.19 76.14 76.03 75.98 76.23
68.02 67.95 68.18 62.10 51.06 48.00 50.40 57.09 55.21 58.39 60.43 60.83 62.85 62.63 60.55 59.16 65.26 64.74 64.40 69.17 69.63 71.44 72.54 72.90 75.46 75.38 76.35 76.78 76.51 76.23 76.31 76.46 76.57 76.17 76.09 76.26 76.14 75.88 75.32 75.21 75.64 76.31 76.12 76.05 76.06 76.07 76.03 75.76 75.97
65.49 67.62 61.44 55.25 50.86 48.18 50.63 57.39 58.96 60.94 63.28 62.46 62.21 64.30 62.26 60.84 65.18 64.96 68.33 70.88 71.97 71.89 72.46 73.31 75.33 75.97 76.14 76.23 76.16 76.05 75.77 76.13 76.04 76.42 76.29 75.86 75.97 75.86 75.57 75.76 75.57 76.50 75.82 76.12 76.31 75.86 75.96 76.07 76.68
64.75 65.76 61.82 54.52 51.60 55.09 56.25 58.78 61.23 61.60 63.71 64.58 63.13 60.72 64.54 67.65 65.87 67.95 70.89 71.79 71.05 71.18 71.81 73.98 75.29 75.63 75.88 75.98 76.13 76.33 76.23 76.46 76.31 76.15 76.11 76.60 76.17 76.15 76.21 76.02 76.42 76.15 75.79 75.89 76.36 76.27 76.45 76.06 76.86
64.72 63.54 55.52 55.35 55.22 56.90 59.69 61.26 62.61 61.18 62.13 62.24 63.27 60.54 61.62 66.88 69.27 70.35 70.22 70.85 70.32 70.67 72.12 73.53 75.70 76.17 76.44 76.06 76.23 76.33 76.60 76.34 76.47 76.49 76.46 76.33 76.28 76.33 75.94 75.84 76.36 75.98 75.54 75.79 75.98 76.06 75.96 76.40 76.45
61.64 60.99 53.72 52.91 52.61 58.14 60.27 62.72 62.80 61.85 62.37 62.65 61.89 61.02 61.75 67.59 68.25 69.22 70.52 70.63 71.51 71.76 72.77 73.13 75.10 75.56 76.39 76.16 76.42 76.29 76.57 76.33 76.01 76.25 75.97 75.97 75.91 76.13 76.24 76.66 76.55 75.43 75.21 75.40 75.48 75.43 76.03 76.31 76.29
60.87 58.47 56.03 52.32 52.97 56.55 59.66 63.72 61.50 61.23 61.18 61.61 64.19 59.51 62.24 65.26 68.37 70.05 70.99 71.68 72.41 73.08 72.77 73.03 73.82 74.65 76.17 76.46 76.54 76.71 76.46 76.37 76.39 76.50 76.36 76.31 76.21 76.61 75.65 75.40 75.13 74.72 74.61 74.68 74.79 74.93 75.40 75.89 75.86
63.13 59.90 57.58 55.71 54.04 54.33 61.60 63.72 64.39 62.58 61.20 65.59 65.24 59.52 59.76 65.20 69.86 70.83 70.97 71.26 71.33 72.21 72.54 72.06 72.44 73.28 73.54 74.32 76.40 76.60 76.57 76.51 76.40 76.37 76.57 76.71 76.64 76.50 76.61 76.06 75.93 74.92 74.47 74.30 74.29 74.55 74.91 75.26 75.70
66.91 55.78 53.78 57.07 54.26 58.26 62.91 61.72 64.88 65.87 62.85 64.38 65.36 63.67 65.63 68.86 70.07 69.14 69.28 69.82 70.29 71.14 71.23 71.54 72.09 72.38 72.79 74.05 75.15 76.43 76.86 76.68 76.13 75.93 76.80 74.75 73.40 74.26 74.40 75.63 75.82 75.96 75.57 75.03 74.70 74.76 75.15 75.28 74.79
62.81 56.90 57.49 61.79 61.18 59.85 62.85 62.38 63.20 62.25 61.76 61.84 63.31 66.15 67.97 68.34 68.03 67.27 67.57 67.46 68.44 69.55 70.43 70.90 71.39 71.85 72.83 74.97 72.53 73.28 74.85 73.05 74.06 73.47 72.62 72.41 72.21 73.15 73.97 75.70 75.08 74.36 72.63 73.38 73.95 73.96 74.92 72.50 70.61
62.41 58.71 60.61 61.42 62.70 62.54 61.55 62.63 64.61 60.96 58.44 61.64 61.68 64.05 66.57 66.82 66.56 66.71 67.31 67.66 67.77 69.30 70.78 70.63 70.60 71.83 71.85 72.21 72.38 72.70 72.97 72.94 73.13 72.49 72.08 72.53 72.37 70.16 69.26 68.48 68.04 67.50 70.17 68.54 69.17 69.64 70.05 71.03 72.26
59.96 62.99 62.69 61.53 62.56 63.01 61.99 65.00 61.76 61.76 62.46 64.69 65.11 65.82 66.34 65.71 65.82 65.76 65.72 66.59 67.30 68.71 70.05 70.43 70.77 71.30 71.25 72.43 72.03 71.74 71.55 71.37 71.22 71.97 72.27 71.90 70.90 68.78 66.46 65.10 65.76 67.19 69.70 70.33 70.68 70.87 70.93 70.42 71.27
60.62 62.43 63.70 64.12 63.71 63.80 64.25 63.14 62.88 61.69 64.74 66.08 66.45 65.88 65.48 65.48 65.64 66.59 66.87 67.34 67.63 68.30 68.99 69.66 70.36 70.60 71.33 72.03 71.76 71.66 71.16 70.50 70.84 71.45 72.40 71.41 71.05 69.31 66.79 67.47 69.02 69.90 70.81 71.19 70.96 70.29 70.19 69.32 69.99
63.04 62.89 63.12 64.21 63.40 63.79 62.09 62.91 63.42 63.31 65.62 65.17 65.29 64.67 65.06 65.42 65.76 66.34 66.88 66.76 67.56 68.18 68.12 69.22 69.34 69.82 71.04 71.42 71.33 71.03 69.58 69.27 70.59 71.63 72.26 70.82 70.40 69.57 67.76 67.93 69.93 70.87 71.15 71.20 71.06 70.89 70.18 69.83 70.26
62.94 60.32 61.21 62.60 62.93 62.42 63.65 59.77 60.43 64.07 64.75 63.97 64.00 64.51 64.89 65.49 66.24 66.14 67.22 67.30 67.78 67.12 68.08 68.32 68.80 69.32 70.59 71.00 70.81 70.99 70.37 68.37 71.04 71.30 71.62 71.22 69.44 69.96 68.80 68.52 70.51 71.18 69.62 72.40 71.99 71.73 71.42 71.62 71.76
60.13 59.16 54.43 60.19 62.94 62.76 61.70 54.95 62.50 64.53 63.44 62.45 63.47 63.87 64.48 64.56 65.85 66.80 67.98 67.54 67.28 67.36 67.91 68.73 70.22 69.34 70.26 70.14 70.45 70.73 70.64 69.47 70.58 69.61 71.71 71.80 71.08 70.48 69.74 70.17 70.80 71.13 69.43 72.39 72.26 71.90 71.21 71.38 70.88
52.47 49.92 54.68 56.64 61.19 61.24 59.67 57.00 61.91 63.32 62.24 61.55 62.67 63.05 63.67 63.91 65.07 66.66 68.08 67.20 66.91 67.92 67.97 68.13 69.41 69.40 69.80 69.99 69.93 70.10 70.74 70.87 70.57 69.06 71.73 70.80 70.42 70.53 70.71 72.07 71.95 72.37 72.94 72.74 72.22 72.65 71.01 70.83 69.77
46.78 51.07 53.64 53.90 58.22 58.52 55.12 55.47 60.91 62.24 61.28 61.55 62.48 62.10 62.99 62.77 64.36 66.62 67.46 67.16 67.63 67.98 68.17 68.39 69.10 69.38 69.82 70.31 70.23 70.66 70.29 70.70 70.31 69.77 71.78 71.19 71.00 72.54 72.74 71.88 70.73 72.15 73.02 72.75 72.55 72.41 71.94 70.54 70.24
54.33 53.59 52.33 55.38 58.69 56.90 54.60 54.98 58.36 59.71 61.71 60.75 60.59 60.06 61.33 62.87 65.47 66.75 67.46 67.43 67.88 67.51 66.73 67.76 68.89 69.55 69.43 68.54 68.28 68.75 68.78 69.99 70.60 71.64 72.55 72.18 72.30 73.16 72.47 71.49 69.37 72.25 71.95 71.08 73.42 72.62 71.47 71.18 70.51
54.53 52.35 51.82 54.89 57.43 55.68 55.15 54.31 57.73 58.93 59.77 61.77 61.16 59.91 61.80 62.83 64.08 65.81 66.72 67.40 67.18 66.83 66.54 67.80 68.86 68.81 69.20 69.06 68.70 69.70 69.89 70.88 71.16 72.09 72.92 72.72 72.79 73.27 72.40 71.43 71.03 71.98 70.08 71.55 73.17 73.00 71.48 71.19 71.09
52.57 50.90 51.26 52.00 55.23 55.86 54.54 52.29 55.12 58.98 60.70 62.43 62.75 60.89 61.85 62.82 63.30 65.02 65.92 66.19 66.84 66.65 66.32 67.35 68.57 68.39 69.49 70.05 69.86 70.10 70.66 70.64 70.50 71.50 71.85 72.42 73.15 73.26 73.05 72.22 71.85 71.34 68.93 70.32 72.32 73.62 72.29 71.06 70.44
47.63 55.09 54.46 53.38 50.86 45.96 54.39 44.97 52.92 56.31 57.95 60.25 61.47 60.60 60.69 61.89 64.55 65.70 65.81 65.78 66.29 66.83 67.66 67.63 68.65 68.15 69.63 70.26 69.59 69.33 68.51 67.92 69.25 70.59 71.20 71.94 71.85 72.94 72.52 72.35 71.02 69.70 67.25 71.43 72.65 73.40 73.28 71.71 70.67
48.00 56.25 53.35 52.98 48.61 49.00 51.03 47.61 51.46 55.67 54.06 57.02 60.50 61.22 61.49 61.64 64.02 65.16 65.74 66.39 66.81 67.32 67.88 67.87 68.50 68.78 70.03 69.63 69.75 68.87 68.38 68.87 70.18 70.36 70.58 71.09 70.98 72.78 73.70 72.00 71.86 69.79 71.49 72.12 73.35 73.53 73.76 73.22 70.54
56.30 52.78 50.95 49.60 47.50 41.83 48.84 48.07 47.44 51.98 53.27 56.65 60.06 61.95 61.93 61.86 63.80 65.75 66.98 66.79 66.63 68.01 68.61 68.21 68.54 69.05 69.59 69.46 69.35 69.13 68.46 68.43 69.23 69.47 69.46 70.27 70.78 71.64 72.81 72.78 71.05 72.12 71.79 71.30 72.35 73.60 73.43 73.23 71.24
51.77 44.40 38.35 37.32 38.80 39.86 48.69 46.89 48.74 55.80 57.94 58.09 59.76 61.44 62.60 61.90 63.30 64.79 65.55 64.79 65.81 67.37 68.30 68.24 68.48 68.67 69.48 68.95 69.26 69.16 69.18 69.24 69.53 69.52 69.68 69.86 70.33 70.84 71.59 72.86 72.68 72.07 72.02 70.71 69.54 72.63 72.60 72.86 73.03
48.09 43.30 38.41 33.61 36.21 40.52 49.75 44.37 49.26 56.53 59.69 60.36 62.12 62.90 63.37 63.04 63.61 64.69 65.25 64.63 66.10 67.20 68.35 68.63 68.09 68.36 69.57 69.44 69.18 69.74 69.87 69.50 69.66 69.98 70.05 70.23 70.55 71.01 71.76 71.62 73.17 72.57 71.74 69.46 70.53 72.33 72.09 72.63 72.15
49.24 44.30 46.62 41.55 39.27 40.73 45.71 50.21 54.43 57.06 57.87 59.79 60.72 61.93 62.18 63.79 63.47 64.28 64.67 65.01 66.06 67.06 67.99 68.57 68.31 68.14 69.12 69.53 69.45 69.63 70.32 70.09 69.87 70.30 70.42 70.23 71.19 71.13 71.29 71.98 72.70 72.57 72.98 72.68 72.74 72.32 71.76 71.94 71.23
49.85 52.27 43.48 41.65 35.66 35.16 42.52 45.56 46.54 52.46 54.26 58.87 59.83 60.55 61.72 63.64 63.73 64.22 64.91 65.04 65.63 67.39 68.19 68.89 68.88 68.16 69.11 69.51 69.32 69.50 69.92 70.80 70.66 71.11 70.84 70.94 70.62 71.01 70.81 71.31 71.41 71.54 71.44 72.51 72.94 72.95 72.54 71.64 70.94
43.82 44.02 42.30 42.69 41.50 37.94 37.03 41.93 52.23 53.61 56.02 57.98 59.94 61.53 62.36 62.97 64.36 64.40 65.09 65.68 66.05 67.02 67.96 68.25 68.49 68.19 68.70 69.87 69.55 69.82 69.95 70.39 70.91 70.91 70.70 70.76 71.35 71.44 70.93 70.45 70.96 69.97 70.27 71.76 72.12 72.20 72.40 71.77 71.59
44.70 44.69 42.60 38.40 36.07 40.68 40.31 42.26 55.69 55.68 56.47 59.39 59.52 60.82 62.11 63.48 64.14 65.03 64.88 66.05 66.10 67.28 67.91 67.96 68.52 68.65 69.40 70.40 70.25 70.20 70.63 70.99 70.81 70.69 70.81 70.42 69.93 69.83 69.94 70.64 70.05 69.19 70.33 72.64 72.54 71.87 72.75 72.01 71.43

GFSSGP_sfc_wetblb_117.txt.gz
Wetbulb
70.93 73.60 73.07 70.87 60.98 60.22 54.64 54.59 59.69 56.94 57.78 61.73 62.92 61.19 59.90 62.31 58.20 54.95 68.13 69.71 70.13 69.59 71.96 72.47 72.84 73.24 75.16 76.34 76.35 76.64 76.65 75.93 75.88 76.29 76.35 76.23 76.26 76.13 76.14 76.16 76.48 76.83 76.45 76.56 76.36 76.28 76.56 76.90 76.79
72.27 70.79 70.27 64.79 57.21 52.70 54.81 59.14 57.07 58.37 60.92 63.73 64.01 63.62 62.12 60.58 65.62 65.47 67.02 70.00 70.82 71.85 72.34 72.86 74.51 74.58 74.20 76.40 76.04 76.35 76.57 76.52 76.43 76.51 76.48 76.43 76.20 75.53 75.92 76.23 76.47 76.33 76.03 75.96 76.11 76.06 76.20 76.76 76.85
68.14 68.05 64.63 60.16 55.50 53.87 54.75 59.24 60.32 61.87 62.74 63.48 63.22 65.48 62.84 61.58 65.40 66.31 70.14 70.81 71.74 73.24 73.67 74.21 75.22 75.63 75.35 76.36 76.01 76.14 76.25 76.08 76.69 76.44 76.12 76.10 75.89 75.46 75.51 76.22 76.69 76.23 76.21 75.85 75.62 75.79 76.17 76.54 76.62
67.54 69.12 65.46 57.72 55.32 57.61 58.81 61.31 62.91 62.48 63.80 65.22 64.13 60.40 65.59 67.75 66.61 69.86 71.18 71.66 72.21 73.52 74.00 75.00 76.09 76.07 76.05 76.30 76.39 76.21 76.35 76.54 76.49 76.54 76.39 76.09 76.52 76.32 76.38 76.24 76.18 76.31 76.43 76.54 76.50 76.43 76.81 76.81 76.58
68.14 67.20 59.86 56.70 56.20 59.40 62.28 63.48 64.09 62.56 63.08 63.44 63.36 60.29 62.05 68.55 71.49 71.33 71.35 71.65 72.12 73.12 73.93 73.99 75.99 75.74 76.11 76.12 76.44 76.20 76.35 76.53 76.52 75.89 76.26 76.24 76.35 76.27 75.89 76.42 76.20 76.12 76.27 76.29 76.23 76.40 76.82 76.36 75.72
65.18 64.43 58.09 54.12 56.01 60.40 62.35 64.48 64.28 63.16 63.61 63.53 62.50 62.61 64.06 70.10 70.40 70.94 71.74 71.91 72.76 72.21 74.51 74.80 75.56 76.15 76.16 75.99 76.38 76.36 76.32 76.42 76.12 76.46 76.22 76.23 76.34 76.04 76.16 76.16 75.60 75.96 76.07 75.82 75.90 76.50 76.53 76.69 75.60
64.32 60.95 57.80 56.23 57.13 58.76 60.94 65.48 63.40 63.07 62.95 62.44 65.25 60.88 65.44 68.02 70.87 71.37 71.94 72.83 72.62 73.50 73.62 75.39 75.17 75.75 75.89 76.30 76.43 76.19 76.43 76.16 76.22 76.50 76.40 76.30 76.03 76.04 75.71 75.37 75.29 75.48 75.62 75.40 75.57 75.81 76.19 76.14 75.75
66.67 62.91 57.66 57.09 56.66 57.32 63.08 64.05 65.11 63.77 62.32 66.99 66.71 60.86 62.02 67.86 70.98 71.59 72.26 71.87 73.55 73.81 73.90 75.30 75.02 75.60 75.78 76.34 76.37 76.62 76.54 76.26 76.20 76.52 76.05 76.29 76.59 76.47 76.03 76.37 76.04 74.97 75.08 74.92 75.07 75.21 75.56 76.08 75.99
67.49 60.96 56.85 56.69 57.34 59.41 64.32 62.51 65.28 66.98 64.22 65.19 66.48 65.79 67.83 70.02 70.89 70.36 70.13 71.11 72.60 73.08 73.54 74.42 74.65 75.59 76.64 76.62 76.65 76.59 76.16 76.44 76.32 76.72 76.64 76.65 75.78 75.54 75.04 76.23 75.90 75.53 74.96 74.82 75.03 75.18 75.28 74.89 75.37
63.89 60.54 58.28 62.10 61.31 60.55 63.65 63.45 64.35 62.88 63.01 63.54 65.31 68.13 69.37 70.03 69.70 68.94 68.40 68.87 70.60 71.30 72.86 73.82 74.74 74.88 75.76 75.72 76.56 77.13 76.49 77.32 76.93 76.71 76.59 75.90 75.78 76.37 76.06 75.31 74.40 73.95 73.04 74.30 74.16 74.16 74.34 74.13 75.91
62.93 59.67 60.59 61.18 63.22 63.13 62.70 63.49 65.52 62.50 60.89 63.81 63.72 66.31 68.50 69.18 69.18 68.40 68.12 69.14 69.73 71.51 72.47 73.90 74.96 75.62 75.95 75.93 75.84 76.00 76.01 76.33 76.49 76.27 76.11 75.92 75.76 74.26 73.43 72.90 72.77 73.20 72.16 73.86 74.11 74.69 75.63 74.58 76.12
60.61 63.03 62.76 61.30 62.21 62.34 62.11 65.18 63.05 62.86 63.50 66.23 66.79 68.27 68.65 68.35 68.35 67.83 68.23 68.74 69.69 70.98 72.23 73.66 74.41 75.22 75.84 75.45 75.93 75.54 74.94 75.12 74.65 75.37 76.04 75.76 73.85 73.04 72.52 71.26 72.27 73.86 74.28 74.80 75.63 75.81 75.13 74.85 74.88
61.58 63.22 63.25 63.81 61.84 61.33 64.32 63.73 62.89 63.16 65.20 67.42 67.86 68.09 67.85 68.41 68.53 68.61 69.41 69.49 69.97 70.26 71.77 72.81 74.06 75.10 75.50 75.73 75.24 75.40 74.51 73.72 74.61 75.72 76.34 76.64 75.53 74.15 72.43 73.31 74.46 75.30 76.14 76.09 76.05 75.64 75.22 75.00 74.14
64.45 64.61 64.19 64.55 63.73 63.40 62.68 63.66 64.38 64.20 66.72 65.86 66.81 66.91 67.86 68.33 68.79 68.50 69.01 69.06 69.47 70.32 71.38 72.83 73.46 74.85 75.31 74.86 75.69 75.06 74.55 74.32 75.11 76.14 76.41 75.81 76.01 75.23 73.90 73.44 75.10 75.72 76.04 76.74 76.64 76.23 75.67 75.66 74.27
64.90 61.46 62.88 62.92 63.48 61.88 64.17 60.42 61.35 65.52 66.36 64.79 66.03 67.00 67.87 68.43 69.48 68.66 69.72 69.75 70.25 70.83 71.95 72.37 72.92 74.10 74.73 75.02 75.29 75.37 74.77 74.19 75.15 76.00 76.37 75.42 74.88 75.07 75.23 73.86 75.17 74.91 73.97 76.79 76.89 76.74 77.06 76.58 74.19
61.71 61.28 56.93 60.97 62.73 63.06 61.90 55.47 62.35 65.88 65.22 64.01 65.82 66.36 67.21 68.29 68.86 69.92 70.51 70.69 71.18 71.28 71.96 72.72 72.03 72.91 73.79 74.62 75.15 74.99 74.82 74.08 75.46 75.94 76.19 75.53 74.76 75.17 74.99 75.27 75.13 74.80 75.37 77.33 77.25 76.94 76.05 75.66 74.35
58.53 53.92 56.01 57.42 61.85 61.62 60.09 56.67 61.97 65.04 64.87 63.71 65.27 66.18 66.74 67.57 68.78 70.00 70.78 71.22 71.34 71.69 72.14 72.31 72.99 72.97 73.74 75.08 74.93 75.06 75.10 73.77 75.69 75.08 76.33 75.62 75.10 74.51 75.40 75.85 75.95 77.15 77.61 77.92 77.53 77.44 76.58 74.48 74.00
52.40 53.91 55.90 55.80 58.81 58.97 58.48 57.83 59.85 62.60 64.45 64.04 64.21 65.26 66.49 66.87 67.94 69.83 70.80 71.36 71.72 72.08 72.58 73.05 72.97 73.80 74.49 74.76 74.62 74.76 74.97 74.85 74.98 74.61 76.16 74.90 74.40 75.37 76.84 76.38 75.77 77.56 77.74 77.60 76.90 77.14 76.54 75.68 75.36
54.12 55.09 54.54 57.02 59.64 57.81 55.65 56.08 58.57 60.86 62.86 62.85 63.00 63.41 65.88 66.85 68.86 70.08 70.77 71.27 71.31 71.92 71.99 72.64 72.81 73.75 73.90 73.35 72.88 73.08 74.85 74.07 74.31 74.24 76.16 75.67 76.32 76.93 77.35 76.23 75.26 77.38 76.49 77.10 77.92 76.95 76.43 75.61 76.11
54.90 54.02 54.74 56.34 58.35 57.55 56.47 55.13 58.69 59.75 61.17 62.64 61.88 62.53 65.20 66.58 67.83 68.89 70.14 70.55 70.91 71.29 72.00 72.69 73.14 74.00 74.29 73.82 73.90 74.19 74.35 74.60 74.86 75.87 76.47 76.68 76.21 76.94 76.68 76.34 75.43 77.01 76.13 77.74 77.80 77.59 75.99 75.80 75.89
54.25 52.23 54.43 53.85 56.56 57.04 55.82 54.27 55.76 59.72 60.85 63.18 63.50 64.97 64.93 66.24 66.89 68.24 69.22 69.95 70.91 70.79 71.63 72.47 73.82 74.32 74.51 74.59 74.06 74.51 74.72 76.18 74.27 75.01 75.26 76.21 76.49 76.76 76.54 76.43 76.65 76.65 75.01 76.38 77.71 77.43 76.39 74.79 74.57
48.57 56.93 56.17 55.33 53.75 50.43 55.83 49.24 54.08 57.49 58.66 61.32 62.71 64.77 64.89 65.80 67.52 68.78 69.24 69.39 70.32 70.94 72.11 72.92 73.72 74.37 74.40 74.87 74.51 75.11 73.14 72.04 75.12 77.44 77.23 75.91 76.84 76.54 76.50 76.07 75.68 76.02 73.58 76.28 77.42 77.54 77.08 76.92 74.45
48.84 58.45 56.99 55.80 53.15 52.45 52.17 50.76 53.26 57.02 55.52 59.42 61.36 63.29 65.70 65.66 67.09 67.73 68.99 69.86 70.80 71.19 71.34 72.20 73.49 73.98 74.42 74.76 75.09 73.79 75.40 73.89 75.18 74.78 75.97 75.95 75.82 76.54 76.46 76.51 75.92 74.56 74.27 76.76 77.53 77.63 77.73 76.56 74.79
58.76 56.05 55.05 54.41 52.95 47.58 51.46 51.30 52.09 54.37 55.27 58.66 61.65 62.88 65.12 65.98 66.59 68.17 69.63 70.49 70.48 71.19 71.29 71.49 72.51 73.41 74.34 74.60 74.67 74.79 74.69 74.78 73.44 74.92 73.52 74.88 74.95 75.01 76.65 76.79 75.65 76.08 75.93 75.73 77.03 77.93 77.11 77.21 75.55
56.25 53.66 46.83 44.94 46.14 44.79 52.67 50.78 53.17 57.71 58.81 60.07 60.03 62.16 64.90 65.85 66.00 67.39 68.65 69.18 69.96 70.14 70.72 71.06 71.77 72.45 73.57 73.90 74.03 74.49 74.67 74.86 74.51 75.31 76.15 74.84 75.97 75.31 76.03 77.19 75.65 76.15 76.57 75.79 75.10 76.88 76.82 76.93 76.60
53.97 51.46 44.67 39.39 42.34 46.38 52.32 48.50 53.71 59.35 61.42 60.61 61.23 62.40 65.28 65.00 65.95 67.03 68.72 69.14 69.72 70.01 70.98 71.16 71.05 72.05 73.30 73.75 74.04 74.64 75.00 73.74 73.81 75.03 75.61 74.40 74.11 74.47 75.82 76.20 77.02 77.33 76.47 75.96 75.01 74.97 76.09 76.15 76.48
53.32 50.32 53.44 48.80 49.86 47.17 50.69 53.64 57.66 59.84 59.88 60.47 59.97 62.76 64.05 63.24 65.40 66.79 68.72 67.87 69.91 70.37 70.87 71.29 71.41 72.03 73.29 73.39 74.13 74.24 74.75 74.55 74.16 74.96 75.06 74.45 75.05 74.76 75.29 75.27 75.76 76.65 76.44 75.93 76.08 74.69 75.57 76.15 75.90
55.94 56.63 48.79 50.69 42.05 40.95 47.61 49.52 51.48 56.12 57.75 59.48 59.98 61.81 64.08 64.18 64.42 66.81 68.34 68.95 69.72 70.78 71.47 71.98 72.23 72.07 72.75 73.58 73.96 73.91 74.40 75.15 75.07 74.90 74.92 74.94 74.84 75.17 75.59 74.85 75.03 75.93 76.35 76.58 76.48 76.69 76.60 76.04 75.39
52.76 51.94 51.89 51.56 50.56 44.41 43.09 47.54 56.32 57.32 59.29 59.24 60.54 62.80 64.35 64.05 64.07 65.24 66.18 66.57 68.40 70.87 71.18 71.75 72.36 72.58 72.47 73.15 73.86 73.91 73.91 74.26 74.94 74.89 75.44 75.59 75.02 74.96 74.38 74.86 74.83 75.03 75.25 75.43 75.79 76.37 76.24 75.78 75.58
54.21 52.88 53.15 48.19 45.54 49.53 48.78 47.66 59.14 58.63 60.13 61.53 62.04 63.23 63.85 64.18 64.60 65.58 66.02 66.15 68.67 69.59 70.79 71.29 72.22 72.27 72.84 73.43 74.01 73.91 74.07 74.42 74.36 74.72 75.21 75.12 74.93 74.80 74.79 74.68 74.21 74.29 74.76 74.65 75.14 75.20 75.18 75.36 75.20

GFSSGP_sfc_wetblb_120.txt.gz
Wetbulb
71.55 75.17 74.98 73.32 63.83 61.53 56.30 57.33 61.94 59.90 60.57 63.87 64.43 62.63 62.51 64.66 61.07 57.88 70.10 71.56 69.77 69.94 71.69 72.57 73.74 75.14 75.89 75.90 76.20 76.57 76.07 76.30 76.92 76.66 76.71 76.47 76.23 76.63 76.82 76.84 76.76 76.68 76.93 76.74 76.80 76.92 77.18 76.78 76.78
73.89 72.90 72.83 68.82 60.18 55.29 56.64 60.87 59.48 61.67 63.61 65.80 65.40 64.37 63.28 62.11 66.62 67.05 68.47 71.53 70.22 71.50 72.64 72.71 74.26 74.88 75.92 76.27 76.55 76.79 76.64 76.73 76.73 76.71 76.54 76.44 76.31 76.42 76.95 76.72 76.60 76.03 76.18 76.49 76.41 76.82 77.04 77.21 77.13
71.96 71.62 66.53 63.20 60.23 55.92 56.57 61.04 62.01 63.37 65.19 65.65 64.62 66.90 64.76 63.34 66.90 68.11 70.74 71.78 72.38 72.75 74.11 75.07 75.11 75.33 76.16 76.37 76.39 76.48 76.26 76.46 76.46 76.08 76.28 75.72 75.55 75.67 76.87 76.69 76.44 76.04 75.72 76.11 76.30 76.52 76.65 77.13 76.87
70.88 72.16 67.64 60.18 57.10 60.53 60.80 62.82 63.93 63.11 64.63 66.30 66.04 62.60 66.50 68.94 68.29 70.56 71.69 72.10 72.97 74.04 74.53 74.84 75.92 75.64 76.25 76.18 76.11 76.33 76.77 76.67 76.64 76.07 76.35 76.53 76.58 76.95 76.68 76.60 76.43 76.68 76.81 76.94 76.77 77.52 76.72 76.63 76.24
71.39 70.26 63.23 58.19 58.20 61.66 64.04 65.00 65.36 63.87 64.42 64.66 64.35 61.70 64.47 69.63 71.43 71.74 71.82 72.38 72.88 73.24 74.44 74.69 76.01 75.88 76.20 75.98 76.23 76.38 76.59 76.59 76.65 76.64 76.39 76.28 76.30 76.41 76.72 76.44 76.55 76.63 76.38 76.53 76.89 76.94 76.44 75.66 75.63
68.48 68.21 59.52 54.37 59.07 62.46 64.73 66.18 65.90 64.82 65.44 64.52 63.56 63.60 65.90 71.14 70.43 71.46 72.10 72.56 72.65 72.42 73.20 75.23 75.99 76.04 76.05 75.91 75.62 76.24 76.31 75.92 76.21 76.59 76.03 76.28 76.34 76.32 76.38 75.86 76.52 76.41 76.30 76.39 76.86 77.18 76.89 75.79 74.97
66.02 64.73 59.94 59.78 59.71 60.91 63.43 67.03 64.66 64.71 64.52 63.71 66.77 63.08 67.14 69.10 71.21 71.96 72.40 72.78 72.28 73.75 74.13 74.93 75.75 76.61 76.42 75.81 76.23 76.51 76.22 76.18 76.21 76.45 76.05 76.32 76.43 76.22 75.55 75.69 76.22 76.19 76.08 76.39 76.55 76.71 76.57 76.07 75.46
69.42 66.62 59.91 60.07 59.36 59.95 64.66 65.53 66.31 65.14 64.33 68.54 67.82 62.02 64.29 69.46 71.59 72.12 72.65 72.23 73.27 73.34 74.46 74.99 75.18 75.58 76.19 76.57 76.08 76.46 76.47 76.42 76.70 76.51 76.43 76.20 76.05 75.44 75.22 76.41 75.78 75.68 75.71 75.89 75.89 76.16 76.68 76.12 75.56
69.82 62.73 59.12 59.24 59.95 61.63 65.79 64.01 66.87 67.90 65.75 66.02 67.31 65.95 68.97 70.88 71.57 71.38 71.02 71.83 72.67 72.52 73.86 74.84 74.85 75.82 76.77 76.75 76.61 76.11 76.55 76.33 76.54 75.83 75.58 76.10 74.36 74.78 76.02 76.16 75.23 75.16 74.94 75.17 75.10 75.55 75.64 75.75 75.83
67.13 63.44 60.82 63.99 62.86 61.68 64.37 64.60 65.52 64.16 64.44 65.29 66.40 68.79 70.13 70.44 70.59 69.79 69.10 69.68 70.88 71.11 72.06 74.14 74.70 74.86 75.82 75.68 77.00 77.43 76.21 76.09 76.12 75.80 75.59 74.68 75.30 76.22 74.93 75.24 74.73 75.04 75.24 75.24 75.46 75.30 74.70 74.88 76.53
63.30 60.33 64.60 62.68 63.25 64.03 63.81 64.73 66.50 63.33 62.79 65.53 65.36 67.38 68.85 69.35 70.01 69.74 69.47 70.17 70.56 71.45 72.16 74.05 74.53 75.61 75.62 75.64 75.64 75.99 75.43 75.68 75.99 76.23 75.20 75.59 74.83 74.90 74.57 74.50 74.27 74.68 73.90 75.14 75.20 75.83 76.66 75.86 75.87
62.28 64.03 62.73 65.00 64.63 62.81 61.56 66.58 64.52 64.84 65.26 67.64 67.51 68.95 69.18 69.47 69.60 69.39 69.50 70.00 70.58 71.32 72.16 73.90 74.60 75.75 76.14 75.65 75.13 74.97 74.93 75.00 74.30 75.45 76.48 75.77 74.09 74.63 74.84 74.05 74.42 75.67 75.67 75.79 77.11 76.14 76.69 76.23 75.96
63.41 64.25 63.72 65.57 64.73 64.10 65.37 65.27 64.88 65.03 66.85 68.01 68.66 69.22 69.11 69.29 69.81 69.84 70.43 70.58 71.22 71.06 72.42 73.56 74.67 75.87 76.25 76.14 75.16 74.73 74.45 74.54 75.22 75.72 76.62 76.39 74.97 73.92 74.78 75.13 75.91 77.06 76.99 77.20 77.70 77.18 76.31 75.91 74.92
65.78 65.72 65.71 65.75 65.55 64.73 63.44 64.96 66.10 66.01 67.18 67.26 68.13 68.40 69.23 69.41 69.69 70.31 69.61 69.82 70.61 71.46 72.38 73.46 74.24 75.75 76.13 75.52 75.56 74.59 74.61 74.93 75.43 75.55 76.19 76.89 75.67 76.13 75.12 75.91 75.69 76.72 78.11 77.96 77.76 76.96 76.21 75.13 74.80
66.88 63.35 64.49 64.52 64.62 63.31 65.33 62.65 62.78 67.06 67.66 66.83 67.13 68.15 68.77 69.81 70.43 70.28 70.16 69.77 70.70 71.71 72.86 73.20 74.25 75.54 75.81 75.71 76.82 75.20 74.84 74.67 75.01 75.60 77.21 76.45 77.02 76.67 77.84 75.83 76.50 76.55 78.18 78.44 77.69 77.13 76.56 74.46 74.32
63.31 62.75 58.58 63.11 64.40 64.77 64.02 57.38 63.16 67.35 67.14 65.59 65.90 67.16 68.18 69.70 70.52 71.22 71.51 70.32 71.20 71.94 72.68 73.54 73.60 74.76 75.87 75.97 76.29 75.27 75.14 75.57 75.80 76.68 76.76 77.14 76.90 77.66 77.37 76.39 76.44 77.74 78.68 78.00 76.92 75.95 74.53 74.62 74.07
59.07 56.05 56.93 59.50 64.49 62.64 62.05 58.58 62.76 65.79 66.99 66.04 65.42 67.12 67.78 69.37 70.76 71.88 72.13 71.76 71.14 72.23 72.91 73.15 73.43 74.35 75.55 76.45 76.09 76.09 76.66 75.79 76.46 76.31 76.58 77.59 76.72 76.86 78.07 76.47 77.06 79.80 79.13 79.02 77.92 75.97 75.79 74.07 73.83
52.74 54.43 56.58 57.41 61.86 62.93 60.80 60.54 61.00 64.42 66.79 66.81 67.05 66.98 66.89 68.57 69.80 71.78 72.30 72.37 71.95 72.53 73.45 73.61 74.15 75.22 76.00 76.17 76.54 75.85 75.31 75.57 76.13 76.17 76.32 76.86 76.81 77.09 78.16 76.58 78.45 78.69 78.11 77.89 77.65 77.94 77.63 76.98 76.29
55.23 54.82 54.49 59.87 61.95 61.14 61.11 61.37 61.10 62.43 63.54 66.23 66.76 65.25 66.65 67.81 70.44 72.03 72.48 72.50 72.34 72.98 73.49 74.37 74.52 75.75 75.37 74.71 74.11 73.91 73.29 75.07 75.19 75.91 77.05 77.18 77.71 78.07 78.62 76.76 77.63 78.83 77.97 78.01 79.15 77.44 77.22 75.78 77.82
55.33 54.06 54.84 59.49 61.10 60.40 59.87 59.69 61.50 63.93 62.26 65.17 67.06 64.54 66.93 67.55 69.38 70.88 71.99 72.50 72.16 72.46 73.47 74.43 75.04 75.72 76.02 75.75 75.99 75.17 74.35 74.98 75.30 75.75 76.85 76.91 77.53 77.63 77.87 78.52 77.37 78.36 77.68 79.51 79.05 78.58 76.09 76.91 78.30
54.47 53.51 53.44 55.86 59.34 60.39 59.01 58.18 60.06 62.59 64.00 64.57 66.88 67.74 66.40 67.58 68.21 70.03 71.27 72.11 72.35 72.49 73.03 74.08 75.26 75.84 76.16 76.55 75.78 75.56 77.81 76.06 75.73 75.46 75.59 76.45 77.35 77.45 78.26 78.07 77.90 78.58 77.29 77.08 78.90 78.54 77.28 74.71 77.66
50.59 55.83 54.99 57.57 56.17 53.11 58.84 51.05 58.93 61.26 62.11 63.01 63.70 66.62 64.41 67.03 68.92 69.87 70.86 71.79 72.22 72.72 73.70 74.23 75.24 76.13 76.32 76.65 76.87 76.17 73.59 72.19 75.82 75.47 76.15 77.02 77.15 77.24 77.59 77.46 77.98 78.45 77.23 78.10 78.43 78.94 78.36 78.00 75.53
50.84 55.72 55.73 58.14 56.18 55.08 55.36 53.13 57.00 61.25 59.84 61.39 63.43 65.99 64.70 67.47 68.35 69.25 70.54 71.81 72.71 73.24 73.49 74.18 75.30 76.43 76.71 77.03 77.30 74.30 74.11 73.66 74.32 74.86 75.95 76.56 77.69 77.72 76.90 78.04 77.98 77.59 75.93 77.66 78.74 78.26 79.10 77.85 75.45
56.03 55.67 57.31 58.02 55.79 49.34 53.23 54.02 54.67 58.67 59.61 61.26 62.63 65.01 66.98 68.38 68.62 69.79 71.19 72.22 72.50 73.35 73.56 73.95 74.77 75.83 75.90 76.78 76.10 75.92 74.87 74.48 74.40 74.32 73.95 75.34 74.96 75.88 77.69 77.71 78.23 78.00 77.63 77.05 77.42 78.75 78.24 78.23 77.40
56.11 53.51 48.04 46.78 47.57 46.82 56.04 52.91 56.03 60.43 62.76 63.25 62.87 64.51 67.33 68.89 68.93 69.21 70.43 71.00 72.09 72.55 73.16 73.58 74.19 74.69 75.47 76.05 75.85 75.31 75.02 75.37 74.90 74.45 73.70 74.56 74.31 74.84 76.86 77.64 77.52 76.88 78.23 77.75 77.59 78.48 78.37 77.87 77.12
53.78 52.57 47.47 42.02 44.21 48.05 55.50 50.16 57.03 61.98 63.47 64.79 65.76 65.51 67.84 68.42 69.30 69.30 70.27 71.27 72.01 72.68 73.07 73.37 73.61 74.11 75.04 75.38 75.13 76.29 76.25 76.22 74.80 74.87 75.13 74.19 74.20 74.79 76.26 76.55 76.99 77.27 77.68 77.47 77.68 76.23 76.37 76.90 76.61
53.60 51.87 54.57 50.08 50.81 48.21 51.12 55.45 60.01 62.05 61.92 63.64 64.27 64.02 64.58 66.51 68.45 69.56 70.33 71.61 72.24 72.86 73.21 73.69 73.74 74.16 74.32 74.53 75.35 75.90 76.76 76.55 75.36 76.42 77.72 75.66 78.46 77.59 77.44 77.19 76.81 76.61 76.96 77.04 77.52 75.70 76.13 76.99 77.21
57.77 58.68 50.73 50.62 43.79 43.19 48.08 50.80 52.40 57.32 60.15 62.44 63.35 63.33 63.53 66.08 68.24 69.67 70.24 71.53 72.71 73.20 73.55 74.11 74.22 73.96 74.27 74.60 75.06 75.38 75.90 76.67 76.73 76.77 77.22 76.39 76.80 77.47 77.14 77.14 77.21 77.36 77.32 77.61 78.20 76.50 77.21 76.91 76.07
55.02 54.31 54.72 53.77 51.90 44.73 44.24 49.27 57.68 58.57 61.12 62.46 63.35 64.87 64.70 65.69 66.35 69.28 70.28 71.86 72.70 73.27 73.57 73.91 74.09 73.98 74.24 74.52 75.22 75.31 75.34 75.78 76.47 76.09 76.77 77.33 78.15 77.53 77.17 77.53 77.29 77.15 77.12 77.54 77.89 77.47 76.69 76.52 76.41
53.80 54.43 54.55 49.63 48.22 51.73 50.47 48.20 60.34 61.57 62.41 63.61 63.91 63.17 64.91 66.58 66.97 66.66 70.52 71.65 72.11 72.53 73.04 73.84 74.29 74.04 74.62 75.06 75.44 75.60 75.83 75.94 75.31 75.96 76.52 77.52 77.45 77.89 77.51 77.42 77.04 76.63 76.76 77.16 77.05 76.50 76.10 75.97 75.53

GFSSGP_sfc_wetblb_123.txt.gz
Wetbulb
70.19 75.05 75.83 73.76 65.76 62.03 55.88 57.66 61.92 60.43 61.16 65.46 65.17 63.13 62.78 64.36 61.67 57.89 70.22 72.35 70.73 70.78 73.67 74.05 75.70 74.91 74.57 74.36 74.70 75.93 76.04 76.23 76.21 76.40 76.58 76.55 76.79 76.79 76.90 77.05 76.84 77.00 77.00 77.07 77.18 77.01 76.90 76.74 76.87
73.59 74.75 73.27 69.43 61.16 54.45 55.50 60.71 59.86 62.68 64.79 66.54 66.11 65.03 63.05 62.00 66.87 67.80 68.83 71.13 72.08 71.35 73.49 74.22 75.71 75.74 74.99 75.07 75.20 76.59 76.34 76.08 76.42 76.47 76.27 76.53 76.61 76.87 76.84 76.16 76.27 76.61 76.67 76.72 77.24 77.07 77.26 76.88 76.82
74.30 73.45 69.49 65.33 59.36 55.44 55.85 61.14 62.41 64.31 66.47 65.26 64.79 67.14 65.40 63.81 67.58 68.88 70.86 71.46 72.57 72.23 73.85 75.32 75.93 76.65 75.95 75.94 75.75 76.53 76.55 76.32 76.62 76.35 75.62 75.81 76.86 77.01 76.50 75.86 75.98 76.48 76.87 76.70 76.75 77.05 77.11 76.94 76.93
71.99 72.30 68.91 60.33 57.48 60.95 60.84 62.82 64.39 64.07 65.75 66.60 65.72 62.93 66.82 69.27 68.64 70.53 71.60 71.44 71.53 73.47 73.97 75.81 76.31 76.77 76.54 76.42 76.55 76.25 76.57 75.96 76.08 76.77 76.89 76.80 76.77 77.17 76.90 76.53 76.81 77.04 76.59 76.89 77.13 76.71 76.81 76.34 76.36
71.94 70.27 62.51 60.30 59.24 61.26 63.80 65.12 65.36 63.66 64.79 64.75 65.02 63.28 64.41 69.46 71.14 71.44 71.79 72.51 71.50 72.48 74.55 75.26 76.35 76.94 76.61 76.39 76.55 76.45 76.44 76.81 76.92 76.78 76.80 76.51 76.83 76.54 76.59 76.73 76.70 76.84 76.90 77.34 76.81 76.01 75.45 76.03 76.00
67.04 69.23 58.58 56.17 58.00 62.59 64.70 66.09 65.54 64.02 65.50 64.73 64.45 64.61 66.15 70.64 70.17 71.16 71.99 72.18 71.97 71.55 73.64 74.77 76.06 76.58 76.42 76.46 76.15 76.33 76.22 76.03 76.57 76.29 76.52 76.47 76.58 76.89 75.95 76.73 76.79 76.56 77.15 77.28 77.30 76.41 75.53 75.01 75.30
65.77 64.02 57.38 59.10 59.39 61.39 63.86 66.40 64.99 64.13 64.09 63.91 66.55 62.70 67.04 68.47 70.78 71.45 71.67 71.88 71.82 72.38 72.82 74.15 75.19 76.44 76.41 76.37 76.40 76.41 76.11 76.49 76.16 76.61 76.57 76.71 76.61 76.15 75.90 76.73 76.51 76.56 76.87 77.01 76.81 76.72 76.30 75.61 74.48
68.18 65.89 60.03 59.82 58.58 59.01 65.29 66.05 66.35 64.65 64.62 67.77 68.07 63.17 64.08 68.88 71.03 71.41 71.51 71.65 72.54 72.86 73.18 73.22 73.98 74.97 75.58 75.68 76.25 76.36 76.49 76.67 76.69 76.34 76.45 76.48 75.78 75.55 75.84 76.33 76.56 76.17 76.40 76.37 76.59 76.67 76.31 75.99 75.38
70.44 63.45 56.95 59.34 59.23 62.16 65.61 64.62 67.80 67.55 65.60 66.09 66.71 67.27 69.11 70.31 71.00 70.51 70.44 70.93 71.64 72.32 72.97 74.17 73.21 75.45 76.99 75.84 75.93 76.62 76.56 76.86 76.44 75.87 76.17 76.17 74.03 74.91 75.63 76.15 75.80 75.49 75.54 75.55 75.59 75.65 76.26 76.47 75.96
66.90 61.19 60.31 65.16 63.47 62.10 64.50 64.87 65.68 64.47 64.44 64.79 66.31 69.43 69.85 70.11 69.95 69.27 68.83 69.18 69.84 70.95 71.65 71.24 73.51 74.33 74.69 74.08 76.42 76.42 76.11 76.05 75.31 74.89 75.77 74.49 76.06 74.94 74.77 76.17 75.91 75.67 75.81 76.15 76.01 75.76 75.81 76.28 76.58
65.12 61.80 65.20 64.47 64.76 64.66 63.94 64.87 66.87 64.14 61.78 65.32 65.24 67.21 68.56 68.97 69.49 68.65 69.13 70.01 70.34 70.97 72.10 72.71 73.55 74.86 74.40 75.21 75.44 75.60 74.49 74.19 74.64 75.32 75.34 74.85 73.70 74.64 73.23 74.12 74.52 74.40 75.26 74.89 75.66 75.85 76.13 75.57 75.09
63.20 65.13 65.18 65.81 65.69 62.11 60.55 64.21 64.63 64.69 64.61 67.62 67.92 68.67 68.70 68.69 68.91 68.59 68.87 69.69 70.26 70.94 72.36 72.84 74.23 75.57 75.41 74.96 74.32 74.96 74.01 73.77 73.63 74.54 75.49 75.20 73.41 74.15 74.26 73.94 74.60 75.37 74.19 75.12 75.75 74.33 75.50 75.34 75.34
63.46 65.00 64.22 67.28 66.19 62.92 63.67 62.94 64.50 65.40 67.61 68.06 68.70 68.80 68.55 68.45 69.31 69.84 70.16 70.72 70.75 70.73 72.44 73.00 75.34 76.40 77.66 75.82 76.35 75.25 74.28 73.64 73.84 74.82 75.49 74.84 73.73 74.22 74.41 74.81 74.90 77.33 74.27 74.52 74.87 75.19 75.47 75.12 75.25
65.15 66.19 66.41 66.64 65.09 65.87 62.77 64.07 67.23 66.45 67.35 67.31 67.78 67.98 68.70 68.21 69.03 69.58 69.52 69.94 70.55 71.90 72.53 73.61 74.66 76.12 75.78 76.77 77.12 75.08 74.72 74.78 75.10 73.86 75.55 76.86 74.94 75.60 74.52 74.97 74.61 74.57 75.67 75.04 75.02 76.28 75.70 74.40 74.26
66.38 63.35 65.79 65.00 65.87 65.02 65.33 62.21 63.92 67.39 67.45 67.00 66.59 67.71 68.26 68.47 69.46 69.09 69.92 70.05 71.08 72.23 73.23 73.37 74.41 75.42 75.80 75.39 75.25 74.87 73.87 73.79 74.04 74.59 76.73 76.25 76.31 76.83 76.72 74.91 75.99 74.49 76.45 77.10 76.02 76.27 75.96 73.82 73.23
62.60 63.45 59.25 64.79 65.13 65.13 63.59 57.99 64.92 67.35 67.02 66.38 65.80 66.98 67.60 67.94 68.75 70.34 70.03 70.46 71.86 72.71 73.07 73.89 74.24 74.34 75.09 75.47 76.18 74.80 75.56 74.46 75.12 74.28 75.84 76.62 76.81 77.19 77.76 74.98 75.43 76.13 77.01 75.34 74.56 74.93 74.47 73.70 72.93
59.81 54.52 57.21 61.35 65.76 64.81 63.47 57.65 62.91 66.15 66.25 65.05 65.12 66.51 67.01 68.04 68.81 70.79 70.48 70.48 71.49 72.98 73.38 73.78 74.78 74.70 75.16 76.76 76.66 76.53 75.87 75.60 75.18 76.30 74.94 76.95 76.82 76.97 77.49 76.69 76.36 78.44 75.57 75.53 75.44 74.54 74.70 73.83 72.80
54.08 54.62 56.18 57.56 63.94 64.48 62.13 61.08 64.87 64.19 65.11 64.07 66.12 66.66 66.72 68.22 68.64 70.65 70.92 71.00 71.31 73.10 73.56 74.01 74.11 76.13 76.39 75.69 77.05 75.40 74.92 74.83 75.77 74.09 76.01 77.05 76.50 77.14 78.00 76.27 77.36 78.83 75.49 77.10 77.96 79.58 76.30 75.23 74.05
56.42 56.18 54.81 60.45 63.74 62.52 61.91 61.81 64.11 64.69 63.42 64.53 65.16 65.88 66.07 67.30 69.99 70.62 71.02 71.56 71.44 72.41 73.16 73.78 74.38 75.95 75.85 74.55 73.30 73.67 73.40 74.93 74.64 75.63 77.19 77.13 76.83 77.74 78.49 76.19 77.24 76.60 77.63 76.56 77.51 76.72 77.29 75.71 75.59
55.67 54.39 55.03 60.07 62.85 62.06 60.93 60.95 64.25 65.53 64.02 64.92 63.78 66.49 66.11 66.66 68.42 70.50 70.93 70.97 71.21 71.92 73.11 73.84 74.87 76.04 76.68 75.14 78.08 75.74 75.41 75.12 73.78 76.72 76.73 76.95 77.24 77.90 77.41 78.81 76.75 77.18 76.49 79.15 78.15 76.61 75.31 74.75 76.08
54.63 54.37 54.68 54.97 61.01 62.48 60.44 58.55 61.64 64.76 66.58 65.93 65.91 66.57 67.95 67.12 66.87 69.66 70.26 70.85 71.57 72.08 72.97 74.16 75.44 76.13 76.47 76.54 75.80 76.67 77.76 77.25 74.41 74.89 75.12 76.21 77.19 77.53 77.98 78.05 78.05 78.28 78.41 76.66 77.98 78.44 78.33 71.60 75.03
51.42 55.81 55.14 54.25 56.23 51.75 60.11 50.34 59.89 63.11 63.41 65.46 65.76 66.69 68.30 67.04 68.16 69.19 70.23 71.06 71.17 72.53 73.30 74.42 75.47 76.05 76.41 77.42 76.44 76.68 73.46 72.08 73.39 74.76 75.96 75.78 77.04 77.11 77.30 77.83 77.82 78.52 77.71 78.55 77.51 77.16 78.46 78.30 73.88
52.16 55.56 54.34 55.04 55.28 55.53 55.82 54.23 56.20 62.57 61.93 63.34 65.25 66.60 68.08 68.15 68.02 68.70 69.66 71.31 72.06 73.00 73.31 73.70 75.69 77.01 77.40 77.39 78.13 75.06 75.18 74.21 75.44 75.26 75.62 77.38 77.22 77.48 76.69 77.72 77.81 77.95 76.49 77.81 78.64 78.14 78.65 77.80 75.15
54.26 53.36 55.24 56.56 55.78 50.12 53.71 53.23 54.28 58.37 62.16 64.22 65.68 67.00 66.65 68.07 68.38 69.22 70.50 71.88 71.95 73.05 73.45 73.95 75.38 76.97 76.96 76.52 75.85 77.01 76.67 74.42 72.96 75.04 74.77 74.85 75.19 75.87 77.24 77.39 78.10 78.33 77.88 77.47 77.51 78.65 78.52 78.56 78.32
53.14 52.42 48.26 47.94 48.08 48.05 55.15 53.71 54.87 58.58 64.27 64.44 65.49 66.79 67.11 68.63 68.28 67.90 69.29 70.38 71.98 72.55 73.47 73.64 74.48 75.40 75.59 75.93 75.44 75.82 76.43 76.22 75.58 75.60 74.29 75.12 74.71 73.33 77.59 78.36 78.14 77.37 78.28 78.27 78.14 78.66 78.54 77.95 77.15
52.65 52.44 48.84 44.17 46.14 48.64 55.52 51.04 56.41 59.88 64.20 64.59 66.20 67.60 68.36 67.79 68.01 67.85 69.28 70.49 72.80 72.45 73.37 73.84 74.03 74.69 75.07 75.54 75.85 77.03 76.44 75.05 74.72 76.04 74.93 74.22 74.41 74.88 77.63 77.59 77.49 77.57 77.95 77.78 78.30 76.66 76.06 78.32 76.15
53.62 51.34 54.63 50.70 51.62 48.82 52.77 55.31 59.40 60.67 60.01 63.28 64.31 66.36 65.13 67.47 67.87 68.28 69.10 70.51 72.78 72.86 73.42 74.23 74.34 74.56 74.81 75.01 75.84 76.45 76.45 75.92 75.18 78.45 76.76 75.67 77.03 75.72 77.09 77.12 77.47 77.47 77.44 77.60 78.22 76.12 76.56 76.99 77.37
55.17 58.19 50.92 50.98 44.95 44.50 49.11 51.03 54.55 56.99 57.32 60.75 62.99 64.89 66.82 67.69 68.66 68.77 68.86 69.73 72.05 73.04 74.27 74.38 74.78 74.58 74.79 74.69 75.08 75.13 75.63 76.44 76.28 78.07 76.91 76.47 78.40 77.71 77.35 77.34 77.12 77.44 77.40 77.85 78.81 77.50 78.46 77.14 76.17
54.19 52.65 53.59 53.69 52.57 46.53 46.55 50.82 54.18 58.20 60.00 62.69 63.35 64.68 65.92 66.21 67.35 69.57 68.00 70.15 72.18 73.41 73.83 74.45 74.52 74.79 74.54 74.69 76.43 76.30 75.54 76.06 76.45 76.20 77.03 77.46 78.18 77.58 77.29 77.98 78.01 77.50 77.16 77.45 78.35 77.36 77.87 77.48 77.07
56.19 54.55 55.11 49.81 49.00 49.36 49.19 48.62 58.19 61.14 60.11 63.25 62.87 64.37 66.06 67.86 68.05 68.64 70.36 70.02 70.92 73.22 73.78 74.08 74.64 74.52 74.71 75.45 77.15 76.36 76.49 76.24 75.53 76.17 76.17 77.77 77.82 78.91 78.63 78.03 77.91 77.67 77.64 77.87 77.45 76.73 76.28 76.17 75.27

GFSSGP_sfc_wetblb_126.txt.gz
Wetbulb
72.42 70.01 74.10 72.78 62.43 60.85 55.91 57.05 61.09 58.98 60.81 64.35 64.70 62.94 61.11 63.34 60.26 55.37 69.53 70.04 71.09 71.24 73.06 74.78 76.13 74.80 75.02 74.93 74.14 75.47 76.41 76.50 76.04 76.29 76.46 76.82 76.96 76.97 76.75 76.55 76.92 76.76 76.90 77.24 76.83 77.11 76.94 77.00 76.92
68.62 71.57 73.29 68.33 58.12 54.57 55.52 60.47 59.45 61.50 64.99 66.58 65.57 63.46 62.51 61.17 66.12 67.59 68.21 71.10 71.79 71.93 72.73 73.61 75.82 75.20 75.16 75.46 75.34 75.92 76.26 76.65 76.38 76.60 76.61 76.86 76.85 76.63 76.28 76.56 77.03 77.06 76.95 77.18 76.97 77.17 77.18 77.06 77.03
71.07 73.66 68.39 61.26 57.44 54.03 55.54 60.44 61.34 63.95 64.44 63.27 63.43 65.17 63.68 63.05 66.84 67.39 69.89 70.85 71.48 71.80 73.10 74.62 76.95 75.87 75.40 75.61 75.78 76.19 76.47 76.80 76.62 76.36 76.56 76.76 76.75 76.30 76.48 76.65 76.96 76.92 76.98 77.11 77.11 77.31 77.23 77.09 76.61
70.40 70.74 69.20 59.42 56.95 59.67 60.09 61.80 62.98 63.92 65.73 65.70 64.20 61.36 65.62 69.08 67.14 68.56 70.67 70.76 71.84 72.29 73.64 76.61 77.08 76.30 75.43 76.00 76.16 76.26 76.43 76.27 77.10 77.38 76.40 76.98 77.00 76.55 76.99 76.54 76.85 76.94 77.02 76.88 77.14 76.85 76.66 76.43 75.96
71.35 68.06 59.55 56.45 58.15 61.03 62.88 63.90 64.05 63.32 63.48 63.79 63.95 60.82 63.35 67.92 69.67 69.79 70.64 72.12 71.26 71.43 74.01 75.43 77.66 77.37 76.42 76.62 76.01 76.21 76.35 76.74 76.64 76.87 77.03 76.79 77.34 76.91 76.90 76.96 77.08 77.16 77.10 76.13 75.71 76.21 76.51 75.99 75.59
66.03 62.26 53.93 56.53 57.67 61.39 63.59 65.23 64.86 64.01 63.46 64.29 63.56 62.58 63.67 68.70 69.27 70.21 70.32 72.26 72.24 71.39 73.05 74.89 77.25 77.16 76.58 76.69 76.51 76.76 76.65 76.79 76.85 77.40 76.84 76.85 77.64 77.34 76.90 76.85 77.22 77.05 77.21 77.12 76.02 75.16 75.27 75.21 74.38
63.50 59.44 55.71 57.88 57.76 60.53 62.93 65.67 63.49 63.25 63.20 62.73 66.29 61.13 64.45 66.86 69.32 70.50 69.73 71.02 72.31 73.25 72.33 73.88 74.81 76.07 76.75 76.87 76.53 76.14 76.54 76.63 76.75 76.86 77.19 76.80 76.90 76.55 76.82 76.88 77.22 77.08 76.97 76.88 76.76 76.31 75.35 74.52 73.24
68.33 60.90 57.89 58.50 56.05 58.78 64.33 64.61 66.45 64.12 62.99 67.80 67.47 61.40 61.62 67.32 69.95 70.57 70.48 71.21 70.77 71.77 72.28 72.94 74.26 74.21 74.61 74.97 76.40 76.40 77.02 76.39 76.92 77.17 76.87 76.90 76.19 76.58 76.71 77.54 77.14 76.47 76.47 76.69 76.71 76.40 76.12 75.40 75.04
70.16 60.80 56.93 57.83 58.72 59.89 65.14 63.86 65.43 66.36 63.74 65.95 66.21 66.14 67.60 68.66 69.85 68.86 69.09 70.14 70.17 70.57 72.54 72.24 73.44 75.19 75.66 75.55 76.02 76.65 77.18 77.09 76.93 76.60 76.88 76.85 73.96 75.02 75.50 76.96 76.41 75.93 75.91 76.16 76.57 76.76 76.58 76.22 75.89
66.19 58.75 58.96 62.61 62.63 58.14 61.20 64.27 63.76 63.68 63.14 64.81 65.31 67.73 68.15 68.59 68.54 67.77 68.01 67.76 69.54 70.30 69.63 71.58 72.52 73.89 74.55 73.57 75.98 76.54 76.34 75.15 75.15 75.70 75.83 75.70 74.52 75.74 75.17 75.77 76.04 75.78 76.21 76.32 76.94 77.13 76.83 76.88 75.22
65.95 61.02 64.66 64.89 64.75 63.76 63.72 63.85 66.67 63.39 61.96 64.34 65.01 65.75 67.16 67.58 67.97 67.51 68.05 67.96 70.13 69.05 69.63 70.02 74.26 73.06 73.20 74.81 75.29 73.67 73.64 74.87 75.13 77.65 74.76 75.50 72.99 72.82 72.78 74.22 74.33 74.75 76.32 74.46 76.01 75.62 74.93 74.53 75.13
62.98 65.36 65.65 65.85 65.46 63.75 59.01 63.71 63.54 64.20 63.41 67.10 67.46 67.43 67.24 67.12 67.07 67.06 67.63 67.42 70.21 70.91 70.41 72.04 72.43 69.93 70.16 75.18 73.58 75.17 73.89 73.49 73.43 76.58 77.00 77.07 74.40 75.66 74.24 74.23 74.72 74.84 75.06 75.21 74.78 74.98 75.95 75.55 75.82
64.10 64.97 65.05 67.13 65.37 63.15 62.54 61.23 62.44 64.29 66.97 67.91 67.79 67.90 66.92 67.39 67.50 68.38 68.92 68.64 70.22 69.85 71.81 73.34 73.70 69.76 71.28 74.20 72.62 74.14 74.48 73.25 73.61 74.95 76.36 74.87 74.11 74.63 76.06 75.65 75.36 75.16 73.32 75.54 75.38 76.20 75.59 75.55 74.91
64.87 64.89 66.02 66.38 64.98 64.03 61.41 63.38 62.30 65.60 66.82 66.16 66.71 66.67 67.65 67.52 67.47 68.50 69.27 69.14 69.81 70.86 71.37 73.77 74.17 76.54 76.13 74.13 78.48 75.13 71.87 72.80 74.12 76.42 77.26 76.87 74.92 77.06 75.74 76.21 76.03 73.64 75.69 74.39 76.65 77.63 77.25 75.61 73.64
66.01 62.68 65.35 65.56 65.99 64.29 64.99 59.94 61.18 65.01 66.92 65.00 65.61 66.67 67.72 68.15 68.41 68.37 69.03 69.44 70.16 71.68 72.65 74.10 74.01 75.03 77.08 78.23 77.83 73.39 71.21 74.53 74.75 73.32 79.08 77.95 76.58 78.57 77.83 76.16 76.38 76.85 77.75 77.94 76.68 76.83 76.55 73.95 73.98
61.17 61.27 57.95 64.81 65.38 65.50 64.10 56.66 59.80 64.67 65.58 64.51 65.08 66.26 67.12 67.87 67.41 69.15 69.26 69.81 71.67 71.71 73.40 74.08 73.03 74.64 74.86 76.56 77.86 78.46 71.56 74.95 75.08 75.21 76.79 77.32 78.61 78.27 78.38 76.46 74.81 76.75 78.20 77.15 75.84 75.86 74.87 74.11 72.85
59.28 54.04 56.07 57.95 66.08 64.50 62.74 56.39 61.91 63.08 65.37 64.31 65.26 65.52 66.55 67.21 68.04 69.07 69.61 70.27 71.43 72.48 73.57 74.15 72.84 73.87 76.46 77.06 77.58 75.12 75.30 72.59 72.76 72.33 75.83 78.60 78.05 78.23 78.83 75.14 76.91 79.09 77.15 75.54 77.15 75.27 75.30 74.14 73.13
53.99 55.43 57.29 57.45 63.60 63.66 60.80 60.51 60.07 63.98 64.95 64.99 65.43 65.87 66.45 66.76 67.45 68.85 69.04 70.28 71.39 73.28 74.04 74.70 73.65 74.76 72.75 76.37 77.91 73.69 76.20 72.11 74.12 73.95 77.29 78.50 78.53 78.13 79.01 74.02 77.92 79.29 74.84 72.66 73.35 78.57 75.42 76.60 74.44
56.01 56.10 57.09 61.05 63.12 61.74 60.61 60.69 63.55 65.02 64.56 64.96 63.16 64.85 65.82 67.03 68.80 69.49 69.59 70.34 71.39 72.59 73.11 74.89 72.77 73.88 74.17 75.87 74.33 71.79 75.35 74.99 73.04 71.32 78.56 78.49 78.03 79.00 79.99 78.49 78.91 70.79 67.85 72.61 72.57 76.48 76.19 75.49 75.40
55.34 54.49 54.05 59.72 62.34 59.98 59.37 60.18 63.57 65.52 64.18 64.54 61.68 62.12 65.32 67.12 67.18 69.47 69.80 69.84 70.03 72.24 73.04 74.83 74.90 75.60 73.62 75.47 76.46 76.16 72.81 74.94 73.53 76.37 77.74 77.82 78.15 79.92 79.17 77.64 76.27 71.53 68.25 71.45 70.97 69.34 72.64 72.98 75.07
54.43 53.10 54.40 56.23 60.95 61.50 59.00 57.25 59.37 64.94 66.19 65.51 65.95 65.59 65.92 65.75 66.78 68.68 69.68 69.80 70.88 71.64 72.70 74.06 75.08 75.87 77.02 77.09 73.51 75.42 76.75 74.22 70.65 75.41 75.69 76.81 77.36 78.66 77.61 78.76 77.74 73.23 73.52 75.64 70.44 68.76 71.83 68.81 70.38
50.30 55.29 54.81 54.80 53.80 50.71 59.40 47.87 57.68 61.49 63.88 65.02 64.65 65.43 65.12 66.66 68.87 68.33 69.49 68.79 70.61 71.79 73.35 74.34 75.83 75.94 76.77 77.63 77.69 74.37 74.20 72.13 74.34 76.48 77.38 76.94 76.27 77.97 77.77 79.31 79.35 78.95 77.19 73.04 76.42 76.09 66.38 67.18 67.83
52.36 55.26 54.48 54.16 52.81 52.84 55.58 53.17 55.65 61.24 60.71 63.13 65.16 66.06 67.64 67.24 66.99 68.58 67.18 70.43 70.61 72.33 72.85 74.70 75.85 76.01 76.34 76.84 77.78 75.99 76.35 75.93 75.20 71.18 77.53 78.85 79.20 79.21 76.15 78.43 79.53 78.67 78.29 78.28 78.16 77.50 77.40 76.58 75.02
54.63 52.89 52.72 54.18 53.58 48.03 52.81 52.69 52.43 57.45 60.69 63.06 65.46 66.38 67.61 66.75 66.53 68.60 68.10 71.35 71.28 71.47 72.35 74.20 75.30 75.29 76.59 76.54 76.03 76.92 76.11 75.27 70.04 74.70 72.32 75.81 76.29 76.36 77.63 78.83 79.97 80.02 79.20 78.54 77.94 78.96 79.13 78.49 78.31
52.48 49.78 45.82 45.58 46.50 46.35 55.41 51.83 56.01 60.42 60.82 63.72 64.47 66.42 67.32 66.53 67.13 68.41 67.70 68.01 70.87 71.13 72.41 73.62 74.83 74.06 75.66 75.38 75.78 75.52 77.15 75.82 74.47 74.17 73.34 75.43 76.12 76.13 76.99 78.94 79.29 78.81 79.91 79.64 79.00 79.46 79.20 78.27 78.14
52.10 50.20 46.26 43.29 45.08 47.52 55.20 49.97 54.46 62.14 63.83 64.01 63.39 64.77 67.63 68.09 67.93 68.37 67.71 68.22 69.81 72.22 72.21 73.39 74.32 74.45 74.43 75.49 76.13 77.05 77.03 76.02 75.52 76.60 75.93 75.87 76.60 72.43 73.59 76.85 79.26 78.95 79.23 78.96 78.99 78.48 77.42 76.93 77.43
51.56 50.51 53.22 48.66 50.38 47.67 51.12 56.29 60.10 60.34 59.26 59.88 63.61 66.55 67.17 68.26 69.00 67.52 69.67 69.64 70.02 72.76 73.05 73.25 74.41 74.77 75.38 74.74 75.54 76.15 76.88 76.18 75.79 75.83 77.87 77.61 80.08 76.81 76.51 77.80 78.42 78.34 78.50 78.55 78.68 77.52 77.21 77.31 77.91
52.88 56.29 50.70 50.33 44.43 43.13 48.32 51.11 51.40 56.02 58.37 62.44 63.33 64.66 65.68 68.90 69.48 66.99 70.10 68.07 71.20 72.81 72.22 74.23 74.86 74.51 74.95 74.86 74.94 74.83 74.78 76.51 76.67 78.59 78.63 78.42 79.54 79.17 78.97 78.73 77.95 77.70 78.33 78.86 78.52 77.28 76.96 76.67 76.77
53.13 51.36 53.14 52.50 51.45 46.24 45.50 48.19 57.23 57.31 59.61 62.10 62.76 60.94 66.20 67.14 68.98 69.48 68.94 68.00 68.31 71.30 73.83 74.25 74.21 74.66 74.64 74.80 75.40 75.13 74.99 75.94 76.49 75.42 77.09 77.28 77.95 79.01 77.70 77.79 78.22 77.82 78.06 77.80 77.51 77.78 76.87 76.68 76.36
54.51 52.73 54.16 48.37 47.79 50.83 49.98 49.74 59.86 60.51 60.38 63.63 59.91 61.53 66.05 65.40 64.89 68.01 67.41 68.01 68.39 69.91 72.48 74.00 74.08 74.62 74.65 75.06 76.13 75.44 76.04 76.18 74.94 76.13 76.86 76.89 76.34 78.38 78.39 78.95 78.54 77.83 77.42 77.54 77.17 76.18 75.97 76.47 75.95